<?xml version="1.0" encoding="UTF-8" standalone="no" ?>
<gpx xmlns="http://www.topografix.com/GPX/1/1" xmlns:xsi="http://www.w3.org/2001/XMLSchema-instance" xsi:schemaLocation="http://www.topografix.com/GPX/1/1 http://www.topografix.com/GPX/1/1/gpx.xsd" version="1.1" creator="VisuGPX - https://www.visugpx.com">
  <metadata>
    <name>Tour d'Europe étape 009 1</name>
  </metadata>
  <trk>
    <name><![CDATA[Tour d'Europe étape 009 1_1]]></name>
    <trkseg>
      <trkpt lat="52.79503" lon="6.63034">
        <ele>48.644</ele>
        <time>2020-07-07T07:58:39Z</time>
      </trkpt>
      <trkpt lat="52.79528" lon="6.63034">
        <ele>4.193</ele>
        <time>2020-07-07T07:58:44Z</time>
      </trkpt>
      <trkpt lat="52.79528" lon="6.63034">
        <ele>4.193</ele>
        <time>2020-07-07T07:58:49Z</time>
      </trkpt>
      <trkpt lat="52.79528" lon="6.63034">
        <ele>4.193</ele>
        <time>2020-07-07T07:58:55Z</time>
      </trkpt>
      <trkpt lat="52.79528" lon="6.63034">
        <ele>4.193</ele>
        <time>2020-07-07T07:59:00Z</time>
      </trkpt>
      <trkpt lat="52.79528" lon="6.63034">
        <ele>4.193</ele>
        <time>2020-07-07T07:59:05Z</time>
      </trkpt>
      <trkpt lat="52.79528" lon="6.63034">
        <ele>4.193</ele>
        <time>2020-07-07T07:59:11Z</time>
      </trkpt>
      <trkpt lat="52.79528" lon="6.63034">
        <ele>4.193</ele>
        <time>2020-07-07T07:59:17Z</time>
      </trkpt>
      <trkpt lat="52.79528" lon="6.63034">
        <ele>4.193</ele>
        <time>2020-07-07T07:59:23Z</time>
      </trkpt>
      <trkpt lat="52.79528" lon="6.63034">
        <ele>4.193</ele>
        <time>2020-07-07T07:59:29Z</time>
      </trkpt>
      <trkpt lat="52.79528" lon="6.63034">
        <ele>9.136</ele>
        <time>2020-07-07T07:59:35Z</time>
      </trkpt>
      <trkpt lat="52.7952" lon="6.63034">
        <ele>17.679</ele>
        <time>2020-07-07T07:59:40Z</time>
      </trkpt>
      <trkpt lat="52.79515" lon="6.63029">
        <ele>26.747</ele>
        <time>2020-07-07T07:59:46Z</time>
      </trkpt>
      <trkpt lat="52.79515" lon="6.63029">
        <ele>26.747</ele>
        <time>2020-07-07T07:59:52Z</time>
      </trkpt>
      <trkpt lat="52.79515" lon="6.63029">
        <ele>26.747</ele>
        <time>2020-07-07T07:59:57Z</time>
      </trkpt>
      <trkpt lat="52.79515" lon="6.63029">
        <ele>26.747</ele>
        <time>2020-07-07T08:00:02Z</time>
      </trkpt>
      <trkpt lat="52.79515" lon="6.63029">
        <ele>26.747</ele>
        <time>2020-07-07T08:00:08Z</time>
      </trkpt>
      <trkpt lat="52.79515" lon="6.63029">
        <ele>26.747</ele>
        <time>2020-07-07T08:00:14Z</time>
      </trkpt>
      <trkpt lat="52.79515" lon="6.63029">
        <ele>26.747</ele>
        <time>2020-07-07T08:00:19Z</time>
      </trkpt>
      <trkpt lat="52.79515" lon="6.63029">
        <ele>26.747</ele>
        <time>2020-07-07T08:00:24Z</time>
      </trkpt>
      <trkpt lat="52.79515" lon="6.63029">
        <ele>26.747</ele>
        <time>2020-07-07T08:00:30Z</time>
      </trkpt>
      <trkpt lat="52.79515" lon="6.63029">
        <ele>26.747</ele>
        <time>2020-07-07T08:00:36Z</time>
      </trkpt>
      <trkpt lat="52.79515" lon="6.63029">
        <ele>26.747</ele>
        <time>2020-07-07T08:00:42Z</time>
      </trkpt>
      <trkpt lat="52.79515" lon="6.63029">
        <ele>26.747</ele>
        <time>2020-07-07T08:00:48Z</time>
      </trkpt>
      <trkpt lat="52.79515" lon="6.63029">
        <ele>26.747</ele>
        <time>2020-07-07T08:00:53Z</time>
      </trkpt>
      <trkpt lat="52.79515" lon="6.63029">
        <ele>26.747</ele>
        <time>2020-07-07T08:00:59Z</time>
      </trkpt>
      <trkpt lat="52.79515" lon="6.63029">
        <ele>26.747</ele>
        <time>2020-07-07T08:01:05Z</time>
      </trkpt>
      <trkpt lat="52.79515" lon="6.63029">
        <ele>26.747</ele>
        <time>2020-07-07T08:01:11Z</time>
      </trkpt>
      <trkpt lat="52.79515" lon="6.63029">
        <ele>26.747</ele>
        <time>2020-07-07T08:01:16Z</time>
      </trkpt>
      <trkpt lat="52.79515" lon="6.63029">
        <ele>26.747</ele>
        <time>2020-07-07T08:01:21Z</time>
      </trkpt>
      <trkpt lat="52.79515" lon="6.63029">
        <ele>26.747</ele>
        <time>2020-07-07T08:01:27Z</time>
      </trkpt>
      <trkpt lat="52.79515" lon="6.63029">
        <ele>26.747</ele>
        <time>2020-07-07T08:01:32Z</time>
      </trkpt>
      <trkpt lat="52.79515" lon="6.63029">
        <ele>32.001</ele>
        <time>2020-07-07T08:01:38Z</time>
      </trkpt>
      <trkpt lat="52.79515" lon="6.63029">
        <ele>39.191</ele>
        <time>2020-07-07T08:01:43Z</time>
      </trkpt>
      <trkpt lat="52.79493" lon="6.63001">
        <ele>45.046</ele>
        <time>2020-07-07T08:01:49Z</time>
      </trkpt>
      <trkpt lat="52.79484" lon="6.62986">
        <ele>50.535</ele>
        <time>2020-07-07T08:01:55Z</time>
      </trkpt>
      <trkpt lat="52.79472" lon="6.62984">
        <ele>55.857</ele>
        <time>2020-07-07T08:02:00Z</time>
      </trkpt>
      <trkpt lat="52.79465" lon="6.62971">
        <ele>60.743</ele>
        <time>2020-07-07T08:02:06Z</time>
      </trkpt>
      <trkpt lat="52.79458" lon="6.62962">
        <ele>61.364</ele>
        <time>2020-07-07T08:02:11Z</time>
      </trkpt>
      <trkpt lat="52.79462" lon="6.62954">
        <ele>65.348</ele>
        <time>2020-07-07T08:02:17Z</time>
      </trkpt>
      <trkpt lat="52.79471" lon="6.62947">
        <ele>66.858</ele>
        <time>2020-07-07T08:02:23Z</time>
      </trkpt>
      <trkpt lat="52.79485" lon="6.62936">
        <ele>67.796</ele>
        <time>2020-07-07T08:02:29Z</time>
      </trkpt>
      <trkpt lat="52.795" lon="6.62926">
        <ele>68.003</ele>
        <time>2020-07-07T08:02:34Z</time>
      </trkpt>
      <trkpt lat="52.79515" lon="6.62908">
        <ele>67.62</ele>
        <time>2020-07-07T08:02:40Z</time>
      </trkpt>
      <trkpt lat="52.79534" lon="6.62908">
        <ele>68.073</ele>
        <time>2020-07-07T08:02:46Z</time>
      </trkpt>
      <trkpt lat="52.79552" lon="6.62899">
        <ele>68.653</ele>
        <time>2020-07-07T08:02:51Z</time>
      </trkpt>
      <trkpt lat="52.79571" lon="6.62889">
        <ele>68.506</ele>
        <time>2020-07-07T08:02:56Z</time>
      </trkpt>
      <trkpt lat="52.79594" lon="6.62875">
        <ele>65.734</ele>
        <time>2020-07-07T08:03:02Z</time>
      </trkpt>
      <trkpt lat="52.79612" lon="6.62859">
        <ele>64.616</ele>
        <time>2020-07-07T08:03:07Z</time>
      </trkpt>
      <trkpt lat="52.79631" lon="6.62845">
        <ele>62.852</ele>
        <time>2020-07-07T08:03:12Z</time>
      </trkpt>
      <trkpt lat="52.7965" lon="6.62836">
        <ele>61.782</ele>
        <time>2020-07-07T08:03:17Z</time>
      </trkpt>
      <trkpt lat="52.79673" lon="6.62832">
        <ele>62.477</ele>
        <time>2020-07-07T08:03:23Z</time>
      </trkpt>
      <trkpt lat="52.79695" lon="6.62832">
        <ele>62.448</ele>
        <time>2020-07-07T08:03:28Z</time>
      </trkpt>
      <trkpt lat="52.79717" lon="6.62832">
        <ele>61.504</ele>
        <time>2020-07-07T08:03:33Z</time>
      </trkpt>
      <trkpt lat="52.79743" lon="6.62832">
        <ele>60.287</ele>
        <time>2020-07-07T08:03:39Z</time>
      </trkpt>
      <trkpt lat="52.7977" lon="6.62832">
        <ele>59.397</ele>
        <time>2020-07-07T08:03:45Z</time>
      </trkpt>
      <trkpt lat="52.79796" lon="6.62834">
        <ele>57.273</ele>
        <time>2020-07-07T08:03:51Z</time>
      </trkpt>
      <trkpt lat="52.79818" lon="6.62834">
        <ele>56.874</ele>
        <time>2020-07-07T08:03:56Z</time>
      </trkpt>
      <trkpt lat="52.79839" lon="6.62836">
        <ele>56.906</ele>
        <time>2020-07-07T08:04:01Z</time>
      </trkpt>
      <trkpt lat="52.7986" lon="6.62837">
        <ele>57.418</ele>
        <time>2020-07-07T08:04:06Z</time>
      </trkpt>
      <trkpt lat="52.79884" lon="6.62839">
        <ele>57.581</ele>
        <time>2020-07-07T08:04:12Z</time>
      </trkpt>
      <trkpt lat="52.79908" lon="6.62838">
        <ele>55.855</ele>
        <time>2020-07-07T08:04:17Z</time>
      </trkpt>
      <trkpt lat="52.79937" lon="6.62839">
        <ele>54.71</ele>
        <time>2020-07-07T08:04:23Z</time>
      </trkpt>
      <trkpt lat="52.79958" lon="6.62842">
        <ele>55.99</ele>
        <time>2020-07-07T08:04:28Z</time>
      </trkpt>
      <trkpt lat="52.79985" lon="6.62845">
        <ele>56.083</ele>
        <time>2020-07-07T08:04:34Z</time>
      </trkpt>
      <trkpt lat="52.80009" lon="6.62846">
        <ele>57.485</ele>
        <time>2020-07-07T08:04:39Z</time>
      </trkpt>
      <trkpt lat="52.80032" lon="6.62847">
        <ele>59.355</ele>
        <time>2020-07-07T08:04:44Z</time>
      </trkpt>
      <trkpt lat="52.80066" lon="6.62847">
        <ele>59.649</ele>
        <time>2020-07-07T08:04:50Z</time>
      </trkpt>
      <trkpt lat="52.80094" lon="6.62845">
        <ele>60.479</ele>
        <time>2020-07-07T08:04:55Z</time>
      </trkpt>
      <trkpt lat="52.80124" lon="6.62847">
        <ele>60.613</ele>
        <time>2020-07-07T08:05:01Z</time>
      </trkpt>
      <trkpt lat="52.80148" lon="6.62848">
        <ele>60.951</ele>
        <time>2020-07-07T08:05:06Z</time>
      </trkpt>
      <trkpt lat="52.80177" lon="6.62851">
        <ele>62.353</ele>
        <time>2020-07-07T08:05:12Z</time>
      </trkpt>
      <trkpt lat="52.80205" lon="6.62852">
        <ele>62.757</ele>
        <time>2020-07-07T08:05:18Z</time>
      </trkpt>
      <trkpt lat="52.80231" lon="6.62855">
        <ele>63.137</ele>
        <time>2020-07-07T08:05:23Z</time>
      </trkpt>
      <trkpt lat="52.80257" lon="6.62856">
        <ele>62.228</ele>
        <time>2020-07-07T08:05:28Z</time>
      </trkpt>
      <trkpt lat="52.80287" lon="6.62857">
        <ele>61.608</ele>
        <time>2020-07-07T08:05:34Z</time>
      </trkpt>
      <trkpt lat="52.80312" lon="6.62858">
        <ele>61.065</ele>
        <time>2020-07-07T08:05:39Z</time>
      </trkpt>
      <trkpt lat="52.80341" lon="6.62859">
        <ele>61.335</ele>
        <time>2020-07-07T08:05:45Z</time>
      </trkpt>
      <trkpt lat="52.80366" lon="6.62859">
        <ele>61.076</ele>
        <time>2020-07-07T08:05:50Z</time>
      </trkpt>
      <trkpt lat="52.80393" lon="6.62858">
        <ele>59.942</ele>
        <time>2020-07-07T08:05:56Z</time>
      </trkpt>
      <trkpt lat="52.80416" lon="6.62859">
        <ele>59.028</ele>
        <time>2020-07-07T08:06:01Z</time>
      </trkpt>
      <trkpt lat="52.80445" lon="6.62865">
        <ele>58.811</ele>
        <time>2020-07-07T08:06:07Z</time>
      </trkpt>
      <trkpt lat="52.80469" lon="6.62865">
        <ele>58.044</ele>
        <time>2020-07-07T08:06:12Z</time>
      </trkpt>
      <trkpt lat="52.80498" lon="6.62863">
        <ele>57.562</ele>
        <time>2020-07-07T08:06:18Z</time>
      </trkpt>
      <trkpt lat="52.80523" lon="6.62864">
        <ele>55.766</ele>
        <time>2020-07-07T08:06:23Z</time>
      </trkpt>
      <trkpt lat="52.8055" lon="6.62864">
        <ele>55.068</ele>
        <time>2020-07-07T08:06:29Z</time>
      </trkpt>
      <trkpt lat="52.8058" lon="6.62874">
        <ele>54.279</ele>
        <time>2020-07-07T08:06:35Z</time>
      </trkpt>
      <trkpt lat="52.80609" lon="6.62881">
        <ele>54.369</ele>
        <time>2020-07-07T08:06:41Z</time>
      </trkpt>
      <trkpt lat="52.80637" lon="6.62889">
        <ele>54.221</ele>
        <time>2020-07-07T08:06:47Z</time>
      </trkpt>
      <trkpt lat="52.80662" lon="6.62892">
        <ele>52.198</ele>
        <time>2020-07-07T08:06:52Z</time>
      </trkpt>
      <trkpt lat="52.80692" lon="6.62898">
        <ele>52.576</ele>
        <time>2020-07-07T08:06:58Z</time>
      </trkpt>
      <trkpt lat="52.80716" lon="6.62906">
        <ele>54.784</ele>
        <time>2020-07-07T08:07:03Z</time>
      </trkpt>
      <trkpt lat="52.80743" lon="6.62916">
        <ele>55.848</ele>
        <time>2020-07-07T08:07:09Z</time>
      </trkpt>
      <trkpt lat="52.8077" lon="6.62925">
        <ele>57.518</ele>
        <time>2020-07-07T08:07:15Z</time>
      </trkpt>
      <trkpt lat="52.80797" lon="6.62935">
        <ele>59.309</ele>
        <time>2020-07-07T08:07:21Z</time>
      </trkpt>
      <trkpt lat="52.80823" lon="6.62946">
        <ele>59.251</ele>
        <time>2020-07-07T08:07:27Z</time>
      </trkpt>
      <trkpt lat="52.80848" lon="6.62959">
        <ele>59.501</ele>
        <time>2020-07-07T08:07:33Z</time>
      </trkpt>
      <trkpt lat="52.80874" lon="6.62971">
        <ele>59.303</ele>
        <time>2020-07-07T08:07:39Z</time>
      </trkpt>
      <trkpt lat="52.80899" lon="6.62983">
        <ele>59.679</ele>
        <time>2020-07-07T08:07:45Z</time>
      </trkpt>
      <trkpt lat="52.80922" lon="6.62995">
        <ele>60.138</ele>
        <time>2020-07-07T08:07:50Z</time>
      </trkpt>
      <trkpt lat="52.80947" lon="6.62999">
        <ele>60.37</ele>
        <time>2020-07-07T08:07:56Z</time>
      </trkpt>
      <trkpt lat="52.80966" lon="6.62989">
        <ele>61.072</ele>
        <time>2020-07-07T08:08:01Z</time>
      </trkpt>
      <trkpt lat="52.80984" lon="6.62972">
        <ele>61.384</ele>
        <time>2020-07-07T08:08:06Z</time>
      </trkpt>
      <trkpt lat="52.81003" lon="6.62957">
        <ele>61.737</ele>
        <time>2020-07-07T08:08:11Z</time>
      </trkpt>
      <trkpt lat="52.81023" lon="6.62935">
        <ele>61.889</ele>
        <time>2020-07-07T08:08:17Z</time>
      </trkpt>
      <trkpt lat="52.81043" lon="6.62917">
        <ele>61.916</ele>
        <time>2020-07-07T08:08:22Z</time>
      </trkpt>
      <trkpt lat="52.81065" lon="6.62896">
        <ele>62.304</ele>
        <time>2020-07-07T08:08:27Z</time>
      </trkpt>
      <trkpt lat="52.81084" lon="6.62877">
        <ele>63.128</ele>
        <time>2020-07-07T08:08:32Z</time>
      </trkpt>
      <trkpt lat="52.81102" lon="6.62864">
        <ele>63.327</ele>
        <time>2020-07-07T08:08:37Z</time>
      </trkpt>
      <trkpt lat="52.81124" lon="6.6287">
        <ele>65.363</ele>
        <time>2020-07-07T08:08:43Z</time>
      </trkpt>
      <trkpt lat="52.81138" lon="6.6289">
        <ele>68.544</ele>
        <time>2020-07-07T08:08:48Z</time>
      </trkpt>
      <trkpt lat="52.81156" lon="6.62924">
        <ele>67.175</ele>
        <time>2020-07-07T08:08:54Z</time>
      </trkpt>
      <trkpt lat="52.81177" lon="6.6295">
        <ele>64.757</ele>
        <time>2020-07-07T08:09:00Z</time>
      </trkpt>
      <trkpt lat="52.812" lon="6.62961">
        <ele>62.657</ele>
        <time>2020-07-07T08:09:06Z</time>
      </trkpt>
      <trkpt lat="52.81217" lon="6.62951">
        <ele>61.283</ele>
        <time>2020-07-07T08:09:11Z</time>
      </trkpt>
      <trkpt lat="52.81228" lon="6.62938">
        <ele>60.964</ele>
        <time>2020-07-07T08:09:16Z</time>
      </trkpt>
      <trkpt lat="52.81251" lon="6.62913">
        <ele>60.374</ele>
        <time>2020-07-07T08:09:22Z</time>
      </trkpt>
      <trkpt lat="52.81267" lon="6.62899">
        <ele>59.692</ele>
        <time>2020-07-07T08:09:27Z</time>
      </trkpt>
      <trkpt lat="52.81289" lon="6.62882">
        <ele>58.392</ele>
        <time>2020-07-07T08:09:33Z</time>
      </trkpt>
      <trkpt lat="52.81311" lon="6.62873">
        <ele>58.362</ele>
        <time>2020-07-07T08:09:38Z</time>
      </trkpt>
      <trkpt lat="52.81337" lon="6.62867">
        <ele>56.621</ele>
        <time>2020-07-07T08:09:44Z</time>
      </trkpt>
      <trkpt lat="52.81364" lon="6.62859">
        <ele>57.716</ele>
        <time>2020-07-07T08:09:50Z</time>
      </trkpt>
      <trkpt lat="52.81392" lon="6.6285">
        <ele>57.273</ele>
        <time>2020-07-07T08:09:56Z</time>
      </trkpt>
      <trkpt lat="52.81421" lon="6.6284">
        <ele>56.927</ele>
        <time>2020-07-07T08:10:02Z</time>
      </trkpt>
      <trkpt lat="52.81445" lon="6.62833">
        <ele>56.971</ele>
        <time>2020-07-07T08:10:08Z</time>
      </trkpt>
      <trkpt lat="52.81467" lon="6.6283">
        <ele>57.938</ele>
        <time>2020-07-07T08:10:13Z</time>
      </trkpt>
      <trkpt lat="52.8149" lon="6.62823">
        <ele>58.869</ele>
        <time>2020-07-07T08:10:18Z</time>
      </trkpt>
      <trkpt lat="52.81516" lon="6.62816">
        <ele>58.602</ele>
        <time>2020-07-07T08:10:24Z</time>
      </trkpt>
      <trkpt lat="52.81544" lon="6.62808">
        <ele>59.363</ele>
        <time>2020-07-07T08:10:30Z</time>
      </trkpt>
      <trkpt lat="52.81566" lon="6.62801">
        <ele>59.643</ele>
        <time>2020-07-07T08:10:35Z</time>
      </trkpt>
      <trkpt lat="52.81592" lon="6.62793">
        <ele>59.965</ele>
        <time>2020-07-07T08:10:41Z</time>
      </trkpt>
      <trkpt lat="52.81614" lon="6.62785">
        <ele>60.898</ele>
        <time>2020-07-07T08:10:46Z</time>
      </trkpt>
      <trkpt lat="52.8164" lon="6.62775">
        <ele>62.506</ele>
        <time>2020-07-07T08:10:52Z</time>
      </trkpt>
      <trkpt lat="52.81666" lon="6.6276">
        <ele>62.484</ele>
        <time>2020-07-07T08:10:58Z</time>
      </trkpt>
      <trkpt lat="52.81692" lon="6.62745">
        <ele>62.65</ele>
        <time>2020-07-07T08:11:04Z</time>
      </trkpt>
      <trkpt lat="52.81712" lon="6.62731">
        <ele>62.548</ele>
        <time>2020-07-07T08:11:09Z</time>
      </trkpt>
      <trkpt lat="52.81735" lon="6.62717">
        <ele>62.078</ele>
        <time>2020-07-07T08:11:15Z</time>
      </trkpt>
      <trkpt lat="52.81761" lon="6.62701">
        <ele>59.835</ele>
        <time>2020-07-07T08:11:21Z</time>
      </trkpt>
      <trkpt lat="52.81784" lon="6.62684">
        <ele>59.309</ele>
        <time>2020-07-07T08:11:27Z</time>
      </trkpt>
      <trkpt lat="52.81805" lon="6.6267">
        <ele>59.174</ele>
        <time>2020-07-07T08:11:32Z</time>
      </trkpt>
      <trkpt lat="52.81827" lon="6.62652">
        <ele>58.357</ele>
        <time>2020-07-07T08:11:38Z</time>
      </trkpt>
      <trkpt lat="52.81842" lon="6.6264">
        <ele>58.443</ele>
        <time>2020-07-07T08:11:43Z</time>
      </trkpt>
      <trkpt lat="52.81863" lon="6.62622">
        <ele>57.995</ele>
        <time>2020-07-07T08:11:49Z</time>
      </trkpt>
      <trkpt lat="52.81888" lon="6.62603">
        <ele>58.277</ele>
        <time>2020-07-07T08:11:55Z</time>
      </trkpt>
      <trkpt lat="52.81909" lon="6.62586">
        <ele>58.193</ele>
        <time>2020-07-07T08:12:00Z</time>
      </trkpt>
      <trkpt lat="52.81935" lon="6.62563">
        <ele>61.577</ele>
        <time>2020-07-07T08:12:06Z</time>
      </trkpt>
      <trkpt lat="52.81954" lon="6.62533">
        <ele>61.442</ele>
        <time>2020-07-07T08:12:12Z</time>
      </trkpt>
      <trkpt lat="52.81968" lon="6.62501">
        <ele>61.199</ele>
        <time>2020-07-07T08:12:18Z</time>
      </trkpt>
      <trkpt lat="52.81981" lon="6.62468">
        <ele>60.179</ele>
        <time>2020-07-07T08:12:23Z</time>
      </trkpt>
      <trkpt lat="52.81998" lon="6.62429">
        <ele>61.146</ele>
        <time>2020-07-07T08:12:29Z</time>
      </trkpt>
      <trkpt lat="52.82011" lon="6.62396">
        <ele>60.976</ele>
        <time>2020-07-07T08:12:34Z</time>
      </trkpt>
      <trkpt lat="52.82028" lon="6.62364">
        <ele>62.07</ele>
        <time>2020-07-07T08:12:40Z</time>
      </trkpt>
      <trkpt lat="52.82043" lon="6.62342">
        <ele>61.648</ele>
        <time>2020-07-07T08:12:45Z</time>
      </trkpt>
      <trkpt lat="52.82061" lon="6.62318">
        <ele>60.783</ele>
        <time>2020-07-07T08:12:51Z</time>
      </trkpt>
      <trkpt lat="52.82076" lon="6.62304">
        <ele>58.684</ele>
        <time>2020-07-07T08:12:57Z</time>
      </trkpt>
      <trkpt lat="52.82076" lon="6.62294">
        <ele>57.349</ele>
        <time>2020-07-07T08:13:02Z</time>
      </trkpt>
      <trkpt lat="52.82072" lon="6.62305">
        <ele>57.565</ele>
        <time>2020-07-07T08:13:07Z</time>
      </trkpt>
      <trkpt lat="52.82061" lon="6.62319">
        <ele>56.905</ele>
        <time>2020-07-07T08:13:13Z</time>
      </trkpt>
      <trkpt lat="52.82053" lon="6.62331">
        <ele>57.835</ele>
        <time>2020-07-07T08:13:18Z</time>
      </trkpt>
      <trkpt lat="52.82044" lon="6.62346">
        <ele>58.881</ele>
        <time>2020-07-07T08:13:23Z</time>
      </trkpt>
      <trkpt lat="52.82044" lon="6.62373">
        <ele>61.208</ele>
        <time>2020-07-07T08:13:29Z</time>
      </trkpt>
      <trkpt lat="52.82054" lon="6.62404">
        <ele>62.698</ele>
        <time>2020-07-07T08:13:35Z</time>
      </trkpt>
      <trkpt lat="52.82062" lon="6.62432">
        <ele>65.19</ele>
        <time>2020-07-07T08:13:40Z</time>
      </trkpt>
      <trkpt lat="52.82076" lon="6.62467">
        <ele>67.638</ele>
        <time>2020-07-07T08:13:46Z</time>
      </trkpt>
      <trkpt lat="52.82085" lon="6.62504">
        <ele>70.19</ele>
        <time>2020-07-07T08:13:52Z</time>
      </trkpt>
      <trkpt lat="52.82095" lon="6.62536">
        <ele>73.465</ele>
        <time>2020-07-07T08:13:57Z</time>
      </trkpt>
      <trkpt lat="52.82108" lon="6.62572">
        <ele>75.538</ele>
        <time>2020-07-07T08:14:03Z</time>
      </trkpt>
      <trkpt lat="52.8212" lon="6.62609">
        <ele>73.064</ele>
        <time>2020-07-07T08:14:08Z</time>
      </trkpt>
      <trkpt lat="52.82128" lon="6.62649">
        <ele>70.434</ele>
        <time>2020-07-07T08:14:13Z</time>
      </trkpt>
      <trkpt lat="52.8213" lon="6.62696">
        <ele>67.847</ele>
        <time>2020-07-07T08:14:19Z</time>
      </trkpt>
      <trkpt lat="52.82131" lon="6.62738">
        <ele>66.281</ele>
        <time>2020-07-07T08:14:25Z</time>
      </trkpt>
      <trkpt lat="52.82132" lon="6.62782">
        <ele>64.14</ele>
        <time>2020-07-07T08:14:31Z</time>
      </trkpt>
      <trkpt lat="52.82133" lon="6.6282">
        <ele>62.693</ele>
        <time>2020-07-07T08:14:36Z</time>
      </trkpt>
      <trkpt lat="52.8213" lon="6.62857">
        <ele>62.214</ele>
        <time>2020-07-07T08:14:41Z</time>
      </trkpt>
      <trkpt lat="52.82124" lon="6.629">
        <ele>62.239</ele>
        <time>2020-07-07T08:14:47Z</time>
      </trkpt>
      <trkpt lat="52.82117" lon="6.62941">
        <ele>61.677</ele>
        <time>2020-07-07T08:14:53Z</time>
      </trkpt>
      <trkpt lat="52.8211" lon="6.62981">
        <ele>61.037</ele>
        <time>2020-07-07T08:14:59Z</time>
      </trkpt>
      <trkpt lat="52.82105" lon="6.63014">
        <ele>60.381</ele>
        <time>2020-07-07T08:15:04Z</time>
      </trkpt>
      <trkpt lat="52.82099" lon="6.63049">
        <ele>59.702</ele>
        <time>2020-07-07T08:15:09Z</time>
      </trkpt>
      <trkpt lat="52.82093" lon="6.63087">
        <ele>58.229</ele>
        <time>2020-07-07T08:15:15Z</time>
      </trkpt>
      <trkpt lat="52.82088" lon="6.63119">
        <ele>58.14</ele>
        <time>2020-07-07T08:15:20Z</time>
      </trkpt>
      <trkpt lat="52.82083" lon="6.6316">
        <ele>58.887</ele>
        <time>2020-07-07T08:15:26Z</time>
      </trkpt>
      <trkpt lat="52.82076" lon="6.63201">
        <ele>60.065</ele>
        <time>2020-07-07T08:15:32Z</time>
      </trkpt>
      <trkpt lat="52.8207" lon="6.6324">
        <ele>60.422</ele>
        <time>2020-07-07T08:15:37Z</time>
      </trkpt>
      <trkpt lat="52.82062" lon="6.6328">
        <ele>60.71</ele>
        <time>2020-07-07T08:15:43Z</time>
      </trkpt>
      <trkpt lat="52.82055" lon="6.63325">
        <ele>61.403</ele>
        <time>2020-07-07T08:15:49Z</time>
      </trkpt>
      <trkpt lat="52.82051" lon="6.63361">
        <ele>61.657</ele>
        <time>2020-07-07T08:15:54Z</time>
      </trkpt>
      <trkpt lat="52.82043" lon="6.63404">
        <ele>63.88</ele>
        <time>2020-07-07T08:16:00Z</time>
      </trkpt>
      <trkpt lat="52.82038" lon="6.63441">
        <ele>64.899</ele>
        <time>2020-07-07T08:16:05Z</time>
      </trkpt>
      <trkpt lat="52.82032" lon="6.63482">
        <ele>64.943</ele>
        <time>2020-07-07T08:16:11Z</time>
      </trkpt>
      <trkpt lat="52.82026" lon="6.6352">
        <ele>64.877</ele>
        <time>2020-07-07T08:16:17Z</time>
      </trkpt>
      <trkpt lat="52.82018" lon="6.63561">
        <ele>64.675</ele>
        <time>2020-07-07T08:16:23Z</time>
      </trkpt>
      <trkpt lat="52.82011" lon="6.63598">
        <ele>64.932</ele>
        <time>2020-07-07T08:16:29Z</time>
      </trkpt>
      <trkpt lat="52.82005" lon="6.63638">
        <ele>65.309</ele>
        <time>2020-07-07T08:16:35Z</time>
      </trkpt>
      <trkpt lat="52.81997" lon="6.63679">
        <ele>65.347</ele>
        <time>2020-07-07T08:16:41Z</time>
      </trkpt>
      <trkpt lat="52.8199" lon="6.63721">
        <ele>65.397</ele>
        <time>2020-07-07T08:16:47Z</time>
      </trkpt>
      <trkpt lat="52.81983" lon="6.63763">
        <ele>65.255</ele>
        <time>2020-07-07T08:16:53Z</time>
      </trkpt>
      <trkpt lat="52.81979" lon="6.63796">
        <ele>62.741</ele>
        <time>2020-07-07T08:16:58Z</time>
      </trkpt>
      <trkpt lat="52.8197" lon="6.63838">
        <ele>60.835</ele>
        <time>2020-07-07T08:17:04Z</time>
      </trkpt>
      <trkpt lat="52.81963" lon="6.63873">
        <ele>59.128</ele>
        <time>2020-07-07T08:17:09Z</time>
      </trkpt>
      <trkpt lat="52.81956" lon="6.63907">
        <ele>58.063</ele>
        <time>2020-07-07T08:17:14Z</time>
      </trkpt>
      <trkpt lat="52.81951" lon="6.63951">
        <ele>59.241</ele>
        <time>2020-07-07T08:17:20Z</time>
      </trkpt>
      <trkpt lat="52.81945" lon="6.63992">
        <ele>59.365</ele>
        <time>2020-07-07T08:17:26Z</time>
      </trkpt>
      <trkpt lat="52.81938" lon="6.64027">
        <ele>57.918</ele>
        <time>2020-07-07T08:17:31Z</time>
      </trkpt>
      <trkpt lat="52.81929" lon="6.64069">
        <ele>57.786</ele>
        <time>2020-07-07T08:17:37Z</time>
      </trkpt>
      <trkpt lat="52.81921" lon="6.64113">
        <ele>58.536</ele>
        <time>2020-07-07T08:17:43Z</time>
      </trkpt>
      <trkpt lat="52.81914" lon="6.64153">
        <ele>59.073</ele>
        <time>2020-07-07T08:17:49Z</time>
      </trkpt>
      <trkpt lat="52.81907" lon="6.64188">
        <ele>59.875</ele>
        <time>2020-07-07T08:17:54Z</time>
      </trkpt>
      <trkpt lat="52.81899" lon="6.64232">
        <ele>61.219</ele>
        <time>2020-07-07T08:18:00Z</time>
      </trkpt>
      <trkpt lat="52.81893" lon="6.64273">
        <ele>61.857</ele>
        <time>2020-07-07T08:18:06Z</time>
      </trkpt>
      <trkpt lat="52.81885" lon="6.64313">
        <ele>62.786</ele>
        <time>2020-07-07T08:18:12Z</time>
      </trkpt>
      <trkpt lat="52.81877" lon="6.64342">
        <ele>63.043</ele>
        <time>2020-07-07T08:18:17Z</time>
      </trkpt>
      <trkpt lat="52.8187" lon="6.64378">
        <ele>61.952</ele>
        <time>2020-07-07T08:18:23Z</time>
      </trkpt>
      <trkpt lat="52.81863" lon="6.64406">
        <ele>60.465</ele>
        <time>2020-07-07T08:18:28Z</time>
      </trkpt>
      <trkpt lat="52.81853" lon="6.64448">
        <ele>58.958</ele>
        <time>2020-07-07T08:18:34Z</time>
      </trkpt>
      <trkpt lat="52.81844" lon="6.64485">
        <ele>59.133</ele>
        <time>2020-07-07T08:18:39Z</time>
      </trkpt>
      <trkpt lat="52.81835" lon="6.64526">
        <ele>57.661</ele>
        <time>2020-07-07T08:18:45Z</time>
      </trkpt>
      <trkpt lat="52.81826" lon="6.64563">
        <ele>58.204</ele>
        <time>2020-07-07T08:18:50Z</time>
      </trkpt>
      <trkpt lat="52.81817" lon="6.64605">
        <ele>56.706</ele>
        <time>2020-07-07T08:18:56Z</time>
      </trkpt>
      <trkpt lat="52.8181" lon="6.64639">
        <ele>59.897</ele>
        <time>2020-07-07T08:19:01Z</time>
      </trkpt>
      <trkpt lat="52.818" lon="6.6468">
        <ele>61.642</ele>
        <time>2020-07-07T08:19:07Z</time>
      </trkpt>
      <trkpt lat="52.81793" lon="6.64713">
        <ele>61.396</ele>
        <time>2020-07-07T08:19:12Z</time>
      </trkpt>
      <trkpt lat="52.81785" lon="6.64747">
        <ele>60.537</ele>
        <time>2020-07-07T08:19:18Z</time>
      </trkpt>
      <trkpt lat="52.81777" lon="6.64781">
        <ele>61.713</ele>
        <time>2020-07-07T08:19:23Z</time>
      </trkpt>
      <trkpt lat="52.81767" lon="6.64819">
        <ele>61.644</ele>
        <time>2020-07-07T08:19:29Z</time>
      </trkpt>
      <trkpt lat="52.81759" lon="6.6486">
        <ele>62.838</ele>
        <time>2020-07-07T08:19:35Z</time>
      </trkpt>
      <trkpt lat="52.81749" lon="6.64894">
        <ele>62.392</ele>
        <time>2020-07-07T08:19:40Z</time>
      </trkpt>
      <trkpt lat="52.81742" lon="6.64926">
        <ele>61.291</ele>
        <time>2020-07-07T08:19:45Z</time>
      </trkpt>
      <trkpt lat="52.81737" lon="6.64957">
        <ele>60.421</ele>
        <time>2020-07-07T08:19:50Z</time>
      </trkpt>
      <trkpt lat="52.81727" lon="6.64999">
        <ele>62.037</ele>
        <time>2020-07-07T08:19:56Z</time>
      </trkpt>
      <trkpt lat="52.81719" lon="6.65031">
        <ele>62.686</ele>
        <time>2020-07-07T08:20:01Z</time>
      </trkpt>
      <trkpt lat="52.81709" lon="6.65072">
        <ele>64.423</ele>
        <time>2020-07-07T08:20:07Z</time>
      </trkpt>
      <trkpt lat="52.817" lon="6.65109">
        <ele>65.95</ele>
        <time>2020-07-07T08:20:12Z</time>
      </trkpt>
      <trkpt lat="52.81691" lon="6.65148">
        <ele>67.875</ele>
        <time>2020-07-07T08:20:18Z</time>
      </trkpt>
      <trkpt lat="52.81681" lon="6.65188">
        <ele>68.983</ele>
        <time>2020-07-07T08:20:24Z</time>
      </trkpt>
      <trkpt lat="52.81673" lon="6.65222">
        <ele>68.798</ele>
        <time>2020-07-07T08:20:29Z</time>
      </trkpt>
      <trkpt lat="52.81665" lon="6.65265">
        <ele>68.199</ele>
        <time>2020-07-07T08:20:35Z</time>
      </trkpt>
      <trkpt lat="52.81657" lon="6.653">
        <ele>65.369</ele>
        <time>2020-07-07T08:20:40Z</time>
      </trkpt>
      <trkpt lat="52.81651" lon="6.6534">
        <ele>66.011</ele>
        <time>2020-07-07T08:20:46Z</time>
      </trkpt>
      <trkpt lat="52.81646" lon="6.65372">
        <ele>66.201</ele>
        <time>2020-07-07T08:20:51Z</time>
      </trkpt>
      <trkpt lat="52.81637" lon="6.65406">
        <ele>65.54</ele>
        <time>2020-07-07T08:20:57Z</time>
      </trkpt>
      <trkpt lat="52.81628" lon="6.65438">
        <ele>63.908</ele>
        <time>2020-07-07T08:21:02Z</time>
      </trkpt>
      <trkpt lat="52.81618" lon="6.65479">
        <ele>63.736</ele>
        <time>2020-07-07T08:21:08Z</time>
      </trkpt>
      <trkpt lat="52.81608" lon="6.65518">
        <ele>63.76</ele>
        <time>2020-07-07T08:21:14Z</time>
      </trkpt>
      <trkpt lat="52.81598" lon="6.65558">
        <ele>62.628</ele>
        <time>2020-07-07T08:21:20Z</time>
      </trkpt>
      <trkpt lat="52.8159" lon="6.65592">
        <ele>62.287</ele>
        <time>2020-07-07T08:21:25Z</time>
      </trkpt>
      <trkpt lat="52.81581" lon="6.65627">
        <ele>62.267</ele>
        <time>2020-07-07T08:21:30Z</time>
      </trkpt>
      <trkpt lat="52.8157" lon="6.65667">
        <ele>63.021</ele>
        <time>2020-07-07T08:21:36Z</time>
      </trkpt>
      <trkpt lat="52.81562" lon="6.657">
        <ele>62.428</ele>
        <time>2020-07-07T08:21:41Z</time>
      </trkpt>
      <trkpt lat="52.81553" lon="6.65737">
        <ele>59.401</ele>
        <time>2020-07-07T08:21:47Z</time>
      </trkpt>
      <trkpt lat="52.81546" lon="6.6578">
        <ele>58.299</ele>
        <time>2020-07-07T08:21:53Z</time>
      </trkpt>
      <trkpt lat="52.81537" lon="6.65824">
        <ele>59.203</ele>
        <time>2020-07-07T08:21:59Z</time>
      </trkpt>
      <trkpt lat="52.81527" lon="6.65865">
        <ele>58.568</ele>
        <time>2020-07-07T08:22:05Z</time>
      </trkpt>
      <trkpt lat="52.81519" lon="6.65898">
        <ele>58.127</ele>
        <time>2020-07-07T08:22:10Z</time>
      </trkpt>
      <trkpt lat="52.81508" lon="6.65942">
        <ele>60.223</ele>
        <time>2020-07-07T08:22:16Z</time>
      </trkpt>
      <trkpt lat="52.815" lon="6.6598">
        <ele>62.249</ele>
        <time>2020-07-07T08:22:22Z</time>
      </trkpt>
      <trkpt lat="52.8149" lon="6.6602">
        <ele>62.513</ele>
        <time>2020-07-07T08:22:28Z</time>
      </trkpt>
      <trkpt lat="52.81482" lon="6.66057">
        <ele>63.775</ele>
        <time>2020-07-07T08:22:34Z</time>
      </trkpt>
      <trkpt lat="52.81475" lon="6.66093">
        <ele>64.891</ele>
        <time>2020-07-07T08:22:40Z</time>
      </trkpt>
      <trkpt lat="52.81468" lon="6.66119">
        <ele>64.194</ele>
        <time>2020-07-07T08:22:45Z</time>
      </trkpt>
      <trkpt lat="52.81455" lon="6.6615">
        <ele>59.273</ele>
        <time>2020-07-07T08:22:51Z</time>
      </trkpt>
      <trkpt lat="52.81432" lon="6.66144">
        <ele>58.655</ele>
        <time>2020-07-07T08:22:57Z</time>
      </trkpt>
      <trkpt lat="52.81412" lon="6.66133">
        <ele>59.72</ele>
        <time>2020-07-07T08:23:03Z</time>
      </trkpt>
      <trkpt lat="52.8139" lon="6.66122">
        <ele>59.182</ele>
        <time>2020-07-07T08:23:09Z</time>
      </trkpt>
      <trkpt lat="52.81371" lon="6.6611">
        <ele>60.32</ele>
        <time>2020-07-07T08:23:14Z</time>
      </trkpt>
      <trkpt lat="52.81353" lon="6.66127">
        <ele>62.389</ele>
        <time>2020-07-07T08:23:20Z</time>
      </trkpt>
      <trkpt lat="52.81343" lon="6.66155">
        <ele>62.502</ele>
        <time>2020-07-07T08:23:25Z</time>
      </trkpt>
      <trkpt lat="52.81333" lon="6.66191">
        <ele>65.078</ele>
        <time>2020-07-07T08:23:31Z</time>
      </trkpt>
      <trkpt lat="52.81328" lon="6.66219">
        <ele>67.971</ele>
        <time>2020-07-07T08:23:36Z</time>
      </trkpt>
      <trkpt lat="52.8132" lon="6.66252">
        <ele>68.443</ele>
        <time>2020-07-07T08:23:41Z</time>
      </trkpt>
      <trkpt lat="52.81311" lon="6.66288">
        <ele>66.957</ele>
        <time>2020-07-07T08:23:47Z</time>
      </trkpt>
      <trkpt lat="52.81303" lon="6.66329">
        <ele>69.236</ele>
        <time>2020-07-07T08:23:53Z</time>
      </trkpt>
      <trkpt lat="52.81293" lon="6.66367">
        <ele>69.987</ele>
        <time>2020-07-07T08:23:58Z</time>
      </trkpt>
      <trkpt lat="52.81285" lon="6.66401">
        <ele>70.071</ele>
        <time>2020-07-07T08:24:04Z</time>
      </trkpt>
      <trkpt lat="52.81277" lon="6.66437">
        <ele>70.169</ele>
        <time>2020-07-07T08:24:10Z</time>
      </trkpt>
      <trkpt lat="52.81269" lon="6.66477">
        <ele>71.511</ele>
        <time>2020-07-07T08:24:16Z</time>
      </trkpt>
      <trkpt lat="52.8126" lon="6.66521">
        <ele>74.08</ele>
        <time>2020-07-07T08:24:22Z</time>
      </trkpt>
      <trkpt lat="52.81252" lon="6.66551">
        <ele>73.15</ele>
        <time>2020-07-07T08:24:27Z</time>
      </trkpt>
      <trkpt lat="52.81242" lon="6.66591">
        <ele>71.744</ele>
        <time>2020-07-07T08:24:33Z</time>
      </trkpt>
      <trkpt lat="52.81233" lon="6.66628">
        <ele>70.987</ele>
        <time>2020-07-07T08:24:39Z</time>
      </trkpt>
      <trkpt lat="52.81226" lon="6.66662">
        <ele>70.47</ele>
        <time>2020-07-07T08:24:44Z</time>
      </trkpt>
      <trkpt lat="52.81217" lon="6.66705">
        <ele>70.396</ele>
        <time>2020-07-07T08:24:50Z</time>
      </trkpt>
      <trkpt lat="52.81205" lon="6.66741">
        <ele>71.605</ele>
        <time>2020-07-07T08:24:56Z</time>
      </trkpt>
      <trkpt lat="52.81192" lon="6.66766">
        <ele>71.332</ele>
        <time>2020-07-07T08:25:01Z</time>
      </trkpt>
      <trkpt lat="52.81176" lon="6.668">
        <ele>71.9</ele>
        <time>2020-07-07T08:25:07Z</time>
      </trkpt>
      <trkpt lat="52.81162" lon="6.66829">
        <ele>71.861</ele>
        <time>2020-07-07T08:25:12Z</time>
      </trkpt>
      <trkpt lat="52.81148" lon="6.66855">
        <ele>72.096</ele>
        <time>2020-07-07T08:25:18Z</time>
      </trkpt>
      <trkpt lat="52.81132" lon="6.66886">
        <ele>73.382</ele>
        <time>2020-07-07T08:25:24Z</time>
      </trkpt>
      <trkpt lat="52.81123" lon="6.66907">
        <ele>73.059</ele>
        <time>2020-07-07T08:25:29Z</time>
      </trkpt>
      <trkpt lat="52.81107" lon="6.66939">
        <ele>72.765</ele>
        <time>2020-07-07T08:25:35Z</time>
      </trkpt>
      <trkpt lat="52.81088" lon="6.6698">
        <ele>73.105</ele>
        <time>2020-07-07T08:25:41Z</time>
      </trkpt>
      <trkpt lat="52.81075" lon="6.67017">
        <ele>74.284</ele>
        <time>2020-07-07T08:25:47Z</time>
      </trkpt>
      <trkpt lat="52.81068" lon="6.67047">
        <ele>75.869</ele>
        <time>2020-07-07T08:25:52Z</time>
      </trkpt>
      <trkpt lat="52.81061" lon="6.67082">
        <ele>76.553</ele>
        <time>2020-07-07T08:25:57Z</time>
      </trkpt>
      <trkpt lat="52.8105" lon="6.67119">
        <ele>76.823</ele>
        <time>2020-07-07T08:26:03Z</time>
      </trkpt>
      <trkpt lat="52.81042" lon="6.6715">
        <ele>75.423</ele>
        <time>2020-07-07T08:26:08Z</time>
      </trkpt>
      <trkpt lat="52.81033" lon="6.67193">
        <ele>75.123</ele>
        <time>2020-07-07T08:26:14Z</time>
      </trkpt>
      <trkpt lat="52.81026" lon="6.67235">
        <ele>77.03</ele>
        <time>2020-07-07T08:26:20Z</time>
      </trkpt>
      <trkpt lat="52.81016" lon="6.6727">
        <ele>77.142</ele>
        <time>2020-07-07T08:26:26Z</time>
      </trkpt>
      <trkpt lat="52.81005" lon="6.6731">
        <ele>78.579</ele>
        <time>2020-07-07T08:26:32Z</time>
      </trkpt>
      <trkpt lat="52.80997" lon="6.67339">
        <ele>80.368</ele>
        <time>2020-07-07T08:26:37Z</time>
      </trkpt>
      <trkpt lat="52.80991" lon="6.67393">
        <ele>80.746</ele>
        <time>2020-07-07T08:26:43Z</time>
      </trkpt>
      <trkpt lat="52.80986" lon="6.67427">
        <ele>82.645</ele>
        <time>2020-07-07T08:26:48Z</time>
      </trkpt>
      <trkpt lat="52.80973" lon="6.67465">
        <ele>82.537</ele>
        <time>2020-07-07T08:26:54Z</time>
      </trkpt>
      <trkpt lat="52.80963" lon="6.67506">
        <ele>83.24</ele>
        <time>2020-07-07T08:27:00Z</time>
      </trkpt>
      <trkpt lat="52.80951" lon="6.67543">
        <ele>83.591</ele>
        <time>2020-07-07T08:27:05Z</time>
      </trkpt>
      <trkpt lat="52.80935" lon="6.67585">
        <ele>83.319</ele>
        <time>2020-07-07T08:27:11Z</time>
      </trkpt>
      <trkpt lat="52.80921" lon="6.67618">
        <ele>81.315</ele>
        <time>2020-07-07T08:27:17Z</time>
      </trkpt>
      <trkpt lat="52.80905" lon="6.67648">
        <ele>81.173</ele>
        <time>2020-07-07T08:27:23Z</time>
      </trkpt>
      <trkpt lat="52.80884" lon="6.67676">
        <ele>80.754</ele>
        <time>2020-07-07T08:27:29Z</time>
      </trkpt>
      <trkpt lat="52.80862" lon="6.67694">
        <ele>77.895</ele>
        <time>2020-07-07T08:27:34Z</time>
      </trkpt>
      <trkpt lat="52.8084" lon="6.67712">
        <ele>75.755</ele>
        <time>2020-07-07T08:27:39Z</time>
      </trkpt>
      <trkpt lat="52.80815" lon="6.6773">
        <ele>73.733</ele>
        <time>2020-07-07T08:27:45Z</time>
      </trkpt>
      <trkpt lat="52.80794" lon="6.67745">
        <ele>72.084</ele>
        <time>2020-07-07T08:27:50Z</time>
      </trkpt>
      <trkpt lat="52.80771" lon="6.67767">
        <ele>72.034</ele>
        <time>2020-07-07T08:27:56Z</time>
      </trkpt>
      <trkpt lat="52.80753" lon="6.67784">
        <ele>70.77</ele>
        <time>2020-07-07T08:28:01Z</time>
      </trkpt>
      <trkpt lat="52.80735" lon="6.67809">
        <ele>70.586</ele>
        <time>2020-07-07T08:28:07Z</time>
      </trkpt>
      <trkpt lat="52.80715" lon="6.67834">
        <ele>69.634</ele>
        <time>2020-07-07T08:28:13Z</time>
      </trkpt>
      <trkpt lat="52.80695" lon="6.67869">
        <ele>71.495</ele>
        <time>2020-07-07T08:28:19Z</time>
      </trkpt>
      <trkpt lat="52.80677" lon="6.679">
        <ele>74.25</ele>
        <time>2020-07-07T08:28:25Z</time>
      </trkpt>
      <trkpt lat="52.8066" lon="6.67935">
        <ele>76.086</ele>
        <time>2020-07-07T08:28:31Z</time>
      </trkpt>
      <trkpt lat="52.80646" lon="6.67964">
        <ele>77.725</ele>
        <time>2020-07-07T08:28:36Z</time>
      </trkpt>
      <trkpt lat="52.80631" lon="6.67998">
        <ele>78.676</ele>
        <time>2020-07-07T08:28:42Z</time>
      </trkpt>
      <trkpt lat="52.80617" lon="6.68037">
        <ele>77.691</ele>
        <time>2020-07-07T08:28:48Z</time>
      </trkpt>
      <trkpt lat="52.80601" lon="6.68075">
        <ele>77.914</ele>
        <time>2020-07-07T08:28:53Z</time>
      </trkpt>
      <trkpt lat="52.80584" lon="6.68109">
        <ele>74.529</ele>
        <time>2020-07-07T08:28:59Z</time>
      </trkpt>
      <trkpt lat="52.80569" lon="6.68133">
        <ele>70.378</ele>
        <time>2020-07-07T08:29:04Z</time>
      </trkpt>
      <trkpt lat="52.80552" lon="6.68166">
        <ele>67.062</ele>
        <time>2020-07-07T08:29:10Z</time>
      </trkpt>
      <trkpt lat="52.80539" lon="6.68193">
        <ele>65.249</ele>
        <time>2020-07-07T08:29:15Z</time>
      </trkpt>
      <trkpt lat="52.80522" lon="6.68227">
        <ele>64.235</ele>
        <time>2020-07-07T08:29:21Z</time>
      </trkpt>
      <trkpt lat="52.80509" lon="6.68253">
        <ele>63.814</ele>
        <time>2020-07-07T08:29:26Z</time>
      </trkpt>
      <trkpt lat="52.80495" lon="6.68281">
        <ele>63.363</ele>
        <time>2020-07-07T08:29:32Z</time>
      </trkpt>
      <trkpt lat="52.80482" lon="6.68304">
        <ele>60.086</ele>
        <time>2020-07-07T08:29:37Z</time>
      </trkpt>
      <trkpt lat="52.80464" lon="6.68338">
        <ele>60.021</ele>
        <time>2020-07-07T08:29:43Z</time>
      </trkpt>
      <trkpt lat="52.80453" lon="6.68363">
        <ele>61.009</ele>
        <time>2020-07-07T08:29:48Z</time>
      </trkpt>
      <trkpt lat="52.80439" lon="6.68393">
        <ele>62.486</ele>
        <time>2020-07-07T08:29:54Z</time>
      </trkpt>
      <trkpt lat="52.80425" lon="6.68421">
        <ele>63.508</ele>
        <time>2020-07-07T08:29:59Z</time>
      </trkpt>
      <trkpt lat="52.8041" lon="6.68452">
        <ele>64.269</ele>
        <time>2020-07-07T08:30:05Z</time>
      </trkpt>
      <trkpt lat="52.80396" lon="6.6848">
        <ele>65.375</ele>
        <time>2020-07-07T08:30:11Z</time>
      </trkpt>
      <trkpt lat="52.80385" lon="6.68499">
        <ele>66.631</ele>
        <time>2020-07-07T08:30:16Z</time>
      </trkpt>
      <trkpt lat="52.80367" lon="6.6853">
        <ele>69.63</ele>
        <time>2020-07-07T08:30:22Z</time>
      </trkpt>
      <trkpt lat="52.80353" lon="6.68551">
        <ele>69.549</ele>
        <time>2020-07-07T08:30:27Z</time>
      </trkpt>
      <trkpt lat="52.80335" lon="6.68579">
        <ele>67.123</ele>
        <time>2020-07-07T08:30:33Z</time>
      </trkpt>
      <trkpt lat="52.80321" lon="6.68601">
        <ele>65.233</ele>
        <time>2020-07-07T08:30:38Z</time>
      </trkpt>
      <trkpt lat="52.80304" lon="6.68623">
        <ele>62.773</ele>
        <time>2020-07-07T08:30:44Z</time>
      </trkpt>
      <trkpt lat="52.80288" lon="6.68644">
        <ele>61.741</ele>
        <time>2020-07-07T08:30:49Z</time>
      </trkpt>
      <trkpt lat="52.80269" lon="6.68671">
        <ele>61.632</ele>
        <time>2020-07-07T08:30:55Z</time>
      </trkpt>
      <trkpt lat="52.8025" lon="6.68697">
        <ele>62.16</ele>
        <time>2020-07-07T08:31:01Z</time>
      </trkpt>
      <trkpt lat="52.80235" lon="6.68719">
        <ele>62.697</ele>
        <time>2020-07-07T08:31:06Z</time>
      </trkpt>
      <trkpt lat="52.80216" lon="6.68744">
        <ele>64.154</ele>
        <time>2020-07-07T08:31:12Z</time>
      </trkpt>
      <trkpt lat="52.80202" lon="6.68762">
        <ele>64.594</ele>
        <time>2020-07-07T08:31:17Z</time>
      </trkpt>
      <trkpt lat="52.80185" lon="6.68784">
        <ele>65.63</ele>
        <time>2020-07-07T08:31:23Z</time>
      </trkpt>
      <trkpt lat="52.80169" lon="6.68806">
        <ele>68.159</ele>
        <time>2020-07-07T08:31:29Z</time>
      </trkpt>
      <trkpt lat="52.8015" lon="6.68829">
        <ele>68.692</ele>
        <time>2020-07-07T08:31:35Z</time>
      </trkpt>
      <trkpt lat="52.80136" lon="6.68849">
        <ele>68.039</ele>
        <time>2020-07-07T08:31:40Z</time>
      </trkpt>
      <trkpt lat="52.80119" lon="6.68874">
        <ele>67.503</ele>
        <time>2020-07-07T08:31:46Z</time>
      </trkpt>
      <trkpt lat="52.80099" lon="6.68901">
        <ele>66.372</ele>
        <time>2020-07-07T08:31:52Z</time>
      </trkpt>
      <trkpt lat="52.80078" lon="6.68929">
        <ele>64.552</ele>
        <time>2020-07-07T08:31:58Z</time>
      </trkpt>
      <trkpt lat="52.80058" lon="6.68959">
        <ele>63.497</ele>
        <time>2020-07-07T08:32:04Z</time>
      </trkpt>
      <trkpt lat="52.8004" lon="6.68985">
        <ele>63.273</ele>
        <time>2020-07-07T08:32:10Z</time>
      </trkpt>
      <trkpt lat="52.80023" lon="6.69013">
        <ele>63.317</ele>
        <time>2020-07-07T08:32:16Z</time>
      </trkpt>
      <trkpt lat="52.80011" lon="6.69034">
        <ele>63.084</ele>
        <time>2020-07-07T08:32:21Z</time>
      </trkpt>
      <trkpt lat="52.79997" lon="6.6906">
        <ele>63.339</ele>
        <time>2020-07-07T08:32:27Z</time>
      </trkpt>
      <trkpt lat="52.79986" lon="6.69082">
        <ele>64.033</ele>
        <time>2020-07-07T08:32:32Z</time>
      </trkpt>
      <trkpt lat="52.79972" lon="6.69116">
        <ele>65.632</ele>
        <time>2020-07-07T08:32:38Z</time>
      </trkpt>
      <trkpt lat="52.79978" lon="6.69151">
        <ele>68.017</ele>
        <time>2020-07-07T08:32:43Z</time>
      </trkpt>
      <trkpt lat="52.79992" lon="6.69185">
        <ele>70.194</ele>
        <time>2020-07-07T08:32:49Z</time>
      </trkpt>
      <trkpt lat="52.8001" lon="6.69216">
        <ele>72.29</ele>
        <time>2020-07-07T08:32:55Z</time>
      </trkpt>
      <trkpt lat="52.80024" lon="6.69242">
        <ele>72.819</ele>
        <time>2020-07-07T08:33:00Z</time>
      </trkpt>
      <trkpt lat="52.80041" lon="6.69273">
        <ele>73.875</ele>
        <time>2020-07-07T08:33:06Z</time>
      </trkpt>
      <trkpt lat="52.80059" lon="6.69304">
        <ele>73.712</ele>
        <time>2020-07-07T08:33:12Z</time>
      </trkpt>
      <trkpt lat="52.80075" lon="6.69339">
        <ele>72.784</ele>
        <time>2020-07-07T08:33:18Z</time>
      </trkpt>
      <trkpt lat="52.80086" lon="6.69367">
        <ele>71.884</ele>
        <time>2020-07-07T08:33:23Z</time>
      </trkpt>
      <trkpt lat="52.80103" lon="6.69406">
        <ele>70.287</ele>
        <time>2020-07-07T08:33:29Z</time>
      </trkpt>
      <trkpt lat="52.8012" lon="6.69438">
        <ele>70.52</ele>
        <time>2020-07-07T08:33:35Z</time>
      </trkpt>
      <trkpt lat="52.80136" lon="6.69472">
        <ele>71.695</ele>
        <time>2020-07-07T08:33:41Z</time>
      </trkpt>
      <trkpt lat="52.80148" lon="6.69498">
        <ele>71.882</ele>
        <time>2020-07-07T08:33:46Z</time>
      </trkpt>
      <trkpt lat="52.80163" lon="6.69524">
        <ele>72.691</ele>
        <time>2020-07-07T08:33:52Z</time>
      </trkpt>
      <trkpt lat="52.80176" lon="6.69549">
        <ele>73.972</ele>
        <time>2020-07-07T08:33:57Z</time>
      </trkpt>
      <trkpt lat="52.80197" lon="6.69578">
        <ele>74.565</ele>
        <time>2020-07-07T08:34:03Z</time>
      </trkpt>
      <trkpt lat="52.80213" lon="6.69603">
        <ele>74.882</ele>
        <time>2020-07-07T08:34:08Z</time>
      </trkpt>
      <trkpt lat="52.80233" lon="6.69631">
        <ele>78.558</ele>
        <time>2020-07-07T08:34:14Z</time>
      </trkpt>
      <trkpt lat="52.80249" lon="6.69659">
        <ele>79.66</ele>
        <time>2020-07-07T08:34:19Z</time>
      </trkpt>
      <trkpt lat="52.80262" lon="6.69692">
        <ele>77.64</ele>
        <time>2020-07-07T08:34:25Z</time>
      </trkpt>
      <trkpt lat="52.8028" lon="6.69721">
        <ele>78.498</ele>
        <time>2020-07-07T08:34:31Z</time>
      </trkpt>
      <trkpt lat="52.80296" lon="6.69753">
        <ele>77.737</ele>
        <time>2020-07-07T08:34:37Z</time>
      </trkpt>
      <trkpt lat="52.80313" lon="6.6978">
        <ele>77.704</ele>
        <time>2020-07-07T08:34:42Z</time>
      </trkpt>
      <trkpt lat="52.80327" lon="6.69809">
        <ele>76.954</ele>
        <time>2020-07-07T08:34:48Z</time>
      </trkpt>
      <trkpt lat="52.8034" lon="6.69834">
        <ele>76.181</ele>
        <time>2020-07-07T08:34:53Z</time>
      </trkpt>
      <trkpt lat="52.80357" lon="6.69865">
        <ele>75.231</ele>
        <time>2020-07-07T08:34:59Z</time>
      </trkpt>
      <trkpt lat="52.80372" lon="6.69892">
        <ele>75.678</ele>
        <time>2020-07-07T08:35:04Z</time>
      </trkpt>
      <trkpt lat="52.80391" lon="6.69923">
        <ele>75.569</ele>
        <time>2020-07-07T08:35:10Z</time>
      </trkpt>
      <trkpt lat="52.80405" lon="6.69948">
        <ele>74.232</ele>
        <time>2020-07-07T08:35:15Z</time>
      </trkpt>
      <trkpt lat="52.80415" lon="6.69974">
        <ele>72.814</ele>
        <time>2020-07-07T08:35:20Z</time>
      </trkpt>
      <trkpt lat="52.8044" lon="6.69997">
        <ele>72.553</ele>
        <time>2020-07-07T08:35:26Z</time>
      </trkpt>
      <trkpt lat="52.80468" lon="6.70024">
        <ele>72.476</ele>
        <time>2020-07-07T08:35:32Z</time>
      </trkpt>
      <trkpt lat="52.80485" lon="6.70042">
        <ele>71.722</ele>
        <time>2020-07-07T08:35:37Z</time>
      </trkpt>
      <trkpt lat="52.80504" lon="6.70063">
        <ele>72.093</ele>
        <time>2020-07-07T08:35:43Z</time>
      </trkpt>
      <trkpt lat="52.80522" lon="6.7008">
        <ele>71.909</ele>
        <time>2020-07-07T08:35:48Z</time>
      </trkpt>
      <trkpt lat="52.80544" lon="6.70107">
        <ele>71.728</ele>
        <time>2020-07-07T08:35:54Z</time>
      </trkpt>
      <trkpt lat="52.80562" lon="6.70125">
        <ele>72.074</ele>
        <time>2020-07-07T08:35:59Z</time>
      </trkpt>
      <trkpt lat="52.80587" lon="6.70148">
        <ele>72.268</ele>
        <time>2020-07-07T08:36:05Z</time>
      </trkpt>
      <trkpt lat="52.80612" lon="6.70177">
        <ele>71.494</ele>
        <time>2020-07-07T08:36:11Z</time>
      </trkpt>
      <trkpt lat="52.80636" lon="6.702">
        <ele>70.207</ele>
        <time>2020-07-07T08:36:16Z</time>
      </trkpt>
      <trkpt lat="52.80662" lon="6.70224">
        <ele>66.509</ele>
        <time>2020-07-07T08:36:22Z</time>
      </trkpt>
      <trkpt lat="52.80681" lon="6.70241">
        <ele>64.403</ele>
        <time>2020-07-07T08:36:27Z</time>
      </trkpt>
      <trkpt lat="52.80698" lon="6.7026">
        <ele>64.796</ele>
        <time>2020-07-07T08:36:32Z</time>
      </trkpt>
      <trkpt lat="52.80715" lon="6.70278">
        <ele>65.082</ele>
        <time>2020-07-07T08:36:38Z</time>
      </trkpt>
      <trkpt lat="52.8073" lon="6.70296">
        <ele>64.686</ele>
        <time>2020-07-07T08:36:43Z</time>
      </trkpt>
      <trkpt lat="52.8075" lon="6.70321">
        <ele>64.709</ele>
        <time>2020-07-07T08:36:49Z</time>
      </trkpt>
      <trkpt lat="52.80768" lon="6.70344">
        <ele>65.889</ele>
        <time>2020-07-07T08:36:54Z</time>
      </trkpt>
      <trkpt lat="52.80788" lon="6.70367">
        <ele>66.852</ele>
        <time>2020-07-07T08:37:00Z</time>
      </trkpt>
      <trkpt lat="52.80807" lon="6.70388">
        <ele>67.31</ele>
        <time>2020-07-07T08:37:05Z</time>
      </trkpt>
      <trkpt lat="52.80827" lon="6.70415">
        <ele>67.138</ele>
        <time>2020-07-07T08:37:11Z</time>
      </trkpt>
      <trkpt lat="52.80845" lon="6.70435">
        <ele>67.977</ele>
        <time>2020-07-07T08:37:16Z</time>
      </trkpt>
      <trkpt lat="52.80866" lon="6.70462">
        <ele>68.632</ele>
        <time>2020-07-07T08:37:22Z</time>
      </trkpt>
      <trkpt lat="52.80881" lon="6.70481">
        <ele>70.463</ele>
        <time>2020-07-07T08:37:27Z</time>
      </trkpt>
      <trkpt lat="52.80898" lon="6.70502">
        <ele>71.475</ele>
        <time>2020-07-07T08:37:32Z</time>
      </trkpt>
      <trkpt lat="52.8091" lon="6.70526">
        <ele>73.343</ele>
        <time>2020-07-07T08:37:37Z</time>
      </trkpt>
      <trkpt lat="52.80923" lon="6.70559">
        <ele>74.287</ele>
        <time>2020-07-07T08:37:43Z</time>
      </trkpt>
      <trkpt lat="52.80931" lon="6.70584">
        <ele>73.438</ele>
        <time>2020-07-07T08:37:48Z</time>
      </trkpt>
      <trkpt lat="52.80944" lon="6.70617">
        <ele>74.146</ele>
        <time>2020-07-07T08:37:54Z</time>
      </trkpt>
      <trkpt lat="52.80956" lon="6.70662">
        <ele>73.33</ele>
        <time>2020-07-07T08:38:00Z</time>
      </trkpt>
      <trkpt lat="52.80968" lon="6.70698">
        <ele>71.443</ele>
        <time>2020-07-07T08:38:06Z</time>
      </trkpt>
      <trkpt lat="52.80981" lon="6.7073">
        <ele>68.244</ele>
        <time>2020-07-07T08:38:11Z</time>
      </trkpt>
      <trkpt lat="52.8099" lon="6.70758">
        <ele>67.253</ele>
        <time>2020-07-07T08:38:16Z</time>
      </trkpt>
      <trkpt lat="52.81001" lon="6.70794">
        <ele>66.627</ele>
        <time>2020-07-07T08:38:22Z</time>
      </trkpt>
      <trkpt lat="52.8101" lon="6.70822">
        <ele>66.766</ele>
        <time>2020-07-07T08:38:27Z</time>
      </trkpt>
      <trkpt lat="52.81021" lon="6.70862">
        <ele>67.475</ele>
        <time>2020-07-07T08:38:33Z</time>
      </trkpt>
      <trkpt lat="52.81033" lon="6.70896">
        <ele>67.879</ele>
        <time>2020-07-07T08:38:39Z</time>
      </trkpt>
      <trkpt lat="52.81042" lon="6.70922">
        <ele>68.201</ele>
        <time>2020-07-07T08:38:44Z</time>
      </trkpt>
      <trkpt lat="52.81053" lon="6.70957">
        <ele>68.537</ele>
        <time>2020-07-07T08:38:50Z</time>
      </trkpt>
      <trkpt lat="52.81061" lon="6.70987">
        <ele>69.385</ele>
        <time>2020-07-07T08:38:55Z</time>
      </trkpt>
      <trkpt lat="52.81071" lon="6.71017">
        <ele>69.937</ele>
        <time>2020-07-07T08:39:00Z</time>
      </trkpt>
      <trkpt lat="52.81084" lon="6.71049">
        <ele>70.227</ele>
        <time>2020-07-07T08:39:06Z</time>
      </trkpt>
      <trkpt lat="52.81092" lon="6.71075">
        <ele>70.066</ele>
        <time>2020-07-07T08:39:11Z</time>
      </trkpt>
      <trkpt lat="52.81102" lon="6.71111">
        <ele>71.801</ele>
        <time>2020-07-07T08:39:17Z</time>
      </trkpt>
      <trkpt lat="52.81113" lon="6.71135">
        <ele>71.889</ele>
        <time>2020-07-07T08:39:22Z</time>
      </trkpt>
      <trkpt lat="52.81121" lon="6.71165">
        <ele>72.91</ele>
        <time>2020-07-07T08:39:27Z</time>
      </trkpt>
      <trkpt lat="52.81125" lon="6.71205">
        <ele>73.478</ele>
        <time>2020-07-07T08:39:32Z</time>
      </trkpt>
      <trkpt lat="52.81125" lon="6.71241">
        <ele>73.568</ele>
        <time>2020-07-07T08:39:38Z</time>
      </trkpt>
      <trkpt lat="52.81122" lon="6.71278">
        <ele>74.323</ele>
        <time>2020-07-07T08:39:43Z</time>
      </trkpt>
      <trkpt lat="52.81119" lon="6.71319">
        <ele>75.359</ele>
        <time>2020-07-07T08:39:49Z</time>
      </trkpt>
      <trkpt lat="52.8112" lon="6.71357">
        <ele>74.872</ele>
        <time>2020-07-07T08:39:54Z</time>
      </trkpt>
      <trkpt lat="52.81122" lon="6.71403">
        <ele>72.89</ele>
        <time>2020-07-07T08:40:00Z</time>
      </trkpt>
      <trkpt lat="52.81121" lon="6.71441">
        <ele>72.941</ele>
        <time>2020-07-07T08:40:06Z</time>
      </trkpt>
      <trkpt lat="52.8112" lon="6.71473">
        <ele>73.044</ele>
        <time>2020-07-07T08:40:11Z</time>
      </trkpt>
      <trkpt lat="52.81118" lon="6.71501">
        <ele>72.909</ele>
        <time>2020-07-07T08:40:16Z</time>
      </trkpt>
      <trkpt lat="52.81119" lon="6.71538">
        <ele>74.532</ele>
        <time>2020-07-07T08:40:22Z</time>
      </trkpt>
      <trkpt lat="52.81126" lon="6.71567">
        <ele>77.525</ele>
        <time>2020-07-07T08:40:27Z</time>
      </trkpt>
      <trkpt lat="52.81134" lon="6.71601">
        <ele>80.059</ele>
        <time>2020-07-07T08:40:33Z</time>
      </trkpt>
      <trkpt lat="52.81138" lon="6.71632">
        <ele>81.701</ele>
        <time>2020-07-07T08:40:38Z</time>
      </trkpt>
      <trkpt lat="52.81145" lon="6.71671">
        <ele>80.257</ele>
        <time>2020-07-07T08:40:44Z</time>
      </trkpt>
      <trkpt lat="52.81152" lon="6.71709">
        <ele>79.987</ele>
        <time>2020-07-07T08:40:50Z</time>
      </trkpt>
      <trkpt lat="52.81158" lon="6.71749">
        <ele>79.29</ele>
        <time>2020-07-07T08:40:56Z</time>
      </trkpt>
      <trkpt lat="52.81163" lon="6.71782">
        <ele>77.942</ele>
        <time>2020-07-07T08:41:01Z</time>
      </trkpt>
      <trkpt lat="52.81168" lon="6.71817">
        <ele>77.58</ele>
        <time>2020-07-07T08:41:07Z</time>
      </trkpt>
      <trkpt lat="52.81177" lon="6.71855">
        <ele>76.07</ele>
        <time>2020-07-07T08:41:13Z</time>
      </trkpt>
      <trkpt lat="52.81182" lon="6.71882">
        <ele>75.591</ele>
        <time>2020-07-07T08:41:18Z</time>
      </trkpt>
      <trkpt lat="52.81199" lon="6.7191">
        <ele>76.7</ele>
        <time>2020-07-07T08:41:24Z</time>
      </trkpt>
      <trkpt lat="52.81221" lon="6.71899">
        <ele>75.285</ele>
        <time>2020-07-07T08:41:30Z</time>
      </trkpt>
      <trkpt lat="52.81233" lon="6.71883">
        <ele>73.595</ele>
        <time>2020-07-07T08:41:35Z</time>
      </trkpt>
      <trkpt lat="52.81244" lon="6.71873">
        <ele>71.98</ele>
        <time>2020-07-07T08:41:40Z</time>
      </trkpt>
      <trkpt lat="52.81264" lon="6.7189">
        <ele>70.516</ele>
        <time>2020-07-07T08:41:46Z</time>
      </trkpt>
      <trkpt lat="52.81275" lon="6.71909">
        <ele>72.072</ele>
        <time>2020-07-07T08:41:52Z</time>
      </trkpt>
      <trkpt lat="52.81288" lon="6.71929">
        <ele>68.909</ele>
        <time>2020-07-07T08:41:58Z</time>
      </trkpt>
      <trkpt lat="52.81296" lon="6.71941">
        <ele>66.611</ele>
        <time>2020-07-07T08:42:03Z</time>
      </trkpt>
      <trkpt lat="52.81296" lon="6.71941">
        <ele>66.611</ele>
        <time>2020-07-07T08:42:09Z</time>
      </trkpt>
      <trkpt lat="52.81296" lon="6.71941">
        <ele>66.611</ele>
        <time>2020-07-07T08:42:14Z</time>
      </trkpt>
      <trkpt lat="52.81296" lon="6.71941">
        <ele>66.611</ele>
        <time>2020-07-07T08:42:19Z</time>
      </trkpt>
      <trkpt lat="52.81296" lon="6.71941">
        <ele>66.611</ele>
        <time>2020-07-07T08:42:24Z</time>
      </trkpt>
      <trkpt lat="52.81296" lon="6.71941">
        <ele>66.611</ele>
        <time>2020-07-07T08:42:30Z</time>
      </trkpt>
      <trkpt lat="52.81296" lon="6.71941">
        <ele>66.611</ele>
        <time>2020-07-07T08:42:35Z</time>
      </trkpt>
      <trkpt lat="52.81296" lon="6.71941">
        <ele>66.611</ele>
        <time>2020-07-07T08:42:41Z</time>
      </trkpt>
      <trkpt lat="52.81296" lon="6.71941">
        <ele>66.611</ele>
        <time>2020-07-07T08:42:47Z</time>
      </trkpt>
      <trkpt lat="52.81295" lon="6.71942">
        <ele>67.039</ele>
        <time>2020-07-07T08:42:53Z</time>
      </trkpt>
      <trkpt lat="52.81295" lon="6.71942">
        <ele>67.039</ele>
        <time>2020-07-07T08:42:59Z</time>
      </trkpt>
      <trkpt lat="52.81295" lon="6.71942">
        <ele>67.039</ele>
        <time>2020-07-07T08:43:04Z</time>
      </trkpt>
      <trkpt lat="52.81295" lon="6.71942">
        <ele>67.039</ele>
        <time>2020-07-07T08:43:10Z</time>
      </trkpt>
      <trkpt lat="52.81295" lon="6.71942">
        <ele>67.039</ele>
        <time>2020-07-07T08:43:15Z</time>
      </trkpt>
      <trkpt lat="52.81295" lon="6.71942">
        <ele>67.039</ele>
        <time>2020-07-07T08:43:21Z</time>
      </trkpt>
      <trkpt lat="52.81292" lon="6.71944">
        <ele>68.24</ele>
        <time>2020-07-07T08:43:26Z</time>
      </trkpt>
      <trkpt lat="52.81292" lon="6.71944">
        <ele>68.24</ele>
        <time>2020-07-07T08:43:32Z</time>
      </trkpt>
      <trkpt lat="52.81292" lon="6.71944">
        <ele>68.24</ele>
        <time>2020-07-07T08:43:38Z</time>
      </trkpt>
      <trkpt lat="52.81292" lon="6.71944">
        <ele>68.24</ele>
        <time>2020-07-07T08:43:43Z</time>
      </trkpt>
      <trkpt lat="52.81292" lon="6.71944">
        <ele>68.24</ele>
        <time>2020-07-07T08:43:49Z</time>
      </trkpt>
      <trkpt lat="52.81292" lon="6.71944">
        <ele>68.24</ele>
        <time>2020-07-07T08:43:55Z</time>
      </trkpt>
      <trkpt lat="52.81292" lon="6.71944">
        <ele>68.24</ele>
        <time>2020-07-07T08:44:00Z</time>
      </trkpt>
      <trkpt lat="52.81292" lon="6.71944">
        <ele>68.24</ele>
        <time>2020-07-07T08:44:06Z</time>
      </trkpt>
      <trkpt lat="52.81293" lon="6.71944">
        <ele>68.25</ele>
        <time>2020-07-07T08:44:12Z</time>
      </trkpt>
      <trkpt lat="52.81295" lon="6.71945">
        <ele>68.228</ele>
        <time>2020-07-07T08:44:18Z</time>
      </trkpt>
      <trkpt lat="52.81295" lon="6.71945">
        <ele>68.228</ele>
        <time>2020-07-07T08:44:23Z</time>
      </trkpt>
      <trkpt lat="52.81296" lon="6.71945">
        <ele>68.531</ele>
        <time>2020-07-07T08:44:29Z</time>
      </trkpt>
      <trkpt lat="52.81297" lon="6.71947">
        <ele>68.69</ele>
        <time>2020-07-07T08:44:34Z</time>
      </trkpt>
      <trkpt lat="52.81302" lon="6.71958">
        <ele>70.069</ele>
        <time>2020-07-07T08:44:40Z</time>
      </trkpt>
      <trkpt lat="52.81306" lon="6.71975">
        <ele>72.511</ele>
        <time>2020-07-07T08:44:45Z</time>
      </trkpt>
      <trkpt lat="52.81312" lon="6.71998">
        <ele>74.702</ele>
        <time>2020-07-07T08:44:51Z</time>
      </trkpt>
      <trkpt lat="52.81321" lon="6.72023">
        <ele>75.114</ele>
        <time>2020-07-07T08:44:56Z</time>
      </trkpt>
      <trkpt lat="52.81333" lon="6.72059">
        <ele>75.913</ele>
        <time>2020-07-07T08:45:02Z</time>
      </trkpt>
      <trkpt lat="52.81341" lon="6.72088">
        <ele>76.495</ele>
        <time>2020-07-07T08:45:07Z</time>
      </trkpt>
      <trkpt lat="52.8135" lon="6.72125">
        <ele>76.596</ele>
        <time>2020-07-07T08:45:13Z</time>
      </trkpt>
      <trkpt lat="52.8136" lon="6.72161">
        <ele>77.311</ele>
        <time>2020-07-07T08:45:19Z</time>
      </trkpt>
      <trkpt lat="52.8137" lon="6.72197">
        <ele>76.76</ele>
        <time>2020-07-07T08:45:25Z</time>
      </trkpt>
      <trkpt lat="52.81379" lon="6.72221">
        <ele>76.63</ele>
        <time>2020-07-07T08:45:30Z</time>
      </trkpt>
      <trkpt lat="52.81387" lon="6.72259">
        <ele>76.131</ele>
        <time>2020-07-07T08:45:36Z</time>
      </trkpt>
      <trkpt lat="52.81393" lon="6.72292">
        <ele>74.944</ele>
        <time>2020-07-07T08:45:41Z</time>
      </trkpt>
      <trkpt lat="52.814" lon="6.72331">
        <ele>74.278</ele>
        <time>2020-07-07T08:45:47Z</time>
      </trkpt>
      <trkpt lat="52.81402" lon="6.72373">
        <ele>73.489</ele>
        <time>2020-07-07T08:45:53Z</time>
      </trkpt>
      <trkpt lat="52.81406" lon="6.72412">
        <ele>74.142</ele>
        <time>2020-07-07T08:45:59Z</time>
      </trkpt>
      <trkpt lat="52.81408" lon="6.72444">
        <ele>73.936</ele>
        <time>2020-07-07T08:46:04Z</time>
      </trkpt>
      <trkpt lat="52.81408" lon="6.72471">
        <ele>73.974</ele>
        <time>2020-07-07T08:46:09Z</time>
      </trkpt>
      <trkpt lat="52.81413" lon="6.72511">
        <ele>74.75</ele>
        <time>2020-07-07T08:46:14Z</time>
      </trkpt>
      <trkpt lat="52.81419" lon="6.72569">
        <ele>74.703</ele>
        <time>2020-07-07T08:46:20Z</time>
      </trkpt>
      <trkpt lat="52.81426" lon="6.72609">
        <ele>74.541</ele>
        <time>2020-07-07T08:46:25Z</time>
      </trkpt>
      <trkpt lat="52.81427" lon="6.72647">
        <ele>75.433</ele>
        <time>2020-07-07T08:46:31Z</time>
      </trkpt>
      <trkpt lat="52.81431" lon="6.72681">
        <ele>75.555</ele>
        <time>2020-07-07T08:46:36Z</time>
      </trkpt>
      <trkpt lat="52.81435" lon="6.72721">
        <ele>73.928</ele>
        <time>2020-07-07T08:46:42Z</time>
      </trkpt>
      <trkpt lat="52.81443" lon="6.72767">
        <ele>70.8</ele>
        <time>2020-07-07T08:46:48Z</time>
      </trkpt>
      <trkpt lat="52.8145" lon="6.72807">
        <ele>68.639</ele>
        <time>2020-07-07T08:46:54Z</time>
      </trkpt>
      <trkpt lat="52.81452" lon="6.72842">
        <ele>66.286</ele>
        <time>2020-07-07T08:47:00Z</time>
      </trkpt>
      <trkpt lat="52.81451" lon="6.72874">
        <ele>66.088</ele>
        <time>2020-07-07T08:47:05Z</time>
      </trkpt>
      <trkpt lat="52.81454" lon="6.7291">
        <ele>67.477</ele>
        <time>2020-07-07T08:47:11Z</time>
      </trkpt>
      <trkpt lat="52.81458" lon="6.72949">
        <ele>67.723</ele>
        <time>2020-07-07T08:47:17Z</time>
      </trkpt>
      <trkpt lat="52.81455" lon="6.72991">
        <ele>66.171</ele>
        <time>2020-07-07T08:47:23Z</time>
      </trkpt>
      <trkpt lat="52.81448" lon="6.73037">
        <ele>66.873</ele>
        <time>2020-07-07T08:47:29Z</time>
      </trkpt>
      <trkpt lat="52.81445" lon="6.73078">
        <ele>67.758</ele>
        <time>2020-07-07T08:47:35Z</time>
      </trkpt>
      <trkpt lat="52.81442" lon="6.73114">
        <ele>67.838</ele>
        <time>2020-07-07T08:47:40Z</time>
      </trkpt>
      <trkpt lat="52.81439" lon="6.73153">
        <ele>68.074</ele>
        <time>2020-07-07T08:47:46Z</time>
      </trkpt>
      <trkpt lat="52.81437" lon="6.73192">
        <ele>68.662</ele>
        <time>2020-07-07T08:47:52Z</time>
      </trkpt>
      <trkpt lat="52.81435" lon="6.73227">
        <ele>67.213</ele>
        <time>2020-07-07T08:47:58Z</time>
      </trkpt>
      <trkpt lat="52.81432" lon="6.73263">
        <ele>68.179</ele>
        <time>2020-07-07T08:48:04Z</time>
      </trkpt>
      <trkpt lat="52.81429" lon="6.73303">
        <ele>69.4</ele>
        <time>2020-07-07T08:48:10Z</time>
      </trkpt>
      <trkpt lat="52.81438" lon="6.73335">
        <ele>72.567</ele>
        <time>2020-07-07T08:48:15Z</time>
      </trkpt>
      <trkpt lat="52.81459" lon="6.73347">
        <ele>72.702</ele>
        <time>2020-07-07T08:48:20Z</time>
      </trkpt>
      <trkpt lat="52.81486" lon="6.73352">
        <ele>72.567</ele>
        <time>2020-07-07T08:48:26Z</time>
      </trkpt>
      <trkpt lat="52.81506" lon="6.73355">
        <ele>72.245</ele>
        <time>2020-07-07T08:48:31Z</time>
      </trkpt>
      <trkpt lat="52.81532" lon="6.7336">
        <ele>71.644</ele>
        <time>2020-07-07T08:48:37Z</time>
      </trkpt>
      <trkpt lat="52.81555" lon="6.73365">
        <ele>70.691</ele>
        <time>2020-07-07T08:48:42Z</time>
      </trkpt>
      <trkpt lat="52.81582" lon="6.73369">
        <ele>69.831</ele>
        <time>2020-07-07T08:48:48Z</time>
      </trkpt>
      <trkpt lat="52.81604" lon="6.73369">
        <ele>69.047</ele>
        <time>2020-07-07T08:48:53Z</time>
      </trkpt>
      <trkpt lat="52.81627" lon="6.73376">
        <ele>65.784</ele>
        <time>2020-07-07T08:48:58Z</time>
      </trkpt>
      <trkpt lat="52.81657" lon="6.7338">
        <ele>65.557</ele>
        <time>2020-07-07T08:49:04Z</time>
      </trkpt>
      <trkpt lat="52.81681" lon="6.73384">
        <ele>65.157</ele>
        <time>2020-07-07T08:49:09Z</time>
      </trkpt>
      <trkpt lat="52.8171" lon="6.73387">
        <ele>62.211</ele>
        <time>2020-07-07T08:49:15Z</time>
      </trkpt>
      <trkpt lat="52.81736" lon="6.73392">
        <ele>60.052</ele>
        <time>2020-07-07T08:49:21Z</time>
      </trkpt>
      <trkpt lat="52.81766" lon="6.73397">
        <ele>59.267</ele>
        <time>2020-07-07T08:49:27Z</time>
      </trkpt>
      <trkpt lat="52.81788" lon="6.73401">
        <ele>58.287</ele>
        <time>2020-07-07T08:49:32Z</time>
      </trkpt>
      <trkpt lat="52.81815" lon="6.73405">
        <ele>57.988</ele>
        <time>2020-07-07T08:49:38Z</time>
      </trkpt>
      <trkpt lat="52.81837" lon="6.7341">
        <ele>58.622</ele>
        <time>2020-07-07T08:49:43Z</time>
      </trkpt>
      <trkpt lat="52.81853" lon="6.73421">
        <ele>59.019</ele>
        <time>2020-07-07T08:49:48Z</time>
      </trkpt>
      <trkpt lat="52.81877" lon="6.73436">
        <ele>59.721</ele>
        <time>2020-07-07T08:49:54Z</time>
      </trkpt>
      <trkpt lat="52.81903" lon="6.73453">
        <ele>59.252</ele>
        <time>2020-07-07T08:50:00Z</time>
      </trkpt>
      <trkpt lat="52.81923" lon="6.73468">
        <ele>58.214</ele>
        <time>2020-07-07T08:50:05Z</time>
      </trkpt>
      <trkpt lat="52.81948" lon="6.73488">
        <ele>59.024</ele>
        <time>2020-07-07T08:50:10Z</time>
      </trkpt>
      <trkpt lat="52.81977" lon="6.73508">
        <ele>60.978</ele>
        <time>2020-07-07T08:50:16Z</time>
      </trkpt>
      <trkpt lat="52.82" lon="6.73523">
        <ele>60.087</ele>
        <time>2020-07-07T08:50:22Z</time>
      </trkpt>
      <trkpt lat="52.82023" lon="6.7354">
        <ele>60.282</ele>
        <time>2020-07-07T08:50:28Z</time>
      </trkpt>
      <trkpt lat="52.82048" lon="6.73555">
        <ele>61.702</ele>
        <time>2020-07-07T08:50:34Z</time>
      </trkpt>
      <trkpt lat="52.82069" lon="6.73571">
        <ele>62.786</ele>
        <time>2020-07-07T08:50:40Z</time>
      </trkpt>
      <trkpt lat="52.82086" lon="6.73583">
        <ele>64.163</ele>
        <time>2020-07-07T08:50:46Z</time>
      </trkpt>
      <trkpt lat="52.82098" lon="6.73594">
        <ele>63.626</ele>
        <time>2020-07-07T08:50:51Z</time>
      </trkpt>
      <trkpt lat="52.82118" lon="6.73605">
        <ele>64.895</ele>
        <time>2020-07-07T08:50:57Z</time>
      </trkpt>
      <trkpt lat="52.8213" lon="6.73612">
        <ele>64.915</ele>
        <time>2020-07-07T08:51:02Z</time>
      </trkpt>
      <trkpt lat="52.82131" lon="6.73614">
        <ele>65.142</ele>
        <time>2020-07-07T08:51:08Z</time>
      </trkpt>
      <trkpt lat="52.82133" lon="6.73614">
        <ele>65.128</ele>
        <time>2020-07-07T08:51:14Z</time>
      </trkpt>
      <trkpt lat="52.8214" lon="6.73619">
        <ele>65.741</ele>
        <time>2020-07-07T08:51:19Z</time>
      </trkpt>
      <trkpt lat="52.82149" lon="6.73626">
        <ele>64.716</ele>
        <time>2020-07-07T08:51:25Z</time>
      </trkpt>
      <trkpt lat="52.82159" lon="6.73635">
        <ele>65.157</ele>
        <time>2020-07-07T08:51:31Z</time>
      </trkpt>
      <trkpt lat="52.82164" lon="6.7364">
        <ele>66.156</ele>
        <time>2020-07-07T08:51:36Z</time>
      </trkpt>
      <trkpt lat="52.82164" lon="6.7364">
        <ele>66.287</ele>
        <time>2020-07-07T08:51:42Z</time>
      </trkpt>
      <trkpt lat="52.82167" lon="6.73643">
        <ele>65.57</ele>
        <time>2020-07-07T08:51:47Z</time>
      </trkpt>
      <trkpt lat="52.82177" lon="6.73652">
        <ele>64.651</ele>
        <time>2020-07-07T08:51:53Z</time>
      </trkpt>
      <trkpt lat="52.82187" lon="6.73658">
        <ele>64.668</ele>
        <time>2020-07-07T08:51:58Z</time>
      </trkpt>
      <trkpt lat="52.82198" lon="6.73666">
        <ele>64.172</ele>
        <time>2020-07-07T08:52:03Z</time>
      </trkpt>
      <trkpt lat="52.82209" lon="6.73671">
        <ele>63.644</ele>
        <time>2020-07-07T08:52:08Z</time>
      </trkpt>
      <trkpt lat="52.82222" lon="6.73683">
        <ele>62.399</ele>
        <time>2020-07-07T08:52:14Z</time>
      </trkpt>
      <trkpt lat="52.82232" lon="6.73691">
        <ele>61.347</ele>
        <time>2020-07-07T08:52:19Z</time>
      </trkpt>
      <trkpt lat="52.82248" lon="6.73703">
        <ele>60.873</ele>
        <time>2020-07-07T08:52:25Z</time>
      </trkpt>
      <trkpt lat="52.82261" lon="6.73713">
        <ele>60.633</ele>
        <time>2020-07-07T08:52:31Z</time>
      </trkpt>
      <trkpt lat="52.82273" lon="6.7372">
        <ele>61.062</ele>
        <time>2020-07-07T08:52:36Z</time>
      </trkpt>
      <trkpt lat="52.82289" lon="6.73728">
        <ele>61.288</ele>
        <time>2020-07-07T08:52:42Z</time>
      </trkpt>
      <trkpt lat="52.82302" lon="6.73739">
        <ele>60.974</ele>
        <time>2020-07-07T08:52:47Z</time>
      </trkpt>
      <trkpt lat="52.82317" lon="6.73747">
        <ele>61.212</ele>
        <time>2020-07-07T08:52:53Z</time>
      </trkpt>
      <trkpt lat="52.82329" lon="6.73758">
        <ele>61.073</ele>
        <time>2020-07-07T08:52:59Z</time>
      </trkpt>
      <trkpt lat="52.82347" lon="6.73771">
        <ele>63.029</ele>
        <time>2020-07-07T08:53:05Z</time>
      </trkpt>
      <trkpt lat="52.82365" lon="6.7378">
        <ele>65.11</ele>
        <time>2020-07-07T08:53:11Z</time>
      </trkpt>
      <trkpt lat="52.82375" lon="6.73791">
        <ele>66.462</ele>
        <time>2020-07-07T08:53:16Z</time>
      </trkpt>
      <trkpt lat="52.82385" lon="6.73814">
        <ele>68.739</ele>
        <time>2020-07-07T08:53:22Z</time>
      </trkpt>
      <trkpt lat="52.82394" lon="6.73835">
        <ele>71.569</ele>
        <time>2020-07-07T08:53:27Z</time>
      </trkpt>
      <trkpt lat="52.82405" lon="6.73859">
        <ele>73.255</ele>
        <time>2020-07-07T08:53:33Z</time>
      </trkpt>
      <trkpt lat="52.82414" lon="6.73879">
        <ele>75.499</ele>
        <time>2020-07-07T08:53:39Z</time>
      </trkpt>
      <trkpt lat="52.82421" lon="6.73902">
        <ele>76.686</ele>
        <time>2020-07-07T08:53:45Z</time>
      </trkpt>
      <trkpt lat="52.82433" lon="6.7392">
        <ele>76.585</ele>
        <time>2020-07-07T08:53:51Z</time>
      </trkpt>
      <trkpt lat="52.82454" lon="6.73928">
        <ele>76.426</ele>
        <time>2020-07-07T08:53:57Z</time>
      </trkpt>
      <trkpt lat="52.82467" lon="6.73932">
        <ele>74.973</ele>
        <time>2020-07-07T08:54:02Z</time>
      </trkpt>
      <trkpt lat="52.8248" lon="6.73933">
        <ele>73.568</ele>
        <time>2020-07-07T08:54:08Z</time>
      </trkpt>
      <trkpt lat="52.8249" lon="6.73928">
        <ele>72.539</ele>
        <time>2020-07-07T08:54:13Z</time>
      </trkpt>
      <trkpt lat="52.82505" lon="6.7392">
        <ele>70.429</ele>
        <time>2020-07-07T08:54:19Z</time>
      </trkpt>
      <trkpt lat="52.82514" lon="6.73907">
        <ele>69.45</ele>
        <time>2020-07-07T08:54:24Z</time>
      </trkpt>
      <trkpt lat="52.8252" lon="6.73902">
        <ele>69.709</ele>
        <time>2020-07-07T08:54:30Z</time>
      </trkpt>
      <trkpt lat="52.82532" lon="6.73902">
        <ele>70.851</ele>
        <time>2020-07-07T08:54:35Z</time>
      </trkpt>
      <trkpt lat="52.82547" lon="6.73901">
        <ele>71.65</ele>
        <time>2020-07-07T08:54:41Z</time>
      </trkpt>
      <trkpt lat="52.82562" lon="6.7391">
        <ele>73.097</ele>
        <time>2020-07-07T08:54:46Z</time>
      </trkpt>
      <trkpt lat="52.82576" lon="6.7392">
        <ele>74.574</ele>
        <time>2020-07-07T08:54:51Z</time>
      </trkpt>
      <trkpt lat="52.82597" lon="6.7393">
        <ele>76.899</ele>
        <time>2020-07-07T08:54:57Z</time>
      </trkpt>
      <trkpt lat="52.82613" lon="6.73944">
        <ele>77.449</ele>
        <time>2020-07-07T08:55:03Z</time>
      </trkpt>
      <trkpt lat="52.82629" lon="6.73955">
        <ele>79.409</ele>
        <time>2020-07-07T08:55:09Z</time>
      </trkpt>
      <trkpt lat="52.82647" lon="6.73969">
        <ele>79.466</ele>
        <time>2020-07-07T08:55:15Z</time>
      </trkpt>
      <trkpt lat="52.82659" lon="6.73979">
        <ele>78.973</ele>
        <time>2020-07-07T08:55:20Z</time>
      </trkpt>
      <trkpt lat="52.82669" lon="6.73986">
        <ele>79.015</ele>
        <time>2020-07-07T08:55:25Z</time>
      </trkpt>
      <trkpt lat="52.82674" lon="6.73996">
        <ele>79.535</ele>
        <time>2020-07-07T08:55:31Z</time>
      </trkpt>
      <trkpt lat="52.82674" lon="6.74014">
        <ele>80.816</ele>
        <time>2020-07-07T08:55:36Z</time>
      </trkpt>
      <trkpt lat="52.82674" lon="6.74042">
        <ele>80.134</ele>
        <time>2020-07-07T08:55:41Z</time>
      </trkpt>
      <trkpt lat="52.82671" lon="6.74074">
        <ele>77.907</ele>
        <time>2020-07-07T08:55:47Z</time>
      </trkpt>
      <trkpt lat="52.8267" lon="6.74092">
        <ele>77.49</ele>
        <time>2020-07-07T08:55:52Z</time>
      </trkpt>
      <trkpt lat="52.82666" lon="6.74119">
        <ele>77.916</ele>
        <time>2020-07-07T08:55:58Z</time>
      </trkpt>
      <trkpt lat="52.82658" lon="6.74162">
        <ele>79.18</ele>
        <time>2020-07-07T08:56:04Z</time>
      </trkpt>
      <trkpt lat="52.82654" lon="6.74195">
        <ele>77.978</ele>
        <time>2020-07-07T08:56:09Z</time>
      </trkpt>
      <trkpt lat="52.8265" lon="6.74234">
        <ele>76.738</ele>
        <time>2020-07-07T08:56:15Z</time>
      </trkpt>
      <trkpt lat="52.82652" lon="6.74271">
        <ele>77.336</ele>
        <time>2020-07-07T08:56:20Z</time>
      </trkpt>
      <trkpt lat="52.82653" lon="6.74318">
        <ele>77.815</ele>
        <time>2020-07-07T08:56:26Z</time>
      </trkpt>
      <trkpt lat="52.82649" lon="6.74356">
        <ele>78.052</ele>
        <time>2020-07-07T08:56:31Z</time>
      </trkpt>
      <trkpt lat="52.82646" lon="6.74397">
        <ele>79.187</ele>
        <time>2020-07-07T08:56:37Z</time>
      </trkpt>
      <trkpt lat="52.82641" lon="6.7444">
        <ele>80.023</ele>
        <time>2020-07-07T08:56:43Z</time>
      </trkpt>
      <trkpt lat="52.82641" lon="6.74483">
        <ele>81.973</ele>
        <time>2020-07-07T08:56:49Z</time>
      </trkpt>
      <trkpt lat="52.82634" lon="6.74513">
        <ele>83.338</ele>
        <time>2020-07-07T08:56:54Z</time>
      </trkpt>
      <trkpt lat="52.82626" lon="6.74548">
        <ele>83.5</ele>
        <time>2020-07-07T08:57:00Z</time>
      </trkpt>
      <trkpt lat="52.82619" lon="6.74588">
        <ele>79.744</ele>
        <time>2020-07-07T08:57:06Z</time>
      </trkpt>
      <trkpt lat="52.8262" lon="6.74614">
        <ele>79.076</ele>
        <time>2020-07-07T08:57:11Z</time>
      </trkpt>
      <trkpt lat="52.82616" lon="6.7463">
        <ele>78.935</ele>
        <time>2020-07-07T08:57:16Z</time>
      </trkpt>
      <trkpt lat="52.82616" lon="6.74633">
        <ele>78.868</ele>
        <time>2020-07-07T08:57:22Z</time>
      </trkpt>
      <trkpt lat="52.82616" lon="6.74633">
        <ele>79.115</ele>
        <time>2020-07-07T08:57:27Z</time>
      </trkpt>
      <trkpt lat="52.82616" lon="6.74633">
        <ele>79.115</ele>
        <time>2020-07-07T08:57:32Z</time>
      </trkpt>
      <trkpt lat="52.82616" lon="6.74633">
        <ele>79.115</ele>
        <time>2020-07-07T08:57:38Z</time>
      </trkpt>
      <trkpt lat="52.82616" lon="6.74633">
        <ele>79.115</ele>
        <time>2020-07-07T08:57:43Z</time>
      </trkpt>
      <trkpt lat="52.82617" lon="6.74629">
        <ele>79.659</ele>
        <time>2020-07-07T08:57:49Z</time>
      </trkpt>
      <trkpt lat="52.82617" lon="6.74629">
        <ele>79.659</ele>
        <time>2020-07-07T08:57:55Z</time>
      </trkpt>
      <trkpt lat="52.82618" lon="6.7462">
        <ele>79.98</ele>
        <time>2020-07-07T08:58:01Z</time>
      </trkpt>
      <trkpt lat="52.82616" lon="6.74607">
        <ele>79.72</ele>
        <time>2020-07-07T08:58:06Z</time>
      </trkpt>
      <trkpt lat="52.82613" lon="6.74588">
        <ele>78.563</ele>
        <time>2020-07-07T08:58:12Z</time>
      </trkpt>
      <trkpt lat="52.82617" lon="6.74578">
        <ele>78.332</ele>
        <time>2020-07-07T08:58:17Z</time>
      </trkpt>
      <trkpt lat="52.82635" lon="6.74576">
        <ele>77.188</ele>
        <time>2020-07-07T08:58:23Z</time>
      </trkpt>
      <trkpt lat="52.82648" lon="6.74579">
        <ele>75.849</ele>
        <time>2020-07-07T08:58:28Z</time>
      </trkpt>
      <trkpt lat="52.82668" lon="6.74586">
        <ele>75.208</ele>
        <time>2020-07-07T08:58:34Z</time>
      </trkpt>
      <trkpt lat="52.82688" lon="6.74593">
        <ele>74.67</ele>
        <time>2020-07-07T08:58:39Z</time>
      </trkpt>
      <trkpt lat="52.82715" lon="6.74604">
        <ele>74.865</ele>
        <time>2020-07-07T08:58:45Z</time>
      </trkpt>
      <trkpt lat="52.82736" lon="6.74613">
        <ele>75.642</ele>
        <time>2020-07-07T08:58:51Z</time>
      </trkpt>
      <trkpt lat="52.82764" lon="6.74624">
        <ele>75.845</ele>
        <time>2020-07-07T08:58:57Z</time>
      </trkpt>
      <trkpt lat="52.82793" lon="6.74639">
        <ele>76.68</ele>
        <time>2020-07-07T08:59:03Z</time>
      </trkpt>
      <trkpt lat="52.82817" lon="6.7465">
        <ele>77.007</ele>
        <time>2020-07-07T08:59:08Z</time>
      </trkpt>
      <trkpt lat="52.82842" lon="6.74664">
        <ele>75.88</ele>
        <time>2020-07-07T08:59:13Z</time>
      </trkpt>
      <trkpt lat="52.82867" lon="6.74676">
        <ele>74.179</ele>
        <time>2020-07-07T08:59:19Z</time>
      </trkpt>
      <trkpt lat="52.82889" lon="6.74688">
        <ele>73.11</ele>
        <time>2020-07-07T08:59:24Z</time>
      </trkpt>
      <trkpt lat="52.82913" lon="6.74699">
        <ele>70.783</ele>
        <time>2020-07-07T08:59:30Z</time>
      </trkpt>
      <trkpt lat="52.82932" lon="6.74708">
        <ele>70.441</ele>
        <time>2020-07-07T08:59:35Z</time>
      </trkpt>
      <trkpt lat="52.82956" lon="6.74718">
        <ele>67.411</ele>
        <time>2020-07-07T08:59:41Z</time>
      </trkpt>
      <trkpt lat="52.8298" lon="6.74728">
        <ele>65.948</ele>
        <time>2020-07-07T08:59:47Z</time>
      </trkpt>
      <trkpt lat="52.83002" lon="6.74739">
        <ele>64.522</ele>
        <time>2020-07-07T08:59:53Z</time>
      </trkpt>
      <trkpt lat="52.83025" lon="6.74751">
        <ele>64.435</ele>
        <time>2020-07-07T08:59:58Z</time>
      </trkpt>
      <trkpt lat="52.83051" lon="6.74764">
        <ele>65.461</ele>
        <time>2020-07-07T09:00:04Z</time>
      </trkpt>
      <trkpt lat="52.83077" lon="6.74778">
        <ele>65.629</ele>
        <time>2020-07-07T09:00:10Z</time>
      </trkpt>
      <trkpt lat="52.83096" lon="6.74788">
        <ele>65.852</ele>
        <time>2020-07-07T09:00:15Z</time>
      </trkpt>
      <trkpt lat="52.8312" lon="6.74801">
        <ele>66.806</ele>
        <time>2020-07-07T09:00:21Z</time>
      </trkpt>
      <trkpt lat="52.83142" lon="6.74812">
        <ele>66.941</ele>
        <time>2020-07-07T09:00:26Z</time>
      </trkpt>
      <trkpt lat="52.83168" lon="6.74826">
        <ele>67.326</ele>
        <time>2020-07-07T09:00:32Z</time>
      </trkpt>
      <trkpt lat="52.83195" lon="6.74838">
        <ele>66.745</ele>
        <time>2020-07-07T09:00:38Z</time>
      </trkpt>
      <trkpt lat="52.83218" lon="6.74849">
        <ele>66.888</ele>
        <time>2020-07-07T09:00:43Z</time>
      </trkpt>
      <trkpt lat="52.83242" lon="6.7486">
        <ele>67.105</ele>
        <time>2020-07-07T09:00:49Z</time>
      </trkpt>
      <trkpt lat="52.83267" lon="6.74869">
        <ele>66.149</ele>
        <time>2020-07-07T09:00:55Z</time>
      </trkpt>
      <trkpt lat="52.83288" lon="6.74879">
        <ele>67.072</ele>
        <time>2020-07-07T09:01:00Z</time>
      </trkpt>
      <trkpt lat="52.83308" lon="6.74885">
        <ele>67.288</ele>
        <time>2020-07-07T09:01:05Z</time>
      </trkpt>
      <trkpt lat="52.83332" lon="6.74898">
        <ele>69.034</ele>
        <time>2020-07-07T09:01:11Z</time>
      </trkpt>
      <trkpt lat="52.83358" lon="6.74911">
        <ele>69.911</ele>
        <time>2020-07-07T09:01:17Z</time>
      </trkpt>
      <trkpt lat="52.83378" lon="6.74919">
        <ele>70.597</ele>
        <time>2020-07-07T09:01:22Z</time>
      </trkpt>
      <trkpt lat="52.83403" lon="6.74931">
        <ele>71.932</ele>
        <time>2020-07-07T09:01:28Z</time>
      </trkpt>
      <trkpt lat="52.83422" lon="6.74942">
        <ele>72.537</ele>
        <time>2020-07-07T09:01:33Z</time>
      </trkpt>
      <trkpt lat="52.83442" lon="6.74953">
        <ele>73.51</ele>
        <time>2020-07-07T09:01:38Z</time>
      </trkpt>
      <trkpt lat="52.83464" lon="6.74959">
        <ele>75.147</ele>
        <time>2020-07-07T09:01:44Z</time>
      </trkpt>
      <trkpt lat="52.83486" lon="6.74973">
        <ele>75.916</ele>
        <time>2020-07-07T09:01:50Z</time>
      </trkpt>
      <trkpt lat="52.83508" lon="6.74983">
        <ele>76.735</ele>
        <time>2020-07-07T09:01:56Z</time>
      </trkpt>
      <trkpt lat="52.83532" lon="6.74994">
        <ele>77.91</ele>
        <time>2020-07-07T09:02:02Z</time>
      </trkpt>
      <trkpt lat="52.83553" lon="6.75004">
        <ele>77.166</ele>
        <time>2020-07-07T09:02:07Z</time>
      </trkpt>
      <trkpt lat="52.83579" lon="6.75014">
        <ele>76.409</ele>
        <time>2020-07-07T09:02:13Z</time>
      </trkpt>
      <trkpt lat="52.836" lon="6.75028">
        <ele>75.576</ele>
        <time>2020-07-07T09:02:18Z</time>
      </trkpt>
      <trkpt lat="52.8362" lon="6.75039">
        <ele>74.974</ele>
        <time>2020-07-07T09:02:23Z</time>
      </trkpt>
      <trkpt lat="52.83644" lon="6.75052">
        <ele>74.121</ele>
        <time>2020-07-07T09:02:29Z</time>
      </trkpt>
      <trkpt lat="52.83667" lon="6.75064">
        <ele>73.591</ele>
        <time>2020-07-07T09:02:35Z</time>
      </trkpt>
      <trkpt lat="52.83687" lon="6.75074">
        <ele>72.59</ele>
        <time>2020-07-07T09:02:40Z</time>
      </trkpt>
      <trkpt lat="52.83711" lon="6.75084">
        <ele>72.506</ele>
        <time>2020-07-07T09:02:46Z</time>
      </trkpt>
      <trkpt lat="52.83736" lon="6.75097">
        <ele>72.867</ele>
        <time>2020-07-07T09:02:52Z</time>
      </trkpt>
      <trkpt lat="52.8376" lon="6.75108">
        <ele>72.679</ele>
        <time>2020-07-07T09:02:58Z</time>
      </trkpt>
      <trkpt lat="52.83784" lon="6.75119">
        <ele>73.032</ele>
        <time>2020-07-07T09:03:04Z</time>
      </trkpt>
      <trkpt lat="52.83803" lon="6.75129">
        <ele>72.154</ele>
        <time>2020-07-07T09:03:09Z</time>
      </trkpt>
      <trkpt lat="52.83828" lon="6.75142">
        <ele>73.608</ele>
        <time>2020-07-07T09:03:15Z</time>
      </trkpt>
      <trkpt lat="52.83853" lon="6.75153">
        <ele>73.453</ele>
        <time>2020-07-07T09:03:21Z</time>
      </trkpt>
      <trkpt lat="52.83872" lon="6.75161">
        <ele>73.56</ele>
        <time>2020-07-07T09:03:26Z</time>
      </trkpt>
      <trkpt lat="52.83889" lon="6.7517">
        <ele>73.51</ele>
        <time>2020-07-07T09:03:31Z</time>
      </trkpt>
      <trkpt lat="52.83912" lon="6.75181">
        <ele>73.356</ele>
        <time>2020-07-07T09:03:37Z</time>
      </trkpt>
      <trkpt lat="52.83931" lon="6.75192">
        <ele>73.007</ele>
        <time>2020-07-07T09:03:42Z</time>
      </trkpt>
      <trkpt lat="52.83954" lon="6.75203">
        <ele>73.158</ele>
        <time>2020-07-07T09:03:48Z</time>
      </trkpt>
      <trkpt lat="52.83974" lon="6.75219">
        <ele>72.739</ele>
        <time>2020-07-07T09:03:53Z</time>
      </trkpt>
      <trkpt lat="52.83995" lon="6.75243">
        <ele>73.103</ele>
        <time>2020-07-07T09:03:59Z</time>
      </trkpt>
      <trkpt lat="52.84008" lon="6.7527">
        <ele>75.101</ele>
        <time>2020-07-07T09:04:05Z</time>
      </trkpt>
      <trkpt lat="52.84016" lon="6.75295">
        <ele>75.7</ele>
        <time>2020-07-07T09:04:10Z</time>
      </trkpt>
      <trkpt lat="52.84025" lon="6.75323">
        <ele>76.6</ele>
        <time>2020-07-07T09:04:15Z</time>
      </trkpt>
      <trkpt lat="52.8404" lon="6.75353">
        <ele>75.569</ele>
        <time>2020-07-07T09:04:21Z</time>
      </trkpt>
      <trkpt lat="52.84051" lon="6.75389">
        <ele>76.806</ele>
        <time>2020-07-07T09:04:27Z</time>
      </trkpt>
      <trkpt lat="52.84059" lon="6.75422">
        <ele>76.871</ele>
        <time>2020-07-07T09:04:32Z</time>
      </trkpt>
      <trkpt lat="52.84069" lon="6.75455">
        <ele>76.789</ele>
        <time>2020-07-07T09:04:37Z</time>
      </trkpt>
      <trkpt lat="52.84084" lon="6.75484">
        <ele>77.011</ele>
        <time>2020-07-07T09:04:43Z</time>
      </trkpt>
      <trkpt lat="52.84106" lon="6.75483">
        <ele>75.438</ele>
        <time>2020-07-07T09:04:48Z</time>
      </trkpt>
      <trkpt lat="52.84127" lon="6.7547">
        <ele>70.177</ele>
        <time>2020-07-07T09:04:54Z</time>
      </trkpt>
      <trkpt lat="52.84147" lon="6.75456">
        <ele>68.566</ele>
        <time>2020-07-07T09:05:00Z</time>
      </trkpt>
      <trkpt lat="52.84166" lon="6.75435">
        <ele>66.71</ele>
        <time>2020-07-07T09:05:06Z</time>
      </trkpt>
      <trkpt lat="52.84184" lon="6.75421">
        <ele>66.652</ele>
        <time>2020-07-07T09:05:12Z</time>
      </trkpt>
      <trkpt lat="52.84204" lon="6.75404">
        <ele>68.443</ele>
        <time>2020-07-07T09:05:18Z</time>
      </trkpt>
      <trkpt lat="52.84222" lon="6.75391">
        <ele>69.858</ele>
        <time>2020-07-07T09:05:24Z</time>
      </trkpt>
      <trkpt lat="52.8424" lon="6.75374">
        <ele>69.472</ele>
        <time>2020-07-07T09:05:29Z</time>
      </trkpt>
      <trkpt lat="52.84266" lon="6.75351">
        <ele>67.877</ele>
        <time>2020-07-07T09:05:34Z</time>
      </trkpt>
      <trkpt lat="52.8429" lon="6.75327">
        <ele>68.709</ele>
        <time>2020-07-07T09:05:40Z</time>
      </trkpt>
      <trkpt lat="52.84313" lon="6.75307">
        <ele>71.359</ele>
        <time>2020-07-07T09:05:46Z</time>
      </trkpt>
      <trkpt lat="52.84329" lon="6.75292">
        <ele>72.611</ele>
        <time>2020-07-07T09:05:51Z</time>
      </trkpt>
      <trkpt lat="52.84343" lon="6.75277">
        <ele>73.064</ele>
        <time>2020-07-07T09:05:56Z</time>
      </trkpt>
      <trkpt lat="52.84361" lon="6.75259">
        <ele>73.75</ele>
        <time>2020-07-07T09:06:02Z</time>
      </trkpt>
      <trkpt lat="52.84377" lon="6.75248">
        <ele>74.124</ele>
        <time>2020-07-07T09:06:07Z</time>
      </trkpt>
      <trkpt lat="52.84397" lon="6.75231">
        <ele>73.493</ele>
        <time>2020-07-07T09:06:13Z</time>
      </trkpt>
      <trkpt lat="52.84417" lon="6.75232">
        <ele>74.593</ele>
        <time>2020-07-07T09:06:19Z</time>
      </trkpt>
      <trkpt lat="52.84434" lon="6.7526">
        <ele>73.806</ele>
        <time>2020-07-07T09:06:25Z</time>
      </trkpt>
      <trkpt lat="52.84444" lon="6.75288">
        <ele>73.063</ele>
        <time>2020-07-07T09:06:30Z</time>
      </trkpt>
      <trkpt lat="52.84454" lon="6.75319">
        <ele>73</ele>
        <time>2020-07-07T09:06:36Z</time>
      </trkpt>
      <trkpt lat="52.84462" lon="6.75342">
        <ele>73.214</ele>
        <time>2020-07-07T09:06:41Z</time>
      </trkpt>
      <trkpt lat="52.84471" lon="6.75366">
        <ele>72.883</ele>
        <time>2020-07-07T09:06:46Z</time>
      </trkpt>
      <trkpt lat="52.84481" lon="6.75392">
        <ele>73.261</ele>
        <time>2020-07-07T09:06:51Z</time>
      </trkpt>
      <trkpt lat="52.84492" lon="6.75418">
        <ele>73.802</ele>
        <time>2020-07-07T09:06:56Z</time>
      </trkpt>
      <trkpt lat="52.84507" lon="6.75454">
        <ele>76.395</ele>
        <time>2020-07-07T09:07:02Z</time>
      </trkpt>
      <trkpt lat="52.84521" lon="6.75493">
        <ele>77.961</ele>
        <time>2020-07-07T09:07:08Z</time>
      </trkpt>
      <trkpt lat="52.84536" lon="6.75525">
        <ele>79.418</ele>
        <time>2020-07-07T09:07:14Z</time>
      </trkpt>
      <trkpt lat="52.84545" lon="6.75552">
        <ele>78.702</ele>
        <time>2020-07-07T09:07:19Z</time>
      </trkpt>
      <trkpt lat="52.84556" lon="6.75582">
        <ele>77.779</ele>
        <time>2020-07-07T09:07:24Z</time>
      </trkpt>
      <trkpt lat="52.84569" lon="6.75616">
        <ele>78</ele>
        <time>2020-07-07T09:07:30Z</time>
      </trkpt>
      <trkpt lat="52.84586" lon="6.75653">
        <ele>77.922</ele>
        <time>2020-07-07T09:07:36Z</time>
      </trkpt>
      <trkpt lat="52.84594" lon="6.75684">
        <ele>77.936</ele>
        <time>2020-07-07T09:07:41Z</time>
      </trkpt>
      <trkpt lat="52.84622" lon="6.75687">
        <ele>78.103</ele>
        <time>2020-07-07T09:07:47Z</time>
      </trkpt>
      <trkpt lat="52.8464" lon="6.75674">
        <ele>74.262</ele>
        <time>2020-07-07T09:07:52Z</time>
      </trkpt>
      <trkpt lat="52.84661" lon="6.75659">
        <ele>73.464</ele>
        <time>2020-07-07T09:07:58Z</time>
      </trkpt>
      <trkpt lat="52.84677" lon="6.75647">
        <ele>70.535</ele>
        <time>2020-07-07T09:08:03Z</time>
      </trkpt>
      <trkpt lat="52.84697" lon="6.75633">
        <ele>68.143</ele>
        <time>2020-07-07T09:08:09Z</time>
      </trkpt>
      <trkpt lat="52.84717" lon="6.7562">
        <ele>67.07</ele>
        <time>2020-07-07T09:08:14Z</time>
      </trkpt>
      <trkpt lat="52.84736" lon="6.75608">
        <ele>66.359</ele>
        <time>2020-07-07T09:08:20Z</time>
      </trkpt>
      <trkpt lat="52.8475" lon="6.75598">
        <ele>66.112</ele>
        <time>2020-07-07T09:08:25Z</time>
      </trkpt>
      <trkpt lat="52.84771" lon="6.75587">
        <ele>66.721</ele>
        <time>2020-07-07T09:08:31Z</time>
      </trkpt>
      <trkpt lat="52.84796" lon="6.75573">
        <ele>68.246</ele>
        <time>2020-07-07T09:08:37Z</time>
      </trkpt>
      <trkpt lat="52.84816" lon="6.75556">
        <ele>67.504</ele>
        <time>2020-07-07T09:08:43Z</time>
      </trkpt>
      <trkpt lat="52.84835" lon="6.75545">
        <ele>68.253</ele>
        <time>2020-07-07T09:08:48Z</time>
      </trkpt>
      <trkpt lat="52.84856" lon="6.75533">
        <ele>68.267</ele>
        <time>2020-07-07T09:08:54Z</time>
      </trkpt>
      <trkpt lat="52.84875" lon="6.7552">
        <ele>67.993</ele>
        <time>2020-07-07T09:08:59Z</time>
      </trkpt>
      <trkpt lat="52.84896" lon="6.75506">
        <ele>67.958</ele>
        <time>2020-07-07T09:09:04Z</time>
      </trkpt>
      <trkpt lat="52.84916" lon="6.75493">
        <ele>67.256</ele>
        <time>2020-07-07T09:09:09Z</time>
      </trkpt>
      <trkpt lat="52.84937" lon="6.75479">
        <ele>67.314</ele>
        <time>2020-07-07T09:09:15Z</time>
      </trkpt>
      <trkpt lat="52.8496" lon="6.75466">
        <ele>69.184</ele>
        <time>2020-07-07T09:09:21Z</time>
      </trkpt>
      <trkpt lat="52.8498" lon="6.75454">
        <ele>69.129</ele>
        <time>2020-07-07T09:09:26Z</time>
      </trkpt>
      <trkpt lat="52.85001" lon="6.75439">
        <ele>68.493</ele>
        <time>2020-07-07T09:09:31Z</time>
      </trkpt>
      <trkpt lat="52.85025" lon="6.75422">
        <ele>68.217</ele>
        <time>2020-07-07T09:09:37Z</time>
      </trkpt>
      <trkpt lat="52.85044" lon="6.7541">
        <ele>68.704</ele>
        <time>2020-07-07T09:09:42Z</time>
      </trkpt>
      <trkpt lat="52.85065" lon="6.75396">
        <ele>68.081</ele>
        <time>2020-07-07T09:09:48Z</time>
      </trkpt>
      <trkpt lat="52.85082" lon="6.75384">
        <ele>68.734</ele>
        <time>2020-07-07T09:09:53Z</time>
      </trkpt>
      <trkpt lat="52.85103" lon="6.75371">
        <ele>69.745</ele>
        <time>2020-07-07T09:09:59Z</time>
      </trkpt>
      <trkpt lat="52.85125" lon="6.75357">
        <ele>68.959</ele>
        <time>2020-07-07T09:10:05Z</time>
      </trkpt>
      <trkpt lat="52.85148" lon="6.75342">
        <ele>69.66</ele>
        <time>2020-07-07T09:10:11Z</time>
      </trkpt>
      <trkpt lat="52.85167" lon="6.75329">
        <ele>69.796</ele>
        <time>2020-07-07T09:10:16Z</time>
      </trkpt>
      <trkpt lat="52.85191" lon="6.75315">
        <ele>70.779</ele>
        <time>2020-07-07T09:10:22Z</time>
      </trkpt>
      <trkpt lat="52.8521" lon="6.75299">
        <ele>72.118</ele>
        <time>2020-07-07T09:10:27Z</time>
      </trkpt>
      <trkpt lat="52.85228" lon="6.75282">
        <ele>72.634</ele>
        <time>2020-07-07T09:10:32Z</time>
      </trkpt>
      <trkpt lat="52.85251" lon="6.75268">
        <ele>71.026</ele>
        <time>2020-07-07T09:10:38Z</time>
      </trkpt>
      <trkpt lat="52.85273" lon="6.7526">
        <ele>71.679</ele>
        <time>2020-07-07T09:10:44Z</time>
      </trkpt>
      <trkpt lat="52.85288" lon="6.75251">
        <ele>72.206</ele>
        <time>2020-07-07T09:10:49Z</time>
      </trkpt>
      <trkpt lat="52.8531" lon="6.75236">
        <ele>71.268</ele>
        <time>2020-07-07T09:10:55Z</time>
      </trkpt>
      <trkpt lat="52.85332" lon="6.7522">
        <ele>69.864</ele>
        <time>2020-07-07T09:11:00Z</time>
      </trkpt>
      <trkpt lat="52.85357" lon="6.75206">
        <ele>70.843</ele>
        <time>2020-07-07T09:11:06Z</time>
      </trkpt>
      <trkpt lat="52.85379" lon="6.75194">
        <ele>71.911</ele>
        <time>2020-07-07T09:11:11Z</time>
      </trkpt>
      <trkpt lat="52.85402" lon="6.7518">
        <ele>72.061</ele>
        <time>2020-07-07T09:11:17Z</time>
      </trkpt>
      <trkpt lat="52.8542" lon="6.75167">
        <ele>71.139</ele>
        <time>2020-07-07T09:11:22Z</time>
      </trkpt>
      <trkpt lat="52.8544" lon="6.75151">
        <ele>71.066</ele>
        <time>2020-07-07T09:11:27Z</time>
      </trkpt>
      <trkpt lat="52.85461" lon="6.75136">
        <ele>71.146</ele>
        <time>2020-07-07T09:11:32Z</time>
      </trkpt>
      <trkpt lat="52.85485" lon="6.75122">
        <ele>71.028</ele>
        <time>2020-07-07T09:11:38Z</time>
      </trkpt>
      <trkpt lat="52.8551" lon="6.75106">
        <ele>69.395</ele>
        <time>2020-07-07T09:11:44Z</time>
      </trkpt>
      <trkpt lat="52.85533" lon="6.75091">
        <ele>68.562</ele>
        <time>2020-07-07T09:11:50Z</time>
      </trkpt>
      <trkpt lat="52.85555" lon="6.75077">
        <ele>68.7</ele>
        <time>2020-07-07T09:11:55Z</time>
      </trkpt>
      <trkpt lat="52.85579" lon="6.75063">
        <ele>69.682</ele>
        <time>2020-07-07T09:12:01Z</time>
      </trkpt>
      <trkpt lat="52.85599" lon="6.7505">
        <ele>70.058</ele>
        <time>2020-07-07T09:12:06Z</time>
      </trkpt>
      <trkpt lat="52.85622" lon="6.75033">
        <ele>70.078</ele>
        <time>2020-07-07T09:12:12Z</time>
      </trkpt>
      <trkpt lat="52.85642" lon="6.7502">
        <ele>70.201</ele>
        <time>2020-07-07T09:12:17Z</time>
      </trkpt>
      <trkpt lat="52.85665" lon="6.75003">
        <ele>70.489</ele>
        <time>2020-07-07T09:12:23Z</time>
      </trkpt>
      <trkpt lat="52.85684" lon="6.74992">
        <ele>70.133</ele>
        <time>2020-07-07T09:12:28Z</time>
      </trkpt>
      <trkpt lat="52.85707" lon="6.74978">
        <ele>70.465</ele>
        <time>2020-07-07T09:12:34Z</time>
      </trkpt>
      <trkpt lat="52.85723" lon="6.74969">
        <ele>70.266</ele>
        <time>2020-07-07T09:12:39Z</time>
      </trkpt>
      <trkpt lat="52.85746" lon="6.74952">
        <ele>70.608</ele>
        <time>2020-07-07T09:12:45Z</time>
      </trkpt>
      <trkpt lat="52.85766" lon="6.74938">
        <ele>70.621</ele>
        <time>2020-07-07T09:12:50Z</time>
      </trkpt>
      <trkpt lat="52.85787" lon="6.74916">
        <ele>71.522</ele>
        <time>2020-07-07T09:12:56Z</time>
      </trkpt>
      <trkpt lat="52.85788" lon="6.74887">
        <ele>72.336</ele>
        <time>2020-07-07T09:13:01Z</time>
      </trkpt>
      <trkpt lat="52.85801" lon="6.74862">
        <ele>73.654</ele>
        <time>2020-07-07T09:13:07Z</time>
      </trkpt>
      <trkpt lat="52.85812" lon="6.74834">
        <ele>74.799</ele>
        <time>2020-07-07T09:13:12Z</time>
      </trkpt>
      <trkpt lat="52.85826" lon="6.74803">
        <ele>74.521</ele>
        <time>2020-07-07T09:13:18Z</time>
      </trkpt>
      <trkpt lat="52.85838" lon="6.74773">
        <ele>74.25</ele>
        <time>2020-07-07T09:13:23Z</time>
      </trkpt>
      <trkpt lat="52.8585" lon="6.74747">
        <ele>74.303</ele>
        <time>2020-07-07T09:13:29Z</time>
      </trkpt>
      <trkpt lat="52.85861" lon="6.74721">
        <ele>74.331</ele>
        <time>2020-07-07T09:13:34Z</time>
      </trkpt>
      <trkpt lat="52.85878" lon="6.7469">
        <ele>74.118</ele>
        <time>2020-07-07T09:13:40Z</time>
      </trkpt>
      <trkpt lat="52.85893" lon="6.74663">
        <ele>73.307</ele>
        <time>2020-07-07T09:13:45Z</time>
      </trkpt>
      <trkpt lat="52.85912" lon="6.74624">
        <ele>71.303</ele>
        <time>2020-07-07T09:13:51Z</time>
      </trkpt>
      <trkpt lat="52.85925" lon="6.746">
        <ele>70.463</ele>
        <time>2020-07-07T09:13:56Z</time>
      </trkpt>
      <trkpt lat="52.8594" lon="6.74567">
        <ele>70.094</ele>
        <time>2020-07-07T09:14:02Z</time>
      </trkpt>
      <trkpt lat="52.85952" lon="6.74544">
        <ele>69.792</ele>
        <time>2020-07-07T09:14:07Z</time>
      </trkpt>
      <trkpt lat="52.85963" lon="6.7452">
        <ele>69.802</ele>
        <time>2020-07-07T09:14:13Z</time>
      </trkpt>
      <trkpt lat="52.85978" lon="6.74486">
        <ele>67.532</ele>
        <time>2020-07-07T09:14:18Z</time>
      </trkpt>
      <trkpt lat="52.85994" lon="6.7445">
        <ele>67.197</ele>
        <time>2020-07-07T09:14:24Z</time>
      </trkpt>
      <trkpt lat="52.86007" lon="6.74422">
        <ele>65.864</ele>
        <time>2020-07-07T09:14:29Z</time>
      </trkpt>
      <trkpt lat="52.86023" lon="6.74389">
        <ele>63.891</ele>
        <time>2020-07-07T09:14:35Z</time>
      </trkpt>
      <trkpt lat="52.86035" lon="6.74365">
        <ele>63.585</ele>
        <time>2020-07-07T09:14:40Z</time>
      </trkpt>
      <trkpt lat="52.86051" lon="6.74328">
        <ele>62.41</ele>
        <time>2020-07-07T09:14:46Z</time>
      </trkpt>
      <trkpt lat="52.86064" lon="6.743">
        <ele>61.344</ele>
        <time>2020-07-07T09:14:51Z</time>
      </trkpt>
      <trkpt lat="52.86076" lon="6.74277">
        <ele>62.698</ele>
        <time>2020-07-07T09:14:56Z</time>
      </trkpt>
      <trkpt lat="52.86092" lon="6.74238">
        <ele>63.044</ele>
        <time>2020-07-07T09:15:02Z</time>
      </trkpt>
      <trkpt lat="52.86109" lon="6.74204">
        <ele>62.565</ele>
        <time>2020-07-07T09:15:08Z</time>
      </trkpt>
      <trkpt lat="52.86122" lon="6.74176">
        <ele>63.06</ele>
        <time>2020-07-07T09:15:13Z</time>
      </trkpt>
      <trkpt lat="52.86138" lon="6.74159">
        <ele>64.975</ele>
        <time>2020-07-07T09:15:19Z</time>
      </trkpt>
      <trkpt lat="52.86148" lon="6.7418">
        <ele>66.225</ele>
        <time>2020-07-07T09:15:25Z</time>
      </trkpt>
      <trkpt lat="52.86155" lon="6.74216">
        <ele>67.287</ele>
        <time>2020-07-07T09:15:31Z</time>
      </trkpt>
      <trkpt lat="52.86166" lon="6.74242">
        <ele>66.918</ele>
        <time>2020-07-07T09:15:36Z</time>
      </trkpt>
      <trkpt lat="52.86176" lon="6.7428">
        <ele>65.665</ele>
        <time>2020-07-07T09:15:42Z</time>
      </trkpt>
      <trkpt lat="52.86185" lon="6.7432">
        <ele>66.208</ele>
        <time>2020-07-07T09:15:48Z</time>
      </trkpt>
      <trkpt lat="52.86196" lon="6.74358">
        <ele>65.985</ele>
        <time>2020-07-07T09:15:54Z</time>
      </trkpt>
      <trkpt lat="52.86205" lon="6.74396">
        <ele>65.564</ele>
        <time>2020-07-07T09:16:00Z</time>
      </trkpt>
      <trkpt lat="52.86215" lon="6.7443">
        <ele>66.393</ele>
        <time>2020-07-07T09:16:06Z</time>
      </trkpt>
      <trkpt lat="52.8622" lon="6.74461">
        <ele>66.839</ele>
        <time>2020-07-07T09:16:11Z</time>
      </trkpt>
      <trkpt lat="52.86231" lon="6.74494">
        <ele>68.063</ele>
        <time>2020-07-07T09:16:17Z</time>
      </trkpt>
      <trkpt lat="52.86239" lon="6.7452">
        <ele>68.704</ele>
        <time>2020-07-07T09:16:22Z</time>
      </trkpt>
      <trkpt lat="52.86244" lon="6.74555">
        <ele>68.444</ele>
        <time>2020-07-07T09:16:28Z</time>
      </trkpt>
      <trkpt lat="52.86248" lon="6.74584">
        <ele>68.344</ele>
        <time>2020-07-07T09:16:33Z</time>
      </trkpt>
      <trkpt lat="52.8626" lon="6.74622">
        <ele>70.613</ele>
        <time>2020-07-07T09:16:39Z</time>
      </trkpt>
      <trkpt lat="52.86271" lon="6.74655">
        <ele>72.365</ele>
        <time>2020-07-07T09:16:44Z</time>
      </trkpt>
      <trkpt lat="52.86282" lon="6.74696">
        <ele>74.289</ele>
        <time>2020-07-07T09:16:50Z</time>
      </trkpt>
      <trkpt lat="52.86289" lon="6.7473">
        <ele>74.16</ele>
        <time>2020-07-07T09:16:55Z</time>
      </trkpt>
      <trkpt lat="52.863" lon="6.74774">
        <ele>73.693</ele>
        <time>2020-07-07T09:17:01Z</time>
      </trkpt>
      <trkpt lat="52.86308" lon="6.74821">
        <ele>73.168</ele>
        <time>2020-07-07T09:17:07Z</time>
      </trkpt>
      <trkpt lat="52.86319" lon="6.74859">
        <ele>73.021</ele>
        <time>2020-07-07T09:17:12Z</time>
      </trkpt>
      <trkpt lat="52.86333" lon="6.74904">
        <ele>73.101</ele>
        <time>2020-07-07T09:17:18Z</time>
      </trkpt>
      <trkpt lat="52.86346" lon="6.74944">
        <ele>73.653</ele>
        <time>2020-07-07T09:17:24Z</time>
      </trkpt>
      <trkpt lat="52.86355" lon="6.74981">
        <ele>74.029</ele>
        <time>2020-07-07T09:17:29Z</time>
      </trkpt>
      <trkpt lat="52.86367" lon="6.75024">
        <ele>73.659</ele>
        <time>2020-07-07T09:17:35Z</time>
      </trkpt>
      <trkpt lat="52.86375" lon="6.75061">
        <ele>73.334</ele>
        <time>2020-07-07T09:17:40Z</time>
      </trkpt>
      <trkpt lat="52.86388" lon="6.75106">
        <ele>73.886</ele>
        <time>2020-07-07T09:17:46Z</time>
      </trkpt>
      <trkpt lat="52.86397" lon="6.7515">
        <ele>73.451</ele>
        <time>2020-07-07T09:17:52Z</time>
      </trkpt>
      <trkpt lat="52.86409" lon="6.75196">
        <ele>72.211</ele>
        <time>2020-07-07T09:17:58Z</time>
      </trkpt>
      <trkpt lat="52.86418" lon="6.75229">
        <ele>70.829</ele>
        <time>2020-07-07T09:18:03Z</time>
      </trkpt>
      <trkpt lat="52.86428" lon="6.75265">
        <ele>69.631</ele>
        <time>2020-07-07T09:18:09Z</time>
      </trkpt>
      <trkpt lat="52.86436" lon="6.75298">
        <ele>68.361</ele>
        <time>2020-07-07T09:18:14Z</time>
      </trkpt>
      <trkpt lat="52.86446" lon="6.75341">
        <ele>67.887</ele>
        <time>2020-07-07T09:18:20Z</time>
      </trkpt>
      <trkpt lat="52.86456" lon="6.75372">
        <ele>68.521</ele>
        <time>2020-07-07T09:18:25Z</time>
      </trkpt>
      <trkpt lat="52.86463" lon="6.7541">
        <ele>68.323</ele>
        <time>2020-07-07T09:18:31Z</time>
      </trkpt>
      <trkpt lat="52.86473" lon="6.75449">
        <ele>67.506</ele>
        <time>2020-07-07T09:18:37Z</time>
      </trkpt>
      <trkpt lat="52.86484" lon="6.7549">
        <ele>65.621</ele>
        <time>2020-07-07T09:18:43Z</time>
      </trkpt>
      <trkpt lat="52.86492" lon="6.75522">
        <ele>64.377</ele>
        <time>2020-07-07T09:18:48Z</time>
      </trkpt>
      <trkpt lat="52.86505" lon="6.75562">
        <ele>62.95</ele>
        <time>2020-07-07T09:18:54Z</time>
      </trkpt>
      <trkpt lat="52.86516" lon="6.75598">
        <ele>62.141</ele>
        <time>2020-07-07T09:18:59Z</time>
      </trkpt>
      <trkpt lat="52.86527" lon="6.75639">
        <ele>60.944</ele>
        <time>2020-07-07T09:19:05Z</time>
      </trkpt>
      <trkpt lat="52.86534" lon="6.75671">
        <ele>59.872</ele>
        <time>2020-07-07T09:19:10Z</time>
      </trkpt>
      <trkpt lat="52.86543" lon="6.75701">
        <ele>59.935</ele>
        <time>2020-07-07T09:19:15Z</time>
      </trkpt>
      <trkpt lat="52.86555" lon="6.75741">
        <ele>60.447</ele>
        <time>2020-07-07T09:19:21Z</time>
      </trkpt>
      <trkpt lat="52.86561" lon="6.75775">
        <ele>60.674</ele>
        <time>2020-07-07T09:19:26Z</time>
      </trkpt>
      <trkpt lat="52.86571" lon="6.75806">
        <ele>60.314</ele>
        <time>2020-07-07T09:19:31Z</time>
      </trkpt>
      <trkpt lat="52.86579" lon="6.75841">
        <ele>59.547</ele>
        <time>2020-07-07T09:19:36Z</time>
      </trkpt>
      <trkpt lat="52.8659" lon="6.75883">
        <ele>59.758</ele>
        <time>2020-07-07T09:19:42Z</time>
      </trkpt>
      <trkpt lat="52.86601" lon="6.75925">
        <ele>59.402</ele>
        <time>2020-07-07T09:19:48Z</time>
      </trkpt>
      <trkpt lat="52.86611" lon="6.75966">
        <ele>58.986</ele>
        <time>2020-07-07T09:19:54Z</time>
      </trkpt>
      <trkpt lat="52.86621" lon="6.76006">
        <ele>58.882</ele>
        <time>2020-07-07T09:20:00Z</time>
      </trkpt>
      <trkpt lat="52.8663" lon="6.7604">
        <ele>58.64</ele>
        <time>2020-07-07T09:20:05Z</time>
      </trkpt>
      <trkpt lat="52.86638" lon="6.76074">
        <ele>58.085</ele>
        <time>2020-07-07T09:20:10Z</time>
      </trkpt>
      <trkpt lat="52.86649" lon="6.76114">
        <ele>58.738</ele>
        <time>2020-07-07T09:20:16Z</time>
      </trkpt>
      <trkpt lat="52.8666" lon="6.76153">
        <ele>59.671</ele>
        <time>2020-07-07T09:20:22Z</time>
      </trkpt>
      <trkpt lat="52.86669" lon="6.76185">
        <ele>59.54</ele>
        <time>2020-07-07T09:20:27Z</time>
      </trkpt>
      <trkpt lat="52.86678" lon="6.76227">
        <ele>59.245</ele>
        <time>2020-07-07T09:20:33Z</time>
      </trkpt>
      <trkpt lat="52.86688" lon="6.76264">
        <ele>58.924</ele>
        <time>2020-07-07T09:20:39Z</time>
      </trkpt>
      <trkpt lat="52.86697" lon="6.763">
        <ele>59.692</ele>
        <time>2020-07-07T09:20:45Z</time>
      </trkpt>
      <trkpt lat="52.86703" lon="6.76329">
        <ele>60.395</ele>
        <time>2020-07-07T09:20:50Z</time>
      </trkpt>
      <trkpt lat="52.8671" lon="6.76356">
        <ele>61.253</ele>
        <time>2020-07-07T09:20:56Z</time>
      </trkpt>
      <trkpt lat="52.86715" lon="6.76385">
        <ele>61.63</ele>
        <time>2020-07-07T09:21:02Z</time>
      </trkpt>
      <trkpt lat="52.86718" lon="6.76396">
        <ele>61.488</ele>
        <time>2020-07-07T09:21:07Z</time>
      </trkpt>
      <trkpt lat="52.86718" lon="6.76396">
        <ele>61.488</ele>
        <time>2020-07-07T09:21:13Z</time>
      </trkpt>
      <trkpt lat="52.86718" lon="6.76396">
        <ele>61.488</ele>
        <time>2020-07-07T09:21:19Z</time>
      </trkpt>
      <trkpt lat="52.86718" lon="6.76396">
        <ele>61.488</ele>
        <time>2020-07-07T09:21:25Z</time>
      </trkpt>
      <trkpt lat="52.86718" lon="6.76396">
        <ele>61.488</ele>
        <time>2020-07-07T09:21:30Z</time>
      </trkpt>
      <trkpt lat="52.86718" lon="6.76396">
        <ele>61.488</ele>
        <time>2020-07-07T09:21:36Z</time>
      </trkpt>
      <trkpt lat="52.86718" lon="6.76396">
        <ele>61.488</ele>
        <time>2020-07-07T09:21:41Z</time>
      </trkpt>
      <trkpt lat="52.86718" lon="6.76396">
        <ele>61.488</ele>
        <time>2020-07-07T09:21:47Z</time>
      </trkpt>
      <trkpt lat="52.86718" lon="6.76396">
        <ele>61.488</ele>
        <time>2020-07-07T09:21:52Z</time>
      </trkpt>
      <trkpt lat="52.86718" lon="6.76396">
        <ele>61.488</ele>
        <time>2020-07-07T09:21:58Z</time>
      </trkpt>
      <trkpt lat="52.86718" lon="6.76396">
        <ele>61.488</ele>
        <time>2020-07-07T09:22:04Z</time>
      </trkpt>
      <trkpt lat="52.86718" lon="6.76396">
        <ele>61.488</ele>
        <time>2020-07-07T09:22:09Z</time>
      </trkpt>
      <trkpt lat="52.86718" lon="6.76396">
        <ele>61.488</ele>
        <time>2020-07-07T09:22:14Z</time>
      </trkpt>
      <trkpt lat="52.86718" lon="6.76396">
        <ele>61.488</ele>
        <time>2020-07-07T09:22:19Z</time>
      </trkpt>
      <trkpt lat="52.86718" lon="6.76396">
        <ele>61.488</ele>
        <time>2020-07-07T09:22:25Z</time>
      </trkpt>
      <trkpt lat="52.86718" lon="6.76396">
        <ele>61.488</ele>
        <time>2020-07-07T09:22:30Z</time>
      </trkpt>
      <trkpt lat="52.86718" lon="6.76396">
        <ele>61.488</ele>
        <time>2020-07-07T09:22:36Z</time>
      </trkpt>
      <trkpt lat="52.86718" lon="6.76396">
        <ele>61.488</ele>
        <time>2020-07-07T09:22:42Z</time>
      </trkpt>
      <trkpt lat="52.86718" lon="6.76396">
        <ele>61.488</ele>
        <time>2020-07-07T09:22:47Z</time>
      </trkpt>
      <trkpt lat="52.86718" lon="6.76396">
        <ele>61.488</ele>
        <time>2020-07-07T09:22:52Z</time>
      </trkpt>
      <trkpt lat="52.86718" lon="6.76396">
        <ele>61.488</ele>
        <time>2020-07-07T09:22:57Z</time>
      </trkpt>
      <trkpt lat="52.86718" lon="6.76396">
        <ele>61.488</ele>
        <time>2020-07-07T09:23:03Z</time>
      </trkpt>
      <trkpt lat="52.86718" lon="6.76396">
        <ele>61.488</ele>
        <time>2020-07-07T09:23:08Z</time>
      </trkpt>
      <trkpt lat="52.86718" lon="6.76396">
        <ele>61.488</ele>
        <time>2020-07-07T09:23:13Z</time>
      </trkpt>
      <trkpt lat="52.86718" lon="6.76396">
        <ele>61.488</ele>
        <time>2020-07-07T09:23:19Z</time>
      </trkpt>
      <trkpt lat="52.86718" lon="6.76396">
        <ele>61.488</ele>
        <time>2020-07-07T09:23:25Z</time>
      </trkpt>
      <trkpt lat="52.86718" lon="6.76396">
        <ele>61.488</ele>
        <time>2020-07-07T09:23:31Z</time>
      </trkpt>
      <trkpt lat="52.86718" lon="6.76396">
        <ele>61.488</ele>
        <time>2020-07-07T09:23:37Z</time>
      </trkpt>
      <trkpt lat="52.86718" lon="6.76396">
        <ele>61.488</ele>
        <time>2020-07-07T09:23:43Z</time>
      </trkpt>
      <trkpt lat="52.86718" lon="6.76396">
        <ele>61.488</ele>
        <time>2020-07-07T09:23:49Z</time>
      </trkpt>
      <trkpt lat="52.86718" lon="6.76396">
        <ele>61.488</ele>
        <time>2020-07-07T09:23:55Z</time>
      </trkpt>
      <trkpt lat="52.86718" lon="6.76396">
        <ele>61.488</ele>
        <time>2020-07-07T09:24:01Z</time>
      </trkpt>
      <trkpt lat="52.86718" lon="6.76396">
        <ele>61.488</ele>
        <time>2020-07-07T09:24:07Z</time>
      </trkpt>
      <trkpt lat="52.86718" lon="6.76396">
        <ele>61.488</ele>
        <time>2020-07-07T09:24:13Z</time>
      </trkpt>
      <trkpt lat="52.86718" lon="6.76396">
        <ele>61.488</ele>
        <time>2020-07-07T09:24:19Z</time>
      </trkpt>
      <trkpt lat="52.86718" lon="6.76396">
        <ele>61.488</ele>
        <time>2020-07-07T09:24:25Z</time>
      </trkpt>
      <trkpt lat="52.86718" lon="6.76396">
        <ele>61.488</ele>
        <time>2020-07-07T09:24:31Z</time>
      </trkpt>
      <trkpt lat="52.86718" lon="6.76396">
        <ele>61.488</ele>
        <time>2020-07-07T09:24:37Z</time>
      </trkpt>
      <trkpt lat="52.86718" lon="6.76396">
        <ele>61.488</ele>
        <time>2020-07-07T09:24:42Z</time>
      </trkpt>
      <trkpt lat="52.86718" lon="6.76396">
        <ele>61.488</ele>
        <time>2020-07-07T09:24:47Z</time>
      </trkpt>
      <trkpt lat="52.86718" lon="6.76396">
        <ele>61.488</ele>
        <time>2020-07-07T09:24:53Z</time>
      </trkpt>
      <trkpt lat="52.86718" lon="6.76396">
        <ele>61.488</ele>
        <time>2020-07-07T09:24:58Z</time>
      </trkpt>
      <trkpt lat="52.86718" lon="6.76396">
        <ele>61.488</ele>
        <time>2020-07-07T09:25:04Z</time>
      </trkpt>
      <trkpt lat="52.86718" lon="6.76396">
        <ele>61.488</ele>
        <time>2020-07-07T09:25:10Z</time>
      </trkpt>
      <trkpt lat="52.86718" lon="6.76396">
        <ele>61.488</ele>
        <time>2020-07-07T09:25:16Z</time>
      </trkpt>
      <trkpt lat="52.86718" lon="6.76396">
        <ele>61.488</ele>
        <time>2020-07-07T09:25:21Z</time>
      </trkpt>
      <trkpt lat="52.86718" lon="6.76396">
        <ele>61.488</ele>
        <time>2020-07-07T09:25:27Z</time>
      </trkpt>
      <trkpt lat="52.86718" lon="6.76396">
        <ele>61.488</ele>
        <time>2020-07-07T09:25:33Z</time>
      </trkpt>
      <trkpt lat="52.86718" lon="6.76396">
        <ele>61.488</ele>
        <time>2020-07-07T09:25:38Z</time>
      </trkpt>
      <trkpt lat="52.86718" lon="6.76396">
        <ele>61.488</ele>
        <time>2020-07-07T09:25:44Z</time>
      </trkpt>
      <trkpt lat="52.86718" lon="6.76396">
        <ele>61.488</ele>
        <time>2020-07-07T09:25:49Z</time>
      </trkpt>
      <trkpt lat="52.86718" lon="6.76396">
        <ele>61.488</ele>
        <time>2020-07-07T09:25:54Z</time>
      </trkpt>
      <trkpt lat="52.86718" lon="6.76396">
        <ele>61.488</ele>
        <time>2020-07-07T09:26:00Z</time>
      </trkpt>
      <trkpt lat="52.86718" lon="6.76396">
        <ele>61.488</ele>
        <time>2020-07-07T09:26:05Z</time>
      </trkpt>
      <trkpt lat="52.86718" lon="6.76396">
        <ele>61.488</ele>
        <time>2020-07-07T09:26:11Z</time>
      </trkpt>
      <trkpt lat="52.86718" lon="6.76396">
        <ele>61.488</ele>
        <time>2020-07-07T09:26:17Z</time>
      </trkpt>
      <trkpt lat="52.86718" lon="6.76396">
        <ele>61.488</ele>
        <time>2020-07-07T09:26:22Z</time>
      </trkpt>
      <trkpt lat="52.86718" lon="6.76396">
        <ele>61.488</ele>
        <time>2020-07-07T09:26:27Z</time>
      </trkpt>
      <trkpt lat="52.86718" lon="6.76396">
        <ele>61.488</ele>
        <time>2020-07-07T09:26:33Z</time>
      </trkpt>
      <trkpt lat="52.86718" lon="6.76396">
        <ele>61.488</ele>
        <time>2020-07-07T09:26:38Z</time>
      </trkpt>
      <trkpt lat="52.86718" lon="6.76396">
        <ele>61.488</ele>
        <time>2020-07-07T09:26:44Z</time>
      </trkpt>
      <trkpt lat="52.86718" lon="6.76396">
        <ele>61.488</ele>
        <time>2020-07-07T09:26:49Z</time>
      </trkpt>
      <trkpt lat="52.86718" lon="6.76396">
        <ele>61.488</ele>
        <time>2020-07-07T09:26:54Z</time>
      </trkpt>
      <trkpt lat="52.86718" lon="6.76396">
        <ele>61.488</ele>
        <time>2020-07-07T09:27:00Z</time>
      </trkpt>
      <trkpt lat="52.86718" lon="6.76396">
        <ele>61.488</ele>
        <time>2020-07-07T09:27:05Z</time>
      </trkpt>
      <trkpt lat="52.86718" lon="6.76396">
        <ele>61.488</ele>
        <time>2020-07-07T09:27:11Z</time>
      </trkpt>
      <trkpt lat="52.86718" lon="6.76396">
        <ele>61.488</ele>
        <time>2020-07-07T09:27:16Z</time>
      </trkpt>
      <trkpt lat="52.86718" lon="6.76396">
        <ele>61.488</ele>
        <time>2020-07-07T09:27:22Z</time>
      </trkpt>
      <trkpt lat="52.86718" lon="6.76396">
        <ele>61.488</ele>
        <time>2020-07-07T09:27:28Z</time>
      </trkpt>
      <trkpt lat="52.86718" lon="6.76396">
        <ele>61.488</ele>
        <time>2020-07-07T09:27:34Z</time>
      </trkpt>
      <trkpt lat="52.86718" lon="6.76396">
        <ele>61.488</ele>
        <time>2020-07-07T09:27:39Z</time>
      </trkpt>
      <trkpt lat="52.86718" lon="6.76396">
        <ele>61.488</ele>
        <time>2020-07-07T09:27:45Z</time>
      </trkpt>
      <trkpt lat="52.86718" lon="6.76396">
        <ele>61.488</ele>
        <time>2020-07-07T09:27:51Z</time>
      </trkpt>
      <trkpt lat="52.86718" lon="6.76396">
        <ele>61.488</ele>
        <time>2020-07-07T09:27:57Z</time>
      </trkpt>
      <trkpt lat="52.86718" lon="6.76396">
        <ele>61.488</ele>
        <time>2020-07-07T09:28:02Z</time>
      </trkpt>
      <trkpt lat="52.86718" lon="6.76396">
        <ele>61.488</ele>
        <time>2020-07-07T09:28:08Z</time>
      </trkpt>
      <trkpt lat="52.86718" lon="6.76396">
        <ele>61.488</ele>
        <time>2020-07-07T09:28:14Z</time>
      </trkpt>
      <trkpt lat="52.86718" lon="6.76396">
        <ele>61.488</ele>
        <time>2020-07-07T09:28:20Z</time>
      </trkpt>
      <trkpt lat="52.86718" lon="6.76396">
        <ele>61.488</ele>
        <time>2020-07-07T09:28:26Z</time>
      </trkpt>
      <trkpt lat="52.86718" lon="6.76396">
        <ele>61.488</ele>
        <time>2020-07-07T09:28:31Z</time>
      </trkpt>
      <trkpt lat="52.86718" lon="6.76396">
        <ele>61.488</ele>
        <time>2020-07-07T09:28:37Z</time>
      </trkpt>
      <trkpt lat="52.86718" lon="6.76396">
        <ele>61.488</ele>
        <time>2020-07-07T09:28:43Z</time>
      </trkpt>
      <trkpt lat="52.86718" lon="6.76396">
        <ele>61.488</ele>
        <time>2020-07-07T09:28:49Z</time>
      </trkpt>
      <trkpt lat="52.86718" lon="6.76396">
        <ele>61.488</ele>
        <time>2020-07-07T09:28:55Z</time>
      </trkpt>
      <trkpt lat="52.86718" lon="6.76396">
        <ele>61.488</ele>
        <time>2020-07-07T09:29:01Z</time>
      </trkpt>
      <trkpt lat="52.86718" lon="6.76396">
        <ele>61.488</ele>
        <time>2020-07-07T09:29:06Z</time>
      </trkpt>
      <trkpt lat="52.86718" lon="6.76396">
        <ele>61.488</ele>
        <time>2020-07-07T09:29:12Z</time>
      </trkpt>
      <trkpt lat="52.86718" lon="6.76396">
        <ele>61.488</ele>
        <time>2020-07-07T09:29:17Z</time>
      </trkpt>
      <trkpt lat="52.86718" lon="6.76396">
        <ele>61.488</ele>
        <time>2020-07-07T09:29:23Z</time>
      </trkpt>
      <trkpt lat="52.86718" lon="6.76396">
        <ele>61.488</ele>
        <time>2020-07-07T09:29:28Z</time>
      </trkpt>
      <trkpt lat="52.86718" lon="6.76396">
        <ele>61.488</ele>
        <time>2020-07-07T09:29:34Z</time>
      </trkpt>
      <trkpt lat="52.86718" lon="6.76396">
        <ele>61.488</ele>
        <time>2020-07-07T09:29:39Z</time>
      </trkpt>
      <trkpt lat="52.86718" lon="6.76396">
        <ele>61.488</ele>
        <time>2020-07-07T09:29:44Z</time>
      </trkpt>
      <trkpt lat="52.86718" lon="6.76396">
        <ele>61.488</ele>
        <time>2020-07-07T09:29:49Z</time>
      </trkpt>
      <trkpt lat="52.86718" lon="6.76396">
        <ele>61.488</ele>
        <time>2020-07-07T09:29:55Z</time>
      </trkpt>
      <trkpt lat="52.86718" lon="6.76396">
        <ele>61.488</ele>
        <time>2020-07-07T09:30:00Z</time>
      </trkpt>
      <trkpt lat="52.86718" lon="6.76396">
        <ele>61.488</ele>
        <time>2020-07-07T09:30:06Z</time>
      </trkpt>
      <trkpt lat="52.86718" lon="6.76396">
        <ele>61.488</ele>
        <time>2020-07-07T09:30:11Z</time>
      </trkpt>
      <trkpt lat="52.86718" lon="6.76396">
        <ele>61.488</ele>
        <time>2020-07-07T09:30:17Z</time>
      </trkpt>
      <trkpt lat="52.86718" lon="6.76396">
        <ele>61.488</ele>
        <time>2020-07-07T09:30:22Z</time>
      </trkpt>
      <trkpt lat="52.86718" lon="6.76396">
        <ele>61.488</ele>
        <time>2020-07-07T09:30:27Z</time>
      </trkpt>
      <trkpt lat="52.86718" lon="6.76396">
        <ele>61.488</ele>
        <time>2020-07-07T09:30:33Z</time>
      </trkpt>
      <trkpt lat="52.86718" lon="6.76396">
        <ele>61.488</ele>
        <time>2020-07-07T09:30:39Z</time>
      </trkpt>
      <trkpt lat="52.86718" lon="6.76396">
        <ele>61.488</ele>
        <time>2020-07-07T09:30:45Z</time>
      </trkpt>
      <trkpt lat="52.86718" lon="6.76396">
        <ele>61.488</ele>
        <time>2020-07-07T09:30:51Z</time>
      </trkpt>
      <trkpt lat="52.86718" lon="6.76396">
        <ele>61.488</ele>
        <time>2020-07-07T09:30:56Z</time>
      </trkpt>
      <trkpt lat="52.86718" lon="6.76396">
        <ele>61.488</ele>
        <time>2020-07-07T09:31:02Z</time>
      </trkpt>
      <trkpt lat="52.86718" lon="6.76396">
        <ele>61.488</ele>
        <time>2020-07-07T09:31:08Z</time>
      </trkpt>
      <trkpt lat="52.86718" lon="6.76396">
        <ele>61.488</ele>
        <time>2020-07-07T09:31:14Z</time>
      </trkpt>
      <trkpt lat="52.86718" lon="6.76396">
        <ele>61.488</ele>
        <time>2020-07-07T09:31:20Z</time>
      </trkpt>
      <trkpt lat="52.86718" lon="6.76396">
        <ele>61.488</ele>
        <time>2020-07-07T09:31:26Z</time>
      </trkpt>
      <trkpt lat="52.86718" lon="6.76396">
        <ele>61.488</ele>
        <time>2020-07-07T09:31:31Z</time>
      </trkpt>
      <trkpt lat="52.86718" lon="6.76396">
        <ele>61.488</ele>
        <time>2020-07-07T09:31:37Z</time>
      </trkpt>
      <trkpt lat="52.86718" lon="6.76396">
        <ele>61.488</ele>
        <time>2020-07-07T09:31:43Z</time>
      </trkpt>
      <trkpt lat="52.86718" lon="6.76396">
        <ele>61.488</ele>
        <time>2020-07-07T09:31:48Z</time>
      </trkpt>
      <trkpt lat="52.86718" lon="6.76396">
        <ele>61.488</ele>
        <time>2020-07-07T09:31:54Z</time>
      </trkpt>
      <trkpt lat="52.86719" lon="6.76396">
        <ele>62.116</ele>
        <time>2020-07-07T09:31:59Z</time>
      </trkpt>
      <trkpt lat="52.86718" lon="6.76397">
        <ele>62.543</ele>
        <time>2020-07-07T09:32:04Z</time>
      </trkpt>
      <trkpt lat="52.86718" lon="6.76397">
        <ele>62.543</ele>
        <time>2020-07-07T09:32:09Z</time>
      </trkpt>
      <trkpt lat="52.86718" lon="6.76397">
        <ele>62.543</ele>
        <time>2020-07-07T09:32:15Z</time>
      </trkpt>
      <trkpt lat="52.86718" lon="6.76397">
        <ele>62.543</ele>
        <time>2020-07-07T09:32:21Z</time>
      </trkpt>
      <trkpt lat="52.86718" lon="6.76397">
        <ele>62.543</ele>
        <time>2020-07-07T09:32:27Z</time>
      </trkpt>
      <trkpt lat="52.86718" lon="6.76397">
        <ele>62.543</ele>
        <time>2020-07-07T09:32:32Z</time>
      </trkpt>
      <trkpt lat="52.86718" lon="6.76397">
        <ele>62.543</ele>
        <time>2020-07-07T09:32:38Z</time>
      </trkpt>
      <trkpt lat="52.86718" lon="6.76397">
        <ele>62.543</ele>
        <time>2020-07-07T09:32:44Z</time>
      </trkpt>
      <trkpt lat="52.86718" lon="6.76397">
        <ele>62.543</ele>
        <time>2020-07-07T09:32:50Z</time>
      </trkpt>
      <trkpt lat="52.86718" lon="6.76397">
        <ele>62.543</ele>
        <time>2020-07-07T09:32:55Z</time>
      </trkpt>
      <trkpt lat="52.86718" lon="6.76397">
        <ele>62.543</ele>
        <time>2020-07-07T09:33:01Z</time>
      </trkpt>
      <trkpt lat="52.86718" lon="6.76397">
        <ele>62.543</ele>
        <time>2020-07-07T09:33:07Z</time>
      </trkpt>
      <trkpt lat="52.86718" lon="6.76397">
        <ele>62.543</ele>
        <time>2020-07-07T09:33:13Z</time>
      </trkpt>
      <trkpt lat="52.86718" lon="6.76397">
        <ele>62.543</ele>
        <time>2020-07-07T09:33:19Z</time>
      </trkpt>
      <trkpt lat="52.86718" lon="6.76397">
        <ele>62.543</ele>
        <time>2020-07-07T09:33:25Z</time>
      </trkpt>
      <trkpt lat="52.86718" lon="6.76397">
        <ele>62.543</ele>
        <time>2020-07-07T09:33:31Z</time>
      </trkpt>
      <trkpt lat="52.86718" lon="6.76397">
        <ele>62.543</ele>
        <time>2020-07-07T09:33:37Z</time>
      </trkpt>
      <trkpt lat="52.86718" lon="6.76397">
        <ele>62.543</ele>
        <time>2020-07-07T09:33:43Z</time>
      </trkpt>
      <trkpt lat="52.86718" lon="6.76397">
        <ele>62.543</ele>
        <time>2020-07-07T09:33:49Z</time>
      </trkpt>
      <trkpt lat="52.86718" lon="6.76397">
        <ele>62.543</ele>
        <time>2020-07-07T09:33:54Z</time>
      </trkpt>
      <trkpt lat="52.86718" lon="6.76397">
        <ele>62.543</ele>
        <time>2020-07-07T09:33:59Z</time>
      </trkpt>
      <trkpt lat="52.86718" lon="6.76397">
        <ele>62.543</ele>
        <time>2020-07-07T09:34:05Z</time>
      </trkpt>
      <trkpt lat="52.86718" lon="6.76397">
        <ele>62.543</ele>
        <time>2020-07-07T09:34:10Z</time>
      </trkpt>
      <trkpt lat="52.86718" lon="6.76397">
        <ele>61.949</ele>
        <time>2020-07-07T09:34:16Z</time>
      </trkpt>
      <trkpt lat="52.86718" lon="6.76397">
        <ele>61.949</ele>
        <time>2020-07-07T09:34:22Z</time>
      </trkpt>
      <trkpt lat="52.86718" lon="6.76397">
        <ele>61.949</ele>
        <time>2020-07-07T09:34:28Z</time>
      </trkpt>
      <trkpt lat="52.86718" lon="6.76397">
        <ele>61.949</ele>
        <time>2020-07-07T09:34:33Z</time>
      </trkpt>
      <trkpt lat="52.86718" lon="6.76397">
        <ele>61.949</ele>
        <time>2020-07-07T09:34:39Z</time>
      </trkpt>
      <trkpt lat="52.86718" lon="6.76397">
        <ele>61.949</ele>
        <time>2020-07-07T09:34:44Z</time>
      </trkpt>
      <trkpt lat="52.86718" lon="6.76397">
        <ele>61.801</ele>
        <time>2020-07-07T09:34:50Z</time>
      </trkpt>
      <trkpt lat="52.86718" lon="6.76397">
        <ele>61.743</ele>
        <time>2020-07-07T09:34:56Z</time>
      </trkpt>
      <trkpt lat="52.86718" lon="6.76397">
        <ele>61.771</ele>
        <time>2020-07-07T09:35:01Z</time>
      </trkpt>
      <trkpt lat="52.86718" lon="6.76397">
        <ele>61.771</ele>
        <time>2020-07-07T09:35:07Z</time>
      </trkpt>
      <trkpt lat="52.86718" lon="6.76397">
        <ele>61.771</ele>
        <time>2020-07-07T09:35:12Z</time>
      </trkpt>
      <trkpt lat="52.86718" lon="6.76397">
        <ele>61.771</ele>
        <time>2020-07-07T09:35:18Z</time>
      </trkpt>
      <trkpt lat="52.86718" lon="6.76397">
        <ele>61.771</ele>
        <time>2020-07-07T09:35:23Z</time>
      </trkpt>
      <trkpt lat="52.86718" lon="6.76397">
        <ele>61.771</ele>
        <time>2020-07-07T09:35:28Z</time>
      </trkpt>
      <trkpt lat="52.86718" lon="6.76397">
        <ele>61.771</ele>
        <time>2020-07-07T09:35:33Z</time>
      </trkpt>
      <trkpt lat="52.86718" lon="6.76397">
        <ele>61.771</ele>
        <time>2020-07-07T09:35:39Z</time>
      </trkpt>
      <trkpt lat="52.86718" lon="6.76397">
        <ele>61.771</ele>
        <time>2020-07-07T09:35:44Z</time>
      </trkpt>
      <trkpt lat="52.86718" lon="6.76397">
        <ele>61.771</ele>
        <time>2020-07-07T09:35:49Z</time>
      </trkpt>
      <trkpt lat="52.86718" lon="6.76397">
        <ele>61.771</ele>
        <time>2020-07-07T09:35:55Z</time>
      </trkpt>
      <trkpt lat="52.86718" lon="6.76397">
        <ele>61.771</ele>
        <time>2020-07-07T09:36:01Z</time>
      </trkpt>
      <trkpt lat="52.86718" lon="6.76397">
        <ele>61.771</ele>
        <time>2020-07-07T09:36:06Z</time>
      </trkpt>
      <trkpt lat="52.86718" lon="6.76397">
        <ele>61.771</ele>
        <time>2020-07-07T09:36:11Z</time>
      </trkpt>
      <trkpt lat="52.86718" lon="6.76397">
        <ele>61.771</ele>
        <time>2020-07-07T09:36:17Z</time>
      </trkpt>
      <trkpt lat="52.86718" lon="6.76397">
        <ele>61.771</ele>
        <time>2020-07-07T09:36:23Z</time>
      </trkpt>
      <trkpt lat="52.86718" lon="6.76397">
        <ele>61.771</ele>
        <time>2020-07-07T09:36:28Z</time>
      </trkpt>
      <trkpt lat="52.86718" lon="6.76397">
        <ele>61.771</ele>
        <time>2020-07-07T09:36:34Z</time>
      </trkpt>
      <trkpt lat="52.86718" lon="6.76397">
        <ele>61.771</ele>
        <time>2020-07-07T09:36:40Z</time>
      </trkpt>
      <trkpt lat="52.86718" lon="6.76397">
        <ele>61.771</ele>
        <time>2020-07-07T09:36:46Z</time>
      </trkpt>
      <trkpt lat="52.86718" lon="6.76397">
        <ele>61.771</ele>
        <time>2020-07-07T09:36:52Z</time>
      </trkpt>
      <trkpt lat="52.86718" lon="6.76397">
        <ele>61.771</ele>
        <time>2020-07-07T09:36:57Z</time>
      </trkpt>
      <trkpt lat="52.86718" lon="6.76397">
        <ele>61.771</ele>
        <time>2020-07-07T09:37:03Z</time>
      </trkpt>
      <trkpt lat="52.86718" lon="6.76397">
        <ele>61.771</ele>
        <time>2020-07-07T09:37:08Z</time>
      </trkpt>
      <trkpt lat="52.86718" lon="6.76397">
        <ele>61.771</ele>
        <time>2020-07-07T09:37:13Z</time>
      </trkpt>
      <trkpt lat="52.86718" lon="6.76397">
        <ele>61.771</ele>
        <time>2020-07-07T09:37:18Z</time>
      </trkpt>
      <trkpt lat="52.86718" lon="6.76397">
        <ele>61.771</ele>
        <time>2020-07-07T09:37:24Z</time>
      </trkpt>
      <trkpt lat="52.86718" lon="6.76397">
        <ele>61.771</ele>
        <time>2020-07-07T09:37:29Z</time>
      </trkpt>
      <trkpt lat="52.86718" lon="6.76397">
        <ele>61.771</ele>
        <time>2020-07-07T09:37:35Z</time>
      </trkpt>
      <trkpt lat="52.86718" lon="6.76397">
        <ele>61.771</ele>
        <time>2020-07-07T09:37:41Z</time>
      </trkpt>
      <trkpt lat="52.86718" lon="6.76397">
        <ele>61.771</ele>
        <time>2020-07-07T09:37:46Z</time>
      </trkpt>
      <trkpt lat="52.86718" lon="6.76397">
        <ele>61.771</ele>
        <time>2020-07-07T09:37:52Z</time>
      </trkpt>
      <trkpt lat="52.86718" lon="6.76397">
        <ele>61.771</ele>
        <time>2020-07-07T09:37:58Z</time>
      </trkpt>
      <trkpt lat="52.86718" lon="6.76397">
        <ele>61.771</ele>
        <time>2020-07-07T09:38:03Z</time>
      </trkpt>
      <trkpt lat="52.86718" lon="6.76397">
        <ele>61.771</ele>
        <time>2020-07-07T09:38:09Z</time>
      </trkpt>
      <trkpt lat="52.86718" lon="6.76397">
        <ele>61.771</ele>
        <time>2020-07-07T09:38:14Z</time>
      </trkpt>
      <trkpt lat="52.86718" lon="6.76397">
        <ele>61.771</ele>
        <time>2020-07-07T09:38:20Z</time>
      </trkpt>
      <trkpt lat="52.86718" lon="6.76397">
        <ele>61.771</ele>
        <time>2020-07-07T09:38:26Z</time>
      </trkpt>
      <trkpt lat="52.86718" lon="6.76397">
        <ele>61.771</ele>
        <time>2020-07-07T09:38:32Z</time>
      </trkpt>
      <trkpt lat="52.86718" lon="6.76397">
        <ele>61.771</ele>
        <time>2020-07-07T09:38:38Z</time>
      </trkpt>
      <trkpt lat="52.86718" lon="6.76397">
        <ele>61.771</ele>
        <time>2020-07-07T09:38:43Z</time>
      </trkpt>
      <trkpt lat="52.86718" lon="6.76397">
        <ele>61.771</ele>
        <time>2020-07-07T09:38:49Z</time>
      </trkpt>
      <trkpt lat="52.86718" lon="6.76397">
        <ele>61.771</ele>
        <time>2020-07-07T09:38:54Z</time>
      </trkpt>
      <trkpt lat="52.86718" lon="6.76397">
        <ele>62.529</ele>
        <time>2020-07-07T09:39:00Z</time>
      </trkpt>
      <trkpt lat="52.86718" lon="6.76397">
        <ele>62.231</ele>
        <time>2020-07-07T09:39:06Z</time>
      </trkpt>
      <trkpt lat="52.86718" lon="6.76397">
        <ele>62.231</ele>
        <time>2020-07-07T09:39:12Z</time>
      </trkpt>
      <trkpt lat="52.86718" lon="6.76397">
        <ele>60.45</ele>
        <time>2020-07-07T09:39:17Z</time>
      </trkpt>
      <trkpt lat="52.8673" lon="6.76431">
        <ele>60.438</ele>
        <time>2020-07-07T09:39:23Z</time>
      </trkpt>
      <trkpt lat="52.8674" lon="6.76456">
        <ele>61.022</ele>
        <time>2020-07-07T09:39:29Z</time>
      </trkpt>
      <trkpt lat="52.86747" lon="6.76482">
        <ele>61.661</ele>
        <time>2020-07-07T09:39:35Z</time>
      </trkpt>
      <trkpt lat="52.86752" lon="6.76507">
        <ele>61.75</ele>
        <time>2020-07-07T09:39:41Z</time>
      </trkpt>
      <trkpt lat="52.86759" lon="6.76532">
        <ele>61.371</ele>
        <time>2020-07-07T09:39:46Z</time>
      </trkpt>
      <trkpt lat="52.86766" lon="6.76563">
        <ele>63.719</ele>
        <time>2020-07-07T09:39:52Z</time>
      </trkpt>
      <trkpt lat="52.86772" lon="6.76592">
        <ele>65.621</ele>
        <time>2020-07-07T09:39:57Z</time>
      </trkpt>
      <trkpt lat="52.86778" lon="6.76625">
        <ele>67.811</ele>
        <time>2020-07-07T09:40:03Z</time>
      </trkpt>
      <trkpt lat="52.86785" lon="6.76653">
        <ele>68.688</ele>
        <time>2020-07-07T09:40:08Z</time>
      </trkpt>
      <trkpt lat="52.86795" lon="6.76689">
        <ele>68.336</ele>
        <time>2020-07-07T09:40:14Z</time>
      </trkpt>
      <trkpt lat="52.86802" lon="6.76724">
        <ele>66.683</ele>
        <time>2020-07-07T09:40:20Z</time>
      </trkpt>
      <trkpt lat="52.86813" lon="6.76758">
        <ele>65.514</ele>
        <time>2020-07-07T09:40:26Z</time>
      </trkpt>
      <trkpt lat="52.86822" lon="6.7679">
        <ele>64.897</ele>
        <time>2020-07-07T09:40:31Z</time>
      </trkpt>
      <trkpt lat="52.86833" lon="6.76828">
        <ele>63.991</ele>
        <time>2020-07-07T09:40:37Z</time>
      </trkpt>
      <trkpt lat="52.86845" lon="6.76866">
        <ele>64.065</ele>
        <time>2020-07-07T09:40:43Z</time>
      </trkpt>
      <trkpt lat="52.86856" lon="6.76902">
        <ele>64.536</ele>
        <time>2020-07-07T09:40:49Z</time>
      </trkpt>
      <trkpt lat="52.86864" lon="6.76939">
        <ele>64.073</ele>
        <time>2020-07-07T09:40:54Z</time>
      </trkpt>
      <trkpt lat="52.86874" lon="6.76975">
        <ele>64.681</ele>
        <time>2020-07-07T09:41:00Z</time>
      </trkpt>
      <trkpt lat="52.86884" lon="6.77014">
        <ele>65.472</ele>
        <time>2020-07-07T09:41:06Z</time>
      </trkpt>
      <trkpt lat="52.86893" lon="6.7705">
        <ele>64.563</ele>
        <time>2020-07-07T09:41:12Z</time>
      </trkpt>
      <trkpt lat="52.86901" lon="6.77087">
        <ele>64.151</ele>
        <time>2020-07-07T09:41:17Z</time>
      </trkpt>
      <trkpt lat="52.8691" lon="6.77127">
        <ele>63.825</ele>
        <time>2020-07-07T09:41:23Z</time>
      </trkpt>
      <trkpt lat="52.86918" lon="6.77159">
        <ele>63.147</ele>
        <time>2020-07-07T09:41:28Z</time>
      </trkpt>
      <trkpt lat="52.86927" lon="6.77186">
        <ele>62.863</ele>
        <time>2020-07-07T09:41:33Z</time>
      </trkpt>
      <trkpt lat="52.86936" lon="6.77225">
        <ele>62.631</ele>
        <time>2020-07-07T09:41:39Z</time>
      </trkpt>
      <trkpt lat="52.86946" lon="6.77264">
        <ele>61.933</ele>
        <time>2020-07-07T09:41:45Z</time>
      </trkpt>
      <trkpt lat="52.86957" lon="6.77306">
        <ele>61.689</ele>
        <time>2020-07-07T09:41:51Z</time>
      </trkpt>
      <trkpt lat="52.86965" lon="6.77339">
        <ele>61.873</ele>
        <time>2020-07-07T09:41:56Z</time>
      </trkpt>
      <trkpt lat="52.86974" lon="6.77378">
        <ele>59.534</ele>
        <time>2020-07-07T09:42:02Z</time>
      </trkpt>
      <trkpt lat="52.86981" lon="6.7741">
        <ele>58.41</ele>
        <time>2020-07-07T09:42:07Z</time>
      </trkpt>
      <trkpt lat="52.86992" lon="6.77446">
        <ele>58.424</ele>
        <time>2020-07-07T09:42:13Z</time>
      </trkpt>
      <trkpt lat="52.87003" lon="6.77481">
        <ele>59.075</ele>
        <time>2020-07-07T09:42:19Z</time>
      </trkpt>
      <trkpt lat="52.87011" lon="6.77515">
        <ele>58.886</ele>
        <time>2020-07-07T09:42:24Z</time>
      </trkpt>
      <trkpt lat="52.87019" lon="6.77547">
        <ele>58.058</ele>
        <time>2020-07-07T09:42:29Z</time>
      </trkpt>
      <trkpt lat="52.87026" lon="6.77579">
        <ele>58.431</ele>
        <time>2020-07-07T09:42:34Z</time>
      </trkpt>
      <trkpt lat="52.87036" lon="6.77615">
        <ele>58.771</ele>
        <time>2020-07-07T09:42:40Z</time>
      </trkpt>
      <trkpt lat="52.87044" lon="6.77647">
        <ele>58.817</ele>
        <time>2020-07-07T09:42:45Z</time>
      </trkpt>
      <trkpt lat="52.87052" lon="6.77678">
        <ele>58.141</ele>
        <time>2020-07-07T09:42:50Z</time>
      </trkpt>
      <trkpt lat="52.87062" lon="6.77715">
        <ele>57.461</ele>
        <time>2020-07-07T09:42:56Z</time>
      </trkpt>
      <trkpt lat="52.87071" lon="6.77756">
        <ele>56.508</ele>
        <time>2020-07-07T09:43:02Z</time>
      </trkpt>
      <trkpt lat="52.87082" lon="6.7779">
        <ele>57.976</ele>
        <time>2020-07-07T09:43:08Z</time>
      </trkpt>
      <trkpt lat="52.8709" lon="6.77825">
        <ele>57.861</ele>
        <time>2020-07-07T09:43:14Z</time>
      </trkpt>
      <trkpt lat="52.87099" lon="6.77857">
        <ele>59.251</ele>
        <time>2020-07-07T09:43:20Z</time>
      </trkpt>
      <trkpt lat="52.8711" lon="6.77889">
        <ele>59.376</ele>
        <time>2020-07-07T09:43:26Z</time>
      </trkpt>
      <trkpt lat="52.87117" lon="6.77919">
        <ele>58.5</ele>
        <time>2020-07-07T09:43:31Z</time>
      </trkpt>
      <trkpt lat="52.87126" lon="6.77959">
        <ele>58.678</ele>
        <time>2020-07-07T09:43:37Z</time>
      </trkpt>
      <trkpt lat="52.87136" lon="6.77993">
        <ele>57.429</ele>
        <time>2020-07-07T09:43:42Z</time>
      </trkpt>
      <trkpt lat="52.87146" lon="6.78032">
        <ele>56.479</ele>
        <time>2020-07-07T09:43:48Z</time>
      </trkpt>
      <trkpt lat="52.87156" lon="6.78059">
        <ele>55.888</ele>
        <time>2020-07-07T09:43:53Z</time>
      </trkpt>
      <trkpt lat="52.87168" lon="6.78098">
        <ele>56.821</ele>
        <time>2020-07-07T09:43:59Z</time>
      </trkpt>
      <trkpt lat="52.87176" lon="6.78136">
        <ele>57.041</ele>
        <time>2020-07-07T09:44:05Z</time>
      </trkpt>
      <trkpt lat="52.87185" lon="6.78175">
        <ele>58.114</ele>
        <time>2020-07-07T09:44:11Z</time>
      </trkpt>
      <trkpt lat="52.87194" lon="6.78216">
        <ele>58.113</ele>
        <time>2020-07-07T09:44:17Z</time>
      </trkpt>
      <trkpt lat="52.87202" lon="6.78256">
        <ele>56.561</ele>
        <time>2020-07-07T09:44:23Z</time>
      </trkpt>
      <trkpt lat="52.87213" lon="6.78294">
        <ele>57.642</ele>
        <time>2020-07-07T09:44:29Z</time>
      </trkpt>
      <trkpt lat="52.87221" lon="6.78319">
        <ele>57.158</ele>
        <time>2020-07-07T09:44:34Z</time>
      </trkpt>
      <trkpt lat="52.87232" lon="6.78349">
        <ele>57.004</ele>
        <time>2020-07-07T09:44:40Z</time>
      </trkpt>
      <trkpt lat="52.8724" lon="6.78378">
        <ele>57.182</ele>
        <time>2020-07-07T09:44:45Z</time>
      </trkpt>
      <trkpt lat="52.87248" lon="6.78412">
        <ele>58.351</ele>
        <time>2020-07-07T09:44:50Z</time>
      </trkpt>
      <trkpt lat="52.87257" lon="6.78451">
        <ele>60.019</ele>
        <time>2020-07-07T09:44:56Z</time>
      </trkpt>
      <trkpt lat="52.87266" lon="6.78479">
        <ele>60.771</ele>
        <time>2020-07-07T09:45:01Z</time>
      </trkpt>
      <trkpt lat="52.87272" lon="6.78514">
        <ele>61.281</ele>
        <time>2020-07-07T09:45:07Z</time>
      </trkpt>
      <trkpt lat="52.8728" lon="6.78549">
        <ele>62.54</ele>
        <time>2020-07-07T09:45:12Z</time>
      </trkpt>
      <trkpt lat="52.87286" lon="6.78581">
        <ele>61.4</ele>
        <time>2020-07-07T09:45:17Z</time>
      </trkpt>
      <trkpt lat="52.87293" lon="6.78613">
        <ele>60.338</ele>
        <time>2020-07-07T09:45:23Z</time>
      </trkpt>
      <trkpt lat="52.87301" lon="6.78639">
        <ele>59.556</ele>
        <time>2020-07-07T09:45:28Z</time>
      </trkpt>
      <trkpt lat="52.87307" lon="6.78668">
        <ele>60.214</ele>
        <time>2020-07-07T09:45:33Z</time>
      </trkpt>
      <trkpt lat="52.8731" lon="6.78699">
        <ele>61.254</ele>
        <time>2020-07-07T09:45:39Z</time>
      </trkpt>
      <trkpt lat="52.87312" lon="6.7873">
        <ele>62.282</ele>
        <time>2020-07-07T09:45:44Z</time>
      </trkpt>
      <trkpt lat="52.87316" lon="6.78768">
        <ele>63.66</ele>
        <time>2020-07-07T09:45:50Z</time>
      </trkpt>
      <trkpt lat="52.87323" lon="6.78802">
        <ele>65.765</ele>
        <time>2020-07-07T09:45:56Z</time>
      </trkpt>
      <trkpt lat="52.87324" lon="6.78844">
        <ele>67.866</ele>
        <time>2020-07-07T09:46:02Z</time>
      </trkpt>
      <trkpt lat="52.87326" lon="6.78879">
        <ele>70.686</ele>
        <time>2020-07-07T09:46:08Z</time>
      </trkpt>
      <trkpt lat="52.87328" lon="6.78909">
        <ele>72.623</ele>
        <time>2020-07-07T09:46:13Z</time>
      </trkpt>
      <trkpt lat="52.87328" lon="6.78953">
        <ele>74.338</ele>
        <time>2020-07-07T09:46:19Z</time>
      </trkpt>
      <trkpt lat="52.87331" lon="6.78995">
        <ele>76.308</ele>
        <time>2020-07-07T09:46:25Z</time>
      </trkpt>
      <trkpt lat="52.87334" lon="6.79032">
        <ele>79.1</ele>
        <time>2020-07-07T09:46:31Z</time>
      </trkpt>
      <trkpt lat="52.87334" lon="6.79073">
        <ele>80.619</ele>
        <time>2020-07-07T09:46:37Z</time>
      </trkpt>
      <trkpt lat="52.87336" lon="6.79101">
        <ele>80.418</ele>
        <time>2020-07-07T09:46:42Z</time>
      </trkpt>
      <trkpt lat="52.87339" lon="6.79142">
        <ele>79.712</ele>
        <time>2020-07-07T09:46:48Z</time>
      </trkpt>
      <trkpt lat="52.87342" lon="6.79171">
        <ele>79.62</ele>
        <time>2020-07-07T09:46:53Z</time>
      </trkpt>
      <trkpt lat="52.87345" lon="6.79211">
        <ele>79.121</ele>
        <time>2020-07-07T09:46:59Z</time>
      </trkpt>
      <trkpt lat="52.87347" lon="6.79242">
        <ele>79.431</ele>
        <time>2020-07-07T09:47:04Z</time>
      </trkpt>
      <trkpt lat="52.87348" lon="6.79273">
        <ele>80.544</ele>
        <time>2020-07-07T09:47:09Z</time>
      </trkpt>
      <trkpt lat="52.8735" lon="6.79313">
        <ele>80.766</ele>
        <time>2020-07-07T09:47:15Z</time>
      </trkpt>
      <trkpt lat="52.87353" lon="6.79352">
        <ele>79.594</ele>
        <time>2020-07-07T09:47:21Z</time>
      </trkpt>
      <trkpt lat="52.87355" lon="6.79393">
        <ele>78.12</ele>
        <time>2020-07-07T09:47:27Z</time>
      </trkpt>
      <trkpt lat="52.87356" lon="6.79429">
        <ele>77.5</ele>
        <time>2020-07-07T09:47:32Z</time>
      </trkpt>
      <trkpt lat="52.87359" lon="6.79463">
        <ele>76.974</ele>
        <time>2020-07-07T09:47:38Z</time>
      </trkpt>
      <trkpt lat="52.87361" lon="6.79502">
        <ele>77.666</ele>
        <time>2020-07-07T09:47:44Z</time>
      </trkpt>
      <trkpt lat="52.87363" lon="6.79526">
        <ele>78.796</ele>
        <time>2020-07-07T09:47:49Z</time>
      </trkpt>
      <trkpt lat="52.87356" lon="6.79557">
        <ele>79.514</ele>
        <time>2020-07-07T09:47:55Z</time>
      </trkpt>
      <trkpt lat="52.87346" lon="6.79593">
        <ele>78.277</ele>
        <time>2020-07-07T09:48:01Z</time>
      </trkpt>
      <trkpt lat="52.87335" lon="6.79622">
        <ele>77.586</ele>
        <time>2020-07-07T09:48:06Z</time>
      </trkpt>
      <trkpt lat="52.87321" lon="6.7966">
        <ele>76.934</ele>
        <time>2020-07-07T09:48:12Z</time>
      </trkpt>
      <trkpt lat="52.87307" lon="6.79694">
        <ele>75.564</ele>
        <time>2020-07-07T09:48:18Z</time>
      </trkpt>
      <trkpt lat="52.87286" lon="6.79734">
        <ele>74.282</ele>
        <time>2020-07-07T09:48:24Z</time>
      </trkpt>
      <trkpt lat="52.87264" lon="6.7977">
        <ele>74.733</ele>
        <time>2020-07-07T09:48:30Z</time>
      </trkpt>
      <trkpt lat="52.87248" lon="6.79806">
        <ele>73.269</ele>
        <time>2020-07-07T09:48:35Z</time>
      </trkpt>
      <trkpt lat="52.87231" lon="6.79845">
        <ele>72.416</ele>
        <time>2020-07-07T09:48:41Z</time>
      </trkpt>
      <trkpt lat="52.87219" lon="6.79873">
        <ele>71.239</ele>
        <time>2020-07-07T09:48:46Z</time>
      </trkpt>
      <trkpt lat="52.872" lon="6.79914">
        <ele>69.769</ele>
        <time>2020-07-07T09:48:52Z</time>
      </trkpt>
      <trkpt lat="52.87181" lon="6.79951">
        <ele>68</ele>
        <time>2020-07-07T09:48:58Z</time>
      </trkpt>
      <trkpt lat="52.87168" lon="6.7998">
        <ele>66.015</ele>
        <time>2020-07-07T09:49:03Z</time>
      </trkpt>
      <trkpt lat="52.87151" lon="6.80013">
        <ele>65.356</ele>
        <time>2020-07-07T09:49:09Z</time>
      </trkpt>
      <trkpt lat="52.87135" lon="6.80042">
        <ele>66.576</ele>
        <time>2020-07-07T09:49:14Z</time>
      </trkpt>
      <trkpt lat="52.87124" lon="6.80077">
        <ele>67.051</ele>
        <time>2020-07-07T09:49:20Z</time>
      </trkpt>
      <trkpt lat="52.87121" lon="6.80109">
        <ele>67.29</ele>
        <time>2020-07-07T09:49:25Z</time>
      </trkpt>
      <trkpt lat="52.87126" lon="6.80146">
        <ele>66.328</ele>
        <time>2020-07-07T09:49:31Z</time>
      </trkpt>
      <trkpt lat="52.87131" lon="6.80188">
        <ele>65.997</ele>
        <time>2020-07-07T09:49:37Z</time>
      </trkpt>
      <trkpt lat="52.87138" lon="6.80228">
        <ele>66.742</ele>
        <time>2020-07-07T09:49:43Z</time>
      </trkpt>
      <trkpt lat="52.87142" lon="6.80262">
        <ele>68.931</ele>
        <time>2020-07-07T09:49:49Z</time>
      </trkpt>
      <trkpt lat="52.87146" lon="6.80293">
        <ele>70.076</ele>
        <time>2020-07-07T09:49:54Z</time>
      </trkpt>
      <trkpt lat="52.8715" lon="6.80317">
        <ele>70.749</ele>
        <time>2020-07-07T09:50:00Z</time>
      </trkpt>
      <trkpt lat="52.87156" lon="6.80339">
        <ele>72.663</ele>
        <time>2020-07-07T09:50:05Z</time>
      </trkpt>
      <trkpt lat="52.87159" lon="6.80373">
        <ele>72.803</ele>
        <time>2020-07-07T09:50:11Z</time>
      </trkpt>
      <trkpt lat="52.87166" lon="6.80397">
        <ele>73.024</ele>
        <time>2020-07-07T09:50:17Z</time>
      </trkpt>
      <trkpt lat="52.87173" lon="6.80414">
        <ele>74.499</ele>
        <time>2020-07-07T09:50:22Z</time>
      </trkpt>
      <trkpt lat="52.87178" lon="6.8044">
        <ele>74.12</ele>
        <time>2020-07-07T09:50:27Z</time>
      </trkpt>
      <trkpt lat="52.87182" lon="6.80473">
        <ele>74.303</ele>
        <time>2020-07-07T09:50:33Z</time>
      </trkpt>
      <trkpt lat="52.87189" lon="6.80506">
        <ele>75.071</ele>
        <time>2020-07-07T09:50:39Z</time>
      </trkpt>
      <trkpt lat="52.87196" lon="6.8054">
        <ele>75.961</ele>
        <time>2020-07-07T09:50:45Z</time>
      </trkpt>
      <trkpt lat="52.87202" lon="6.80574">
        <ele>77.224</ele>
        <time>2020-07-07T09:50:51Z</time>
      </trkpt>
      <trkpt lat="52.87209" lon="6.80611">
        <ele>77.974</ele>
        <time>2020-07-07T09:50:57Z</time>
      </trkpt>
      <trkpt lat="52.87212" lon="6.80635">
        <ele>78.242</ele>
        <time>2020-07-07T09:51:02Z</time>
      </trkpt>
      <trkpt lat="52.87218" lon="6.80665">
        <ele>79.566</ele>
        <time>2020-07-07T09:51:08Z</time>
      </trkpt>
      <trkpt lat="52.87223" lon="6.80706">
        <ele>80.496</ele>
        <time>2020-07-07T09:51:14Z</time>
      </trkpt>
      <trkpt lat="52.87228" lon="6.80732">
        <ele>80.942</ele>
        <time>2020-07-07T09:51:20Z</time>
      </trkpt>
      <trkpt lat="52.8723" lon="6.80747">
        <ele>81.99</ele>
        <time>2020-07-07T09:51:25Z</time>
      </trkpt>
      <trkpt lat="52.87233" lon="6.80765">
        <ele>81.781</ele>
        <time>2020-07-07T09:51:30Z</time>
      </trkpt>
      <trkpt lat="52.8724" lon="6.80782">
        <ele>81.252</ele>
        <time>2020-07-07T09:51:35Z</time>
      </trkpt>
      <trkpt lat="52.87244" lon="6.80807">
        <ele>79.432</ele>
        <time>2020-07-07T09:51:41Z</time>
      </trkpt>
      <trkpt lat="52.8725" lon="6.80845">
        <ele>78.072</ele>
        <time>2020-07-07T09:51:47Z</time>
      </trkpt>
      <trkpt lat="52.87258" lon="6.8089">
        <ele>77.654</ele>
        <time>2020-07-07T09:51:53Z</time>
      </trkpt>
      <trkpt lat="52.87264" lon="6.80928">
        <ele>77.296</ele>
        <time>2020-07-07T09:51:58Z</time>
      </trkpt>
      <trkpt lat="52.87272" lon="6.80967">
        <ele>77.404</ele>
        <time>2020-07-07T09:52:04Z</time>
      </trkpt>
      <trkpt lat="52.87278" lon="6.80997">
        <ele>78.687</ele>
        <time>2020-07-07T09:52:10Z</time>
      </trkpt>
      <trkpt lat="52.87283" lon="6.81017">
        <ele>78.687</ele>
        <time>2020-07-07T09:52:15Z</time>
      </trkpt>
      <trkpt lat="52.87291" lon="6.81049">
        <ele>78.772</ele>
        <time>2020-07-07T09:52:21Z</time>
      </trkpt>
      <trkpt lat="52.87299" lon="6.81083">
        <ele>79.16</ele>
        <time>2020-07-07T09:52:26Z</time>
      </trkpt>
      <trkpt lat="52.87305" lon="6.81112">
        <ele>80.24</ele>
        <time>2020-07-07T09:52:31Z</time>
      </trkpt>
      <trkpt lat="52.87313" lon="6.81137">
        <ele>81.845</ele>
        <time>2020-07-07T09:52:37Z</time>
      </trkpt>
      <trkpt lat="52.87319" lon="6.81167">
        <ele>82.176</ele>
        <time>2020-07-07T09:52:42Z</time>
      </trkpt>
      <trkpt lat="52.87326" lon="6.81197">
        <ele>82.645</ele>
        <time>2020-07-07T09:52:48Z</time>
      </trkpt>
      <trkpt lat="52.87331" lon="6.81223">
        <ele>83.218</ele>
        <time>2020-07-07T09:52:54Z</time>
      </trkpt>
      <trkpt lat="52.87337" lon="6.81251">
        <ele>84.994</ele>
        <time>2020-07-07T09:53:00Z</time>
      </trkpt>
      <trkpt lat="52.87344" lon="6.81293">
        <ele>86.192</ele>
        <time>2020-07-07T09:53:06Z</time>
      </trkpt>
      <trkpt lat="52.87356" lon="6.8134">
        <ele>87.424</ele>
        <time>2020-07-07T09:53:12Z</time>
      </trkpt>
      <trkpt lat="52.87365" lon="6.81389">
        <ele>88.054</ele>
        <time>2020-07-07T09:53:18Z</time>
      </trkpt>
      <trkpt lat="52.87374" lon="6.81424">
        <ele>88.812</ele>
        <time>2020-07-07T09:53:24Z</time>
      </trkpt>
      <trkpt lat="52.87381" lon="6.81462">
        <ele>89.042</ele>
        <time>2020-07-07T09:53:30Z</time>
      </trkpt>
      <trkpt lat="52.87389" lon="6.81504">
        <ele>88.22</ele>
        <time>2020-07-07T09:53:36Z</time>
      </trkpt>
      <trkpt lat="52.87397" lon="6.8154">
        <ele>88.594</ele>
        <time>2020-07-07T09:53:42Z</time>
      </trkpt>
      <trkpt lat="52.87406" lon="6.81567">
        <ele>88.549</ele>
        <time>2020-07-07T09:53:47Z</time>
      </trkpt>
      <trkpt lat="52.87418" lon="6.81612">
        <ele>89.304</ele>
        <time>2020-07-07T09:53:53Z</time>
      </trkpt>
      <trkpt lat="52.87427" lon="6.81648">
        <ele>89.289</ele>
        <time>2020-07-07T09:53:58Z</time>
      </trkpt>
      <trkpt lat="52.87434" lon="6.81682">
        <ele>88.72</ele>
        <time>2020-07-07T09:54:03Z</time>
      </trkpt>
      <trkpt lat="52.87446" lon="6.81729">
        <ele>87.822</ele>
        <time>2020-07-07T09:54:09Z</time>
      </trkpt>
      <trkpt lat="52.87458" lon="6.81771">
        <ele>86.13</ele>
        <time>2020-07-07T09:54:15Z</time>
      </trkpt>
      <trkpt lat="52.87471" lon="6.81806">
        <ele>82.285</ele>
        <time>2020-07-07T09:54:20Z</time>
      </trkpt>
      <trkpt lat="52.87486" lon="6.81835">
        <ele>78.275</ele>
        <time>2020-07-07T09:54:26Z</time>
      </trkpt>
      <trkpt lat="52.87493" lon="6.81888">
        <ele>76.675</ele>
        <time>2020-07-07T09:54:32Z</time>
      </trkpt>
      <trkpt lat="52.87499" lon="6.81936">
        <ele>71.99</ele>
        <time>2020-07-07T09:54:38Z</time>
      </trkpt>
      <trkpt lat="52.87511" lon="6.8198">
        <ele>69.47</ele>
        <time>2020-07-07T09:54:44Z</time>
      </trkpt>
      <trkpt lat="52.87523" lon="6.82019">
        <ele>65.792</ele>
        <time>2020-07-07T09:54:50Z</time>
      </trkpt>
      <trkpt lat="52.87531" lon="6.82051">
        <ele>64.783</ele>
        <time>2020-07-07T09:54:55Z</time>
      </trkpt>
      <trkpt lat="52.8754" lon="6.82081">
        <ele>64.582</ele>
        <time>2020-07-07T09:55:01Z</time>
      </trkpt>
      <trkpt lat="52.87546" lon="6.82107">
        <ele>65.421</ele>
        <time>2020-07-07T09:55:06Z</time>
      </trkpt>
      <trkpt lat="52.87554" lon="6.82138">
        <ele>67.428</ele>
        <time>2020-07-07T09:55:12Z</time>
      </trkpt>
      <trkpt lat="52.87561" lon="6.82184">
        <ele>69.399</ele>
        <time>2020-07-07T09:55:18Z</time>
      </trkpt>
      <trkpt lat="52.87569" lon="6.82222">
        <ele>71.996</ele>
        <time>2020-07-07T09:55:24Z</time>
      </trkpt>
      <trkpt lat="52.87573" lon="6.82253">
        <ele>74.084</ele>
        <time>2020-07-07T09:55:30Z</time>
      </trkpt>
      <trkpt lat="52.87577" lon="6.82277">
        <ele>75.352</ele>
        <time>2020-07-07T09:55:35Z</time>
      </trkpt>
      <trkpt lat="52.87585" lon="6.8231">
        <ele>76.667</ele>
        <time>2020-07-07T09:55:40Z</time>
      </trkpt>
      <trkpt lat="52.87595" lon="6.82347">
        <ele>77.839</ele>
        <time>2020-07-07T09:55:45Z</time>
      </trkpt>
      <trkpt lat="52.87606" lon="6.8239">
        <ele>78.742</ele>
        <time>2020-07-07T09:55:51Z</time>
      </trkpt>
      <trkpt lat="52.87616" lon="6.82428">
        <ele>80.968</ele>
        <time>2020-07-07T09:55:57Z</time>
      </trkpt>
      <trkpt lat="52.87628" lon="6.82466">
        <ele>83.935</ele>
        <time>2020-07-07T09:56:03Z</time>
      </trkpt>
      <trkpt lat="52.87639" lon="6.82507">
        <ele>86.081</ele>
        <time>2020-07-07T09:56:09Z</time>
      </trkpt>
      <trkpt lat="52.87647" lon="6.82542">
        <ele>86.469</ele>
        <time>2020-07-07T09:56:14Z</time>
      </trkpt>
      <trkpt lat="52.87658" lon="6.82591">
        <ele>86.463</ele>
        <time>2020-07-07T09:56:20Z</time>
      </trkpt>
      <trkpt lat="52.87666" lon="6.82624">
        <ele>85.792</ele>
        <time>2020-07-07T09:56:25Z</time>
      </trkpt>
      <trkpt lat="52.87677" lon="6.82673">
        <ele>83.212</ele>
        <time>2020-07-07T09:56:31Z</time>
      </trkpt>
      <trkpt lat="52.87685" lon="6.82714">
        <ele>82.573</ele>
        <time>2020-07-07T09:56:36Z</time>
      </trkpt>
      <trkpt lat="52.87696" lon="6.82764">
        <ele>81.355</ele>
        <time>2020-07-07T09:56:42Z</time>
      </trkpt>
      <trkpt lat="52.87705" lon="6.82809">
        <ele>79.1</ele>
        <time>2020-07-07T09:56:47Z</time>
      </trkpt>
      <trkpt lat="52.87717" lon="6.82849">
        <ele>78.354</ele>
        <time>2020-07-07T09:56:52Z</time>
      </trkpt>
      <trkpt lat="52.87727" lon="6.82891">
        <ele>77.055</ele>
        <time>2020-07-07T09:56:58Z</time>
      </trkpt>
      <trkpt lat="52.87736" lon="6.82938">
        <ele>74.051</ele>
        <time>2020-07-07T09:57:04Z</time>
      </trkpt>
      <trkpt lat="52.87746" lon="6.82967">
        <ele>73.808</ele>
        <time>2020-07-07T09:57:10Z</time>
      </trkpt>
      <trkpt lat="52.87751" lon="6.8299">
        <ele>74.321</ele>
        <time>2020-07-07T09:57:16Z</time>
      </trkpt>
      <trkpt lat="52.87756" lon="6.83005">
        <ele>73.64</ele>
        <time>2020-07-07T09:57:21Z</time>
      </trkpt>
      <trkpt lat="52.87762" lon="6.83031">
        <ele>72.283</ele>
        <time>2020-07-07T09:57:27Z</time>
      </trkpt>
      <trkpt lat="52.87769" lon="6.83064">
        <ele>70.362</ele>
        <time>2020-07-07T09:57:32Z</time>
      </trkpt>
      <trkpt lat="52.87776" lon="6.83094">
        <ele>70.011</ele>
        <time>2020-07-07T09:57:38Z</time>
      </trkpt>
      <trkpt lat="52.8778" lon="6.83118">
        <ele>70.52</ele>
        <time>2020-07-07T09:57:43Z</time>
      </trkpt>
      <trkpt lat="52.87786" lon="6.83149">
        <ele>71.292</ele>
        <time>2020-07-07T09:57:49Z</time>
      </trkpt>
      <trkpt lat="52.87789" lon="6.83173">
        <ele>71.893</ele>
        <time>2020-07-07T09:57:54Z</time>
      </trkpt>
      <trkpt lat="52.87796" lon="6.83211">
        <ele>72.309</ele>
        <time>2020-07-07T09:58:00Z</time>
      </trkpt>
      <trkpt lat="52.87806" lon="6.83251">
        <ele>72.435</ele>
        <time>2020-07-07T09:58:06Z</time>
      </trkpt>
      <trkpt lat="52.87816" lon="6.8328">
        <ele>73.319</ele>
        <time>2020-07-07T09:58:12Z</time>
      </trkpt>
      <trkpt lat="52.87827" lon="6.83308">
        <ele>73.703</ele>
        <time>2020-07-07T09:58:18Z</time>
      </trkpt>
      <trkpt lat="52.87836" lon="6.83333">
        <ele>74.121</ele>
        <time>2020-07-07T09:58:23Z</time>
      </trkpt>
      <trkpt lat="52.8785" lon="6.83369">
        <ele>74.562</ele>
        <time>2020-07-07T09:58:29Z</time>
      </trkpt>
      <trkpt lat="52.87863" lon="6.83409">
        <ele>75.136</ele>
        <time>2020-07-07T09:58:35Z</time>
      </trkpt>
      <trkpt lat="52.87877" lon="6.83443">
        <ele>76.013</ele>
        <time>2020-07-07T09:58:40Z</time>
      </trkpt>
      <trkpt lat="52.87893" lon="6.83481">
        <ele>77.875</ele>
        <time>2020-07-07T09:58:46Z</time>
      </trkpt>
      <trkpt lat="52.87903" lon="6.8351">
        <ele>78.293</ele>
        <time>2020-07-07T09:58:51Z</time>
      </trkpt>
      <trkpt lat="52.8792" lon="6.83552">
        <ele>78.001</ele>
        <time>2020-07-07T09:58:57Z</time>
      </trkpt>
      <trkpt lat="52.87931" lon="6.83583">
        <ele>78.246</ele>
        <time>2020-07-07T09:59:02Z</time>
      </trkpt>
      <trkpt lat="52.87949" lon="6.83616">
        <ele>78.139</ele>
        <time>2020-07-07T09:59:08Z</time>
      </trkpt>
      <trkpt lat="52.87963" lon="6.83656">
        <ele>77.041</ele>
        <time>2020-07-07T09:59:13Z</time>
      </trkpt>
      <trkpt lat="52.87968" lon="6.83702">
        <ele>77.096</ele>
        <time>2020-07-07T09:59:19Z</time>
      </trkpt>
      <trkpt lat="52.87971" lon="6.83741">
        <ele>77.51</ele>
        <time>2020-07-07T09:59:25Z</time>
      </trkpt>
      <trkpt lat="52.87979" lon="6.83797">
        <ele>74.889</ele>
        <time>2020-07-07T09:59:31Z</time>
      </trkpt>
      <trkpt lat="52.87986" lon="6.83842">
        <ele>73.231</ele>
        <time>2020-07-07T09:59:36Z</time>
      </trkpt>
      <trkpt lat="52.88001" lon="6.83879">
        <ele>73.124</ele>
        <time>2020-07-07T09:59:42Z</time>
      </trkpt>
      <trkpt lat="52.88022" lon="6.83894">
        <ele>72.364</ele>
        <time>2020-07-07T09:59:48Z</time>
      </trkpt>
      <trkpt lat="52.88042" lon="6.83908">
        <ele>69.588</ele>
        <time>2020-07-07T09:59:54Z</time>
      </trkpt>
      <trkpt lat="52.88057" lon="6.83917">
        <ele>69.204</ele>
        <time>2020-07-07T09:59:59Z</time>
      </trkpt>
      <trkpt lat="52.88071" lon="6.83926">
        <ele>68.826</ele>
        <time>2020-07-07T10:00:04Z</time>
      </trkpt>
      <trkpt lat="52.88087" lon="6.83942">
        <ele>69.136</ele>
        <time>2020-07-07T10:00:10Z</time>
      </trkpt>
      <trkpt lat="52.88105" lon="6.83958">
        <ele>69.459</ele>
        <time>2020-07-07T10:00:15Z</time>
      </trkpt>
      <trkpt lat="52.88129" lon="6.83982">
        <ele>69.614</ele>
        <time>2020-07-07T10:00:21Z</time>
      </trkpt>
      <trkpt lat="52.88149" lon="6.83999">
        <ele>69.004</ele>
        <time>2020-07-07T10:00:26Z</time>
      </trkpt>
      <trkpt lat="52.88172" lon="6.84005">
        <ele>66.298</ele>
        <time>2020-07-07T10:00:32Z</time>
      </trkpt>
      <trkpt lat="52.88192" lon="6.84001">
        <ele>63.628</ele>
        <time>2020-07-07T10:00:38Z</time>
      </trkpt>
      <trkpt lat="52.88215" lon="6.83996">
        <ele>61.921</ele>
        <time>2020-07-07T10:00:44Z</time>
      </trkpt>
      <trkpt lat="52.8823" lon="6.83995">
        <ele>61.027</ele>
        <time>2020-07-07T10:00:49Z</time>
      </trkpt>
      <trkpt lat="52.88246" lon="6.83992">
        <ele>59.39</ele>
        <time>2020-07-07T10:00:54Z</time>
      </trkpt>
      <trkpt lat="52.88276" lon="6.83985">
        <ele>60.474</ele>
        <time>2020-07-07T10:01:00Z</time>
      </trkpt>
      <trkpt lat="52.88303" lon="6.83979">
        <ele>60.878</ele>
        <time>2020-07-07T10:01:06Z</time>
      </trkpt>
      <trkpt lat="52.88323" lon="6.83979">
        <ele>61.732</ele>
        <time>2020-07-07T10:01:11Z</time>
      </trkpt>
      <trkpt lat="52.88341" lon="6.83977">
        <ele>64.352</ele>
        <time>2020-07-07T10:01:17Z</time>
      </trkpt>
      <trkpt lat="52.88354" lon="6.83973">
        <ele>64.972</ele>
        <time>2020-07-07T10:01:22Z</time>
      </trkpt>
      <trkpt lat="52.8837" lon="6.83961">
        <ele>66.625</ele>
        <time>2020-07-07T10:01:28Z</time>
      </trkpt>
      <trkpt lat="52.88394" lon="6.83939">
        <ele>67.602</ele>
        <time>2020-07-07T10:01:34Z</time>
      </trkpt>
      <trkpt lat="52.88422" lon="6.83932">
        <ele>67.633</ele>
        <time>2020-07-07T10:01:40Z</time>
      </trkpt>
      <trkpt lat="52.8844" lon="6.83942">
        <ele>67.503</ele>
        <time>2020-07-07T10:01:45Z</time>
      </trkpt>
      <trkpt lat="52.88463" lon="6.83959">
        <ele>68.908</ele>
        <time>2020-07-07T10:01:51Z</time>
      </trkpt>
      <trkpt lat="52.88478" lon="6.83976">
        <ele>70.966</ele>
        <time>2020-07-07T10:01:56Z</time>
      </trkpt>
      <trkpt lat="52.88495" lon="6.83998">
        <ele>72.239</ele>
        <time>2020-07-07T10:02:02Z</time>
      </trkpt>
      <trkpt lat="52.88516" lon="6.84021">
        <ele>73.283</ele>
        <time>2020-07-07T10:02:07Z</time>
      </trkpt>
      <trkpt lat="52.88537" lon="6.84053">
        <ele>74.252</ele>
        <time>2020-07-07T10:02:13Z</time>
      </trkpt>
      <trkpt lat="52.88555" lon="6.84075">
        <ele>75.402</ele>
        <time>2020-07-07T10:02:18Z</time>
      </trkpt>
      <trkpt lat="52.88579" lon="6.84103">
        <ele>74.718</ele>
        <time>2020-07-07T10:02:24Z</time>
      </trkpt>
      <trkpt lat="52.886" lon="6.84127">
        <ele>72.897</ele>
        <time>2020-07-07T10:02:29Z</time>
      </trkpt>
      <trkpt lat="52.88618" lon="6.84152">
        <ele>71.233</ele>
        <time>2020-07-07T10:02:34Z</time>
      </trkpt>
      <trkpt lat="52.88637" lon="6.8418">
        <ele>70.043</ele>
        <time>2020-07-07T10:02:40Z</time>
      </trkpt>
      <trkpt lat="52.88653" lon="6.84206">
        <ele>67.713</ele>
        <time>2020-07-07T10:02:45Z</time>
      </trkpt>
      <trkpt lat="52.88662" lon="6.84238">
        <ele>64.849</ele>
        <time>2020-07-07T10:02:51Z</time>
      </trkpt>
      <trkpt lat="52.88667" lon="6.84274">
        <ele>62.716</ele>
        <time>2020-07-07T10:02:57Z</time>
      </trkpt>
      <trkpt lat="52.8867" lon="6.84307">
        <ele>64.065</ele>
        <time>2020-07-07T10:03:03Z</time>
      </trkpt>
      <trkpt lat="52.88676" lon="6.84348">
        <ele>63.983</ele>
        <time>2020-07-07T10:03:09Z</time>
      </trkpt>
      <trkpt lat="52.88684" lon="6.84393">
        <ele>64.408</ele>
        <time>2020-07-07T10:03:15Z</time>
      </trkpt>
      <trkpt lat="52.8869" lon="6.84432">
        <ele>66.553</ele>
        <time>2020-07-07T10:03:21Z</time>
      </trkpt>
      <trkpt lat="52.88703" lon="6.84462">
        <ele>69.586</ele>
        <time>2020-07-07T10:03:27Z</time>
      </trkpt>
      <trkpt lat="52.88723" lon="6.84487">
        <ele>70.184</ele>
        <time>2020-07-07T10:03:33Z</time>
      </trkpt>
      <trkpt lat="52.88745" lon="6.84484">
        <ele>69.487</ele>
        <time>2020-07-07T10:03:38Z</time>
      </trkpt>
      <trkpt lat="52.88768" lon="6.84478">
        <ele>68.18</ele>
        <time>2020-07-07T10:03:43Z</time>
      </trkpt>
      <trkpt lat="52.88792" lon="6.84464">
        <ele>68.552</ele>
        <time>2020-07-07T10:03:49Z</time>
      </trkpt>
      <trkpt lat="52.88814" lon="6.84448">
        <ele>69.616</ele>
        <time>2020-07-07T10:03:54Z</time>
      </trkpt>
      <trkpt lat="52.88836" lon="6.84432">
        <ele>69.792</ele>
        <time>2020-07-07T10:04:00Z</time>
      </trkpt>
      <trkpt lat="52.88857" lon="6.84416">
        <ele>69.089</ele>
        <time>2020-07-07T10:04:06Z</time>
      </trkpt>
      <trkpt lat="52.88874" lon="6.84431">
        <ele>70.81</ele>
        <time>2020-07-07T10:04:12Z</time>
      </trkpt>
      <trkpt lat="52.88887" lon="6.84451">
        <ele>75.007</ele>
        <time>2020-07-07T10:04:18Z</time>
      </trkpt>
      <trkpt lat="52.889" lon="6.84475">
        <ele>77.162</ele>
        <time>2020-07-07T10:04:24Z</time>
      </trkpt>
      <trkpt lat="52.88913" lon="6.8451">
        <ele>78.232</ele>
        <time>2020-07-07T10:04:29Z</time>
      </trkpt>
      <trkpt lat="52.88931" lon="6.84559">
        <ele>79.06</ele>
        <time>2020-07-07T10:04:35Z</time>
      </trkpt>
      <trkpt lat="52.88945" lon="6.84592">
        <ele>78.58</ele>
        <time>2020-07-07T10:04:40Z</time>
      </trkpt>
      <trkpt lat="52.88959" lon="6.84628">
        <ele>77.226</ele>
        <time>2020-07-07T10:04:46Z</time>
      </trkpt>
      <trkpt lat="52.88974" lon="6.84657">
        <ele>75.838</ele>
        <time>2020-07-07T10:04:51Z</time>
      </trkpt>
      <trkpt lat="52.88995" lon="6.84695">
        <ele>75.133</ele>
        <time>2020-07-07T10:04:57Z</time>
      </trkpt>
      <trkpt lat="52.89007" lon="6.84722">
        <ele>75.947</ele>
        <time>2020-07-07T10:05:02Z</time>
      </trkpt>
      <trkpt lat="52.89022" lon="6.84752">
        <ele>74.441</ele>
        <time>2020-07-07T10:05:08Z</time>
      </trkpt>
      <trkpt lat="52.89037" lon="6.84784">
        <ele>73.337</ele>
        <time>2020-07-07T10:05:14Z</time>
      </trkpt>
      <trkpt lat="52.89048" lon="6.84806">
        <ele>73.464</ele>
        <time>2020-07-07T10:05:19Z</time>
      </trkpt>
      <trkpt lat="52.8906" lon="6.84831">
        <ele>74.019</ele>
        <time>2020-07-07T10:05:25Z</time>
      </trkpt>
      <trkpt lat="52.89071" lon="6.84855">
        <ele>74.266</ele>
        <time>2020-07-07T10:05:30Z</time>
      </trkpt>
      <trkpt lat="52.89081" lon="6.84885">
        <ele>74.25</ele>
        <time>2020-07-07T10:05:36Z</time>
      </trkpt>
      <trkpt lat="52.89091" lon="6.84915">
        <ele>72.508</ele>
        <time>2020-07-07T10:05:41Z</time>
      </trkpt>
      <trkpt lat="52.89094" lon="6.84947">
        <ele>71.494</ele>
        <time>2020-07-07T10:05:46Z</time>
      </trkpt>
      <trkpt lat="52.89101" lon="6.84958">
        <ele>71.466</ele>
        <time>2020-07-07T10:05:51Z</time>
      </trkpt>
      <trkpt lat="52.89112" lon="6.84951">
        <ele>70.122</ele>
        <time>2020-07-07T10:05:57Z</time>
      </trkpt>
      <trkpt lat="52.89124" lon="6.84943">
        <ele>67.948</ele>
        <time>2020-07-07T10:06:03Z</time>
      </trkpt>
      <trkpt lat="52.89133" lon="6.84933">
        <ele>67.129</ele>
        <time>2020-07-07T10:06:09Z</time>
      </trkpt>
      <trkpt lat="52.89144" lon="6.84919">
        <ele>67.063</ele>
        <time>2020-07-07T10:06:15Z</time>
      </trkpt>
      <trkpt lat="52.89156" lon="6.84904">
        <ele>67.318</ele>
        <time>2020-07-07T10:06:20Z</time>
      </trkpt>
      <trkpt lat="52.89166" lon="6.84887">
        <ele>68.958</ele>
        <time>2020-07-07T10:06:26Z</time>
      </trkpt>
      <trkpt lat="52.89181" lon="6.84868">
        <ele>69.433</ele>
        <time>2020-07-07T10:06:31Z</time>
      </trkpt>
      <trkpt lat="52.89194" lon="6.84849">
        <ele>69.788</ele>
        <time>2020-07-07T10:06:37Z</time>
      </trkpt>
      <trkpt lat="52.89205" lon="6.84834">
        <ele>69.894</ele>
        <time>2020-07-07T10:06:42Z</time>
      </trkpt>
      <trkpt lat="52.8922" lon="6.84811">
        <ele>68.711</ele>
        <time>2020-07-07T10:06:48Z</time>
      </trkpt>
      <trkpt lat="52.89232" lon="6.84796">
        <ele>68.604</ele>
        <time>2020-07-07T10:06:54Z</time>
      </trkpt>
      <trkpt lat="52.89247" lon="6.84776">
        <ele>68.546</ele>
        <time>2020-07-07T10:06:59Z</time>
      </trkpt>
      <trkpt lat="52.89266" lon="6.84751">
        <ele>69.71</ele>
        <time>2020-07-07T10:07:05Z</time>
      </trkpt>
      <trkpt lat="52.89278" lon="6.84735">
        <ele>69.807</ele>
        <time>2020-07-07T10:07:10Z</time>
      </trkpt>
      <trkpt lat="52.8929" lon="6.84718">
        <ele>69.81</ele>
        <time>2020-07-07T10:07:16Z</time>
      </trkpt>
      <trkpt lat="52.89308" lon="6.84688">
        <ele>70.044</ele>
        <time>2020-07-07T10:07:22Z</time>
      </trkpt>
      <trkpt lat="52.89325" lon="6.84663">
        <ele>71.23</ele>
        <time>2020-07-07T10:07:28Z</time>
      </trkpt>
      <trkpt lat="52.89336" lon="6.84647">
        <ele>70.93</ele>
        <time>2020-07-07T10:07:33Z</time>
      </trkpt>
      <trkpt lat="52.89353" lon="6.84621">
        <ele>71.026</ele>
        <time>2020-07-07T10:07:39Z</time>
      </trkpt>
      <trkpt lat="52.8937" lon="6.84595">
        <ele>70.916</ele>
        <time>2020-07-07T10:07:45Z</time>
      </trkpt>
      <trkpt lat="52.89383" lon="6.84572">
        <ele>70.411</ele>
        <time>2020-07-07T10:07:51Z</time>
      </trkpt>
      <trkpt lat="52.89401" lon="6.84547">
        <ele>69.8</ele>
        <time>2020-07-07T10:07:57Z</time>
      </trkpt>
      <trkpt lat="52.89422" lon="6.84523">
        <ele>69.505</ele>
        <time>2020-07-07T10:08:02Z</time>
      </trkpt>
      <trkpt lat="52.89442" lon="6.84498">
        <ele>68.567</ele>
        <time>2020-07-07T10:08:08Z</time>
      </trkpt>
      <trkpt lat="52.89456" lon="6.84478">
        <ele>67.537</ele>
        <time>2020-07-07T10:08:13Z</time>
      </trkpt>
      <trkpt lat="52.89478" lon="6.84448">
        <ele>68.083</ele>
        <time>2020-07-07T10:08:19Z</time>
      </trkpt>
      <trkpt lat="52.89498" lon="6.84421">
        <ele>69.455</ele>
        <time>2020-07-07T10:08:25Z</time>
      </trkpt>
      <trkpt lat="52.89514" lon="6.84398">
        <ele>69.824</ele>
        <time>2020-07-07T10:08:30Z</time>
      </trkpt>
      <trkpt lat="52.89534" lon="6.84368">
        <ele>69.36</ele>
        <time>2020-07-07T10:08:36Z</time>
      </trkpt>
      <trkpt lat="52.89558" lon="6.84333">
        <ele>68.828</ele>
        <time>2020-07-07T10:08:42Z</time>
      </trkpt>
      <trkpt lat="52.89581" lon="6.84299">
        <ele>66.785</ele>
        <time>2020-07-07T10:08:48Z</time>
      </trkpt>
      <trkpt lat="52.89608" lon="6.84266">
        <ele>65.384</ele>
        <time>2020-07-07T10:08:54Z</time>
      </trkpt>
      <trkpt lat="52.89628" lon="6.84238">
        <ele>64.333</ele>
        <time>2020-07-07T10:09:00Z</time>
      </trkpt>
      <trkpt lat="52.89643" lon="6.84219">
        <ele>61.346</ele>
        <time>2020-07-07T10:09:05Z</time>
      </trkpt>
      <trkpt lat="52.89655" lon="6.84201">
        <ele>59.026</ele>
        <time>2020-07-07T10:09:10Z</time>
      </trkpt>
      <trkpt lat="52.89676" lon="6.84176">
        <ele>58.524</ele>
        <time>2020-07-07T10:09:16Z</time>
      </trkpt>
      <trkpt lat="52.89691" lon="6.84155">
        <ele>59.842</ele>
        <time>2020-07-07T10:09:22Z</time>
      </trkpt>
      <trkpt lat="52.89702" lon="6.84144">
        <ele>61.922</ele>
        <time>2020-07-07T10:09:27Z</time>
      </trkpt>
      <trkpt lat="52.8972" lon="6.8412">
        <ele>63.507</ele>
        <time>2020-07-07T10:09:33Z</time>
      </trkpt>
      <trkpt lat="52.8974" lon="6.84093">
        <ele>65.252</ele>
        <time>2020-07-07T10:09:39Z</time>
      </trkpt>
      <trkpt lat="52.89758" lon="6.84066">
        <ele>66.621</ele>
        <time>2020-07-07T10:09:44Z</time>
      </trkpt>
      <trkpt lat="52.89776" lon="6.84039">
        <ele>68.224</ele>
        <time>2020-07-07T10:09:49Z</time>
      </trkpt>
      <trkpt lat="52.89795" lon="6.84012">
        <ele>68.507</ele>
        <time>2020-07-07T10:09:55Z</time>
      </trkpt>
      <trkpt lat="52.89812" lon="6.83989">
        <ele>68.39</ele>
        <time>2020-07-07T10:10:00Z</time>
      </trkpt>
      <trkpt lat="52.89835" lon="6.83961">
        <ele>67.589</ele>
        <time>2020-07-07T10:10:06Z</time>
      </trkpt>
      <trkpt lat="52.89851" lon="6.83939">
        <ele>65.421</ele>
        <time>2020-07-07T10:10:12Z</time>
      </trkpt>
      <trkpt lat="52.89864" lon="6.83922">
        <ele>64.3</ele>
        <time>2020-07-07T10:10:17Z</time>
      </trkpt>
      <trkpt lat="52.89878" lon="6.83903">
        <ele>63.379</ele>
        <time>2020-07-07T10:10:22Z</time>
      </trkpt>
      <trkpt lat="52.89894" lon="6.83882">
        <ele>64.781</ele>
        <time>2020-07-07T10:10:28Z</time>
      </trkpt>
      <trkpt lat="52.89912" lon="6.83857">
        <ele>66.286</ele>
        <time>2020-07-07T10:10:34Z</time>
      </trkpt>
      <trkpt lat="52.89927" lon="6.83837">
        <ele>66.655</ele>
        <time>2020-07-07T10:10:39Z</time>
      </trkpt>
      <trkpt lat="52.89945" lon="6.8381">
        <ele>67.645</ele>
        <time>2020-07-07T10:10:45Z</time>
      </trkpt>
      <trkpt lat="52.8996" lon="6.83788">
        <ele>67.795</ele>
        <time>2020-07-07T10:10:50Z</time>
      </trkpt>
      <trkpt lat="52.89974" lon="6.83768">
        <ele>68.629</ele>
        <time>2020-07-07T10:10:55Z</time>
      </trkpt>
      <trkpt lat="52.8999" lon="6.83742">
        <ele>69.382</ele>
        <time>2020-07-07T10:11:01Z</time>
      </trkpt>
      <trkpt lat="52.90009" lon="6.83718">
        <ele>71.185</ele>
        <time>2020-07-07T10:11:07Z</time>
      </trkpt>
      <trkpt lat="52.9002" lon="6.837">
        <ele>72.192</ele>
        <time>2020-07-07T10:11:12Z</time>
      </trkpt>
      <trkpt lat="52.90041" lon="6.83673">
        <ele>70.648</ele>
        <time>2020-07-07T10:11:18Z</time>
      </trkpt>
      <trkpt lat="52.90057" lon="6.83652">
        <ele>70.478</ele>
        <time>2020-07-07T10:11:23Z</time>
      </trkpt>
      <trkpt lat="52.90074" lon="6.83628">
        <ele>70.309</ele>
        <time>2020-07-07T10:11:28Z</time>
      </trkpt>
      <trkpt lat="52.9009" lon="6.83602">
        <ele>69.044</ele>
        <time>2020-07-07T10:11:33Z</time>
      </trkpt>
      <trkpt lat="52.90107" lon="6.83579">
        <ele>67.602</ele>
        <time>2020-07-07T10:11:39Z</time>
      </trkpt>
      <trkpt lat="52.90122" lon="6.83558">
        <ele>67.968</ele>
        <time>2020-07-07T10:11:44Z</time>
      </trkpt>
      <trkpt lat="52.90144" lon="6.83533">
        <ele>68.273</ele>
        <time>2020-07-07T10:11:50Z</time>
      </trkpt>
      <trkpt lat="52.90163" lon="6.83511">
        <ele>68.679</ele>
        <time>2020-07-07T10:11:56Z</time>
      </trkpt>
      <trkpt lat="52.90178" lon="6.83489">
        <ele>68.053</ele>
        <time>2020-07-07T10:12:02Z</time>
      </trkpt>
      <trkpt lat="52.90195" lon="6.83468">
        <ele>67.999</ele>
        <time>2020-07-07T10:12:07Z</time>
      </trkpt>
      <trkpt lat="52.90212" lon="6.83445">
        <ele>68.463</ele>
        <time>2020-07-07T10:12:13Z</time>
      </trkpt>
      <trkpt lat="52.90228" lon="6.83421">
        <ele>68.915</ele>
        <time>2020-07-07T10:12:18Z</time>
      </trkpt>
      <trkpt lat="52.90242" lon="6.83398">
        <ele>67.961</ele>
        <time>2020-07-07T10:12:23Z</time>
      </trkpt>
      <trkpt lat="52.90253" lon="6.83369">
        <ele>67.748</ele>
        <time>2020-07-07T10:12:29Z</time>
      </trkpt>
      <trkpt lat="52.90255" lon="6.83342">
        <ele>66.551</ele>
        <time>2020-07-07T10:12:34Z</time>
      </trkpt>
      <trkpt lat="52.90259" lon="6.83325">
        <ele>65.833</ele>
        <time>2020-07-07T10:12:39Z</time>
      </trkpt>
      <trkpt lat="52.90259" lon="6.83322">
        <ele>65.784</ele>
        <time>2020-07-07T10:12:44Z</time>
      </trkpt>
      <trkpt lat="52.90259" lon="6.83322">
        <ele>65.784</ele>
        <time>2020-07-07T10:12:49Z</time>
      </trkpt>
      <trkpt lat="52.90259" lon="6.83322">
        <ele>65.784</ele>
        <time>2020-07-07T10:12:55Z</time>
      </trkpt>
      <trkpt lat="52.90259" lon="6.83322">
        <ele>65.784</ele>
        <time>2020-07-07T10:13:01Z</time>
      </trkpt>
      <trkpt lat="52.90259" lon="6.83322">
        <ele>65.784</ele>
        <time>2020-07-07T10:13:06Z</time>
      </trkpt>
      <trkpt lat="52.90259" lon="6.83323">
        <ele>65.588</ele>
        <time>2020-07-07T10:13:12Z</time>
      </trkpt>
      <trkpt lat="52.90262" lon="6.83331">
        <ele>66.208</ele>
        <time>2020-07-07T10:13:17Z</time>
      </trkpt>
      <trkpt lat="52.90272" lon="6.83329">
        <ele>67.684</ele>
        <time>2020-07-07T10:13:23Z</time>
      </trkpt>
      <trkpt lat="52.90289" lon="6.83322">
        <ele>69.814</ele>
        <time>2020-07-07T10:13:28Z</time>
      </trkpt>
      <trkpt lat="52.90309" lon="6.83322">
        <ele>71.328</ele>
        <time>2020-07-07T10:13:34Z</time>
      </trkpt>
      <trkpt lat="52.9033" lon="6.8332">
        <ele>71.317</ele>
        <time>2020-07-07T10:13:39Z</time>
      </trkpt>
      <trkpt lat="52.90354" lon="6.83321">
        <ele>71.263</ele>
        <time>2020-07-07T10:13:45Z</time>
      </trkpt>
      <trkpt lat="52.90385" lon="6.83322">
        <ele>71.003</ele>
        <time>2020-07-07T10:13:51Z</time>
      </trkpt>
      <trkpt lat="52.90406" lon="6.83323">
        <ele>69.894</ele>
        <time>2020-07-07T10:13:56Z</time>
      </trkpt>
      <trkpt lat="52.90435" lon="6.83327">
        <ele>68.722</ele>
        <time>2020-07-07T10:14:02Z</time>
      </trkpt>
      <trkpt lat="52.90458" lon="6.83328">
        <ele>67.885</ele>
        <time>2020-07-07T10:14:08Z</time>
      </trkpt>
      <trkpt lat="52.90476" lon="6.83326">
        <ele>66.764</ele>
        <time>2020-07-07T10:14:13Z</time>
      </trkpt>
      <trkpt lat="52.90502" lon="6.83323">
        <ele>66.115</ele>
        <time>2020-07-07T10:14:19Z</time>
      </trkpt>
      <trkpt lat="52.90526" lon="6.83323">
        <ele>66.427</ele>
        <time>2020-07-07T10:14:25Z</time>
      </trkpt>
      <trkpt lat="52.90553" lon="6.83324">
        <ele>65.777</ele>
        <time>2020-07-07T10:14:31Z</time>
      </trkpt>
      <trkpt lat="52.90578" lon="6.83323">
        <ele>65.192</ele>
        <time>2020-07-07T10:14:36Z</time>
      </trkpt>
      <trkpt lat="52.90606" lon="6.83324">
        <ele>65.158</ele>
        <time>2020-07-07T10:14:42Z</time>
      </trkpt>
      <trkpt lat="52.90631" lon="6.83327">
        <ele>64.775</ele>
        <time>2020-07-07T10:14:48Z</time>
      </trkpt>
      <trkpt lat="52.90653" lon="6.83326">
        <ele>64.194</ele>
        <time>2020-07-07T10:14:53Z</time>
      </trkpt>
      <trkpt lat="52.90684" lon="6.83326">
        <ele>64.306</ele>
        <time>2020-07-07T10:14:59Z</time>
      </trkpt>
      <trkpt lat="52.90709" lon="6.83326">
        <ele>64.236</ele>
        <time>2020-07-07T10:15:04Z</time>
      </trkpt>
      <trkpt lat="52.9074" lon="6.83329">
        <ele>62.197</ele>
        <time>2020-07-07T10:15:10Z</time>
      </trkpt>
      <trkpt lat="52.90769" lon="6.83327">
        <ele>61.464</ele>
        <time>2020-07-07T10:15:16Z</time>
      </trkpt>
      <trkpt lat="52.90807" lon="6.83331">
        <ele>58.832</ele>
        <time>2020-07-07T10:15:22Z</time>
      </trkpt>
      <trkpt lat="52.90834" lon="6.83335">
        <ele>56.381</ele>
        <time>2020-07-07T10:15:27Z</time>
      </trkpt>
      <trkpt lat="52.90861" lon="6.83334">
        <ele>54.378</ele>
        <time>2020-07-07T10:15:33Z</time>
      </trkpt>
      <trkpt lat="52.90884" lon="6.83333">
        <ele>53.942</ele>
        <time>2020-07-07T10:15:38Z</time>
      </trkpt>
      <trkpt lat="52.90909" lon="6.83335">
        <ele>54.098</ele>
        <time>2020-07-07T10:15:43Z</time>
      </trkpt>
      <trkpt lat="52.9094" lon="6.83336">
        <ele>52.887</ele>
        <time>2020-07-07T10:15:49Z</time>
      </trkpt>
      <trkpt lat="52.9097" lon="6.83334">
        <ele>54.135</ele>
        <time>2020-07-07T10:15:55Z</time>
      </trkpt>
      <trkpt lat="52.90994" lon="6.83337">
        <ele>54.391</ele>
        <time>2020-07-07T10:16:01Z</time>
      </trkpt>
      <trkpt lat="52.91017" lon="6.83336">
        <ele>55.138</ele>
        <time>2020-07-07T10:16:06Z</time>
      </trkpt>
      <trkpt lat="52.91045" lon="6.83336">
        <ele>55.647</ele>
        <time>2020-07-07T10:16:12Z</time>
      </trkpt>
      <trkpt lat="52.91067" lon="6.83336">
        <ele>55.596</ele>
        <time>2020-07-07T10:16:17Z</time>
      </trkpt>
      <trkpt lat="52.91096" lon="6.83336">
        <ele>55.478</ele>
        <time>2020-07-07T10:16:23Z</time>
      </trkpt>
      <trkpt lat="52.91119" lon="6.83336">
        <ele>57.162</ele>
        <time>2020-07-07T10:16:28Z</time>
      </trkpt>
      <trkpt lat="52.91151" lon="6.83338">
        <ele>57.369</ele>
        <time>2020-07-07T10:16:34Z</time>
      </trkpt>
      <trkpt lat="52.91175" lon="6.8334">
        <ele>58.799</ele>
        <time>2020-07-07T10:16:40Z</time>
      </trkpt>
      <trkpt lat="52.91201" lon="6.83338">
        <ele>59.845</ele>
        <time>2020-07-07T10:16:46Z</time>
      </trkpt>
      <trkpt lat="52.91225" lon="6.8334">
        <ele>60.699</ele>
        <time>2020-07-07T10:16:51Z</time>
      </trkpt>
      <trkpt lat="52.91254" lon="6.83341">
        <ele>61.4</ele>
        <time>2020-07-07T10:16:57Z</time>
      </trkpt>
      <trkpt lat="52.91274" lon="6.8334">
        <ele>61.426</ele>
        <time>2020-07-07T10:17:02Z</time>
      </trkpt>
      <trkpt lat="52.91303" lon="6.83342">
        <ele>61.407</ele>
        <time>2020-07-07T10:17:08Z</time>
      </trkpt>
      <trkpt lat="52.91327" lon="6.83342">
        <ele>60.331</ele>
        <time>2020-07-07T10:17:14Z</time>
      </trkpt>
      <trkpt lat="52.91354" lon="6.8334">
        <ele>59.572</ele>
        <time>2020-07-07T10:17:20Z</time>
      </trkpt>
      <trkpt lat="52.91383" lon="6.8334">
        <ele>58.734</ele>
        <time>2020-07-07T10:17:26Z</time>
      </trkpt>
      <trkpt lat="52.91401" lon="6.8334">
        <ele>58.67</ele>
        <time>2020-07-07T10:17:31Z</time>
      </trkpt>
      <trkpt lat="52.91422" lon="6.83341">
        <ele>60.095</ele>
        <time>2020-07-07T10:17:37Z</time>
      </trkpt>
      <trkpt lat="52.91446" lon="6.83342">
        <ele>59.454</ele>
        <time>2020-07-07T10:17:43Z</time>
      </trkpt>
      <trkpt lat="52.91474" lon="6.83342">
        <ele>59.256</ele>
        <time>2020-07-07T10:17:49Z</time>
      </trkpt>
      <trkpt lat="52.91494" lon="6.83341">
        <ele>59.54</ele>
        <time>2020-07-07T10:17:54Z</time>
      </trkpt>
      <trkpt lat="52.91522" lon="6.83342">
        <ele>60.073</ele>
        <time>2020-07-07T10:18:00Z</time>
      </trkpt>
      <trkpt lat="52.91547" lon="6.83347">
        <ele>59.927</ele>
        <time>2020-07-07T10:18:05Z</time>
      </trkpt>
      <trkpt lat="52.9157" lon="6.83351">
        <ele>60.811</ele>
        <time>2020-07-07T10:18:11Z</time>
      </trkpt>
      <trkpt lat="52.91598" lon="6.83355">
        <ele>61.221</ele>
        <time>2020-07-07T10:18:17Z</time>
      </trkpt>
      <trkpt lat="52.91626" lon="6.83356">
        <ele>60.572</ele>
        <time>2020-07-07T10:18:23Z</time>
      </trkpt>
      <trkpt lat="52.91646" lon="6.83358">
        <ele>60.813</ele>
        <time>2020-07-07T10:18:29Z</time>
      </trkpt>
      <trkpt lat="52.91668" lon="6.83358">
        <ele>60.501</ele>
        <time>2020-07-07T10:18:35Z</time>
      </trkpt>
      <trkpt lat="52.91689" lon="6.83358">
        <ele>61.084</ele>
        <time>2020-07-07T10:18:40Z</time>
      </trkpt>
      <trkpt lat="52.91707" lon="6.83356">
        <ele>62.178</ele>
        <time>2020-07-07T10:18:45Z</time>
      </trkpt>
      <trkpt lat="52.9173" lon="6.83358">
        <ele>62.971</ele>
        <time>2020-07-07T10:18:51Z</time>
      </trkpt>
      <trkpt lat="52.91747" lon="6.83358">
        <ele>63.708</ele>
        <time>2020-07-07T10:18:56Z</time>
      </trkpt>
      <trkpt lat="52.91767" lon="6.83357">
        <ele>64.54</ele>
        <time>2020-07-07T10:19:02Z</time>
      </trkpt>
      <trkpt lat="52.91786" lon="6.83359">
        <ele>64.957</ele>
        <time>2020-07-07T10:19:08Z</time>
      </trkpt>
      <trkpt lat="52.91804" lon="6.83358">
        <ele>64.975</ele>
        <time>2020-07-07T10:19:13Z</time>
      </trkpt>
      <trkpt lat="52.91823" lon="6.83361">
        <ele>64.896</ele>
        <time>2020-07-07T10:19:18Z</time>
      </trkpt>
      <trkpt lat="52.91844" lon="6.83362">
        <ele>65.304</ele>
        <time>2020-07-07T10:19:24Z</time>
      </trkpt>
      <trkpt lat="52.91863" lon="6.83363">
        <ele>64.753</ele>
        <time>2020-07-07T10:19:29Z</time>
      </trkpt>
      <trkpt lat="52.91883" lon="6.83363">
        <ele>64.525</ele>
        <time>2020-07-07T10:19:35Z</time>
      </trkpt>
      <trkpt lat="52.919" lon="6.83364">
        <ele>64.106</ele>
        <time>2020-07-07T10:19:40Z</time>
      </trkpt>
      <trkpt lat="52.91921" lon="6.83365">
        <ele>64.222</ele>
        <time>2020-07-07T10:19:46Z</time>
      </trkpt>
      <trkpt lat="52.91942" lon="6.83374">
        <ele>64.653</ele>
        <time>2020-07-07T10:19:51Z</time>
      </trkpt>
      <trkpt lat="52.91964" lon="6.83375">
        <ele>64.554</ele>
        <time>2020-07-07T10:19:57Z</time>
      </trkpt>
      <trkpt lat="52.91982" lon="6.83378">
        <ele>65.072</ele>
        <time>2020-07-07T10:20:02Z</time>
      </trkpt>
      <trkpt lat="52.91991" lon="6.83396">
        <ele>62.762</ele>
        <time>2020-07-07T10:20:07Z</time>
      </trkpt>
      <trkpt lat="52.91988" lon="6.83429">
        <ele>61.616</ele>
        <time>2020-07-07T10:20:13Z</time>
      </trkpt>
      <trkpt lat="52.91985" lon="6.83464">
        <ele>60.013</ele>
        <time>2020-07-07T10:20:19Z</time>
      </trkpt>
      <trkpt lat="52.91989" lon="6.83495">
        <ele>59.161</ele>
        <time>2020-07-07T10:20:24Z</time>
      </trkpt>
      <trkpt lat="52.91996" lon="6.83532">
        <ele>59.174</ele>
        <time>2020-07-07T10:20:30Z</time>
      </trkpt>
      <trkpt lat="52.92002" lon="6.8358">
        <ele>58.416</ele>
        <time>2020-07-07T10:20:36Z</time>
      </trkpt>
      <trkpt lat="52.92007" lon="6.83624">
        <ele>58.089</ele>
        <time>2020-07-07T10:20:42Z</time>
      </trkpt>
      <trkpt lat="52.92014" lon="6.8366">
        <ele>57.375</ele>
        <time>2020-07-07T10:20:47Z</time>
      </trkpt>
      <trkpt lat="52.92026" lon="6.83704">
        <ele>56.684</ele>
        <time>2020-07-07T10:20:53Z</time>
      </trkpt>
      <trkpt lat="52.92042" lon="6.83734">
        <ele>56.065</ele>
        <time>2020-07-07T10:20:58Z</time>
      </trkpt>
      <trkpt lat="52.92069" lon="6.83734">
        <ele>57.068</ele>
        <time>2020-07-07T10:21:04Z</time>
      </trkpt>
      <trkpt lat="52.92093" lon="6.83723">
        <ele>58.741</ele>
        <time>2020-07-07T10:21:10Z</time>
      </trkpt>
      <trkpt lat="52.92116" lon="6.83712">
        <ele>60.138</ele>
        <time>2020-07-07T10:21:16Z</time>
      </trkpt>
      <trkpt lat="52.92135" lon="6.83703">
        <ele>61.037</ele>
        <time>2020-07-07T10:21:21Z</time>
      </trkpt>
      <trkpt lat="52.92156" lon="6.83694">
        <ele>62.255</ele>
        <time>2020-07-07T10:21:27Z</time>
      </trkpt>
      <trkpt lat="52.92171" lon="6.83687">
        <ele>62.81</ele>
        <time>2020-07-07T10:21:32Z</time>
      </trkpt>
      <trkpt lat="52.9219" lon="6.83684">
        <ele>63.475</ele>
        <time>2020-07-07T10:21:38Z</time>
      </trkpt>
      <trkpt lat="52.9221" lon="6.83681">
        <ele>64.789</ele>
        <time>2020-07-07T10:21:44Z</time>
      </trkpt>
      <trkpt lat="52.92231" lon="6.83677">
        <ele>65.315</ele>
        <time>2020-07-07T10:21:50Z</time>
      </trkpt>
      <trkpt lat="52.9225" lon="6.83675">
        <ele>65.538</ele>
        <time>2020-07-07T10:21:55Z</time>
      </trkpt>
      <trkpt lat="52.92269" lon="6.83671">
        <ele>64.694</ele>
        <time>2020-07-07T10:22:00Z</time>
      </trkpt>
      <trkpt lat="52.92294" lon="6.83666">
        <ele>63.928</ele>
        <time>2020-07-07T10:22:06Z</time>
      </trkpt>
      <trkpt lat="52.92312" lon="6.83664">
        <ele>63.669</ele>
        <time>2020-07-07T10:22:11Z</time>
      </trkpt>
      <trkpt lat="52.92334" lon="6.83661">
        <ele>63.95</ele>
        <time>2020-07-07T10:22:17Z</time>
      </trkpt>
      <trkpt lat="52.92357" lon="6.83657">
        <ele>64.376</ele>
        <time>2020-07-07T10:22:23Z</time>
      </trkpt>
      <trkpt lat="52.92376" lon="6.83655">
        <ele>64.181</ele>
        <time>2020-07-07T10:22:28Z</time>
      </trkpt>
      <trkpt lat="52.92399" lon="6.83655">
        <ele>63.514</ele>
        <time>2020-07-07T10:22:34Z</time>
      </trkpt>
      <trkpt lat="52.92417" lon="6.83653">
        <ele>63.508</ele>
        <time>2020-07-07T10:22:39Z</time>
      </trkpt>
      <trkpt lat="52.92435" lon="6.83651">
        <ele>63.622</ele>
        <time>2020-07-07T10:22:44Z</time>
      </trkpt>
      <trkpt lat="52.92455" lon="6.83648">
        <ele>63.667</ele>
        <time>2020-07-07T10:22:50Z</time>
      </trkpt>
      <trkpt lat="52.92466" lon="6.83659">
        <ele>63.617</ele>
        <time>2020-07-07T10:22:55Z</time>
      </trkpt>
      <trkpt lat="52.92467" lon="6.8367">
        <ele>62.573</ele>
        <time>2020-07-07T10:23:00Z</time>
      </trkpt>
      <trkpt lat="52.92467" lon="6.8367">
        <ele>62.573</ele>
        <time>2020-07-07T10:23:06Z</time>
      </trkpt>
      <trkpt lat="52.92467" lon="6.8367">
        <ele>62.573</ele>
        <time>2020-07-07T10:23:12Z</time>
      </trkpt>
      <trkpt lat="52.92467" lon="6.8367">
        <ele>62.573</ele>
        <time>2020-07-07T10:23:17Z</time>
      </trkpt>
      <trkpt lat="52.92467" lon="6.8367">
        <ele>62.573</ele>
        <time>2020-07-07T10:23:23Z</time>
      </trkpt>
      <trkpt lat="52.92467" lon="6.8367">
        <ele>62.573</ele>
        <time>2020-07-07T10:23:28Z</time>
      </trkpt>
      <trkpt lat="52.92467" lon="6.8367">
        <ele>62.573</ele>
        <time>2020-07-07T10:23:34Z</time>
      </trkpt>
      <trkpt lat="52.92467" lon="6.8367">
        <ele>62.573</ele>
        <time>2020-07-07T10:23:40Z</time>
      </trkpt>
      <trkpt lat="52.92467" lon="6.8367">
        <ele>62.573</ele>
        <time>2020-07-07T10:23:46Z</time>
      </trkpt>
      <trkpt lat="52.92467" lon="6.8367">
        <ele>62.573</ele>
        <time>2020-07-07T10:23:52Z</time>
      </trkpt>
      <trkpt lat="52.92467" lon="6.8367">
        <ele>62.573</ele>
        <time>2020-07-07T10:23:57Z</time>
      </trkpt>
      <trkpt lat="52.92467" lon="6.8367">
        <ele>62.573</ele>
        <time>2020-07-07T10:24:03Z</time>
      </trkpt>
      <trkpt lat="52.92467" lon="6.8367">
        <ele>62.573</ele>
        <time>2020-07-07T10:24:08Z</time>
      </trkpt>
      <trkpt lat="52.92467" lon="6.8367">
        <ele>62.573</ele>
        <time>2020-07-07T10:24:13Z</time>
      </trkpt>
      <trkpt lat="52.92467" lon="6.8367">
        <ele>62.573</ele>
        <time>2020-07-07T10:24:18Z</time>
      </trkpt>
      <trkpt lat="52.92467" lon="6.8367">
        <ele>62.573</ele>
        <time>2020-07-07T10:24:24Z</time>
      </trkpt>
      <trkpt lat="52.92467" lon="6.8367">
        <ele>62.573</ele>
        <time>2020-07-07T10:24:30Z</time>
      </trkpt>
      <trkpt lat="52.92467" lon="6.8367">
        <ele>62.573</ele>
        <time>2020-07-07T10:24:36Z</time>
      </trkpt>
      <trkpt lat="52.92467" lon="6.8367">
        <ele>62.573</ele>
        <time>2020-07-07T10:24:42Z</time>
      </trkpt>
      <trkpt lat="52.92467" lon="6.83671">
        <ele>62.673</ele>
        <time>2020-07-07T10:24:48Z</time>
      </trkpt>
      <trkpt lat="52.92469" lon="6.83687">
        <ele>62.878</ele>
        <time>2020-07-07T10:24:54Z</time>
      </trkpt>
      <trkpt lat="52.92472" lon="6.83717">
        <ele>62.896</ele>
        <time>2020-07-07T10:25:00Z</time>
      </trkpt>
      <trkpt lat="52.92475" lon="6.83748">
        <ele>62.661</ele>
        <time>2020-07-07T10:25:06Z</time>
      </trkpt>
      <trkpt lat="52.92478" lon="6.83774">
        <ele>62.658</ele>
        <time>2020-07-07T10:25:11Z</time>
      </trkpt>
      <trkpt lat="52.92481" lon="6.83802">
        <ele>63.046</ele>
        <time>2020-07-07T10:25:16Z</time>
      </trkpt>
      <trkpt lat="52.92485" lon="6.83837">
        <ele>63.39</ele>
        <time>2020-07-07T10:25:22Z</time>
      </trkpt>
      <trkpt lat="52.92489" lon="6.83875">
        <ele>62.991</ele>
        <time>2020-07-07T10:25:28Z</time>
      </trkpt>
      <trkpt lat="52.92493" lon="6.83906">
        <ele>62.415</ele>
        <time>2020-07-07T10:25:33Z</time>
      </trkpt>
      <trkpt lat="52.92499" lon="6.83946">
        <ele>61.373</ele>
        <time>2020-07-07T10:25:39Z</time>
      </trkpt>
      <trkpt lat="52.92503" lon="6.83984">
        <ele>60.201</ele>
        <time>2020-07-07T10:25:44Z</time>
      </trkpt>
      <trkpt lat="52.9251" lon="6.84037">
        <ele>58.717</ele>
        <time>2020-07-07T10:25:50Z</time>
      </trkpt>
      <trkpt lat="52.92515" lon="6.84085">
        <ele>57.487</ele>
        <time>2020-07-07T10:25:55Z</time>
      </trkpt>
      <trkpt lat="52.92522" lon="6.84149">
        <ele>56.802</ele>
        <time>2020-07-07T10:26:01Z</time>
      </trkpt>
      <trkpt lat="52.92529" lon="6.8421">
        <ele>56.478</ele>
        <time>2020-07-07T10:26:06Z</time>
      </trkpt>
      <trkpt lat="52.92538" lon="6.84284">
        <ele>55.479</ele>
        <time>2020-07-07T10:26:12Z</time>
      </trkpt>
      <trkpt lat="52.92547" lon="6.84357">
        <ele>54.946</ele>
        <time>2020-07-07T10:26:18Z</time>
      </trkpt>
      <trkpt lat="52.92552" lon="6.84405">
        <ele>54.856</ele>
        <time>2020-07-07T10:26:23Z</time>
      </trkpt>
      <trkpt lat="52.92566" lon="6.84436">
        <ele>54.823</ele>
        <time>2020-07-07T10:26:28Z</time>
      </trkpt>
      <trkpt lat="52.92593" lon="6.84435">
        <ele>55.693</ele>
        <time>2020-07-07T10:26:34Z</time>
      </trkpt>
      <trkpt lat="52.9262" lon="6.84427">
        <ele>52.992</ele>
        <time>2020-07-07T10:26:40Z</time>
      </trkpt>
      <trkpt lat="52.9264" lon="6.84417">
        <ele>51.481</ele>
        <time>2020-07-07T10:26:45Z</time>
      </trkpt>
      <trkpt lat="52.92658" lon="6.84408">
        <ele>50.83</ele>
        <time>2020-07-07T10:26:50Z</time>
      </trkpt>
      <trkpt lat="52.92682" lon="6.84397">
        <ele>49.441</ele>
        <time>2020-07-07T10:26:56Z</time>
      </trkpt>
      <trkpt lat="52.92702" lon="6.8439">
        <ele>49.079</ele>
        <time>2020-07-07T10:27:01Z</time>
      </trkpt>
      <trkpt lat="52.92725" lon="6.84379">
        <ele>50.024</ele>
        <time>2020-07-07T10:27:07Z</time>
      </trkpt>
      <trkpt lat="52.92747" lon="6.84368">
        <ele>50.98</ele>
        <time>2020-07-07T10:27:13Z</time>
      </trkpt>
      <trkpt lat="52.92764" lon="6.84362">
        <ele>52.313</ele>
        <time>2020-07-07T10:27:18Z</time>
      </trkpt>
      <trkpt lat="52.92784" lon="6.84378">
        <ele>52.951</ele>
        <time>2020-07-07T10:27:23Z</time>
      </trkpt>
      <trkpt lat="52.9279" lon="6.84416">
        <ele>51.984</ele>
        <time>2020-07-07T10:27:29Z</time>
      </trkpt>
      <trkpt lat="52.92793" lon="6.84455">
        <ele>51.381</ele>
        <time>2020-07-07T10:27:34Z</time>
      </trkpt>
      <trkpt lat="52.92798" lon="6.84502">
        <ele>49.345</ele>
        <time>2020-07-07T10:27:40Z</time>
      </trkpt>
      <trkpt lat="52.92801" lon="6.84541">
        <ele>47.614</ele>
        <time>2020-07-07T10:27:45Z</time>
      </trkpt>
      <trkpt lat="52.92807" lon="6.8459">
        <ele>47.194</ele>
        <time>2020-07-07T10:27:51Z</time>
      </trkpt>
      <trkpt lat="52.92811" lon="6.84638">
        <ele>47.17</ele>
        <time>2020-07-07T10:27:57Z</time>
      </trkpt>
      <trkpt lat="52.92815" lon="6.84677">
        <ele>46.807</ele>
        <time>2020-07-07T10:28:02Z</time>
      </trkpt>
      <trkpt lat="52.9282" lon="6.84724">
        <ele>45.951</ele>
        <time>2020-07-07T10:28:08Z</time>
      </trkpt>
      <trkpt lat="52.92826" lon="6.84772">
        <ele>45.716</ele>
        <time>2020-07-07T10:28:14Z</time>
      </trkpt>
      <trkpt lat="52.92833" lon="6.84821">
        <ele>46.464</ele>
        <time>2020-07-07T10:28:20Z</time>
      </trkpt>
      <trkpt lat="52.92838" lon="6.84861">
        <ele>46.875</ele>
        <time>2020-07-07T10:28:25Z</time>
      </trkpt>
      <trkpt lat="52.92842" lon="6.84899">
        <ele>46.807</ele>
        <time>2020-07-07T10:28:30Z</time>
      </trkpt>
      <trkpt lat="52.92847" lon="6.8494">
        <ele>46.188</ele>
        <time>2020-07-07T10:28:35Z</time>
      </trkpt>
      <trkpt lat="52.92853" lon="6.84987">
        <ele>45.912</ele>
        <time>2020-07-07T10:28:41Z</time>
      </trkpt>
      <trkpt lat="52.92857" lon="6.85028">
        <ele>45.842</ele>
        <time>2020-07-07T10:28:46Z</time>
      </trkpt>
      <trkpt lat="52.92861" lon="6.85075">
        <ele>45.495</ele>
        <time>2020-07-07T10:28:52Z</time>
      </trkpt>
      <trkpt lat="52.92865" lon="6.85118">
        <ele>46.269</ele>
        <time>2020-07-07T10:28:58Z</time>
      </trkpt>
      <trkpt lat="52.9287" lon="6.8516">
        <ele>45.824</ele>
        <time>2020-07-07T10:29:04Z</time>
      </trkpt>
      <trkpt lat="52.92872" lon="6.85201">
        <ele>46.352</ele>
        <time>2020-07-07T10:29:10Z</time>
      </trkpt>
      <trkpt lat="52.92855" lon="6.85222">
        <ele>46.463</ele>
        <time>2020-07-07T10:29:15Z</time>
      </trkpt>
      <trkpt lat="52.9283" lon="6.85232">
        <ele>46.884</ele>
        <time>2020-07-07T10:29:21Z</time>
      </trkpt>
      <trkpt lat="52.92808" lon="6.85241">
        <ele>47.51</ele>
        <time>2020-07-07T10:29:27Z</time>
      </trkpt>
      <trkpt lat="52.92791" lon="6.85248">
        <ele>48.217</ele>
        <time>2020-07-07T10:29:32Z</time>
      </trkpt>
      <trkpt lat="52.92775" lon="6.85255">
        <ele>48.377</ele>
        <time>2020-07-07T10:29:37Z</time>
      </trkpt>
      <trkpt lat="52.92756" lon="6.85264">
        <ele>48.856</ele>
        <time>2020-07-07T10:29:43Z</time>
      </trkpt>
      <trkpt lat="52.92739" lon="6.8527">
        <ele>49.152</ele>
        <time>2020-07-07T10:29:48Z</time>
      </trkpt>
      <trkpt lat="52.92723" lon="6.85276">
        <ele>49.648</ele>
        <time>2020-07-07T10:29:53Z</time>
      </trkpt>
      <trkpt lat="52.92706" lon="6.85283">
        <ele>49.595</ele>
        <time>2020-07-07T10:29:58Z</time>
      </trkpt>
      <trkpt lat="52.92687" lon="6.8529">
        <ele>49.575</ele>
        <time>2020-07-07T10:30:04Z</time>
      </trkpt>
      <trkpt lat="52.92666" lon="6.85296">
        <ele>49.835</ele>
        <time>2020-07-07T10:30:10Z</time>
      </trkpt>
      <trkpt lat="52.92645" lon="6.85305">
        <ele>50.32</ele>
        <time>2020-07-07T10:30:16Z</time>
      </trkpt>
      <trkpt lat="52.92625" lon="6.85312">
        <ele>49.745</ele>
        <time>2020-07-07T10:30:22Z</time>
      </trkpt>
      <trkpt lat="52.92605" lon="6.85321">
        <ele>49.37</ele>
        <time>2020-07-07T10:30:28Z</time>
      </trkpt>
      <trkpt lat="52.92584" lon="6.85328">
        <ele>49.371</ele>
        <time>2020-07-07T10:30:34Z</time>
      </trkpt>
      <trkpt lat="52.92568" lon="6.85334">
        <ele>50.326</ele>
        <time>2020-07-07T10:30:39Z</time>
      </trkpt>
      <trkpt lat="52.9255" lon="6.85341">
        <ele>50.811</ele>
        <time>2020-07-07T10:30:44Z</time>
      </trkpt>
      <trkpt lat="52.92533" lon="6.8535">
        <ele>50.812</ele>
        <time>2020-07-07T10:30:49Z</time>
      </trkpt>
      <trkpt lat="52.92516" lon="6.85359">
        <ele>50.767</ele>
        <time>2020-07-07T10:30:54Z</time>
      </trkpt>
      <trkpt lat="52.92499" lon="6.85368">
        <ele>51.275</ele>
        <time>2020-07-07T10:30:59Z</time>
      </trkpt>
      <trkpt lat="52.9248" lon="6.85381">
        <ele>50.871</ele>
        <time>2020-07-07T10:31:05Z</time>
      </trkpt>
      <trkpt lat="52.92461" lon="6.85397">
        <ele>51.133</ele>
        <time>2020-07-07T10:31:11Z</time>
      </trkpt>
      <trkpt lat="52.92443" lon="6.85411">
        <ele>52.006</ele>
        <time>2020-07-07T10:31:17Z</time>
      </trkpt>
      <trkpt lat="52.92425" lon="6.85429">
        <ele>52.623</ele>
        <time>2020-07-07T10:31:23Z</time>
      </trkpt>
      <trkpt lat="52.9241" lon="6.85446">
        <ele>52.946</ele>
        <time>2020-07-07T10:31:28Z</time>
      </trkpt>
      <trkpt lat="52.92397" lon="6.85465">
        <ele>52.188</ele>
        <time>2020-07-07T10:31:33Z</time>
      </trkpt>
      <trkpt lat="52.9238" lon="6.85484">
        <ele>52.29</ele>
        <time>2020-07-07T10:31:39Z</time>
      </trkpt>
      <trkpt lat="52.92364" lon="6.85502">
        <ele>52.305</ele>
        <time>2020-07-07T10:31:45Z</time>
      </trkpt>
      <trkpt lat="52.92348" lon="6.8552">
        <ele>51.284</ele>
        <time>2020-07-07T10:31:51Z</time>
      </trkpt>
      <trkpt lat="52.9233" lon="6.85534">
        <ele>51.119</ele>
        <time>2020-07-07T10:31:57Z</time>
      </trkpt>
      <trkpt lat="52.92315" lon="6.85547">
        <ele>50.568</ele>
        <time>2020-07-07T10:32:02Z</time>
      </trkpt>
      <trkpt lat="52.92297" lon="6.85561">
        <ele>51.334</ele>
        <time>2020-07-07T10:32:08Z</time>
      </trkpt>
      <trkpt lat="52.92278" lon="6.85577">
        <ele>51.593</ele>
        <time>2020-07-07T10:32:14Z</time>
      </trkpt>
      <trkpt lat="52.92262" lon="6.85589">
        <ele>52.196</ele>
        <time>2020-07-07T10:32:19Z</time>
      </trkpt>
      <trkpt lat="52.92245" lon="6.85603">
        <ele>52.745</ele>
        <time>2020-07-07T10:32:24Z</time>
      </trkpt>
      <trkpt lat="52.92231" lon="6.85618">
        <ele>52.626</ele>
        <time>2020-07-07T10:32:29Z</time>
      </trkpt>
      <trkpt lat="52.92213" lon="6.85636">
        <ele>51.903</ele>
        <time>2020-07-07T10:32:35Z</time>
      </trkpt>
      <trkpt lat="52.92195" lon="6.85651">
        <ele>51.577</ele>
        <time>2020-07-07T10:32:41Z</time>
      </trkpt>
      <trkpt lat="52.92181" lon="6.85664">
        <ele>51.502</ele>
        <time>2020-07-07T10:32:46Z</time>
      </trkpt>
      <trkpt lat="52.92165" lon="6.85681">
        <ele>50.234</ele>
        <time>2020-07-07T10:32:52Z</time>
      </trkpt>
      <trkpt lat="52.92149" lon="6.85692">
        <ele>50.708</ele>
        <time>2020-07-07T10:32:57Z</time>
      </trkpt>
      <trkpt lat="52.92132" lon="6.85709">
        <ele>50.84</ele>
        <time>2020-07-07T10:33:03Z</time>
      </trkpt>
      <trkpt lat="52.92117" lon="6.85722">
        <ele>50.328</ele>
        <time>2020-07-07T10:33:08Z</time>
      </trkpt>
      <trkpt lat="52.92099" lon="6.85738">
        <ele>50.591</ele>
        <time>2020-07-07T10:33:14Z</time>
      </trkpt>
      <trkpt lat="52.92081" lon="6.85752">
        <ele>51.473</ele>
        <time>2020-07-07T10:33:20Z</time>
      </trkpt>
      <trkpt lat="52.92065" lon="6.8577">
        <ele>51.097</ele>
        <time>2020-07-07T10:33:26Z</time>
      </trkpt>
      <trkpt lat="52.92051" lon="6.85784">
        <ele>50.427</ele>
        <time>2020-07-07T10:33:31Z</time>
      </trkpt>
      <trkpt lat="52.92035" lon="6.85798">
        <ele>50.039</ele>
        <time>2020-07-07T10:33:37Z</time>
      </trkpt>
      <trkpt lat="52.92022" lon="6.85803">
        <ele>50.354</ele>
        <time>2020-07-07T10:33:42Z</time>
      </trkpt>
      <trkpt lat="52.92019" lon="6.85801">
        <ele>49.993</ele>
        <time>2020-07-07T10:33:48Z</time>
      </trkpt>
      <trkpt lat="52.92019" lon="6.85801">
        <ele>49.993</ele>
        <time>2020-07-07T10:33:53Z</time>
      </trkpt>
      <trkpt lat="52.92019" lon="6.85801">
        <ele>49.993</ele>
        <time>2020-07-07T10:33:59Z</time>
      </trkpt>
      <trkpt lat="52.92019" lon="6.85801">
        <ele>49.993</ele>
        <time>2020-07-07T10:34:04Z</time>
      </trkpt>
      <trkpt lat="52.92019" lon="6.85801">
        <ele>49.993</ele>
        <time>2020-07-07T10:34:10Z</time>
      </trkpt>
      <trkpt lat="52.92019" lon="6.85801">
        <ele>49.993</ele>
        <time>2020-07-07T10:34:15Z</time>
      </trkpt>
      <trkpt lat="52.92019" lon="6.85801">
        <ele>49.993</ele>
        <time>2020-07-07T10:34:21Z</time>
      </trkpt>
      <trkpt lat="52.92019" lon="6.85801">
        <ele>49.993</ele>
        <time>2020-07-07T10:34:26Z</time>
      </trkpt>
      <trkpt lat="52.92019" lon="6.85801">
        <ele>49.993</ele>
        <time>2020-07-07T10:34:31Z</time>
      </trkpt>
      <trkpt lat="52.92019" lon="6.85801">
        <ele>49.993</ele>
        <time>2020-07-07T10:34:37Z</time>
      </trkpt>
      <trkpt lat="52.92019" lon="6.85801">
        <ele>49.993</ele>
        <time>2020-07-07T10:34:42Z</time>
      </trkpt>
      <trkpt lat="52.92019" lon="6.85801">
        <ele>49.993</ele>
        <time>2020-07-07T10:34:47Z</time>
      </trkpt>
      <trkpt lat="52.92019" lon="6.85801">
        <ele>49.993</ele>
        <time>2020-07-07T10:34:52Z</time>
      </trkpt>
      <trkpt lat="52.92019" lon="6.85801">
        <ele>49.993</ele>
        <time>2020-07-07T10:34:58Z</time>
      </trkpt>
      <trkpt lat="52.92019" lon="6.85801">
        <ele>49.993</ele>
        <time>2020-07-07T10:35:04Z</time>
      </trkpt>
      <trkpt lat="52.92019" lon="6.85801">
        <ele>49.993</ele>
        <time>2020-07-07T10:35:09Z</time>
      </trkpt>
      <trkpt lat="52.92019" lon="6.85801">
        <ele>49.993</ele>
        <time>2020-07-07T10:35:15Z</time>
      </trkpt>
      <trkpt lat="52.92019" lon="6.85801">
        <ele>49.993</ele>
        <time>2020-07-07T10:35:21Z</time>
      </trkpt>
      <trkpt lat="52.92019" lon="6.85801">
        <ele>49.993</ele>
        <time>2020-07-07T10:35:27Z</time>
      </trkpt>
      <trkpt lat="52.92019" lon="6.85801">
        <ele>49.993</ele>
        <time>2020-07-07T10:35:32Z</time>
      </trkpt>
      <trkpt lat="52.92019" lon="6.85801">
        <ele>49.993</ele>
        <time>2020-07-07T10:35:38Z</time>
      </trkpt>
      <trkpt lat="52.92019" lon="6.85801">
        <ele>49.993</ele>
        <time>2020-07-07T10:35:44Z</time>
      </trkpt>
      <trkpt lat="52.92019" lon="6.85801">
        <ele>49.993</ele>
        <time>2020-07-07T10:35:50Z</time>
      </trkpt>
      <trkpt lat="52.92019" lon="6.85801">
        <ele>49.993</ele>
        <time>2020-07-07T10:35:56Z</time>
      </trkpt>
      <trkpt lat="52.92019" lon="6.85801">
        <ele>49.993</ele>
        <time>2020-07-07T10:36:01Z</time>
      </trkpt>
      <trkpt lat="52.92019" lon="6.85801">
        <ele>49.993</ele>
        <time>2020-07-07T10:36:06Z</time>
      </trkpt>
      <trkpt lat="52.92019" lon="6.85801">
        <ele>49.993</ele>
        <time>2020-07-07T10:36:12Z</time>
      </trkpt>
      <trkpt lat="52.92019" lon="6.85801">
        <ele>49.993</ele>
        <time>2020-07-07T10:36:18Z</time>
      </trkpt>
      <trkpt lat="52.92019" lon="6.85801">
        <ele>49.993</ele>
        <time>2020-07-07T10:36:24Z</time>
      </trkpt>
      <trkpt lat="52.92019" lon="6.85801">
        <ele>49.993</ele>
        <time>2020-07-07T10:36:29Z</time>
      </trkpt>
      <trkpt lat="52.92019" lon="6.85801">
        <ele>49.993</ele>
        <time>2020-07-07T10:36:35Z</time>
      </trkpt>
      <trkpt lat="52.92019" lon="6.85801">
        <ele>49.993</ele>
        <time>2020-07-07T10:36:41Z</time>
      </trkpt>
      <trkpt lat="52.92019" lon="6.85801">
        <ele>49.993</ele>
        <time>2020-07-07T10:36:46Z</time>
      </trkpt>
      <trkpt lat="52.92019" lon="6.85801">
        <ele>49.993</ele>
        <time>2020-07-07T10:36:51Z</time>
      </trkpt>
      <trkpt lat="52.92019" lon="6.85801">
        <ele>49.993</ele>
        <time>2020-07-07T10:36:56Z</time>
      </trkpt>
      <trkpt lat="52.92019" lon="6.85801">
        <ele>49.993</ele>
        <time>2020-07-07T10:37:01Z</time>
      </trkpt>
      <trkpt lat="52.92019" lon="6.85801">
        <ele>49.993</ele>
        <time>2020-07-07T10:37:07Z</time>
      </trkpt>
      <trkpt lat="52.92019" lon="6.85801">
        <ele>49.993</ele>
        <time>2020-07-07T10:37:12Z</time>
      </trkpt>
      <trkpt lat="52.92019" lon="6.85801">
        <ele>49.993</ele>
        <time>2020-07-07T10:37:18Z</time>
      </trkpt>
      <trkpt lat="52.92019" lon="6.85801">
        <ele>49.993</ele>
        <time>2020-07-07T10:37:24Z</time>
      </trkpt>
      <trkpt lat="52.92019" lon="6.85801">
        <ele>49.993</ele>
        <time>2020-07-07T10:37:29Z</time>
      </trkpt>
      <trkpt lat="52.92019" lon="6.85801">
        <ele>49.993</ele>
        <time>2020-07-07T10:37:35Z</time>
      </trkpt>
      <trkpt lat="52.92019" lon="6.85801">
        <ele>49.993</ele>
        <time>2020-07-07T10:37:40Z</time>
      </trkpt>
      <trkpt lat="52.92019" lon="6.85801">
        <ele>49.993</ele>
        <time>2020-07-07T10:37:46Z</time>
      </trkpt>
      <trkpt lat="52.92019" lon="6.85801">
        <ele>49.993</ele>
        <time>2020-07-07T10:37:52Z</time>
      </trkpt>
      <trkpt lat="52.92019" lon="6.85801">
        <ele>49.993</ele>
        <time>2020-07-07T10:37:57Z</time>
      </trkpt>
      <trkpt lat="52.92019" lon="6.85801">
        <ele>49.993</ele>
        <time>2020-07-07T10:38:03Z</time>
      </trkpt>
      <trkpt lat="52.92019" lon="6.85801">
        <ele>49.993</ele>
        <time>2020-07-07T10:38:08Z</time>
      </trkpt>
      <trkpt lat="52.92019" lon="6.85801">
        <ele>49.993</ele>
        <time>2020-07-07T10:38:13Z</time>
      </trkpt>
      <trkpt lat="52.92019" lon="6.85801">
        <ele>49.993</ele>
        <time>2020-07-07T10:38:19Z</time>
      </trkpt>
      <trkpt lat="52.92019" lon="6.85801">
        <ele>49.993</ele>
        <time>2020-07-07T10:38:24Z</time>
      </trkpt>
      <trkpt lat="52.92019" lon="6.85801">
        <ele>49.993</ele>
        <time>2020-07-07T10:38:30Z</time>
      </trkpt>
      <trkpt lat="52.92019" lon="6.85801">
        <ele>49.993</ele>
        <time>2020-07-07T10:38:35Z</time>
      </trkpt>
      <trkpt lat="52.92019" lon="6.85801">
        <ele>49.993</ele>
        <time>2020-07-07T10:38:41Z</time>
      </trkpt>
      <trkpt lat="52.92019" lon="6.85801">
        <ele>49.993</ele>
        <time>2020-07-07T10:38:46Z</time>
      </trkpt>
      <trkpt lat="52.92019" lon="6.85801">
        <ele>49.993</ele>
        <time>2020-07-07T10:38:51Z</time>
      </trkpt>
      <trkpt lat="52.92019" lon="6.85801">
        <ele>49.993</ele>
        <time>2020-07-07T10:38:57Z</time>
      </trkpt>
      <trkpt lat="52.92019" lon="6.85801">
        <ele>49.993</ele>
        <time>2020-07-07T10:39:02Z</time>
      </trkpt>
      <trkpt lat="52.92019" lon="6.85801">
        <ele>49.993</ele>
        <time>2020-07-07T10:39:07Z</time>
      </trkpt>
      <trkpt lat="52.92019" lon="6.85801">
        <ele>49.993</ele>
        <time>2020-07-07T10:39:13Z</time>
      </trkpt>
      <trkpt lat="52.92019" lon="6.85801">
        <ele>49.993</ele>
        <time>2020-07-07T10:39:18Z</time>
      </trkpt>
      <trkpt lat="52.92019" lon="6.85801">
        <ele>49.993</ele>
        <time>2020-07-07T10:39:24Z</time>
      </trkpt>
      <trkpt lat="52.92019" lon="6.85801">
        <ele>49.993</ele>
        <time>2020-07-07T10:39:29Z</time>
      </trkpt>
      <trkpt lat="52.92019" lon="6.85801">
        <ele>49.993</ele>
        <time>2020-07-07T10:39:35Z</time>
      </trkpt>
      <trkpt lat="52.92018" lon="6.85803">
        <ele>49.636</ele>
        <time>2020-07-07T10:39:40Z</time>
      </trkpt>
      <trkpt lat="52.92017" lon="6.85806">
        <ele>49.697</ele>
        <time>2020-07-07T10:39:45Z</time>
      </trkpt>
      <trkpt lat="52.9202" lon="6.85806">
        <ele>51.174</ele>
        <time>2020-07-07T10:39:51Z</time>
      </trkpt>
      <trkpt lat="52.9202" lon="6.85806">
        <ele>51.174</ele>
        <time>2020-07-07T10:39:56Z</time>
      </trkpt>
      <trkpt lat="52.92027" lon="6.85799">
        <ele>49.692</ele>
        <time>2020-07-07T10:40:02Z</time>
      </trkpt>
      <trkpt lat="52.9204" lon="6.8579">
        <ele>47.968</ele>
        <time>2020-07-07T10:40:07Z</time>
      </trkpt>
      <trkpt lat="52.92056" lon="6.85774">
        <ele>47.721</ele>
        <time>2020-07-07T10:40:13Z</time>
      </trkpt>
      <trkpt lat="52.92073" lon="6.85758">
        <ele>47.375</ele>
        <time>2020-07-07T10:40:19Z</time>
      </trkpt>
      <trkpt lat="52.92088" lon="6.85744">
        <ele>47.293</ele>
        <time>2020-07-07T10:40:24Z</time>
      </trkpt>
      <trkpt lat="52.92108" lon="6.85726">
        <ele>46.764</ele>
        <time>2020-07-07T10:40:30Z</time>
      </trkpt>
      <trkpt lat="52.92128" lon="6.85707">
        <ele>46.516</ele>
        <time>2020-07-07T10:40:36Z</time>
      </trkpt>
      <trkpt lat="52.92145" lon="6.85692">
        <ele>46.488</ele>
        <time>2020-07-07T10:40:41Z</time>
      </trkpt>
      <trkpt lat="52.92167" lon="6.85673">
        <ele>46.449</ele>
        <time>2020-07-07T10:40:47Z</time>
      </trkpt>
      <trkpt lat="52.92183" lon="6.85657">
        <ele>47.549</ele>
        <time>2020-07-07T10:40:52Z</time>
      </trkpt>
      <trkpt lat="52.92201" lon="6.85644">
        <ele>46.446</ele>
        <time>2020-07-07T10:40:57Z</time>
      </trkpt>
      <trkpt lat="52.92222" lon="6.85624">
        <ele>46.052</ele>
        <time>2020-07-07T10:41:03Z</time>
      </trkpt>
      <trkpt lat="52.92243" lon="6.85606">
        <ele>46.337</ele>
        <time>2020-07-07T10:41:09Z</time>
      </trkpt>
      <trkpt lat="52.92262" lon="6.85587">
        <ele>47.474</ele>
        <time>2020-07-07T10:41:15Z</time>
      </trkpt>
      <trkpt lat="52.92284" lon="6.85568">
        <ele>47.051</ele>
        <time>2020-07-07T10:41:21Z</time>
      </trkpt>
      <trkpt lat="52.923" lon="6.85552">
        <ele>47.062</ele>
        <time>2020-07-07T10:41:26Z</time>
      </trkpt>
      <trkpt lat="52.92319" lon="6.85533">
        <ele>47.428</ele>
        <time>2020-07-07T10:41:32Z</time>
      </trkpt>
      <trkpt lat="52.9234" lon="6.85514">
        <ele>48.272</ele>
        <time>2020-07-07T10:41:38Z</time>
      </trkpt>
      <trkpt lat="52.92363" lon="6.85495">
        <ele>47.525</ele>
        <time>2020-07-07T10:41:44Z</time>
      </trkpt>
      <trkpt lat="52.92383" lon="6.85479">
        <ele>47.646</ele>
        <time>2020-07-07T10:41:49Z</time>
      </trkpt>
      <trkpt lat="52.92402" lon="6.85455">
        <ele>48.499</ele>
        <time>2020-07-07T10:41:55Z</time>
      </trkpt>
      <trkpt lat="52.92422" lon="6.8543">
        <ele>48.753</ele>
        <time>2020-07-07T10:42:01Z</time>
      </trkpt>
      <trkpt lat="52.92441" lon="6.85412">
        <ele>47.871</ele>
        <time>2020-07-07T10:42:06Z</time>
      </trkpt>
      <trkpt lat="52.92464" lon="6.85394">
        <ele>48.189</ele>
        <time>2020-07-07T10:42:12Z</time>
      </trkpt>
      <trkpt lat="52.92487" lon="6.85377">
        <ele>48.34</ele>
        <time>2020-07-07T10:42:18Z</time>
      </trkpt>
      <trkpt lat="52.92511" lon="6.85362">
        <ele>48.26</ele>
        <time>2020-07-07T10:42:24Z</time>
      </trkpt>
      <trkpt lat="52.92532" lon="6.85351">
        <ele>48.577</ele>
        <time>2020-07-07T10:42:29Z</time>
      </trkpt>
      <trkpt lat="52.92557" lon="6.8534">
        <ele>48.964</ele>
        <time>2020-07-07T10:42:35Z</time>
      </trkpt>
      <trkpt lat="52.92579" lon="6.85331">
        <ele>49.214</ele>
        <time>2020-07-07T10:42:40Z</time>
      </trkpt>
      <trkpt lat="52.92604" lon="6.85322">
        <ele>49.713</ele>
        <time>2020-07-07T10:42:46Z</time>
      </trkpt>
      <trkpt lat="52.92629" lon="6.85313">
        <ele>50.373</ele>
        <time>2020-07-07T10:42:52Z</time>
      </trkpt>
      <trkpt lat="52.92655" lon="6.85303">
        <ele>50.532</ele>
        <time>2020-07-07T10:42:58Z</time>
      </trkpt>
      <trkpt lat="52.92681" lon="6.85293">
        <ele>50.902</ele>
        <time>2020-07-07T10:43:04Z</time>
      </trkpt>
      <trkpt lat="52.92706" lon="6.85283">
        <ele>50.881</ele>
        <time>2020-07-07T10:43:10Z</time>
      </trkpt>
      <trkpt lat="52.9273" lon="6.85274">
        <ele>50.48</ele>
        <time>2020-07-07T10:43:16Z</time>
      </trkpt>
      <trkpt lat="52.92756" lon="6.85264">
        <ele>51.118</ele>
        <time>2020-07-07T10:43:22Z</time>
      </trkpt>
      <trkpt lat="52.92778" lon="6.85255">
        <ele>51.757</ele>
        <time>2020-07-07T10:43:27Z</time>
      </trkpt>
      <trkpt lat="52.92803" lon="6.85246">
        <ele>51.37</ele>
        <time>2020-07-07T10:43:33Z</time>
      </trkpt>
      <trkpt lat="52.92825" lon="6.85236">
        <ele>51.057</ele>
        <time>2020-07-07T10:43:38Z</time>
      </trkpt>
      <trkpt lat="52.92847" lon="6.85226">
        <ele>50.478</ele>
        <time>2020-07-07T10:43:43Z</time>
      </trkpt>
      <trkpt lat="52.92873" lon="6.8522">
        <ele>50.699</ele>
        <time>2020-07-07T10:43:49Z</time>
      </trkpt>
      <trkpt lat="52.92881" lon="6.85261">
        <ele>50.01</ele>
        <time>2020-07-07T10:43:55Z</time>
      </trkpt>
      <trkpt lat="52.9288" lon="6.85304">
        <ele>50.076</ele>
        <time>2020-07-07T10:44:01Z</time>
      </trkpt>
      <trkpt lat="52.92876" lon="6.8534">
        <ele>50.814</ele>
        <time>2020-07-07T10:44:06Z</time>
      </trkpt>
      <trkpt lat="52.9287" lon="6.85382">
        <ele>51.178</ele>
        <time>2020-07-07T10:44:12Z</time>
      </trkpt>
      <trkpt lat="52.92865" lon="6.85413">
        <ele>51.556</ele>
        <time>2020-07-07T10:44:17Z</time>
      </trkpt>
      <trkpt lat="52.9286" lon="6.85452">
        <ele>52.146</ele>
        <time>2020-07-07T10:44:23Z</time>
      </trkpt>
      <trkpt lat="52.92856" lon="6.85487">
        <ele>52.262</ele>
        <time>2020-07-07T10:44:28Z</time>
      </trkpt>
      <trkpt lat="52.9285" lon="6.85528">
        <ele>52.668</ele>
        <time>2020-07-07T10:44:34Z</time>
      </trkpt>
      <trkpt lat="52.92846" lon="6.85562">
        <ele>52.619</ele>
        <time>2020-07-07T10:44:39Z</time>
      </trkpt>
      <trkpt lat="52.9284" lon="6.85602">
        <ele>53.049</ele>
        <time>2020-07-07T10:44:45Z</time>
      </trkpt>
      <trkpt lat="52.92836" lon="6.85638">
        <ele>52.595</ele>
        <time>2020-07-07T10:44:50Z</time>
      </trkpt>
      <trkpt lat="52.92831" lon="6.85673">
        <ele>52.211</ele>
        <time>2020-07-07T10:44:55Z</time>
      </trkpt>
      <trkpt lat="52.92827" lon="6.85706">
        <ele>51.786</ele>
        <time>2020-07-07T10:45:00Z</time>
      </trkpt>
      <trkpt lat="52.92821" lon="6.85747">
        <ele>51.953</ele>
        <time>2020-07-07T10:45:06Z</time>
      </trkpt>
      <trkpt lat="52.92813" lon="6.85778">
        <ele>51.313</ele>
        <time>2020-07-07T10:45:11Z</time>
      </trkpt>
      <trkpt lat="52.92805" lon="6.85811">
        <ele>51.244</ele>
        <time>2020-07-07T10:45:17Z</time>
      </trkpt>
      <trkpt lat="52.92801" lon="6.85841">
        <ele>51.041</ele>
        <time>2020-07-07T10:45:22Z</time>
      </trkpt>
      <trkpt lat="52.92801" lon="6.85881">
        <ele>50.161</ele>
        <time>2020-07-07T10:45:28Z</time>
      </trkpt>
      <trkpt lat="52.92802" lon="6.85914">
        <ele>49.572</ele>
        <time>2020-07-07T10:45:33Z</time>
      </trkpt>
      <trkpt lat="52.92803" lon="6.85954">
        <ele>48.993</ele>
        <time>2020-07-07T10:45:39Z</time>
      </trkpt>
      <trkpt lat="52.92804" lon="6.85986">
        <ele>49.069</ele>
        <time>2020-07-07T10:45:44Z</time>
      </trkpt>
      <trkpt lat="52.92806" lon="6.86025">
        <ele>49.399</ele>
        <time>2020-07-07T10:45:50Z</time>
      </trkpt>
      <trkpt lat="52.92807" lon="6.86057">
        <ele>50.356</ele>
        <time>2020-07-07T10:45:55Z</time>
      </trkpt>
      <trkpt lat="52.92808" lon="6.86095">
        <ele>50.184</ele>
        <time>2020-07-07T10:46:01Z</time>
      </trkpt>
      <trkpt lat="52.92809" lon="6.86127">
        <ele>49.756</ele>
        <time>2020-07-07T10:46:06Z</time>
      </trkpt>
      <trkpt lat="52.9281" lon="6.86164">
        <ele>49.763</ele>
        <time>2020-07-07T10:46:12Z</time>
      </trkpt>
      <trkpt lat="52.92814" lon="6.86201">
        <ele>49.268</ele>
        <time>2020-07-07T10:46:18Z</time>
      </trkpt>
      <trkpt lat="52.92821" lon="6.86238">
        <ele>49.126</ele>
        <time>2020-07-07T10:46:24Z</time>
      </trkpt>
      <trkpt lat="52.92828" lon="6.86268">
        <ele>49.395</ele>
        <time>2020-07-07T10:46:29Z</time>
      </trkpt>
      <trkpt lat="52.92836" lon="6.86304">
        <ele>49.136</ele>
        <time>2020-07-07T10:46:35Z</time>
      </trkpt>
      <trkpt lat="52.92845" lon="6.86334">
        <ele>49.267</ele>
        <time>2020-07-07T10:46:40Z</time>
      </trkpt>
      <trkpt lat="52.92852" lon="6.86363">
        <ele>49.187</ele>
        <time>2020-07-07T10:46:45Z</time>
      </trkpt>
      <trkpt lat="52.92861" lon="6.86398">
        <ele>49.199</ele>
        <time>2020-07-07T10:46:51Z</time>
      </trkpt>
      <trkpt lat="52.92868" lon="6.86428">
        <ele>49.274</ele>
        <time>2020-07-07T10:46:56Z</time>
      </trkpt>
      <trkpt lat="52.92877" lon="6.86464">
        <ele>49.317</ele>
        <time>2020-07-07T10:47:02Z</time>
      </trkpt>
      <trkpt lat="52.92886" lon="6.865">
        <ele>49.146</ele>
        <time>2020-07-07T10:47:08Z</time>
      </trkpt>
      <trkpt lat="52.92896" lon="6.86538">
        <ele>49.262</ele>
        <time>2020-07-07T10:47:14Z</time>
      </trkpt>
      <trkpt lat="52.92905" lon="6.86576">
        <ele>48.968</ele>
        <time>2020-07-07T10:47:20Z</time>
      </trkpt>
      <trkpt lat="52.92912" lon="6.86606">
        <ele>48.28</ele>
        <time>2020-07-07T10:47:25Z</time>
      </trkpt>
      <trkpt lat="52.92922" lon="6.86641">
        <ele>48.214</ele>
        <time>2020-07-07T10:47:31Z</time>
      </trkpt>
      <trkpt lat="52.92929" lon="6.86671">
        <ele>47.862</ele>
        <time>2020-07-07T10:47:36Z</time>
      </trkpt>
      <trkpt lat="52.92938" lon="6.86707">
        <ele>47.801</ele>
        <time>2020-07-07T10:47:42Z</time>
      </trkpt>
      <trkpt lat="52.92946" lon="6.86744">
        <ele>47.465</ele>
        <time>2020-07-07T10:47:48Z</time>
      </trkpt>
      <trkpt lat="52.92954" lon="6.86774">
        <ele>47.218</ele>
        <time>2020-07-07T10:47:53Z</time>
      </trkpt>
      <trkpt lat="52.92964" lon="6.86812">
        <ele>47.603</ele>
        <time>2020-07-07T10:47:59Z</time>
      </trkpt>
      <trkpt lat="52.92973" lon="6.86843">
        <ele>48.145</ele>
        <time>2020-07-07T10:48:04Z</time>
      </trkpt>
      <trkpt lat="52.9298" lon="6.8688">
        <ele>48.542</ele>
        <time>2020-07-07T10:48:10Z</time>
      </trkpt>
      <trkpt lat="52.92986" lon="6.86911">
        <ele>48.632</ele>
        <time>2020-07-07T10:48:15Z</time>
      </trkpt>
      <trkpt lat="52.9299" lon="6.86943">
        <ele>48.455</ele>
        <time>2020-07-07T10:48:20Z</time>
      </trkpt>
      <trkpt lat="52.92994" lon="6.8698">
        <ele>48.276</ele>
        <time>2020-07-07T10:48:26Z</time>
      </trkpt>
      <trkpt lat="52.92998" lon="6.87021">
        <ele>48.043</ele>
        <time>2020-07-07T10:48:32Z</time>
      </trkpt>
      <trkpt lat="52.93002" lon="6.87054">
        <ele>48.147</ele>
        <time>2020-07-07T10:48:37Z</time>
      </trkpt>
      <trkpt lat="52.93006" lon="6.87094">
        <ele>47.959</ele>
        <time>2020-07-07T10:48:43Z</time>
      </trkpt>
      <trkpt lat="52.93009" lon="6.87127">
        <ele>48.093</ele>
        <time>2020-07-07T10:48:48Z</time>
      </trkpt>
      <trkpt lat="52.93014" lon="6.87165">
        <ele>48.223</ele>
        <time>2020-07-07T10:48:54Z</time>
      </trkpt>
      <trkpt lat="52.93018" lon="6.87204">
        <ele>47.771</ele>
        <time>2020-07-07T10:49:00Z</time>
      </trkpt>
      <trkpt lat="52.93021" lon="6.87237">
        <ele>47.434</ele>
        <time>2020-07-07T10:49:05Z</time>
      </trkpt>
      <trkpt lat="52.93024" lon="6.8727">
        <ele>47.237</ele>
        <time>2020-07-07T10:49:10Z</time>
      </trkpt>
      <trkpt lat="52.93028" lon="6.8731">
        <ele>46.899</ele>
        <time>2020-07-07T10:49:16Z</time>
      </trkpt>
      <trkpt lat="52.93032" lon="6.87342">
        <ele>47.053</ele>
        <time>2020-07-07T10:49:21Z</time>
      </trkpt>
      <trkpt lat="52.93035" lon="6.87374">
        <ele>47.139</ele>
        <time>2020-07-07T10:49:26Z</time>
      </trkpt>
      <trkpt lat="52.93039" lon="6.87414">
        <ele>47.08</ele>
        <time>2020-07-07T10:49:32Z</time>
      </trkpt>
      <trkpt lat="52.93043" lon="6.87454">
        <ele>47.314</ele>
        <time>2020-07-07T10:49:38Z</time>
      </trkpt>
      <trkpt lat="52.93048" lon="6.87494">
        <ele>47.869</ele>
        <time>2020-07-07T10:49:44Z</time>
      </trkpt>
      <trkpt lat="52.93052" lon="6.87532">
        <ele>47.972</ele>
        <time>2020-07-07T10:49:50Z</time>
      </trkpt>
      <trkpt lat="52.93055" lon="6.8757">
        <ele>47.769</ele>
        <time>2020-07-07T10:49:56Z</time>
      </trkpt>
      <trkpt lat="52.9306" lon="6.87609">
        <ele>48.088</ele>
        <time>2020-07-07T10:50:02Z</time>
      </trkpt>
      <trkpt lat="52.93064" lon="6.8764">
        <ele>48.352</ele>
        <time>2020-07-07T10:50:07Z</time>
      </trkpt>
      <trkpt lat="52.93069" lon="6.87676">
        <ele>48.194</ele>
        <time>2020-07-07T10:50:13Z</time>
      </trkpt>
      <trkpt lat="52.93077" lon="6.87714">
        <ele>48.155</ele>
        <time>2020-07-07T10:50:19Z</time>
      </trkpt>
      <trkpt lat="52.93084" lon="6.87746">
        <ele>47.58</ele>
        <time>2020-07-07T10:50:24Z</time>
      </trkpt>
      <trkpt lat="52.93092" lon="6.87778">
        <ele>47.393</ele>
        <time>2020-07-07T10:50:29Z</time>
      </trkpt>
      <trkpt lat="52.931" lon="6.87817">
        <ele>47.604</ele>
        <time>2020-07-07T10:50:35Z</time>
      </trkpt>
      <trkpt lat="52.93106" lon="6.87848">
        <ele>47.791</ele>
        <time>2020-07-07T10:50:40Z</time>
      </trkpt>
      <trkpt lat="52.93114" lon="6.87885">
        <ele>47.955</ele>
        <time>2020-07-07T10:50:46Z</time>
      </trkpt>
      <trkpt lat="52.93122" lon="6.87924">
        <ele>48.582</ele>
        <time>2020-07-07T10:50:52Z</time>
      </trkpt>
      <trkpt lat="52.93128" lon="6.87955">
        <ele>48.898</ele>
        <time>2020-07-07T10:50:57Z</time>
      </trkpt>
      <trkpt lat="52.93133" lon="6.87992">
        <ele>48.455</ele>
        <time>2020-07-07T10:51:03Z</time>
      </trkpt>
      <trkpt lat="52.93138" lon="6.88028">
        <ele>48.083</ele>
        <time>2020-07-07T10:51:09Z</time>
      </trkpt>
      <trkpt lat="52.93142" lon="6.88065">
        <ele>46.574</ele>
        <time>2020-07-07T10:51:15Z</time>
      </trkpt>
      <trkpt lat="52.93145" lon="6.88097">
        <ele>46.167</ele>
        <time>2020-07-07T10:51:20Z</time>
      </trkpt>
      <trkpt lat="52.93148" lon="6.88124">
        <ele>45.744</ele>
        <time>2020-07-07T10:51:25Z</time>
      </trkpt>
      <trkpt lat="52.93157" lon="6.8814">
        <ele>46.582</ele>
        <time>2020-07-07T10:51:30Z</time>
      </trkpt>
      <trkpt lat="52.9318" lon="6.88138">
        <ele>47.418</ele>
        <time>2020-07-07T10:51:36Z</time>
      </trkpt>
      <trkpt lat="52.93202" lon="6.88134">
        <ele>48.171</ele>
        <time>2020-07-07T10:51:42Z</time>
      </trkpt>
      <trkpt lat="52.93226" lon="6.88131">
        <ele>49.592</ele>
        <time>2020-07-07T10:51:48Z</time>
      </trkpt>
      <trkpt lat="52.93248" lon="6.88125">
        <ele>50.254</ele>
        <time>2020-07-07T10:51:54Z</time>
      </trkpt>
      <trkpt lat="52.9327" lon="6.88116">
        <ele>50.828</ele>
        <time>2020-07-07T10:52:00Z</time>
      </trkpt>
      <trkpt lat="52.93294" lon="6.88109">
        <ele>50.636</ele>
        <time>2020-07-07T10:52:06Z</time>
      </trkpt>
      <trkpt lat="52.93313" lon="6.88101">
        <ele>51.281</ele>
        <time>2020-07-07T10:52:11Z</time>
      </trkpt>
      <trkpt lat="52.93335" lon="6.88093">
        <ele>51.792</ele>
        <time>2020-07-07T10:52:17Z</time>
      </trkpt>
      <trkpt lat="52.93353" lon="6.88087">
        <ele>52.142</ele>
        <time>2020-07-07T10:52:22Z</time>
      </trkpt>
      <trkpt lat="52.93375" lon="6.88078">
        <ele>51.774</ele>
        <time>2020-07-07T10:52:28Z</time>
      </trkpt>
      <trkpt lat="52.93398" lon="6.8807">
        <ele>51.807</ele>
        <time>2020-07-07T10:52:34Z</time>
      </trkpt>
      <trkpt lat="52.93421" lon="6.88059">
        <ele>52.992</ele>
        <time>2020-07-07T10:52:40Z</time>
      </trkpt>
      <trkpt lat="52.93444" lon="6.88054">
        <ele>53.619</ele>
        <time>2020-07-07T10:52:46Z</time>
      </trkpt>
      <trkpt lat="52.93458" lon="6.88073">
        <ele>52.539</ele>
        <time>2020-07-07T10:52:51Z</time>
      </trkpt>
      <trkpt lat="52.93467" lon="6.88101">
        <ele>51.275</ele>
        <time>2020-07-07T10:52:56Z</time>
      </trkpt>
      <trkpt lat="52.9348" lon="6.88131">
        <ele>49.521</ele>
        <time>2020-07-07T10:53:01Z</time>
      </trkpt>
      <trkpt lat="52.93494" lon="6.88164">
        <ele>48.483</ele>
        <time>2020-07-07T10:53:07Z</time>
      </trkpt>
      <trkpt lat="52.93506" lon="6.88198">
        <ele>48.629</ele>
        <time>2020-07-07T10:53:13Z</time>
      </trkpt>
      <trkpt lat="52.93518" lon="6.88225">
        <ele>49.857</ele>
        <time>2020-07-07T10:53:18Z</time>
      </trkpt>
      <trkpt lat="52.93532" lon="6.8826">
        <ele>50.205</ele>
        <time>2020-07-07T10:53:24Z</time>
      </trkpt>
      <trkpt lat="52.93545" lon="6.88298">
        <ele>50.432</ele>
        <time>2020-07-07T10:53:30Z</time>
      </trkpt>
      <trkpt lat="52.93559" lon="6.88332">
        <ele>50.818</ele>
        <time>2020-07-07T10:53:36Z</time>
      </trkpt>
      <trkpt lat="52.93575" lon="6.88352">
        <ele>50.648</ele>
        <time>2020-07-07T10:53:42Z</time>
      </trkpt>
      <trkpt lat="52.93591" lon="6.88377">
        <ele>50.788</ele>
        <time>2020-07-07T10:53:48Z</time>
      </trkpt>
      <trkpt lat="52.93605" lon="6.88407">
        <ele>51.444</ele>
        <time>2020-07-07T10:53:54Z</time>
      </trkpt>
      <trkpt lat="52.93618" lon="6.88443">
        <ele>51.99</ele>
        <time>2020-07-07T10:54:00Z</time>
      </trkpt>
      <trkpt lat="52.9363" lon="6.88481">
        <ele>53.14</ele>
        <time>2020-07-07T10:54:06Z</time>
      </trkpt>
      <trkpt lat="52.93643" lon="6.88509">
        <ele>51.825</ele>
        <time>2020-07-07T10:54:11Z</time>
      </trkpt>
      <trkpt lat="52.93658" lon="6.88542">
        <ele>50.792</ele>
        <time>2020-07-07T10:54:17Z</time>
      </trkpt>
      <trkpt lat="52.93671" lon="6.88574">
        <ele>50.168</ele>
        <time>2020-07-07T10:54:23Z</time>
      </trkpt>
      <trkpt lat="52.93685" lon="6.88604">
        <ele>48.803</ele>
        <time>2020-07-07T10:54:29Z</time>
      </trkpt>
      <trkpt lat="52.93698" lon="6.88639">
        <ele>50.123</ele>
        <time>2020-07-07T10:54:35Z</time>
      </trkpt>
      <trkpt lat="52.93711" lon="6.88672">
        <ele>49.547</ele>
        <time>2020-07-07T10:54:40Z</time>
      </trkpt>
      <trkpt lat="52.93723" lon="6.88701">
        <ele>49.985</ele>
        <time>2020-07-07T10:54:45Z</time>
      </trkpt>
      <trkpt lat="52.93738" lon="6.88737">
        <ele>50.143</ele>
        <time>2020-07-07T10:54:51Z</time>
      </trkpt>
      <trkpt lat="52.93752" lon="6.88773">
        <ele>50.676</ele>
        <time>2020-07-07T10:54:57Z</time>
      </trkpt>
      <trkpt lat="52.93764" lon="6.88805">
        <ele>50.972</ele>
        <time>2020-07-07T10:55:03Z</time>
      </trkpt>
      <trkpt lat="52.93777" lon="6.88835">
        <ele>51.643</ele>
        <time>2020-07-07T10:55:09Z</time>
      </trkpt>
      <trkpt lat="52.93789" lon="6.88864">
        <ele>51.384</ele>
        <time>2020-07-07T10:55:15Z</time>
      </trkpt>
      <trkpt lat="52.938" lon="6.8889">
        <ele>51.542</ele>
        <time>2020-07-07T10:55:20Z</time>
      </trkpt>
      <trkpt lat="52.93815" lon="6.88927">
        <ele>49.623</ele>
        <time>2020-07-07T10:55:26Z</time>
      </trkpt>
      <trkpt lat="52.93829" lon="6.88965">
        <ele>49.534</ele>
        <time>2020-07-07T10:55:32Z</time>
      </trkpt>
      <trkpt lat="52.93841" lon="6.88997">
        <ele>49.776</ele>
        <time>2020-07-07T10:55:37Z</time>
      </trkpt>
      <trkpt lat="52.93856" lon="6.89035">
        <ele>49.14</ele>
        <time>2020-07-07T10:55:43Z</time>
      </trkpt>
      <trkpt lat="52.93873" lon="6.89077">
        <ele>49.175</ele>
        <time>2020-07-07T10:55:49Z</time>
      </trkpt>
      <trkpt lat="52.93888" lon="6.89116">
        <ele>50.3</ele>
        <time>2020-07-07T10:55:55Z</time>
      </trkpt>
      <trkpt lat="52.93902" lon="6.89152">
        <ele>51.718</ele>
        <time>2020-07-07T10:56:01Z</time>
      </trkpt>
      <trkpt lat="52.93914" lon="6.89181">
        <ele>52.605</ele>
        <time>2020-07-07T10:56:06Z</time>
      </trkpt>
      <trkpt lat="52.9393" lon="6.89218">
        <ele>53.803</ele>
        <time>2020-07-07T10:56:12Z</time>
      </trkpt>
      <trkpt lat="52.93941" lon="6.89248">
        <ele>54.397</ele>
        <time>2020-07-07T10:56:17Z</time>
      </trkpt>
      <trkpt lat="52.93955" lon="6.89278">
        <ele>53.267</ele>
        <time>2020-07-07T10:56:23Z</time>
      </trkpt>
      <trkpt lat="52.93965" lon="6.89302">
        <ele>52.044</ele>
        <time>2020-07-07T10:56:28Z</time>
      </trkpt>
      <trkpt lat="52.93976" lon="6.89335">
        <ele>51.511</ele>
        <time>2020-07-07T10:56:34Z</time>
      </trkpt>
      <trkpt lat="52.9399" lon="6.89372">
        <ele>51.716</ele>
        <time>2020-07-07T10:56:40Z</time>
      </trkpt>
      <trkpt lat="52.94006" lon="6.89411">
        <ele>52.553</ele>
        <time>2020-07-07T10:56:46Z</time>
      </trkpt>
      <trkpt lat="52.94021" lon="6.89447">
        <ele>51.786</ele>
        <time>2020-07-07T10:56:52Z</time>
      </trkpt>
      <trkpt lat="52.94033" lon="6.89479">
        <ele>51.186</ele>
        <time>2020-07-07T10:56:57Z</time>
      </trkpt>
      <trkpt lat="52.94051" lon="6.89525">
        <ele>50.992</ele>
        <time>2020-07-07T10:57:03Z</time>
      </trkpt>
      <trkpt lat="52.94063" lon="6.89556">
        <ele>52.09</ele>
        <time>2020-07-07T10:57:08Z</time>
      </trkpt>
      <trkpt lat="52.94078" lon="6.89594">
        <ele>50.832</ele>
        <time>2020-07-07T10:57:14Z</time>
      </trkpt>
      <trkpt lat="52.94093" lon="6.8963">
        <ele>50.468</ele>
        <time>2020-07-07T10:57:20Z</time>
      </trkpt>
      <trkpt lat="52.94105" lon="6.8966">
        <ele>50.513</ele>
        <time>2020-07-07T10:57:25Z</time>
      </trkpt>
      <trkpt lat="52.94119" lon="6.89698">
        <ele>50.668</ele>
        <time>2020-07-07T10:57:31Z</time>
      </trkpt>
      <trkpt lat="52.94132" lon="6.89733">
        <ele>52.195</ele>
        <time>2020-07-07T10:57:37Z</time>
      </trkpt>
      <trkpt lat="52.94141" lon="6.89755">
        <ele>51.942</ele>
        <time>2020-07-07T10:57:42Z</time>
      </trkpt>
      <trkpt lat="52.94153" lon="6.89777">
        <ele>52.243</ele>
        <time>2020-07-07T10:57:48Z</time>
      </trkpt>
      <trkpt lat="52.94162" lon="6.89802">
        <ele>53.454</ele>
        <time>2020-07-07T10:57:53Z</time>
      </trkpt>
      <trkpt lat="52.94173" lon="6.89831">
        <ele>53.864</ele>
        <time>2020-07-07T10:57:59Z</time>
      </trkpt>
      <trkpt lat="52.94184" lon="6.89859">
        <ele>54.346</ele>
        <time>2020-07-07T10:58:05Z</time>
      </trkpt>
      <trkpt lat="52.94196" lon="6.89891">
        <ele>54.953</ele>
        <time>2020-07-07T10:58:11Z</time>
      </trkpt>
      <trkpt lat="52.94207" lon="6.89918">
        <ele>54.758</ele>
        <time>2020-07-07T10:58:16Z</time>
      </trkpt>
      <trkpt lat="52.94219" lon="6.89948">
        <ele>54.886</ele>
        <time>2020-07-07T10:58:22Z</time>
      </trkpt>
      <trkpt lat="52.9423" lon="6.8997">
        <ele>55.903</ele>
        <time>2020-07-07T10:58:27Z</time>
      </trkpt>
      <trkpt lat="52.94242" lon="6.9">
        <ele>56.321</ele>
        <time>2020-07-07T10:58:33Z</time>
      </trkpt>
      <trkpt lat="52.94255" lon="6.90026">
        <ele>57.553</ele>
        <time>2020-07-07T10:58:39Z</time>
      </trkpt>
      <trkpt lat="52.94264" lon="6.90047">
        <ele>57.402</ele>
        <time>2020-07-07T10:58:44Z</time>
      </trkpt>
      <trkpt lat="52.94273" lon="6.90072">
        <ele>57.023</ele>
        <time>2020-07-07T10:58:49Z</time>
      </trkpt>
      <trkpt lat="52.94285" lon="6.90103">
        <ele>57.155</ele>
        <time>2020-07-07T10:58:55Z</time>
      </trkpt>
      <trkpt lat="52.94296" lon="6.9013">
        <ele>58.074</ele>
        <time>2020-07-07T10:59:00Z</time>
      </trkpt>
      <trkpt lat="52.94309" lon="6.90165">
        <ele>58.126</ele>
        <time>2020-07-07T10:59:06Z</time>
      </trkpt>
      <trkpt lat="52.94319" lon="6.90189">
        <ele>58.785</ele>
        <time>2020-07-07T10:59:11Z</time>
      </trkpt>
      <trkpt lat="52.94327" lon="6.90211">
        <ele>59.015</ele>
        <time>2020-07-07T10:59:16Z</time>
      </trkpt>
      <trkpt lat="52.94339" lon="6.90239">
        <ele>58.881</ele>
        <time>2020-07-07T10:59:22Z</time>
      </trkpt>
      <trkpt lat="52.94353" lon="6.90273">
        <ele>58.193</ele>
        <time>2020-07-07T10:59:28Z</time>
      </trkpt>
      <trkpt lat="52.94366" lon="6.90306">
        <ele>56.957</ele>
        <time>2020-07-07T10:59:34Z</time>
      </trkpt>
      <trkpt lat="52.94376" lon="6.90336">
        <ele>57.536</ele>
        <time>2020-07-07T10:59:39Z</time>
      </trkpt>
      <trkpt lat="52.94389" lon="6.90368">
        <ele>56.76</ele>
        <time>2020-07-07T10:59:45Z</time>
      </trkpt>
      <trkpt lat="52.94401" lon="6.90399">
        <ele>56.057</ele>
        <time>2020-07-07T10:59:50Z</time>
      </trkpt>
      <trkpt lat="52.94415" lon="6.90434">
        <ele>56.155</ele>
        <time>2020-07-07T10:59:56Z</time>
      </trkpt>
      <trkpt lat="52.94425" lon="6.90459">
        <ele>56.33</ele>
        <time>2020-07-07T11:00:01Z</time>
      </trkpt>
      <trkpt lat="52.94438" lon="6.90491">
        <ele>55.836</ele>
        <time>2020-07-07T11:00:07Z</time>
      </trkpt>
      <trkpt lat="52.94449" lon="6.90518">
        <ele>55.178</ele>
        <time>2020-07-07T11:00:12Z</time>
      </trkpt>
      <trkpt lat="52.94463" lon="6.90553">
        <ele>53.66</ele>
        <time>2020-07-07T11:00:18Z</time>
      </trkpt>
      <trkpt lat="52.94478" lon="6.90587">
        <ele>53.373</ele>
        <time>2020-07-07T11:00:24Z</time>
      </trkpt>
      <trkpt lat="52.9449" lon="6.90616">
        <ele>53.447</ele>
        <time>2020-07-07T11:00:30Z</time>
      </trkpt>
      <trkpt lat="52.94501" lon="6.90648">
        <ele>52.932</ele>
        <time>2020-07-07T11:00:36Z</time>
      </trkpt>
      <trkpt lat="52.94512" lon="6.90675">
        <ele>53.435</ele>
        <time>2020-07-07T11:00:41Z</time>
      </trkpt>
      <trkpt lat="52.94527" lon="6.90713">
        <ele>53.22</ele>
        <time>2020-07-07T11:00:47Z</time>
      </trkpt>
      <trkpt lat="52.94539" lon="6.90744">
        <ele>53.628</ele>
        <time>2020-07-07T11:00:52Z</time>
      </trkpt>
      <trkpt lat="52.94554" lon="6.9078">
        <ele>54.318</ele>
        <time>2020-07-07T11:00:58Z</time>
      </trkpt>
      <trkpt lat="52.94568" lon="6.90815">
        <ele>54.047</ele>
        <time>2020-07-07T11:01:04Z</time>
      </trkpt>
      <trkpt lat="52.94583" lon="6.90849">
        <ele>54.259</ele>
        <time>2020-07-07T11:01:10Z</time>
      </trkpt>
      <trkpt lat="52.94599" lon="6.90887">
        <ele>53.497</ele>
        <time>2020-07-07T11:01:16Z</time>
      </trkpt>
      <trkpt lat="52.94612" lon="6.90926">
        <ele>52.921</ele>
        <time>2020-07-07T11:01:21Z</time>
      </trkpt>
      <trkpt lat="52.94629" lon="6.90968">
        <ele>52.723</ele>
        <time>2020-07-07T11:01:27Z</time>
      </trkpt>
      <trkpt lat="52.94641" lon="6.91">
        <ele>52.033</ele>
        <time>2020-07-07T11:01:32Z</time>
      </trkpt>
      <trkpt lat="52.94654" lon="6.9103">
        <ele>51.825</ele>
        <time>2020-07-07T11:01:38Z</time>
      </trkpt>
      <trkpt lat="52.94665" lon="6.91056">
        <ele>52.056</ele>
        <time>2020-07-07T11:01:43Z</time>
      </trkpt>
      <trkpt lat="52.94678" lon="6.91088">
        <ele>51.632</ele>
        <time>2020-07-07T11:01:49Z</time>
      </trkpt>
      <trkpt lat="52.9469" lon="6.9112">
        <ele>52.586</ele>
        <time>2020-07-07T11:01:55Z</time>
      </trkpt>
      <trkpt lat="52.94702" lon="6.91148">
        <ele>52.112</ele>
        <time>2020-07-07T11:02:01Z</time>
      </trkpt>
      <trkpt lat="52.94712" lon="6.9118">
        <ele>52.901</ele>
        <time>2020-07-07T11:02:07Z</time>
      </trkpt>
      <trkpt lat="52.94721" lon="6.91207">
        <ele>53.179</ele>
        <time>2020-07-07T11:02:12Z</time>
      </trkpt>
      <trkpt lat="52.94728" lon="6.91246">
        <ele>54.553</ele>
        <time>2020-07-07T11:02:19Z</time>
      </trkpt>
      <trkpt lat="52.94731" lon="6.91289">
        <ele>54.469</ele>
        <time>2020-07-07T11:02:25Z</time>
      </trkpt>
      <trkpt lat="52.94745" lon="6.91322">
        <ele>54.828</ele>
        <time>2020-07-07T11:02:30Z</time>
      </trkpt>
      <trkpt lat="52.94764" lon="6.91343">
        <ele>54.786</ele>
        <time>2020-07-07T11:02:36Z</time>
      </trkpt>
      <trkpt lat="52.94776" lon="6.91361">
        <ele>54.868</ele>
        <time>2020-07-07T11:02:42Z</time>
      </trkpt>
      <trkpt lat="52.94793" lon="6.9139">
        <ele>53.762</ele>
        <time>2020-07-07T11:02:47Z</time>
      </trkpt>
      <trkpt lat="52.94806" lon="6.91419">
        <ele>52.497</ele>
        <time>2020-07-07T11:02:53Z</time>
      </trkpt>
      <trkpt lat="52.9482" lon="6.91451">
        <ele>50.833</ele>
        <time>2020-07-07T11:02:59Z</time>
      </trkpt>
      <trkpt lat="52.94831" lon="6.91479">
        <ele>49.776</ele>
        <time>2020-07-07T11:03:04Z</time>
      </trkpt>
      <trkpt lat="52.94842" lon="6.91505">
        <ele>49.431</ele>
        <time>2020-07-07T11:03:09Z</time>
      </trkpt>
      <trkpt lat="52.94855" lon="6.91539">
        <ele>49.585</ele>
        <time>2020-07-07T11:03:15Z</time>
      </trkpt>
      <trkpt lat="52.94867" lon="6.91569">
        <ele>49.268</ele>
        <time>2020-07-07T11:03:20Z</time>
      </trkpt>
      <trkpt lat="52.94878" lon="6.91598">
        <ele>48.802</ele>
        <time>2020-07-07T11:03:25Z</time>
      </trkpt>
      <trkpt lat="52.94893" lon="6.91633">
        <ele>49.074</ele>
        <time>2020-07-07T11:03:31Z</time>
      </trkpt>
      <trkpt lat="52.94905" lon="6.91665">
        <ele>49.48</ele>
        <time>2020-07-07T11:03:36Z</time>
      </trkpt>
      <trkpt lat="52.94918" lon="6.91695">
        <ele>50.421</ele>
        <time>2020-07-07T11:03:41Z</time>
      </trkpt>
      <trkpt lat="52.94933" lon="6.91734">
        <ele>49.728</ele>
        <time>2020-07-07T11:03:47Z</time>
      </trkpt>
      <trkpt lat="52.94948" lon="6.91771">
        <ele>49.495</ele>
        <time>2020-07-07T11:03:53Z</time>
      </trkpt>
      <trkpt lat="52.94959" lon="6.918">
        <ele>48.66</ele>
        <time>2020-07-07T11:03:58Z</time>
      </trkpt>
      <trkpt lat="52.94972" lon="6.91834">
        <ele>47.543</ele>
        <time>2020-07-07T11:04:04Z</time>
      </trkpt>
      <trkpt lat="52.94986" lon="6.9187">
        <ele>47.613</ele>
        <time>2020-07-07T11:04:10Z</time>
      </trkpt>
      <trkpt lat="52.95001" lon="6.91905">
        <ele>47.162</ele>
        <time>2020-07-07T11:04:16Z</time>
      </trkpt>
      <trkpt lat="52.95012" lon="6.91934">
        <ele>47.393</ele>
        <time>2020-07-07T11:04:21Z</time>
      </trkpt>
      <trkpt lat="52.95024" lon="6.91964">
        <ele>48.52</ele>
        <time>2020-07-07T11:04:26Z</time>
      </trkpt>
      <trkpt lat="52.9504" lon="6.92003">
        <ele>48.552</ele>
        <time>2020-07-07T11:04:32Z</time>
      </trkpt>
      <trkpt lat="52.95052" lon="6.92033">
        <ele>48.76</ele>
        <time>2020-07-07T11:04:37Z</time>
      </trkpt>
      <trkpt lat="52.95068" lon="6.92074">
        <ele>48.62</ele>
        <time>2020-07-07T11:04:43Z</time>
      </trkpt>
      <trkpt lat="52.95084" lon="6.92112">
        <ele>49.092</ele>
        <time>2020-07-07T11:04:49Z</time>
      </trkpt>
      <trkpt lat="52.951" lon="6.9215">
        <ele>49.123</ele>
        <time>2020-07-07T11:04:55Z</time>
      </trkpt>
      <trkpt lat="52.95114" lon="6.92188">
        <ele>48.63</ele>
        <time>2020-07-07T11:05:01Z</time>
      </trkpt>
      <trkpt lat="52.9513" lon="6.92224">
        <ele>48.246</ele>
        <time>2020-07-07T11:05:07Z</time>
      </trkpt>
      <trkpt lat="52.95146" lon="6.9226">
        <ele>48.238</ele>
        <time>2020-07-07T11:05:13Z</time>
      </trkpt>
      <trkpt lat="52.95157" lon="6.92292">
        <ele>50.293</ele>
        <time>2020-07-07T11:05:18Z</time>
      </trkpt>
      <trkpt lat="52.95171" lon="6.92327">
        <ele>50.743</ele>
        <time>2020-07-07T11:05:24Z</time>
      </trkpt>
      <trkpt lat="52.95183" lon="6.92357">
        <ele>49.898</ele>
        <time>2020-07-07T11:05:29Z</time>
      </trkpt>
      <trkpt lat="52.95198" lon="6.92394">
        <ele>49.739</ele>
        <time>2020-07-07T11:05:35Z</time>
      </trkpt>
      <trkpt lat="52.95209" lon="6.92424">
        <ele>50.512</ele>
        <time>2020-07-07T11:05:40Z</time>
      </trkpt>
      <trkpt lat="52.95224" lon="6.9246">
        <ele>50.739</ele>
        <time>2020-07-07T11:05:46Z</time>
      </trkpt>
      <trkpt lat="52.95236" lon="6.92488">
        <ele>50.605</ele>
        <time>2020-07-07T11:05:51Z</time>
      </trkpt>
      <trkpt lat="52.95247" lon="6.92519">
        <ele>50.113</ele>
        <time>2020-07-07T11:05:56Z</time>
      </trkpt>
      <trkpt lat="52.9526" lon="6.92548">
        <ele>49.754</ele>
        <time>2020-07-07T11:06:01Z</time>
      </trkpt>
      <trkpt lat="52.95275" lon="6.92585">
        <ele>48.527</ele>
        <time>2020-07-07T11:06:07Z</time>
      </trkpt>
      <trkpt lat="52.95289" lon="6.92619">
        <ele>49.217</ele>
        <time>2020-07-07T11:06:13Z</time>
      </trkpt>
      <trkpt lat="52.95304" lon="6.92656">
        <ele>49.618</ele>
        <time>2020-07-07T11:06:19Z</time>
      </trkpt>
      <trkpt lat="52.95309" lon="6.927">
        <ele>49.664</ele>
        <time>2020-07-07T11:06:25Z</time>
      </trkpt>
      <trkpt lat="52.95321" lon="6.9273">
        <ele>48.583</ele>
        <time>2020-07-07T11:06:30Z</time>
      </trkpt>
      <trkpt lat="52.95339" lon="6.92762">
        <ele>48.457</ele>
        <time>2020-07-07T11:06:36Z</time>
      </trkpt>
      <trkpt lat="52.95359" lon="6.92792">
        <ele>48.721</ele>
        <time>2020-07-07T11:06:42Z</time>
      </trkpt>
      <trkpt lat="52.95373" lon="6.92827">
        <ele>49.41</ele>
        <time>2020-07-07T11:06:48Z</time>
      </trkpt>
      <trkpt lat="52.95387" lon="6.9286">
        <ele>50.224</ele>
        <time>2020-07-07T11:06:54Z</time>
      </trkpt>
      <trkpt lat="52.95399" lon="6.92891">
        <ele>50.723</ele>
        <time>2020-07-07T11:06:59Z</time>
      </trkpt>
      <trkpt lat="52.95412" lon="6.92928">
        <ele>50.843</ele>
        <time>2020-07-07T11:07:05Z</time>
      </trkpt>
      <trkpt lat="52.95422" lon="6.92955">
        <ele>50.449</ele>
        <time>2020-07-07T11:07:10Z</time>
      </trkpt>
      <trkpt lat="52.95434" lon="6.92994">
        <ele>50.817</ele>
        <time>2020-07-07T11:07:16Z</time>
      </trkpt>
      <trkpt lat="52.95445" lon="6.93023">
        <ele>49.945</ele>
        <time>2020-07-07T11:07:21Z</time>
      </trkpt>
      <trkpt lat="52.95459" lon="6.93058">
        <ele>49.725</ele>
        <time>2020-07-07T11:07:27Z</time>
      </trkpt>
      <trkpt lat="52.95471" lon="6.93089">
        <ele>50.182</ele>
        <time>2020-07-07T11:07:32Z</time>
      </trkpt>
      <trkpt lat="52.95487" lon="6.93132">
        <ele>49.844</ele>
        <time>2020-07-07T11:07:38Z</time>
      </trkpt>
      <trkpt lat="52.95504" lon="6.93168">
        <ele>49.378</ele>
        <time>2020-07-07T11:07:44Z</time>
      </trkpt>
      <trkpt lat="52.95517" lon="6.93193">
        <ele>49.61</ele>
        <time>2020-07-07T11:07:49Z</time>
      </trkpt>
      <trkpt lat="52.9553" lon="6.93227">
        <ele>51.123</ele>
        <time>2020-07-07T11:07:55Z</time>
      </trkpt>
      <trkpt lat="52.95546" lon="6.93265">
        <ele>51.088</ele>
        <time>2020-07-07T11:08:01Z</time>
      </trkpt>
      <trkpt lat="52.95558" lon="6.93296">
        <ele>51.161</ele>
        <time>2020-07-07T11:08:07Z</time>
      </trkpt>
      <trkpt lat="52.95569" lon="6.93326">
        <ele>51.616</ele>
        <time>2020-07-07T11:08:13Z</time>
      </trkpt>
      <trkpt lat="52.95579" lon="6.93354">
        <ele>52.457</ele>
        <time>2020-07-07T11:08:18Z</time>
      </trkpt>
      <trkpt lat="52.95593" lon="6.93384">
        <ele>52.316</ele>
        <time>2020-07-07T11:08:24Z</time>
      </trkpt>
      <trkpt lat="52.95603" lon="6.93413">
        <ele>52.891</ele>
        <time>2020-07-07T11:08:30Z</time>
      </trkpt>
      <trkpt lat="52.95615" lon="6.93439">
        <ele>53.192</ele>
        <time>2020-07-07T11:08:35Z</time>
      </trkpt>
      <trkpt lat="52.95632" lon="6.93482">
        <ele>53.166</ele>
        <time>2020-07-07T11:08:40Z</time>
      </trkpt>
      <trkpt lat="52.95649" lon="6.93527">
        <ele>53.339</ele>
        <time>2020-07-07T11:08:46Z</time>
      </trkpt>
      <trkpt lat="52.95664" lon="6.93565">
        <ele>53.225</ele>
        <time>2020-07-07T11:08:52Z</time>
      </trkpt>
      <trkpt lat="52.95677" lon="6.93599">
        <ele>52.646</ele>
        <time>2020-07-07T11:08:58Z</time>
      </trkpt>
      <trkpt lat="52.95686" lon="6.93627">
        <ele>53.096</ele>
        <time>2020-07-07T11:09:04Z</time>
      </trkpt>
      <trkpt lat="52.95697" lon="6.93655">
        <ele>53.525</ele>
        <time>2020-07-07T11:09:10Z</time>
      </trkpt>
      <trkpt lat="52.95708" lon="6.93683">
        <ele>51.187</ele>
        <time>2020-07-07T11:09:15Z</time>
      </trkpt>
      <trkpt lat="52.95721" lon="6.93716">
        <ele>50.773</ele>
        <time>2020-07-07T11:09:21Z</time>
      </trkpt>
      <trkpt lat="52.95733" lon="6.93743">
        <ele>49.686</ele>
        <time>2020-07-07T11:09:26Z</time>
      </trkpt>
      <trkpt lat="52.95745" lon="6.93767">
        <ele>50.564</ele>
        <time>2020-07-07T11:09:31Z</time>
      </trkpt>
      <trkpt lat="52.95767" lon="6.9376">
        <ele>50.268</ele>
        <time>2020-07-07T11:09:37Z</time>
      </trkpt>
      <trkpt lat="52.95789" lon="6.9374">
        <ele>50.086</ele>
        <time>2020-07-07T11:09:43Z</time>
      </trkpt>
      <trkpt lat="52.95808" lon="6.93723">
        <ele>49.633</ele>
        <time>2020-07-07T11:09:48Z</time>
      </trkpt>
      <trkpt lat="52.95828" lon="6.937">
        <ele>48.507</ele>
        <time>2020-07-07T11:09:54Z</time>
      </trkpt>
      <trkpt lat="52.95845" lon="6.9368">
        <ele>46.97</ele>
        <time>2020-07-07T11:09:59Z</time>
      </trkpt>
      <trkpt lat="52.95858" lon="6.93667">
        <ele>45.582</ele>
        <time>2020-07-07T11:10:05Z</time>
      </trkpt>
      <trkpt lat="52.95859" lon="6.93665">
        <ele>45.167</ele>
        <time>2020-07-07T11:10:10Z</time>
      </trkpt>
      <trkpt lat="52.95859" lon="6.93665">
        <ele>45.167</ele>
        <time>2020-07-07T11:10:16Z</time>
      </trkpt>
      <trkpt lat="52.95859" lon="6.93665">
        <ele>45.167</ele>
        <time>2020-07-07T11:10:22Z</time>
      </trkpt>
      <trkpt lat="52.95859" lon="6.93665">
        <ele>45.167</ele>
        <time>2020-07-07T11:10:28Z</time>
      </trkpt>
      <trkpt lat="52.95859" lon="6.93665">
        <ele>45.167</ele>
        <time>2020-07-07T11:10:33Z</time>
      </trkpt>
      <trkpt lat="52.95859" lon="6.93665">
        <ele>45.167</ele>
        <time>2020-07-07T11:10:38Z</time>
      </trkpt>
      <trkpt lat="52.95859" lon="6.93665">
        <ele>45.167</ele>
        <time>2020-07-07T11:10:44Z</time>
      </trkpt>
      <trkpt lat="52.95859" lon="6.93665">
        <ele>45.167</ele>
        <time>2020-07-07T11:10:49Z</time>
      </trkpt>
      <trkpt lat="52.95859" lon="6.93665">
        <ele>45.167</ele>
        <time>2020-07-07T11:10:55Z</time>
      </trkpt>
      <trkpt lat="52.95859" lon="6.93665">
        <ele>45.167</ele>
        <time>2020-07-07T11:11:00Z</time>
      </trkpt>
      <trkpt lat="52.95859" lon="6.93665">
        <ele>45.167</ele>
        <time>2020-07-07T11:11:06Z</time>
      </trkpt>
      <trkpt lat="52.95859" lon="6.93665">
        <ele>45.167</ele>
        <time>2020-07-07T11:11:11Z</time>
      </trkpt>
      <trkpt lat="52.95859" lon="6.93665">
        <ele>45.167</ele>
        <time>2020-07-07T11:11:17Z</time>
      </trkpt>
      <trkpt lat="52.95859" lon="6.93665">
        <ele>45.167</ele>
        <time>2020-07-07T11:11:22Z</time>
      </trkpt>
      <trkpt lat="52.95859" lon="6.93665">
        <ele>45.167</ele>
        <time>2020-07-07T11:11:27Z</time>
      </trkpt>
      <trkpt lat="52.95859" lon="6.93665">
        <ele>45.167</ele>
        <time>2020-07-07T11:11:33Z</time>
      </trkpt>
      <trkpt lat="52.95859" lon="6.93665">
        <ele>45.167</ele>
        <time>2020-07-07T11:11:38Z</time>
      </trkpt>
      <trkpt lat="52.95859" lon="6.93665">
        <ele>45.167</ele>
        <time>2020-07-07T11:11:43Z</time>
      </trkpt>
      <trkpt lat="52.95859" lon="6.93665">
        <ele>45.167</ele>
        <time>2020-07-07T11:11:49Z</time>
      </trkpt>
      <trkpt lat="52.95859" lon="6.93665">
        <ele>45.167</ele>
        <time>2020-07-07T11:11:54Z</time>
      </trkpt>
      <trkpt lat="52.95859" lon="6.93665">
        <ele>45.167</ele>
        <time>2020-07-07T11:12:00Z</time>
      </trkpt>
      <trkpt lat="52.95859" lon="6.93665">
        <ele>45.167</ele>
        <time>2020-07-07T11:12:06Z</time>
      </trkpt>
      <trkpt lat="52.95859" lon="6.93665">
        <ele>45.167</ele>
        <time>2020-07-07T11:12:11Z</time>
      </trkpt>
      <trkpt lat="52.95859" lon="6.93665">
        <ele>45.167</ele>
        <time>2020-07-07T11:12:16Z</time>
      </trkpt>
      <trkpt lat="52.95859" lon="6.93665">
        <ele>45.167</ele>
        <time>2020-07-07T11:12:22Z</time>
      </trkpt>
      <trkpt lat="52.95859" lon="6.93665">
        <ele>45.167</ele>
        <time>2020-07-07T11:12:27Z</time>
      </trkpt>
      <trkpt lat="52.95859" lon="6.93665">
        <ele>45.167</ele>
        <time>2020-07-07T11:12:33Z</time>
      </trkpt>
      <trkpt lat="52.95859" lon="6.93665">
        <ele>45.167</ele>
        <time>2020-07-07T11:12:39Z</time>
      </trkpt>
      <trkpt lat="52.95859" lon="6.93665">
        <ele>45.167</ele>
        <time>2020-07-07T11:12:45Z</time>
      </trkpt>
      <trkpt lat="52.95859" lon="6.93665">
        <ele>45.167</ele>
        <time>2020-07-07T11:12:51Z</time>
      </trkpt>
      <trkpt lat="52.95859" lon="6.93665">
        <ele>45.167</ele>
        <time>2020-07-07T11:12:57Z</time>
      </trkpt>
      <trkpt lat="52.95859" lon="6.93665">
        <ele>45.167</ele>
        <time>2020-07-07T11:13:02Z</time>
      </trkpt>
      <trkpt lat="52.95859" lon="6.93665">
        <ele>45.167</ele>
        <time>2020-07-07T11:13:08Z</time>
      </trkpt>
      <trkpt lat="52.95859" lon="6.93665">
        <ele>45.167</ele>
        <time>2020-07-07T11:13:13Z</time>
      </trkpt>
      <trkpt lat="52.95859" lon="6.93665">
        <ele>45.167</ele>
        <time>2020-07-07T11:13:18Z</time>
      </trkpt>
      <trkpt lat="52.95859" lon="6.93665">
        <ele>45.167</ele>
        <time>2020-07-07T11:13:23Z</time>
      </trkpt>
      <trkpt lat="52.95859" lon="6.93665">
        <ele>45.167</ele>
        <time>2020-07-07T11:13:29Z</time>
      </trkpt>
      <trkpt lat="52.95859" lon="6.93665">
        <ele>45.167</ele>
        <time>2020-07-07T11:13:35Z</time>
      </trkpt>
      <trkpt lat="52.95859" lon="6.93665">
        <ele>45.167</ele>
        <time>2020-07-07T11:13:41Z</time>
      </trkpt>
      <trkpt lat="52.95859" lon="6.93665">
        <ele>45.167</ele>
        <time>2020-07-07T11:13:47Z</time>
      </trkpt>
      <trkpt lat="52.95859" lon="6.93665">
        <ele>45.167</ele>
        <time>2020-07-07T11:13:52Z</time>
      </trkpt>
      <trkpt lat="52.95859" lon="6.93665">
        <ele>45.167</ele>
        <time>2020-07-07T11:13:58Z</time>
      </trkpt>
      <trkpt lat="52.95859" lon="6.93665">
        <ele>45.167</ele>
        <time>2020-07-07T11:14:04Z</time>
      </trkpt>
      <trkpt lat="52.95859" lon="6.93665">
        <ele>45.167</ele>
        <time>2020-07-07T11:14:10Z</time>
      </trkpt>
      <trkpt lat="52.95859" lon="6.93665">
        <ele>45.167</ele>
        <time>2020-07-07T11:14:16Z</time>
      </trkpt>
      <trkpt lat="52.95859" lon="6.93665">
        <ele>45.167</ele>
        <time>2020-07-07T11:14:21Z</time>
      </trkpt>
      <trkpt lat="52.95859" lon="6.93665">
        <ele>45.167</ele>
        <time>2020-07-07T11:14:27Z</time>
      </trkpt>
      <trkpt lat="52.95859" lon="6.93665">
        <ele>45.167</ele>
        <time>2020-07-07T11:14:33Z</time>
      </trkpt>
      <trkpt lat="52.95859" lon="6.93665">
        <ele>45.167</ele>
        <time>2020-07-07T11:14:39Z</time>
      </trkpt>
      <trkpt lat="52.95859" lon="6.93665">
        <ele>45.167</ele>
        <time>2020-07-07T11:14:45Z</time>
      </trkpt>
      <trkpt lat="52.95859" lon="6.93665">
        <ele>45.167</ele>
        <time>2020-07-07T11:14:50Z</time>
      </trkpt>
      <trkpt lat="52.95859" lon="6.93665">
        <ele>45.167</ele>
        <time>2020-07-07T11:14:56Z</time>
      </trkpt>
      <trkpt lat="52.95859" lon="6.93665">
        <ele>45.167</ele>
        <time>2020-07-07T11:15:01Z</time>
      </trkpt>
      <trkpt lat="52.95859" lon="6.93665">
        <ele>45.167</ele>
        <time>2020-07-07T11:15:07Z</time>
      </trkpt>
      <trkpt lat="52.95859" lon="6.93665">
        <ele>45.167</ele>
        <time>2020-07-07T11:15:12Z</time>
      </trkpt>
      <trkpt lat="52.95859" lon="6.93665">
        <ele>45.167</ele>
        <time>2020-07-07T11:15:18Z</time>
      </trkpt>
      <trkpt lat="52.95859" lon="6.93665">
        <ele>45.167</ele>
        <time>2020-07-07T11:15:23Z</time>
      </trkpt>
      <trkpt lat="52.95859" lon="6.93665">
        <ele>45.167</ele>
        <time>2020-07-07T11:15:29Z</time>
      </trkpt>
      <trkpt lat="52.95859" lon="6.93665">
        <ele>45.167</ele>
        <time>2020-07-07T11:15:34Z</time>
      </trkpt>
      <trkpt lat="52.95859" lon="6.93665">
        <ele>45.167</ele>
        <time>2020-07-07T11:15:40Z</time>
      </trkpt>
      <trkpt lat="52.95859" lon="6.93665">
        <ele>45.167</ele>
        <time>2020-07-07T11:15:45Z</time>
      </trkpt>
      <trkpt lat="52.95859" lon="6.93665">
        <ele>45.167</ele>
        <time>2020-07-07T11:15:51Z</time>
      </trkpt>
      <trkpt lat="52.95859" lon="6.93665">
        <ele>45.167</ele>
        <time>2020-07-07T11:15:56Z</time>
      </trkpt>
      <trkpt lat="52.95859" lon="6.93665">
        <ele>45.167</ele>
        <time>2020-07-07T11:16:02Z</time>
      </trkpt>
      <trkpt lat="52.95859" lon="6.93665">
        <ele>45.167</ele>
        <time>2020-07-07T11:16:07Z</time>
      </trkpt>
      <trkpt lat="52.95859" lon="6.93665">
        <ele>45.167</ele>
        <time>2020-07-07T11:16:13Z</time>
      </trkpt>
      <trkpt lat="52.95859" lon="6.93665">
        <ele>45.167</ele>
        <time>2020-07-07T11:16:18Z</time>
      </trkpt>
      <trkpt lat="52.95859" lon="6.93665">
        <ele>45.167</ele>
        <time>2020-07-07T11:16:24Z</time>
      </trkpt>
      <trkpt lat="52.95859" lon="6.93665">
        <ele>45.167</ele>
        <time>2020-07-07T11:16:29Z</time>
      </trkpt>
      <trkpt lat="52.95859" lon="6.93665">
        <ele>45.167</ele>
        <time>2020-07-07T11:16:35Z</time>
      </trkpt>
      <trkpt lat="52.95859" lon="6.93665">
        <ele>45.167</ele>
        <time>2020-07-07T11:16:40Z</time>
      </trkpt>
      <trkpt lat="52.95859" lon="6.93665">
        <ele>45.167</ele>
        <time>2020-07-07T11:16:46Z</time>
      </trkpt>
      <trkpt lat="52.95859" lon="6.93665">
        <ele>45.167</ele>
        <time>2020-07-07T11:16:51Z</time>
      </trkpt>
      <trkpt lat="52.95859" lon="6.93665">
        <ele>45.167</ele>
        <time>2020-07-07T11:16:57Z</time>
      </trkpt>
      <trkpt lat="52.95859" lon="6.93665">
        <ele>45.167</ele>
        <time>2020-07-07T11:17:02Z</time>
      </trkpt>
      <trkpt lat="52.95859" lon="6.93665">
        <ele>45.167</ele>
        <time>2020-07-07T11:17:08Z</time>
      </trkpt>
      <trkpt lat="52.95859" lon="6.93665">
        <ele>45.167</ele>
        <time>2020-07-07T11:17:13Z</time>
      </trkpt>
      <trkpt lat="52.95859" lon="6.93665">
        <ele>45.167</ele>
        <time>2020-07-07T11:17:19Z</time>
      </trkpt>
      <trkpt lat="52.95859" lon="6.93665">
        <ele>45.167</ele>
        <time>2020-07-07T11:17:24Z</time>
      </trkpt>
      <trkpt lat="52.9586" lon="6.93663">
        <ele>45.681</ele>
        <time>2020-07-07T11:17:30Z</time>
      </trkpt>
      <trkpt lat="52.95864" lon="6.93658">
        <ele>46.674</ele>
        <time>2020-07-07T11:17:35Z</time>
      </trkpt>
      <trkpt lat="52.95876" lon="6.93647">
        <ele>48.395</ele>
        <time>2020-07-07T11:17:41Z</time>
      </trkpt>
      <trkpt lat="52.95885" lon="6.93635">
        <ele>50.676</ele>
        <time>2020-07-07T11:17:46Z</time>
      </trkpt>
      <trkpt lat="52.95896" lon="6.9362">
        <ele>53.486</ele>
        <time>2020-07-07T11:17:52Z</time>
      </trkpt>
      <trkpt lat="52.95911" lon="6.9363">
        <ele>54.854</ele>
        <time>2020-07-07T11:17:57Z</time>
      </trkpt>
      <trkpt lat="52.95923" lon="6.93657">
        <ele>54.358</ele>
        <time>2020-07-07T11:18:03Z</time>
      </trkpt>
      <trkpt lat="52.95933" lon="6.93683">
        <ele>53.972</ele>
        <time>2020-07-07T11:18:09Z</time>
      </trkpt>
      <trkpt lat="52.95943" lon="6.93715">
        <ele>54.784</ele>
        <time>2020-07-07T11:18:15Z</time>
      </trkpt>
      <trkpt lat="52.95958" lon="6.93749">
        <ele>54.892</ele>
        <time>2020-07-07T11:18:21Z</time>
      </trkpt>
      <trkpt lat="52.95972" lon="6.93783">
        <ele>56.351</ele>
        <time>2020-07-07T11:18:27Z</time>
      </trkpt>
      <trkpt lat="52.95983" lon="6.9381">
        <ele>58.281</ele>
        <time>2020-07-07T11:18:32Z</time>
      </trkpt>
      <trkpt lat="52.95996" lon="6.93842">
        <ele>58.812</ele>
        <time>2020-07-07T11:18:38Z</time>
      </trkpt>
      <trkpt lat="52.96008" lon="6.93874">
        <ele>58.256</ele>
        <time>2020-07-07T11:18:43Z</time>
      </trkpt>
      <trkpt lat="52.96024" lon="6.93911">
        <ele>57.938</ele>
        <time>2020-07-07T11:18:49Z</time>
      </trkpt>
      <trkpt lat="52.96037" lon="6.93946">
        <ele>57.644</ele>
        <time>2020-07-07T11:18:55Z</time>
      </trkpt>
      <trkpt lat="52.9605" lon="6.93979">
        <ele>57.736</ele>
        <time>2020-07-07T11:19:01Z</time>
      </trkpt>
      <trkpt lat="52.96061" lon="6.94008">
        <ele>57.648</ele>
        <time>2020-07-07T11:19:06Z</time>
      </trkpt>
      <trkpt lat="52.96074" lon="6.94038">
        <ele>58.412</ele>
        <time>2020-07-07T11:19:11Z</time>
      </trkpt>
      <trkpt lat="52.96088" lon="6.94074">
        <ele>59.819</ele>
        <time>2020-07-07T11:19:17Z</time>
      </trkpt>
      <trkpt lat="52.96103" lon="6.94113">
        <ele>61.104</ele>
        <time>2020-07-07T11:19:23Z</time>
      </trkpt>
      <trkpt lat="52.96118" lon="6.94149">
        <ele>60.516</ele>
        <time>2020-07-07T11:19:29Z</time>
      </trkpt>
      <trkpt lat="52.96131" lon="6.9418">
        <ele>58.841</ele>
        <time>2020-07-07T11:19:34Z</time>
      </trkpt>
      <trkpt lat="52.96142" lon="6.94206">
        <ele>57.724</ele>
        <time>2020-07-07T11:19:39Z</time>
      </trkpt>
      <trkpt lat="52.96164" lon="6.94234">
        <ele>57.312</ele>
        <time>2020-07-07T11:19:45Z</time>
      </trkpt>
      <trkpt lat="52.96182" lon="6.94267">
        <ele>57.29</ele>
        <time>2020-07-07T11:19:51Z</time>
      </trkpt>
      <trkpt lat="52.96185" lon="6.9431">
        <ele>57.171</ele>
        <time>2020-07-07T11:19:57Z</time>
      </trkpt>
      <trkpt lat="52.96194" lon="6.94346">
        <ele>56.963</ele>
        <time>2020-07-07T11:20:03Z</time>
      </trkpt>
      <trkpt lat="52.96207" lon="6.94378">
        <ele>57.384</ele>
        <time>2020-07-07T11:20:09Z</time>
      </trkpt>
      <trkpt lat="52.9622" lon="6.94405">
        <ele>57.088</ele>
        <time>2020-07-07T11:20:14Z</time>
      </trkpt>
      <trkpt lat="52.9623" lon="6.94433">
        <ele>57.557</ele>
        <time>2020-07-07T11:20:19Z</time>
      </trkpt>
      <trkpt lat="52.96243" lon="6.94466">
        <ele>57.996</ele>
        <time>2020-07-07T11:20:25Z</time>
      </trkpt>
      <trkpt lat="52.96256" lon="6.94502">
        <ele>58.977</ele>
        <time>2020-07-07T11:20:31Z</time>
      </trkpt>
      <trkpt lat="52.96271" lon="6.94539">
        <ele>57.198</ele>
        <time>2020-07-07T11:20:37Z</time>
      </trkpt>
      <trkpt lat="52.96288" lon="6.9458">
        <ele>55.513</ele>
        <time>2020-07-07T11:20:43Z</time>
      </trkpt>
      <trkpt lat="52.96302" lon="6.94613">
        <ele>55.521</ele>
        <time>2020-07-07T11:20:48Z</time>
      </trkpt>
      <trkpt lat="52.96316" lon="6.94649">
        <ele>55.525</ele>
        <time>2020-07-07T11:20:54Z</time>
      </trkpt>
      <trkpt lat="52.9633" lon="6.94681">
        <ele>54.887</ele>
        <time>2020-07-07T11:20:59Z</time>
      </trkpt>
      <trkpt lat="52.96344" lon="6.94719">
        <ele>54.28</ele>
        <time>2020-07-07T11:21:05Z</time>
      </trkpt>
      <trkpt lat="52.96359" lon="6.94754">
        <ele>53.596</ele>
        <time>2020-07-07T11:21:11Z</time>
      </trkpt>
      <trkpt lat="52.96373" lon="6.94788">
        <ele>53.856</ele>
        <time>2020-07-07T11:21:17Z</time>
      </trkpt>
      <trkpt lat="52.96384" lon="6.94818">
        <ele>55.014</ele>
        <time>2020-07-07T11:21:22Z</time>
      </trkpt>
      <trkpt lat="52.96396" lon="6.9485">
        <ele>55.799</ele>
        <time>2020-07-07T11:21:27Z</time>
      </trkpt>
      <trkpt lat="52.96407" lon="6.94878">
        <ele>56.369</ele>
        <time>2020-07-07T11:21:32Z</time>
      </trkpt>
      <trkpt lat="52.96419" lon="6.94907">
        <ele>56.212</ele>
        <time>2020-07-07T11:21:38Z</time>
      </trkpt>
      <trkpt lat="52.9643" lon="6.94941">
        <ele>56.455</ele>
        <time>2020-07-07T11:21:44Z</time>
      </trkpt>
      <trkpt lat="52.96446" lon="6.94975">
        <ele>57.713</ele>
        <time>2020-07-07T11:21:50Z</time>
      </trkpt>
      <trkpt lat="52.96458" lon="6.95003">
        <ele>59.336</ele>
        <time>2020-07-07T11:21:55Z</time>
      </trkpt>
      <trkpt lat="52.96467" lon="6.95028">
        <ele>60.31</ele>
        <time>2020-07-07T11:22:00Z</time>
      </trkpt>
      <trkpt lat="52.96478" lon="6.95053">
        <ele>60.658</ele>
        <time>2020-07-07T11:22:05Z</time>
      </trkpt>
      <trkpt lat="52.96493" lon="6.95092">
        <ele>62.152</ele>
        <time>2020-07-07T11:22:10Z</time>
      </trkpt>
      <trkpt lat="52.96509" lon="6.95131">
        <ele>62.29</ele>
        <time>2020-07-07T11:22:16Z</time>
      </trkpt>
      <trkpt lat="52.96525" lon="6.95154">
        <ele>61.995</ele>
        <time>2020-07-07T11:22:21Z</time>
      </trkpt>
      <trkpt lat="52.96543" lon="6.95165">
        <ele>62.229</ele>
        <time>2020-07-07T11:22:27Z</time>
      </trkpt>
      <trkpt lat="52.96543" lon="6.9519">
        <ele>61.928</ele>
        <time>2020-07-07T11:22:33Z</time>
      </trkpt>
      <trkpt lat="52.96543" lon="6.95218">
        <ele>61.946</ele>
        <time>2020-07-07T11:22:38Z</time>
      </trkpt>
      <trkpt lat="52.96551" lon="6.95242">
        <ele>61.527</ele>
        <time>2020-07-07T11:22:43Z</time>
      </trkpt>
      <trkpt lat="52.96555" lon="6.95258">
        <ele>61.189</ele>
        <time>2020-07-07T11:22:48Z</time>
      </trkpt>
      <trkpt lat="52.9656" lon="6.9526">
        <ele>60.938</ele>
        <time>2020-07-07T11:22:53Z</time>
      </trkpt>
      <trkpt lat="52.96558" lon="6.95251">
        <ele>60.386</ele>
        <time>2020-07-07T11:22:59Z</time>
      </trkpt>
      <trkpt lat="52.96549" lon="6.95232">
        <ele>59.058</ele>
        <time>2020-07-07T11:23:05Z</time>
      </trkpt>
      <trkpt lat="52.96543" lon="6.95204">
        <ele>59.301</ele>
        <time>2020-07-07T11:23:11Z</time>
      </trkpt>
      <trkpt lat="52.96544" lon="6.95179">
        <ele>60.312</ele>
        <time>2020-07-07T11:23:16Z</time>
      </trkpt>
      <trkpt lat="52.96549" lon="6.95172">
        <ele>60.829</ele>
        <time>2020-07-07T11:23:22Z</time>
      </trkpt>
      <trkpt lat="52.96549" lon="6.95172">
        <ele>60.829</ele>
        <time>2020-07-07T11:23:28Z</time>
      </trkpt>
      <trkpt lat="52.96549" lon="6.95172">
        <ele>60.829</ele>
        <time>2020-07-07T11:23:34Z</time>
      </trkpt>
      <trkpt lat="52.96549" lon="6.95172">
        <ele>60.829</ele>
        <time>2020-07-07T11:23:40Z</time>
      </trkpt>
      <trkpt lat="52.96549" lon="6.95172">
        <ele>60.829</ele>
        <time>2020-07-07T11:23:46Z</time>
      </trkpt>
      <trkpt lat="52.96549" lon="6.95172">
        <ele>60.829</ele>
        <time>2020-07-07T11:23:51Z</time>
      </trkpt>
      <trkpt lat="52.96549" lon="6.95172">
        <ele>60.829</ele>
        <time>2020-07-07T11:23:56Z</time>
      </trkpt>
      <trkpt lat="52.96549" lon="6.95172">
        <ele>60.829</ele>
        <time>2020-07-07T11:24:01Z</time>
      </trkpt>
      <trkpt lat="52.96549" lon="6.95172">
        <ele>60.829</ele>
        <time>2020-07-07T11:24:07Z</time>
      </trkpt>
      <trkpt lat="52.96549" lon="6.95172">
        <ele>60.829</ele>
        <time>2020-07-07T11:24:13Z</time>
      </trkpt>
      <trkpt lat="52.96549" lon="6.95172">
        <ele>60.829</ele>
        <time>2020-07-07T11:24:19Z</time>
      </trkpt>
      <trkpt lat="52.96549" lon="6.95172">
        <ele>60.829</ele>
        <time>2020-07-07T11:24:25Z</time>
      </trkpt>
      <trkpt lat="52.96549" lon="6.95172">
        <ele>60.829</ele>
        <time>2020-07-07T11:24:31Z</time>
      </trkpt>
      <trkpt lat="52.96549" lon="6.95172">
        <ele>60.829</ele>
        <time>2020-07-07T11:24:37Z</time>
      </trkpt>
      <trkpt lat="52.96549" lon="6.95172">
        <ele>60.829</ele>
        <time>2020-07-07T11:24:43Z</time>
      </trkpt>
      <trkpt lat="52.96549" lon="6.95172">
        <ele>60.829</ele>
        <time>2020-07-07T11:24:48Z</time>
      </trkpt>
      <trkpt lat="52.96549" lon="6.95172">
        <ele>60.829</ele>
        <time>2020-07-07T11:24:53Z</time>
      </trkpt>
      <trkpt lat="52.96549" lon="6.95172">
        <ele>60.829</ele>
        <time>2020-07-07T11:24:59Z</time>
      </trkpt>
      <trkpt lat="52.96549" lon="6.95172">
        <ele>60.829</ele>
        <time>2020-07-07T11:25:04Z</time>
      </trkpt>
      <trkpt lat="52.96549" lon="6.95172">
        <ele>60.829</ele>
        <time>2020-07-07T11:25:10Z</time>
      </trkpt>
      <trkpt lat="52.96549" lon="6.95172">
        <ele>60.829</ele>
        <time>2020-07-07T11:25:15Z</time>
      </trkpt>
      <trkpt lat="52.96549" lon="6.95172">
        <ele>60.829</ele>
        <time>2020-07-07T11:25:21Z</time>
      </trkpt>
      <trkpt lat="52.96549" lon="6.9517">
        <ele>61.41</ele>
        <time>2020-07-07T11:25:26Z</time>
      </trkpt>
      <trkpt lat="52.96549" lon="6.9517">
        <ele>61.41</ele>
        <time>2020-07-07T11:25:31Z</time>
      </trkpt>
      <trkpt lat="52.96549" lon="6.9517">
        <ele>61.41</ele>
        <time>2020-07-07T11:25:37Z</time>
      </trkpt>
      <trkpt lat="52.96549" lon="6.9517">
        <ele>61.41</ele>
        <time>2020-07-07T11:25:42Z</time>
      </trkpt>
      <trkpt lat="52.96549" lon="6.9517">
        <ele>61.41</ele>
        <time>2020-07-07T11:25:48Z</time>
      </trkpt>
      <trkpt lat="52.96549" lon="6.9517">
        <ele>61.41</ele>
        <time>2020-07-07T11:25:54Z</time>
      </trkpt>
      <trkpt lat="52.96549" lon="6.9517">
        <ele>61.41</ele>
        <time>2020-07-07T11:25:59Z</time>
      </trkpt>
      <trkpt lat="52.96549" lon="6.9517">
        <ele>61.41</ele>
        <time>2020-07-07T11:26:05Z</time>
      </trkpt>
      <trkpt lat="52.96549" lon="6.9517">
        <ele>61.41</ele>
        <time>2020-07-07T11:26:11Z</time>
      </trkpt>
      <trkpt lat="52.96553" lon="6.95164">
        <ele>60.653</ele>
        <time>2020-07-07T11:26:17Z</time>
      </trkpt>
      <trkpt lat="52.96559" lon="6.95155">
        <ele>60.868</ele>
        <time>2020-07-07T11:26:23Z</time>
      </trkpt>
      <trkpt lat="52.96567" lon="6.95147">
        <ele>60.713</ele>
        <time>2020-07-07T11:26:29Z</time>
      </trkpt>
      <trkpt lat="52.96579" lon="6.95134">
        <ele>61.097</ele>
        <time>2020-07-07T11:26:35Z</time>
      </trkpt>
      <trkpt lat="52.96594" lon="6.95117">
        <ele>60.838</ele>
        <time>2020-07-07T11:26:40Z</time>
      </trkpt>
      <trkpt lat="52.96609" lon="6.95099">
        <ele>60.295</ele>
        <time>2020-07-07T11:26:46Z</time>
      </trkpt>
      <trkpt lat="52.96625" lon="6.95079">
        <ele>58.317</ele>
        <time>2020-07-07T11:26:52Z</time>
      </trkpt>
      <trkpt lat="52.9664" lon="6.95066">
        <ele>57.497</ele>
        <time>2020-07-07T11:26:57Z</time>
      </trkpt>
      <trkpt lat="52.96654" lon="6.9505">
        <ele>57.011</ele>
        <time>2020-07-07T11:27:03Z</time>
      </trkpt>
      <trkpt lat="52.9667" lon="6.95034">
        <ele>56.023</ele>
        <time>2020-07-07T11:27:08Z</time>
      </trkpt>
      <trkpt lat="52.96687" lon="6.95015">
        <ele>56.3</ele>
        <time>2020-07-07T11:27:14Z</time>
      </trkpt>
      <trkpt lat="52.96704" lon="6.94997">
        <ele>56.019</ele>
        <time>2020-07-07T11:27:20Z</time>
      </trkpt>
      <trkpt lat="52.96716" lon="6.94982">
        <ele>57.113</ele>
        <time>2020-07-07T11:27:25Z</time>
      </trkpt>
      <trkpt lat="52.96728" lon="6.94969">
        <ele>57.522</ele>
        <time>2020-07-07T11:27:30Z</time>
      </trkpt>
      <trkpt lat="52.96742" lon="6.94953">
        <ele>56.303</ele>
        <time>2020-07-07T11:27:35Z</time>
      </trkpt>
      <trkpt lat="52.96756" lon="6.94936">
        <ele>56.178</ele>
        <time>2020-07-07T11:27:41Z</time>
      </trkpt>
      <trkpt lat="52.9677" lon="6.94925">
        <ele>56.337</ele>
        <time>2020-07-07T11:27:47Z</time>
      </trkpt>
      <trkpt lat="52.96787" lon="6.94914">
        <ele>57.561</ele>
        <time>2020-07-07T11:27:53Z</time>
      </trkpt>
      <trkpt lat="52.96808" lon="6.94903">
        <ele>59.087</ele>
        <time>2020-07-07T11:27:59Z</time>
      </trkpt>
      <trkpt lat="52.96829" lon="6.94901">
        <ele>60.649</ele>
        <time>2020-07-07T11:28:05Z</time>
      </trkpt>
      <trkpt lat="52.9685" lon="6.94897">
        <ele>60.424</ele>
        <time>2020-07-07T11:28:11Z</time>
      </trkpt>
      <trkpt lat="52.96869" lon="6.94894">
        <ele>60.532</ele>
        <time>2020-07-07T11:28:17Z</time>
      </trkpt>
      <trkpt lat="52.96887" lon="6.94889">
        <ele>61.434</ele>
        <time>2020-07-07T11:28:22Z</time>
      </trkpt>
      <trkpt lat="52.96904" lon="6.94884">
        <ele>62.588</ele>
        <time>2020-07-07T11:28:27Z</time>
      </trkpt>
      <trkpt lat="52.96923" lon="6.94876">
        <ele>63.397</ele>
        <time>2020-07-07T11:28:33Z</time>
      </trkpt>
      <trkpt lat="52.96938" lon="6.94864">
        <ele>63.555</ele>
        <time>2020-07-07T11:28:38Z</time>
      </trkpt>
      <trkpt lat="52.96953" lon="6.94847">
        <ele>62.482</ele>
        <time>2020-07-07T11:28:44Z</time>
      </trkpt>
      <trkpt lat="52.96975" lon="6.94841">
        <ele>61.25</ele>
        <time>2020-07-07T11:28:50Z</time>
      </trkpt>
      <trkpt lat="52.96997" lon="6.94832">
        <ele>60.633</ele>
        <time>2020-07-07T11:28:56Z</time>
      </trkpt>
      <trkpt lat="52.97019" lon="6.94821">
        <ele>60.349</ele>
        <time>2020-07-07T11:29:02Z</time>
      </trkpt>
      <trkpt lat="52.97037" lon="6.94813">
        <ele>60.851</ele>
        <time>2020-07-07T11:29:07Z</time>
      </trkpt>
      <trkpt lat="52.97058" lon="6.94802">
        <ele>60.663</ele>
        <time>2020-07-07T11:29:13Z</time>
      </trkpt>
      <trkpt lat="52.97076" lon="6.94789">
        <ele>61.12</ele>
        <time>2020-07-07T11:29:19Z</time>
      </trkpt>
      <trkpt lat="52.97094" lon="6.94787">
        <ele>60.249</ele>
        <time>2020-07-07T11:29:25Z</time>
      </trkpt>
      <trkpt lat="52.97105" lon="6.94805">
        <ele>58.658</ele>
        <time>2020-07-07T11:29:30Z</time>
      </trkpt>
      <trkpt lat="52.97115" lon="6.94829">
        <ele>57.639</ele>
        <time>2020-07-07T11:29:36Z</time>
      </trkpt>
      <trkpt lat="52.97128" lon="6.94857">
        <ele>54.9</ele>
        <time>2020-07-07T11:29:42Z</time>
      </trkpt>
      <trkpt lat="52.97141" lon="6.94884">
        <ele>55.016</ele>
        <time>2020-07-07T11:29:47Z</time>
      </trkpt>
      <trkpt lat="52.97152" lon="6.94916">
        <ele>55.247</ele>
        <time>2020-07-07T11:29:53Z</time>
      </trkpt>
      <trkpt lat="52.97169" lon="6.94917">
        <ele>54.954</ele>
        <time>2020-07-07T11:29:58Z</time>
      </trkpt>
      <trkpt lat="52.97186" lon="6.94902">
        <ele>54.196</ele>
        <time>2020-07-07T11:30:03Z</time>
      </trkpt>
      <trkpt lat="52.97202" lon="6.94881">
        <ele>51.804</ele>
        <time>2020-07-07T11:30:09Z</time>
      </trkpt>
      <trkpt lat="52.97223" lon="6.94861">
        <ele>50.926</ele>
        <time>2020-07-07T11:30:15Z</time>
      </trkpt>
      <trkpt lat="52.9724" lon="6.94846">
        <ele>50.417</ele>
        <time>2020-07-07T11:30:21Z</time>
      </trkpt>
      <trkpt lat="52.97253" lon="6.94831">
        <ele>51.494</ele>
        <time>2020-07-07T11:30:27Z</time>
      </trkpt>
      <trkpt lat="52.97265" lon="6.94814">
        <ele>52.069</ele>
        <time>2020-07-07T11:30:33Z</time>
      </trkpt>
      <trkpt lat="52.97271" lon="6.94788">
        <ele>54.663</ele>
        <time>2020-07-07T11:30:39Z</time>
      </trkpt>
      <trkpt lat="52.97273" lon="6.94762">
        <ele>54.529</ele>
        <time>2020-07-07T11:30:45Z</time>
      </trkpt>
      <trkpt lat="52.97272" lon="6.94735">
        <ele>56.733</ele>
        <time>2020-07-07T11:30:51Z</time>
      </trkpt>
      <trkpt lat="52.97272" lon="6.94713">
        <ele>59.288</ele>
        <time>2020-07-07T11:30:56Z</time>
      </trkpt>
      <trkpt lat="52.97273" lon="6.94692">
        <ele>60.964</ele>
        <time>2020-07-07T11:31:02Z</time>
      </trkpt>
      <trkpt lat="52.97276" lon="6.94675">
        <ele>61.697</ele>
        <time>2020-07-07T11:31:07Z</time>
      </trkpt>
      <trkpt lat="52.97286" lon="6.94651">
        <ele>61.237</ele>
        <time>2020-07-07T11:31:13Z</time>
      </trkpt>
      <trkpt lat="52.97297" lon="6.94632">
        <ele>59.365</ele>
        <time>2020-07-07T11:31:18Z</time>
      </trkpt>
      <trkpt lat="52.97314" lon="6.94611">
        <ele>58.659</ele>
        <time>2020-07-07T11:31:24Z</time>
      </trkpt>
      <trkpt lat="52.97332" lon="6.94594">
        <ele>57.406</ele>
        <time>2020-07-07T11:31:29Z</time>
      </trkpt>
      <trkpt lat="52.97351" lon="6.94573">
        <ele>56.597</ele>
        <time>2020-07-07T11:31:35Z</time>
      </trkpt>
      <trkpt lat="52.97371" lon="6.94549">
        <ele>56.182</ele>
        <time>2020-07-07T11:31:40Z</time>
      </trkpt>
      <trkpt lat="52.97395" lon="6.94522">
        <ele>57.412</ele>
        <time>2020-07-07T11:31:46Z</time>
      </trkpt>
      <trkpt lat="52.97414" lon="6.94522">
        <ele>58.232</ele>
        <time>2020-07-07T11:31:51Z</time>
      </trkpt>
      <trkpt lat="52.97437" lon="6.94537">
        <ele>59.443</ele>
        <time>2020-07-07T11:31:57Z</time>
      </trkpt>
      <trkpt lat="52.97449" lon="6.94544">
        <ele>60.366</ele>
        <time>2020-07-07T11:32:02Z</time>
      </trkpt>
      <trkpt lat="52.97465" lon="6.94556">
        <ele>60.82</ele>
        <time>2020-07-07T11:32:07Z</time>
      </trkpt>
      <trkpt lat="52.97498" lon="6.94581">
        <ele>64.324</ele>
        <time>2020-07-07T11:32:13Z</time>
      </trkpt>
      <trkpt lat="52.97522" lon="6.946">
        <ele>63.225</ele>
        <time>2020-07-07T11:32:19Z</time>
      </trkpt>
      <trkpt lat="52.97539" lon="6.94612">
        <ele>61.859</ele>
        <time>2020-07-07T11:32:24Z</time>
      </trkpt>
      <trkpt lat="52.97557" lon="6.94598">
        <ele>60.497</ele>
        <time>2020-07-07T11:32:30Z</time>
      </trkpt>
      <trkpt lat="52.97573" lon="6.94592">
        <ele>59.193</ele>
        <time>2020-07-07T11:32:36Z</time>
      </trkpt>
      <trkpt lat="52.97584" lon="6.94621">
        <ele>59.358</ele>
        <time>2020-07-07T11:32:42Z</time>
      </trkpt>
      <trkpt lat="52.97601" lon="6.94643">
        <ele>59.503</ele>
        <time>2020-07-07T11:32:48Z</time>
      </trkpt>
      <trkpt lat="52.9762" lon="6.9466">
        <ele>59.818</ele>
        <time>2020-07-07T11:32:54Z</time>
      </trkpt>
      <trkpt lat="52.97636" lon="6.94674">
        <ele>60.407</ele>
        <time>2020-07-07T11:32:59Z</time>
      </trkpt>
      <trkpt lat="52.97638" lon="6.94706">
        <ele>61.314</ele>
        <time>2020-07-07T11:33:05Z</time>
      </trkpt>
      <trkpt lat="52.97629" lon="6.94739">
        <ele>61.2</ele>
        <time>2020-07-07T11:33:11Z</time>
      </trkpt>
      <trkpt lat="52.97621" lon="6.94767">
        <ele>61.147</ele>
        <time>2020-07-07T11:33:16Z</time>
      </trkpt>
      <trkpt lat="52.97612" lon="6.94797">
        <ele>59.826</ele>
        <time>2020-07-07T11:33:21Z</time>
      </trkpt>
      <trkpt lat="52.97601" lon="6.94831">
        <ele>58.831</ele>
        <time>2020-07-07T11:33:27Z</time>
      </trkpt>
      <trkpt lat="52.97591" lon="6.94867">
        <ele>58.302</ele>
        <time>2020-07-07T11:33:33Z</time>
      </trkpt>
      <trkpt lat="52.97582" lon="6.94895">
        <ele>57.17</ele>
        <time>2020-07-07T11:33:38Z</time>
      </trkpt>
      <trkpt lat="52.97574" lon="6.94926">
        <ele>56.138</ele>
        <time>2020-07-07T11:33:44Z</time>
      </trkpt>
      <trkpt lat="52.97564" lon="6.94957">
        <ele>53.598</ele>
        <time>2020-07-07T11:33:50Z</time>
      </trkpt>
      <trkpt lat="52.9755" lon="6.94995">
        <ele>52.52</ele>
        <time>2020-07-07T11:33:56Z</time>
      </trkpt>
      <trkpt lat="52.97541" lon="6.95026">
        <ele>51.579</ele>
        <time>2020-07-07T11:34:01Z</time>
      </trkpt>
      <trkpt lat="52.97532" lon="6.95057">
        <ele>53.633</ele>
        <time>2020-07-07T11:34:06Z</time>
      </trkpt>
      <trkpt lat="52.97524" lon="6.95084">
        <ele>53.32</ele>
        <time>2020-07-07T11:34:11Z</time>
      </trkpt>
      <trkpt lat="52.97513" lon="6.95119">
        <ele>53.124</ele>
        <time>2020-07-07T11:34:17Z</time>
      </trkpt>
      <trkpt lat="52.97505" lon="6.95149">
        <ele>53.262</ele>
        <time>2020-07-07T11:34:22Z</time>
      </trkpt>
      <trkpt lat="52.97495" lon="6.95184">
        <ele>52.49</ele>
        <time>2020-07-07T11:34:28Z</time>
      </trkpt>
      <trkpt lat="52.97483" lon="6.95214">
        <ele>52.186</ele>
        <time>2020-07-07T11:34:33Z</time>
      </trkpt>
      <trkpt lat="52.9747" lon="6.95246">
        <ele>50.866</ele>
        <time>2020-07-07T11:34:39Z</time>
      </trkpt>
      <trkpt lat="52.97461" lon="6.9527">
        <ele>51.711</ele>
        <time>2020-07-07T11:34:44Z</time>
      </trkpt>
      <trkpt lat="52.97448" lon="6.95291">
        <ele>51.146</ele>
        <time>2020-07-07T11:34:50Z</time>
      </trkpt>
      <trkpt lat="52.97433" lon="6.95315">
        <ele>51.804</ele>
        <time>2020-07-07T11:34:56Z</time>
      </trkpt>
      <trkpt lat="52.97418" lon="6.95332">
        <ele>51.149</ele>
        <time>2020-07-07T11:35:01Z</time>
      </trkpt>
      <trkpt lat="52.97404" lon="6.95351">
        <ele>53.205</ele>
        <time>2020-07-07T11:35:06Z</time>
      </trkpt>
      <trkpt lat="52.97387" lon="6.95375">
        <ele>53.454</ele>
        <time>2020-07-07T11:35:12Z</time>
      </trkpt>
      <trkpt lat="52.9739" lon="6.95411">
        <ele>54.584</ele>
        <time>2020-07-07T11:35:18Z</time>
      </trkpt>
      <trkpt lat="52.974" lon="6.95436">
        <ele>56.713</ele>
        <time>2020-07-07T11:35:23Z</time>
      </trkpt>
      <trkpt lat="52.97413" lon="6.95461">
        <ele>57.48</ele>
        <time>2020-07-07T11:35:28Z</time>
      </trkpt>
      <trkpt lat="52.97429" lon="6.9549">
        <ele>57.638</ele>
        <time>2020-07-07T11:35:34Z</time>
      </trkpt>
      <trkpt lat="52.97443" lon="6.95517">
        <ele>57.993</ele>
        <time>2020-07-07T11:35:40Z</time>
      </trkpt>
      <trkpt lat="52.97455" lon="6.95544">
        <ele>58.105</ele>
        <time>2020-07-07T11:35:46Z</time>
      </trkpt>
      <trkpt lat="52.97468" lon="6.95569">
        <ele>59.211</ele>
        <time>2020-07-07T11:35:52Z</time>
      </trkpt>
      <trkpt lat="52.97486" lon="6.95568">
        <ele>59.232</ele>
        <time>2020-07-07T11:35:58Z</time>
      </trkpt>
      <trkpt lat="52.97506" lon="6.95553">
        <ele>57.692</ele>
        <time>2020-07-07T11:36:04Z</time>
      </trkpt>
      <trkpt lat="52.97524" lon="6.95543">
        <ele>55.982</ele>
        <time>2020-07-07T11:36:09Z</time>
      </trkpt>
      <trkpt lat="52.97543" lon="6.95544">
        <ele>55.276</ele>
        <time>2020-07-07T11:36:15Z</time>
      </trkpt>
      <trkpt lat="52.97546" lon="6.95579">
        <ele>55.767</ele>
        <time>2020-07-07T11:36:21Z</time>
      </trkpt>
      <trkpt lat="52.97546" lon="6.95609">
        <ele>54.947</ele>
        <time>2020-07-07T11:36:26Z</time>
      </trkpt>
      <trkpt lat="52.9755" lon="6.95635">
        <ele>54.725</ele>
        <time>2020-07-07T11:36:31Z</time>
      </trkpt>
      <trkpt lat="52.97559" lon="6.95663">
        <ele>55.923</ele>
        <time>2020-07-07T11:36:37Z</time>
      </trkpt>
      <trkpt lat="52.9757" lon="6.95685">
        <ele>58.732</ele>
        <time>2020-07-07T11:36:42Z</time>
      </trkpt>
      <trkpt lat="52.97581" lon="6.95708">
        <ele>61.181</ele>
        <time>2020-07-07T11:36:47Z</time>
      </trkpt>
      <trkpt lat="52.97595" lon="6.95732">
        <ele>62.622</ele>
        <time>2020-07-07T11:36:53Z</time>
      </trkpt>
      <trkpt lat="52.97606" lon="6.95752">
        <ele>63.299</ele>
        <time>2020-07-07T11:36:58Z</time>
      </trkpt>
      <trkpt lat="52.97617" lon="6.95782">
        <ele>64.883</ele>
        <time>2020-07-07T11:37:04Z</time>
      </trkpt>
      <trkpt lat="52.9763" lon="6.95798">
        <ele>64.703</ele>
        <time>2020-07-07T11:37:09Z</time>
      </trkpt>
      <trkpt lat="52.97644" lon="6.95818">
        <ele>64.089</ele>
        <time>2020-07-07T11:37:15Z</time>
      </trkpt>
      <trkpt lat="52.97656" lon="6.95839">
        <ele>63.916</ele>
        <time>2020-07-07T11:37:20Z</time>
      </trkpt>
      <trkpt lat="52.9767" lon="6.95861">
        <ele>63.034</ele>
        <time>2020-07-07T11:37:25Z</time>
      </trkpt>
      <trkpt lat="52.97684" lon="6.95884">
        <ele>63.076</ele>
        <time>2020-07-07T11:37:30Z</time>
      </trkpt>
      <trkpt lat="52.97702" lon="6.95906">
        <ele>62.256</ele>
        <time>2020-07-07T11:37:36Z</time>
      </trkpt>
      <trkpt lat="52.97713" lon="6.95927">
        <ele>61.234</ele>
        <time>2020-07-07T11:37:41Z</time>
      </trkpt>
      <trkpt lat="52.97727" lon="6.95958">
        <ele>60.06</ele>
        <time>2020-07-07T11:37:47Z</time>
      </trkpt>
      <trkpt lat="52.9774" lon="6.95981">
        <ele>59.319</ele>
        <time>2020-07-07T11:37:52Z</time>
      </trkpt>
      <trkpt lat="52.97753" lon="6.96004">
        <ele>58.822</ele>
        <time>2020-07-07T11:37:58Z</time>
      </trkpt>
      <trkpt lat="52.97768" lon="6.96028">
        <ele>58.845</ele>
        <time>2020-07-07T11:38:04Z</time>
      </trkpt>
      <trkpt lat="52.97781" lon="6.96053">
        <ele>57.936</ele>
        <time>2020-07-07T11:38:09Z</time>
      </trkpt>
      <trkpt lat="52.97798" lon="6.96085">
        <ele>57.96</ele>
        <time>2020-07-07T11:38:15Z</time>
      </trkpt>
      <trkpt lat="52.97811" lon="6.96109">
        <ele>58.359</ele>
        <time>2020-07-07T11:38:20Z</time>
      </trkpt>
      <trkpt lat="52.97826" lon="6.96136">
        <ele>57.072</ele>
        <time>2020-07-07T11:38:26Z</time>
      </trkpt>
      <trkpt lat="52.97839" lon="6.96158">
        <ele>57.002</ele>
        <time>2020-07-07T11:38:31Z</time>
      </trkpt>
      <trkpt lat="52.97854" lon="6.9618">
        <ele>58.466</ele>
        <time>2020-07-07T11:38:37Z</time>
      </trkpt>
      <trkpt lat="52.97868" lon="6.96197">
        <ele>60.369</ele>
        <time>2020-07-07T11:38:42Z</time>
      </trkpt>
      <trkpt lat="52.97883" lon="6.96228">
        <ele>60.983</ele>
        <time>2020-07-07T11:38:48Z</time>
      </trkpt>
      <trkpt lat="52.97896" lon="6.9626">
        <ele>61.829</ele>
        <time>2020-07-07T11:38:54Z</time>
      </trkpt>
      <trkpt lat="52.97906" lon="6.96282">
        <ele>62.764</ele>
        <time>2020-07-07T11:38:59Z</time>
      </trkpt>
      <trkpt lat="52.97923" lon="6.96312">
        <ele>63.307</ele>
        <time>2020-07-07T11:39:05Z</time>
      </trkpt>
      <trkpt lat="52.9794" lon="6.96342">
        <ele>62.397</ele>
        <time>2020-07-07T11:39:11Z</time>
      </trkpt>
      <trkpt lat="52.97951" lon="6.96363">
        <ele>61.007</ele>
        <time>2020-07-07T11:39:17Z</time>
      </trkpt>
      <trkpt lat="52.97956" lon="6.96384">
        <ele>60.453</ele>
        <time>2020-07-07T11:39:22Z</time>
      </trkpt>
      <trkpt lat="52.97967" lon="6.96402">
        <ele>60.667</ele>
        <time>2020-07-07T11:39:27Z</time>
      </trkpt>
      <trkpt lat="52.97982" lon="6.96404">
        <ele>60.961</ele>
        <time>2020-07-07T11:39:32Z</time>
      </trkpt>
      <trkpt lat="52.97992" lon="6.96417">
        <ele>62.342</ele>
        <time>2020-07-07T11:39:38Z</time>
      </trkpt>
      <trkpt lat="52.97997" lon="6.96442">
        <ele>62.976</ele>
        <time>2020-07-07T11:39:43Z</time>
      </trkpt>
      <trkpt lat="52.98006" lon="6.96466">
        <ele>62.522</ele>
        <time>2020-07-07T11:39:48Z</time>
      </trkpt>
      <trkpt lat="52.9802" lon="6.96491">
        <ele>61.61</ele>
        <time>2020-07-07T11:39:53Z</time>
      </trkpt>
      <trkpt lat="52.98038" lon="6.96523">
        <ele>60.63</ele>
        <time>2020-07-07T11:39:59Z</time>
      </trkpt>
      <trkpt lat="52.98057" lon="6.96554">
        <ele>60.236</ele>
        <time>2020-07-07T11:40:05Z</time>
      </trkpt>
      <trkpt lat="52.98082" lon="6.96574">
        <ele>60.057</ele>
        <time>2020-07-07T11:40:11Z</time>
      </trkpt>
      <trkpt lat="52.98098" lon="6.96583">
        <ele>59.109</ele>
        <time>2020-07-07T11:40:16Z</time>
      </trkpt>
      <trkpt lat="52.98104" lon="6.96598">
        <ele>60.599</ele>
        <time>2020-07-07T11:40:22Z</time>
      </trkpt>
      <trkpt lat="52.98107" lon="6.9662">
        <ele>60.769</ele>
        <time>2020-07-07T11:40:27Z</time>
      </trkpt>
      <trkpt lat="52.98114" lon="6.96642">
        <ele>61.292</ele>
        <time>2020-07-07T11:40:32Z</time>
      </trkpt>
      <trkpt lat="52.98129" lon="6.96659">
        <ele>63.365</ele>
        <time>2020-07-07T11:40:38Z</time>
      </trkpt>
      <trkpt lat="52.98143" lon="6.96681">
        <ele>64.238</ele>
        <time>2020-07-07T11:40:44Z</time>
      </trkpt>
      <trkpt lat="52.98158" lon="6.96708">
        <ele>63.476</ele>
        <time>2020-07-07T11:40:50Z</time>
      </trkpt>
      <trkpt lat="52.98169" lon="6.96735">
        <ele>62.876</ele>
        <time>2020-07-07T11:40:55Z</time>
      </trkpt>
      <trkpt lat="52.98182" lon="6.96768">
        <ele>62.251</ele>
        <time>2020-07-07T11:41:00Z</time>
      </trkpt>
      <trkpt lat="52.98196" lon="6.96804">
        <ele>61.657</ele>
        <time>2020-07-07T11:41:05Z</time>
      </trkpt>
      <trkpt lat="52.98208" lon="6.96845">
        <ele>60.737</ele>
        <time>2020-07-07T11:41:11Z</time>
      </trkpt>
      <trkpt lat="52.98214" lon="6.96881">
        <ele>60.325</ele>
        <time>2020-07-07T11:41:17Z</time>
      </trkpt>
      <trkpt lat="52.98222" lon="6.96932">
        <ele>58.803</ele>
        <time>2020-07-07T11:41:23Z</time>
      </trkpt>
      <trkpt lat="52.98228" lon="6.96985">
        <ele>56.792</ele>
        <time>2020-07-07T11:41:29Z</time>
      </trkpt>
      <trkpt lat="52.98236" lon="6.97015">
        <ele>56.577</ele>
        <time>2020-07-07T11:41:34Z</time>
      </trkpt>
      <trkpt lat="52.98238" lon="6.97045">
        <ele>57.667</ele>
        <time>2020-07-07T11:41:40Z</time>
      </trkpt>
      <trkpt lat="52.98253" lon="6.97057">
        <ele>59.377</ele>
        <time>2020-07-07T11:41:46Z</time>
      </trkpt>
      <trkpt lat="52.98268" lon="6.97048">
        <ele>59.404</ele>
        <time>2020-07-07T11:41:51Z</time>
      </trkpt>
      <trkpt lat="52.98285" lon="6.97038">
        <ele>57.711</ele>
        <time>2020-07-07T11:41:57Z</time>
      </trkpt>
      <trkpt lat="52.98305" lon="6.97033">
        <ele>56.47</ele>
        <time>2020-07-07T11:42:03Z</time>
      </trkpt>
      <trkpt lat="52.98329" lon="6.97027">
        <ele>54.884</ele>
        <time>2020-07-07T11:42:09Z</time>
      </trkpt>
      <trkpt lat="52.98348" lon="6.97021">
        <ele>54.904</ele>
        <time>2020-07-07T11:42:14Z</time>
      </trkpt>
      <trkpt lat="52.98365" lon="6.97017">
        <ele>54.008</ele>
        <time>2020-07-07T11:42:19Z</time>
      </trkpt>
      <trkpt lat="52.98386" lon="6.9701">
        <ele>54.052</ele>
        <time>2020-07-07T11:42:24Z</time>
      </trkpt>
      <trkpt lat="52.98405" lon="6.97003">
        <ele>52.557</ele>
        <time>2020-07-07T11:42:30Z</time>
      </trkpt>
      <trkpt lat="52.98424" lon="6.96999">
        <ele>51.559</ele>
        <time>2020-07-07T11:42:35Z</time>
      </trkpt>
      <trkpt lat="52.9845" lon="6.96992">
        <ele>51.887</ele>
        <time>2020-07-07T11:42:41Z</time>
      </trkpt>
      <trkpt lat="52.98473" lon="6.96984">
        <ele>51.11</ele>
        <time>2020-07-07T11:42:47Z</time>
      </trkpt>
      <trkpt lat="52.98497" lon="6.96975">
        <ele>51.517</ele>
        <time>2020-07-07T11:42:53Z</time>
      </trkpt>
      <trkpt lat="52.98521" lon="6.96959">
        <ele>53.103</ele>
        <time>2020-07-07T11:42:59Z</time>
      </trkpt>
      <trkpt lat="52.98542" lon="6.96941">
        <ele>52.761</ele>
        <time>2020-07-07T11:43:05Z</time>
      </trkpt>
      <trkpt lat="52.98565" lon="6.96919">
        <ele>52.586</ele>
        <time>2020-07-07T11:43:11Z</time>
      </trkpt>
      <trkpt lat="52.98587" lon="6.96896">
        <ele>52.704</ele>
        <time>2020-07-07T11:43:17Z</time>
      </trkpt>
      <trkpt lat="52.98605" lon="6.96879">
        <ele>52.333</ele>
        <time>2020-07-07T11:43:22Z</time>
      </trkpt>
      <trkpt lat="52.98625" lon="6.96864">
        <ele>52.634</ele>
        <time>2020-07-07T11:43:27Z</time>
      </trkpt>
      <trkpt lat="52.98646" lon="6.96844">
        <ele>52.228</ele>
        <time>2020-07-07T11:43:33Z</time>
      </trkpt>
      <trkpt lat="52.98668" lon="6.96824">
        <ele>51.865</ele>
        <time>2020-07-07T11:43:39Z</time>
      </trkpt>
      <trkpt lat="52.98685" lon="6.96806">
        <ele>51.791</ele>
        <time>2020-07-07T11:43:44Z</time>
      </trkpt>
      <trkpt lat="52.98706" lon="6.96787">
        <ele>50.929</ele>
        <time>2020-07-07T11:43:50Z</time>
      </trkpt>
      <trkpt lat="52.98728" lon="6.96771">
        <ele>50.375</ele>
        <time>2020-07-07T11:43:56Z</time>
      </trkpt>
      <trkpt lat="52.98744" lon="6.96757">
        <ele>51.029</ele>
        <time>2020-07-07T11:44:01Z</time>
      </trkpt>
      <trkpt lat="52.98761" lon="6.96774">
        <ele>53.56</ele>
        <time>2020-07-07T11:44:07Z</time>
      </trkpt>
      <trkpt lat="52.98774" lon="6.96794">
        <ele>56.982</ele>
        <time>2020-07-07T11:44:12Z</time>
      </trkpt>
      <trkpt lat="52.98785" lon="6.96824">
        <ele>59.841</ele>
        <time>2020-07-07T11:44:18Z</time>
      </trkpt>
      <trkpt lat="52.98794" lon="6.96856">
        <ele>59.992</ele>
        <time>2020-07-07T11:44:23Z</time>
      </trkpt>
      <trkpt lat="52.988" lon="6.96893">
        <ele>60.359</ele>
        <time>2020-07-07T11:44:29Z</time>
      </trkpt>
      <trkpt lat="52.98802" lon="6.96927">
        <ele>59.368</ele>
        <time>2020-07-07T11:44:34Z</time>
      </trkpt>
      <trkpt lat="52.988" lon="6.96976">
        <ele>57.98</ele>
        <time>2020-07-07T11:44:40Z</time>
      </trkpt>
      <trkpt lat="52.98799" lon="6.97015">
        <ele>57.987</ele>
        <time>2020-07-07T11:44:45Z</time>
      </trkpt>
      <trkpt lat="52.98794" lon="6.9705">
        <ele>55.946</ele>
        <time>2020-07-07T11:44:50Z</time>
      </trkpt>
      <trkpt lat="52.98783" lon="6.97079">
        <ele>53.625</ele>
        <time>2020-07-07T11:44:56Z</time>
      </trkpt>
      <trkpt lat="52.98772" lon="6.97108">
        <ele>53.812</ele>
        <time>2020-07-07T11:45:01Z</time>
      </trkpt>
      <trkpt lat="52.98764" lon="6.97135">
        <ele>54.429</ele>
        <time>2020-07-07T11:45:06Z</time>
      </trkpt>
      <trkpt lat="52.98754" lon="6.97168">
        <ele>54.727</ele>
        <time>2020-07-07T11:45:12Z</time>
      </trkpt>
      <trkpt lat="52.9875" lon="6.97199">
        <ele>54.555</ele>
        <time>2020-07-07T11:45:17Z</time>
      </trkpt>
      <trkpt lat="52.98746" lon="6.97236">
        <ele>58.024</ele>
        <time>2020-07-07T11:45:23Z</time>
      </trkpt>
      <trkpt lat="52.9875" lon="6.97268">
        <ele>57.754</ele>
        <time>2020-07-07T11:45:29Z</time>
      </trkpt>
      <trkpt lat="52.98757" lon="6.97305">
        <ele>56.846</ele>
        <time>2020-07-07T11:45:35Z</time>
      </trkpt>
      <trkpt lat="52.98765" lon="6.97336">
        <ele>55.432</ele>
        <time>2020-07-07T11:45:40Z</time>
      </trkpt>
      <trkpt lat="52.98774" lon="6.97374">
        <ele>55.199</ele>
        <time>2020-07-07T11:45:46Z</time>
      </trkpt>
      <trkpt lat="52.98787" lon="6.97412">
        <ele>55.781</ele>
        <time>2020-07-07T11:45:51Z</time>
      </trkpt>
      <trkpt lat="52.98799" lon="6.97446">
        <ele>54.666</ele>
        <time>2020-07-07T11:45:57Z</time>
      </trkpt>
      <trkpt lat="52.98806" lon="6.97472">
        <ele>54.651</ele>
        <time>2020-07-07T11:46:02Z</time>
      </trkpt>
      <trkpt lat="52.9882" lon="6.97511">
        <ele>55.345</ele>
        <time>2020-07-07T11:46:08Z</time>
      </trkpt>
      <trkpt lat="52.98837" lon="6.97559">
        <ele>56.835</ele>
        <time>2020-07-07T11:46:14Z</time>
      </trkpt>
      <trkpt lat="52.9885" lon="6.97596">
        <ele>55.53</ele>
        <time>2020-07-07T11:46:20Z</time>
      </trkpt>
      <trkpt lat="52.98861" lon="6.97631">
        <ele>54.115</ele>
        <time>2020-07-07T11:46:26Z</time>
      </trkpt>
      <trkpt lat="52.98872" lon="6.97668">
        <ele>53.478</ele>
        <time>2020-07-07T11:46:32Z</time>
      </trkpt>
      <trkpt lat="52.98883" lon="6.97702">
        <ele>53.532</ele>
        <time>2020-07-07T11:46:38Z</time>
      </trkpt>
      <trkpt lat="52.98893" lon="6.97734">
        <ele>54.042</ele>
        <time>2020-07-07T11:46:44Z</time>
      </trkpt>
      <trkpt lat="52.98903" lon="6.97767">
        <ele>54.002</ele>
        <time>2020-07-07T11:46:50Z</time>
      </trkpt>
      <trkpt lat="52.98914" lon="6.978">
        <ele>53.921</ele>
        <time>2020-07-07T11:46:56Z</time>
      </trkpt>
      <trkpt lat="52.98922" lon="6.97829">
        <ele>54.324</ele>
        <time>2020-07-07T11:47:01Z</time>
      </trkpt>
      <trkpt lat="52.98932" lon="6.9787">
        <ele>54.935</ele>
        <time>2020-07-07T11:47:07Z</time>
      </trkpt>
      <trkpt lat="52.98943" lon="6.97902">
        <ele>55.146</ele>
        <time>2020-07-07T11:47:12Z</time>
      </trkpt>
      <trkpt lat="52.98956" lon="6.97939">
        <ele>54.634</ele>
        <time>2020-07-07T11:47:18Z</time>
      </trkpt>
      <trkpt lat="52.98962" lon="6.97971">
        <ele>53.838</ele>
        <time>2020-07-07T11:47:23Z</time>
      </trkpt>
      <trkpt lat="52.98964" lon="6.98004">
        <ele>52.824</ele>
        <time>2020-07-07T11:47:29Z</time>
      </trkpt>
      <trkpt lat="52.98967" lon="6.98044">
        <ele>51.042</ele>
        <time>2020-07-07T11:47:35Z</time>
      </trkpt>
      <trkpt lat="52.98964" lon="6.98086">
        <ele>50.25</ele>
        <time>2020-07-07T11:47:41Z</time>
      </trkpt>
      <trkpt lat="52.98961" lon="6.98117">
        <ele>50.139</ele>
        <time>2020-07-07T11:47:46Z</time>
      </trkpt>
      <trkpt lat="52.98968" lon="6.98138">
        <ele>52.14</ele>
        <time>2020-07-07T11:47:52Z</time>
      </trkpt>
      <trkpt lat="52.98979" lon="6.98151">
        <ele>54.837</ele>
        <time>2020-07-07T11:47:57Z</time>
      </trkpt>
      <trkpt lat="52.98988" lon="6.98171">
        <ele>55.731</ele>
        <time>2020-07-07T11:48:02Z</time>
      </trkpt>
      <trkpt lat="52.99001" lon="6.98184">
        <ele>56.693</ele>
        <time>2020-07-07T11:48:07Z</time>
      </trkpt>
      <trkpt lat="52.99018" lon="6.98202">
        <ele>57.379</ele>
        <time>2020-07-07T11:48:13Z</time>
      </trkpt>
      <trkpt lat="52.99041" lon="6.98222">
        <ele>58.147</ele>
        <time>2020-07-07T11:48:19Z</time>
      </trkpt>
      <trkpt lat="52.99059" lon="6.98237">
        <ele>57.995</ele>
        <time>2020-07-07T11:48:25Z</time>
      </trkpt>
      <trkpt lat="52.99076" lon="6.98251">
        <ele>58.711</ele>
        <time>2020-07-07T11:48:31Z</time>
      </trkpt>
      <trkpt lat="52.99085" lon="6.98271">
        <ele>58.38</ele>
        <time>2020-07-07T11:48:36Z</time>
      </trkpt>
      <trkpt lat="52.99079" lon="6.98296">
        <ele>58.542</ele>
        <time>2020-07-07T11:48:42Z</time>
      </trkpt>
      <trkpt lat="52.99069" lon="6.98307">
        <ele>58.315</ele>
        <time>2020-07-07T11:48:47Z</time>
      </trkpt>
      <trkpt lat="52.99055" lon="6.98321">
        <ele>57.594</ele>
        <time>2020-07-07T11:48:52Z</time>
      </trkpt>
      <trkpt lat="52.99039" lon="6.98343">
        <ele>58.557</ele>
        <time>2020-07-07T11:48:58Z</time>
      </trkpt>
      <trkpt lat="52.9902" lon="6.98366">
        <ele>56.394</ele>
        <time>2020-07-07T11:49:04Z</time>
      </trkpt>
      <trkpt lat="52.99002" lon="6.98389">
        <ele>56.332</ele>
        <time>2020-07-07T11:49:10Z</time>
      </trkpt>
      <trkpt lat="52.98985" lon="6.98409">
        <ele>56.862</ele>
        <time>2020-07-07T11:49:16Z</time>
      </trkpt>
      <trkpt lat="52.98977" lon="6.98432">
        <ele>56.993</ele>
        <time>2020-07-07T11:49:21Z</time>
      </trkpt>
      <trkpt lat="52.98972" lon="6.98475">
        <ele>59.493</ele>
        <time>2020-07-07T11:49:27Z</time>
      </trkpt>
      <trkpt lat="52.98979" lon="6.98509">
        <ele>59.508</ele>
        <time>2020-07-07T11:49:33Z</time>
      </trkpt>
      <trkpt lat="52.98998" lon="6.98504">
        <ele>59.766</ele>
        <time>2020-07-07T11:49:39Z</time>
      </trkpt>
      <trkpt lat="52.9901" lon="6.98524">
        <ele>59.048</ele>
        <time>2020-07-07T11:49:44Z</time>
      </trkpt>
      <trkpt lat="52.99022" lon="6.98539">
        <ele>58.778</ele>
        <time>2020-07-07T11:49:50Z</time>
      </trkpt>
      <trkpt lat="52.99038" lon="6.98552">
        <ele>60.277</ele>
        <time>2020-07-07T11:49:56Z</time>
      </trkpt>
      <trkpt lat="52.99052" lon="6.98567">
        <ele>61.574</ele>
        <time>2020-07-07T11:50:02Z</time>
      </trkpt>
      <trkpt lat="52.99064" lon="6.98585">
        <ele>63.273</ele>
        <time>2020-07-07T11:50:08Z</time>
      </trkpt>
      <trkpt lat="52.99076" lon="6.98601">
        <ele>64.237</ele>
        <time>2020-07-07T11:50:14Z</time>
      </trkpt>
      <trkpt lat="52.99087" lon="6.98617">
        <ele>63.801</ele>
        <time>2020-07-07T11:50:20Z</time>
      </trkpt>
      <trkpt lat="52.99094" lon="6.98627">
        <ele>62.239</ele>
        <time>2020-07-07T11:50:25Z</time>
      </trkpt>
      <trkpt lat="52.991" lon="6.98641">
        <ele>61.03</ele>
        <time>2020-07-07T11:50:31Z</time>
      </trkpt>
      <trkpt lat="52.99102" lon="6.98654">
        <ele>60.411</ele>
        <time>2020-07-07T11:50:36Z</time>
      </trkpt>
      <trkpt lat="52.99102" lon="6.98681">
        <ele>59.609</ele>
        <time>2020-07-07T11:50:42Z</time>
      </trkpt>
      <trkpt lat="52.99091" lon="6.9871">
        <ele>59.809</ele>
        <time>2020-07-07T11:50:48Z</time>
      </trkpt>
      <trkpt lat="52.99079" lon="6.98723">
        <ele>58.042</ele>
        <time>2020-07-07T11:50:53Z</time>
      </trkpt>
      <trkpt lat="52.99064" lon="6.98736">
        <ele>56.777</ele>
        <time>2020-07-07T11:50:59Z</time>
      </trkpt>
      <trkpt lat="52.99057" lon="6.98755">
        <ele>56.914</ele>
        <time>2020-07-07T11:51:04Z</time>
      </trkpt>
      <trkpt lat="52.99057" lon="6.98778">
        <ele>57.845</ele>
        <time>2020-07-07T11:51:10Z</time>
      </trkpt>
      <trkpt lat="52.99061" lon="6.98799">
        <ele>58.429</ele>
        <time>2020-07-07T11:51:16Z</time>
      </trkpt>
      <trkpt lat="52.99065" lon="6.98821">
        <ele>58.702</ele>
        <time>2020-07-07T11:51:22Z</time>
      </trkpt>
      <trkpt lat="52.99069" lon="6.98844">
        <ele>58.415</ele>
        <time>2020-07-07T11:51:28Z</time>
      </trkpt>
      <trkpt lat="52.99073" lon="6.98864">
        <ele>58.908</ele>
        <time>2020-07-07T11:51:33Z</time>
      </trkpt>
      <trkpt lat="52.99078" lon="6.98894">
        <ele>58.734</ele>
        <time>2020-07-07T11:51:39Z</time>
      </trkpt>
      <trkpt lat="52.99084" lon="6.98923">
        <ele>58.941</ele>
        <time>2020-07-07T11:51:44Z</time>
      </trkpt>
      <trkpt lat="52.99092" lon="6.98966">
        <ele>59.177</ele>
        <time>2020-07-07T11:51:50Z</time>
      </trkpt>
      <trkpt lat="52.991" lon="6.99008">
        <ele>59.007</ele>
        <time>2020-07-07T11:51:55Z</time>
      </trkpt>
      <trkpt lat="52.99108" lon="6.99057">
        <ele>58.071</ele>
        <time>2020-07-07T11:52:00Z</time>
      </trkpt>
      <trkpt lat="52.99118" lon="6.99119">
        <ele>57.954</ele>
        <time>2020-07-07T11:52:06Z</time>
      </trkpt>
      <trkpt lat="52.99128" lon="6.99175">
        <ele>57.61</ele>
        <time>2020-07-07T11:52:12Z</time>
      </trkpt>
      <trkpt lat="52.99141" lon="6.99225">
        <ele>57.632</ele>
        <time>2020-07-07T11:52:17Z</time>
      </trkpt>
      <trkpt lat="52.99158" lon="6.99279">
        <ele>57.856</ele>
        <time>2020-07-07T11:52:23Z</time>
      </trkpt>
      <trkpt lat="52.99173" lon="6.99291">
        <ele>58.584</ele>
        <time>2020-07-07T11:52:28Z</time>
      </trkpt>
      <trkpt lat="52.99189" lon="6.99281">
        <ele>62.979</ele>
        <time>2020-07-07T11:52:34Z</time>
      </trkpt>
      <trkpt lat="52.99211" lon="6.99271">
        <ele>59.82</ele>
        <time>2020-07-07T11:52:40Z</time>
      </trkpt>
      <trkpt lat="52.99224" lon="6.99282">
        <ele>59.801</ele>
        <time>2020-07-07T11:52:46Z</time>
      </trkpt>
      <trkpt lat="52.9923" lon="6.99308">
        <ele>60.371</ele>
        <time>2020-07-07T11:52:51Z</time>
      </trkpt>
      <trkpt lat="52.99236" lon="6.99333">
        <ele>60.336</ele>
        <time>2020-07-07T11:52:56Z</time>
      </trkpt>
      <trkpt lat="52.99243" lon="6.99365">
        <ele>61.698</ele>
        <time>2020-07-07T11:53:02Z</time>
      </trkpt>
      <trkpt lat="52.99251" lon="6.99394">
        <ele>63.144</ele>
        <time>2020-07-07T11:53:07Z</time>
      </trkpt>
      <trkpt lat="52.99261" lon="6.9943">
        <ele>65.011</ele>
        <time>2020-07-07T11:53:13Z</time>
      </trkpt>
      <trkpt lat="52.99275" lon="6.99469">
        <ele>66.578</ele>
        <time>2020-07-07T11:53:19Z</time>
      </trkpt>
      <trkpt lat="52.99289" lon="6.99512">
        <ele>67.472</ele>
        <time>2020-07-07T11:53:25Z</time>
      </trkpt>
      <trkpt lat="52.99301" lon="6.99545">
        <ele>68.433</ele>
        <time>2020-07-07T11:53:30Z</time>
      </trkpt>
      <trkpt lat="52.99314" lon="6.99579">
        <ele>69.317</ele>
        <time>2020-07-07T11:53:35Z</time>
      </trkpt>
      <trkpt lat="52.99328" lon="6.99617">
        <ele>68.455</ele>
        <time>2020-07-07T11:53:41Z</time>
      </trkpt>
      <trkpt lat="52.99351" lon="6.99645">
        <ele>65.763</ele>
        <time>2020-07-07T11:53:46Z</time>
      </trkpt>
      <trkpt lat="52.99364" lon="6.99689">
        <ele>63.361</ele>
        <time>2020-07-07T11:53:52Z</time>
      </trkpt>
      <trkpt lat="52.99363" lon="6.99724">
        <ele>63.331</ele>
        <time>2020-07-07T11:53:57Z</time>
      </trkpt>
      <trkpt lat="52.99371" lon="6.99749">
        <ele>63.757</ele>
        <time>2020-07-07T11:54:02Z</time>
      </trkpt>
      <trkpt lat="52.99379" lon="6.99779">
        <ele>63.474</ele>
        <time>2020-07-07T11:54:07Z</time>
      </trkpt>
      <trkpt lat="52.99392" lon="6.99818">
        <ele>63.794</ele>
        <time>2020-07-07T11:54:13Z</time>
      </trkpt>
      <trkpt lat="52.99401" lon="6.99848">
        <ele>63.448</ele>
        <time>2020-07-07T11:54:18Z</time>
      </trkpt>
      <trkpt lat="52.99412" lon="6.99885">
        <ele>60.888</ele>
        <time>2020-07-07T11:54:24Z</time>
      </trkpt>
      <trkpt lat="52.99421" lon="6.99914">
        <ele>59.923</ele>
        <time>2020-07-07T11:54:29Z</time>
      </trkpt>
      <trkpt lat="52.9943" lon="6.99944">
        <ele>58.894</ele>
        <time>2020-07-07T11:54:34Z</time>
      </trkpt>
      <trkpt lat="52.99447" lon="6.9998">
        <ele>54.544</ele>
        <time>2020-07-07T11:54:40Z</time>
      </trkpt>
      <trkpt lat="52.99462" lon="7.00018">
        <ele>53.282</ele>
        <time>2020-07-07T11:54:45Z</time>
      </trkpt>
      <trkpt lat="52.99474" lon="7.00054">
        <ele>52.456</ele>
        <time>2020-07-07T11:54:51Z</time>
      </trkpt>
      <trkpt lat="52.99481" lon="7.00081">
        <ele>52.856</ele>
        <time>2020-07-07T11:54:57Z</time>
      </trkpt>
      <trkpt lat="52.99493" lon="7.00081">
        <ele>55.453</ele>
        <time>2020-07-07T11:55:02Z</time>
      </trkpt>
      <trkpt lat="52.99515" lon="7.00072">
        <ele>57.204</ele>
        <time>2020-07-07T11:55:08Z</time>
      </trkpt>
      <trkpt lat="52.99531" lon="7.00065">
        <ele>58.384</ele>
        <time>2020-07-07T11:55:13Z</time>
      </trkpt>
      <trkpt lat="52.99553" lon="7.00056">
        <ele>58.353</ele>
        <time>2020-07-07T11:55:19Z</time>
      </trkpt>
      <trkpt lat="52.9957" lon="7.0005">
        <ele>59.699</ele>
        <time>2020-07-07T11:55:24Z</time>
      </trkpt>
      <trkpt lat="52.99589" lon="7.00045">
        <ele>61.877</ele>
        <time>2020-07-07T11:55:30Z</time>
      </trkpt>
      <trkpt lat="52.99606" lon="7.00048">
        <ele>64.069</ele>
        <time>2020-07-07T11:55:35Z</time>
      </trkpt>
      <trkpt lat="52.99627" lon="7.00055">
        <ele>65.8</ele>
        <time>2020-07-07T11:55:40Z</time>
      </trkpt>
      <trkpt lat="52.99658" lon="7.0006">
        <ele>65.958</ele>
        <time>2020-07-07T11:55:46Z</time>
      </trkpt>
      <trkpt lat="52.99686" lon="7.00069">
        <ele>63.97</ele>
        <time>2020-07-07T11:55:51Z</time>
      </trkpt>
      <trkpt lat="52.99713" lon="7.00078">
        <ele>61.997</ele>
        <time>2020-07-07T11:55:57Z</time>
      </trkpt>
      <trkpt lat="52.99732" lon="7.00093">
        <ele>61.377</ele>
        <time>2020-07-07T11:56:02Z</time>
      </trkpt>
      <trkpt lat="52.9975" lon="7.00126">
        <ele>60.554</ele>
        <time>2020-07-07T11:56:08Z</time>
      </trkpt>
      <trkpt lat="52.99763" lon="7.00156">
        <ele>59.566</ele>
        <time>2020-07-07T11:56:13Z</time>
      </trkpt>
      <trkpt lat="52.9978" lon="7.00185">
        <ele>60.193</ele>
        <time>2020-07-07T11:56:19Z</time>
      </trkpt>
      <trkpt lat="52.99796" lon="7.00201">
        <ele>60.526</ele>
        <time>2020-07-07T11:56:24Z</time>
      </trkpt>
      <trkpt lat="52.99813" lon="7.00204">
        <ele>61.311</ele>
        <time>2020-07-07T11:56:29Z</time>
      </trkpt>
      <trkpt lat="52.99837" lon="7.00198">
        <ele>62.911</ele>
        <time>2020-07-07T11:56:35Z</time>
      </trkpt>
      <trkpt lat="52.99851" lon="7.00199">
        <ele>60.566</ele>
        <time>2020-07-07T11:56:40Z</time>
      </trkpt>
      <trkpt lat="52.99862" lon="7.00206">
        <ele>58.955</ele>
        <time>2020-07-07T11:56:45Z</time>
      </trkpt>
      <trkpt lat="52.99878" lon="7.00197">
        <ele>56.151</ele>
        <time>2020-07-07T11:56:51Z</time>
      </trkpt>
      <trkpt lat="52.99898" lon="7.00189">
        <ele>54.924</ele>
        <time>2020-07-07T11:56:57Z</time>
      </trkpt>
      <trkpt lat="52.99917" lon="7.00184">
        <ele>53.642</ele>
        <time>2020-07-07T11:57:03Z</time>
      </trkpt>
      <trkpt lat="52.99938" lon="7.00174">
        <ele>52.392</ele>
        <time>2020-07-07T11:57:09Z</time>
      </trkpt>
      <trkpt lat="52.99955" lon="7.00167">
        <ele>50.664</ele>
        <time>2020-07-07T11:57:14Z</time>
      </trkpt>
      <trkpt lat="52.99977" lon="7.0016">
        <ele>49.958</ele>
        <time>2020-07-07T11:57:20Z</time>
      </trkpt>
      <trkpt lat="52.99996" lon="7.00152">
        <ele>48.904</ele>
        <time>2020-07-07T11:57:26Z</time>
      </trkpt>
      <trkpt lat="53.00019" lon="7.00142">
        <ele>48.097</ele>
        <time>2020-07-07T11:57:32Z</time>
      </trkpt>
      <trkpt lat="53.00036" lon="7.00135">
        <ele>47.863</ele>
        <time>2020-07-07T11:57:37Z</time>
      </trkpt>
      <trkpt lat="53.00058" lon="7.00126">
        <ele>47.611</ele>
        <time>2020-07-07T11:57:43Z</time>
      </trkpt>
      <trkpt lat="53.0008" lon="7.00117">
        <ele>47.389</ele>
        <time>2020-07-07T11:57:49Z</time>
      </trkpt>
      <trkpt lat="53.00101" lon="7.0011">
        <ele>47.63</ele>
        <time>2020-07-07T11:57:55Z</time>
      </trkpt>
      <trkpt lat="53.00123" lon="7.00098">
        <ele>48.347</ele>
        <time>2020-07-07T11:58:01Z</time>
      </trkpt>
      <trkpt lat="53.00143" lon="7.00083">
        <ele>49.219</ele>
        <time>2020-07-07T11:58:06Z</time>
      </trkpt>
      <trkpt lat="53.00162" lon="7.0006">
        <ele>50.246</ele>
        <time>2020-07-07T11:58:12Z</time>
      </trkpt>
      <trkpt lat="53.00176" lon="7.00039">
        <ele>49.999</ele>
        <time>2020-07-07T11:58:17Z</time>
      </trkpt>
      <trkpt lat="53.00191" lon="7.00017">
        <ele>49.476</ele>
        <time>2020-07-07T11:58:23Z</time>
      </trkpt>
      <trkpt lat="53.00207" lon="6.99993">
        <ele>49.596</ele>
        <time>2020-07-07T11:58:29Z</time>
      </trkpt>
      <trkpt lat="53.00225" lon="6.99968">
        <ele>49.748</ele>
        <time>2020-07-07T11:58:35Z</time>
      </trkpt>
      <trkpt lat="53.0024" lon="6.99945">
        <ele>49.476</ele>
        <time>2020-07-07T11:58:41Z</time>
      </trkpt>
      <trkpt lat="53.00254" lon="6.99933">
        <ele>49.432</ele>
        <time>2020-07-07T11:58:46Z</time>
      </trkpt>
      <trkpt lat="53.0028" lon="6.99919">
        <ele>51.004</ele>
        <time>2020-07-07T11:58:52Z</time>
      </trkpt>
      <trkpt lat="53.00301" lon="6.99915">
        <ele>51.327</ele>
        <time>2020-07-07T11:58:57Z</time>
      </trkpt>
      <trkpt lat="53.00319" lon="6.99916">
        <ele>50.886</ele>
        <time>2020-07-07T11:59:02Z</time>
      </trkpt>
      <trkpt lat="53.00341" lon="6.99917">
        <ele>50.964</ele>
        <time>2020-07-07T11:59:08Z</time>
      </trkpt>
      <trkpt lat="53.0036" lon="6.99917">
        <ele>50.641</ele>
        <time>2020-07-07T11:59:13Z</time>
      </trkpt>
      <trkpt lat="53.00384" lon="6.99919">
        <ele>50.612</ele>
        <time>2020-07-07T11:59:19Z</time>
      </trkpt>
      <trkpt lat="53.00405" lon="6.99918">
        <ele>50.62</ele>
        <time>2020-07-07T11:59:24Z</time>
      </trkpt>
      <trkpt lat="53.00425" lon="6.99919">
        <ele>50.399</ele>
        <time>2020-07-07T11:59:29Z</time>
      </trkpt>
      <trkpt lat="53.00445" lon="6.9992">
        <ele>50.985</ele>
        <time>2020-07-07T11:59:34Z</time>
      </trkpt>
      <trkpt lat="53.00467" lon="6.99924">
        <ele>50.919</ele>
        <time>2020-07-07T11:59:40Z</time>
      </trkpt>
      <trkpt lat="53.0049" lon="6.99933">
        <ele>50.032</ele>
        <time>2020-07-07T11:59:46Z</time>
      </trkpt>
      <trkpt lat="53.00509" lon="6.99941">
        <ele>50.052</ele>
        <time>2020-07-07T11:59:51Z</time>
      </trkpt>
      <trkpt lat="53.00531" lon="6.99951">
        <ele>50.612</ele>
        <time>2020-07-07T11:59:57Z</time>
      </trkpt>
      <trkpt lat="53.00549" lon="6.99957">
        <ele>51.26</ele>
        <time>2020-07-07T12:00:02Z</time>
      </trkpt>
      <trkpt lat="53.00563" lon="6.99956">
        <ele>52.021</ele>
        <time>2020-07-07T12:00:07Z</time>
      </trkpt>
      <trkpt lat="53.00582" lon="6.99947">
        <ele>52.82</ele>
        <time>2020-07-07T12:00:13Z</time>
      </trkpt>
      <trkpt lat="53.00601" lon="6.99936">
        <ele>54.162</ele>
        <time>2020-07-07T12:00:18Z</time>
      </trkpt>
      <trkpt lat="53.00625" lon="6.99922">
        <ele>55.262</ele>
        <time>2020-07-07T12:00:24Z</time>
      </trkpt>
      <trkpt lat="53.00638" lon="6.99915">
        <ele>57.451</ele>
        <time>2020-07-07T12:00:29Z</time>
      </trkpt>
      <trkpt lat="53.00651" lon="6.99912">
        <ele>59.045</ele>
        <time>2020-07-07T12:00:35Z</time>
      </trkpt>
      <trkpt lat="53.00658" lon="6.99926">
        <ele>59.084</ele>
        <time>2020-07-07T12:00:40Z</time>
      </trkpt>
      <trkpt lat="53.00659" lon="6.99951">
        <ele>58.919</ele>
        <time>2020-07-07T12:00:46Z</time>
      </trkpt>
      <trkpt lat="53.00662" lon="6.99984">
        <ele>60.254</ele>
        <time>2020-07-07T12:00:52Z</time>
      </trkpt>
      <trkpt lat="53.00678" lon="7.00005">
        <ele>60.8</ele>
        <time>2020-07-07T12:00:57Z</time>
      </trkpt>
      <trkpt lat="53.00699" lon="7.00003">
        <ele>61.3</ele>
        <time>2020-07-07T12:01:03Z</time>
      </trkpt>
      <trkpt lat="53.00701" lon="7.00038">
        <ele>60.609</ele>
        <time>2020-07-07T12:01:08Z</time>
      </trkpt>
      <trkpt lat="53.00702" lon="7.00078">
        <ele>59.838</ele>
        <time>2020-07-07T12:01:14Z</time>
      </trkpt>
      <trkpt lat="53.00706" lon="7.00111">
        <ele>57.919</ele>
        <time>2020-07-07T12:01:19Z</time>
      </trkpt>
      <trkpt lat="53.00714" lon="7.00149">
        <ele>55.764</ele>
        <time>2020-07-07T12:01:25Z</time>
      </trkpt>
      <trkpt lat="53.00721" lon="7.00184">
        <ele>53.937</ele>
        <time>2020-07-07T12:01:30Z</time>
      </trkpt>
      <trkpt lat="53.0073" lon="7.00227">
        <ele>52.056</ele>
        <time>2020-07-07T12:01:36Z</time>
      </trkpt>
      <trkpt lat="53.00738" lon="7.00264">
        <ele>51.292</ele>
        <time>2020-07-07T12:01:41Z</time>
      </trkpt>
      <trkpt lat="53.00746" lon="7.00303">
        <ele>50.748</ele>
        <time>2020-07-07T12:01:47Z</time>
      </trkpt>
      <trkpt lat="53.00756" lon="7.00348">
        <ele>50.225</ele>
        <time>2020-07-07T12:01:53Z</time>
      </trkpt>
      <trkpt lat="53.00764" lon="7.00386">
        <ele>49.537</ele>
        <time>2020-07-07T12:01:58Z</time>
      </trkpt>
      <trkpt lat="53.00773" lon="7.00423">
        <ele>48.804</ele>
        <time>2020-07-07T12:02:03Z</time>
      </trkpt>
      <trkpt lat="53.00782" lon="7.00468">
        <ele>48.465</ele>
        <time>2020-07-07T12:02:09Z</time>
      </trkpt>
      <trkpt lat="53.00792" lon="7.00513">
        <ele>48.484</ele>
        <time>2020-07-07T12:02:15Z</time>
      </trkpt>
      <trkpt lat="53.00803" lon="7.00556">
        <ele>48.53</ele>
        <time>2020-07-07T12:02:21Z</time>
      </trkpt>
      <trkpt lat="53.00812" lon="7.00594">
        <ele>48.6</ele>
        <time>2020-07-07T12:02:27Z</time>
      </trkpt>
      <trkpt lat="53.00825" lon="7.00635">
        <ele>48.894</ele>
        <time>2020-07-07T12:02:33Z</time>
      </trkpt>
      <trkpt lat="53.00839" lon="7.00675">
        <ele>47.873</ele>
        <time>2020-07-07T12:02:39Z</time>
      </trkpt>
      <trkpt lat="53.0085" lon="7.00711">
        <ele>47.936</ele>
        <time>2020-07-07T12:02:44Z</time>
      </trkpt>
      <trkpt lat="53.00865" lon="7.00752">
        <ele>47.911</ele>
        <time>2020-07-07T12:02:50Z</time>
      </trkpt>
      <trkpt lat="53.00879" lon="7.00796">
        <ele>48.158</ele>
        <time>2020-07-07T12:02:56Z</time>
      </trkpt>
      <trkpt lat="53.00893" lon="7.00837">
        <ele>48.126</ele>
        <time>2020-07-07T12:03:02Z</time>
      </trkpt>
      <trkpt lat="53.00906" lon="7.00877">
        <ele>48.647</ele>
        <time>2020-07-07T12:03:08Z</time>
      </trkpt>
      <trkpt lat="53.00917" lon="7.0091">
        <ele>48.668</ele>
        <time>2020-07-07T12:03:13Z</time>
      </trkpt>
      <trkpt lat="53.00929" lon="7.00944">
        <ele>48.204</ele>
        <time>2020-07-07T12:03:18Z</time>
      </trkpt>
      <trkpt lat="53.00944" lon="7.00984">
        <ele>47.849</ele>
        <time>2020-07-07T12:03:24Z</time>
      </trkpt>
      <trkpt lat="53.00953" lon="7.01015">
        <ele>48.061</ele>
        <time>2020-07-07T12:03:29Z</time>
      </trkpt>
      <trkpt lat="53.00966" lon="7.0105">
        <ele>48.283</ele>
        <time>2020-07-07T12:03:34Z</time>
      </trkpt>
      <trkpt lat="53.0098" lon="7.01091">
        <ele>48.979</ele>
        <time>2020-07-07T12:03:40Z</time>
      </trkpt>
      <trkpt lat="53.00991" lon="7.01126">
        <ele>49.548</ele>
        <time>2020-07-07T12:03:45Z</time>
      </trkpt>
      <trkpt lat="53.01004" lon="7.01166">
        <ele>49.844</ele>
        <time>2020-07-07T12:03:51Z</time>
      </trkpt>
      <trkpt lat="53.01015" lon="7.01198">
        <ele>50.035</ele>
        <time>2020-07-07T12:03:56Z</time>
      </trkpt>
      <trkpt lat="53.01026" lon="7.01229">
        <ele>50.109</ele>
        <time>2020-07-07T12:04:01Z</time>
      </trkpt>
      <trkpt lat="53.01039" lon="7.01269">
        <ele>50.646</ele>
        <time>2020-07-07T12:04:07Z</time>
      </trkpt>
      <trkpt lat="53.01053" lon="7.01308">
        <ele>51.037</ele>
        <time>2020-07-07T12:04:13Z</time>
      </trkpt>
      <trkpt lat="53.01064" lon="7.01342">
        <ele>50.452</ele>
        <time>2020-07-07T12:04:18Z</time>
      </trkpt>
      <trkpt lat="53.01077" lon="7.01383">
        <ele>49.909</ele>
        <time>2020-07-07T12:04:24Z</time>
      </trkpt>
      <trkpt lat="53.01089" lon="7.0141">
        <ele>49.593</ele>
        <time>2020-07-07T12:04:29Z</time>
      </trkpt>
      <trkpt lat="53.01105" lon="7.01439">
        <ele>49.956</ele>
        <time>2020-07-07T12:04:35Z</time>
      </trkpt>
      <trkpt lat="53.01124" lon="7.01468">
        <ele>50.998</ele>
        <time>2020-07-07T12:04:41Z</time>
      </trkpt>
      <trkpt lat="53.01143" lon="7.01488">
        <ele>51.775</ele>
        <time>2020-07-07T12:04:46Z</time>
      </trkpt>
      <trkpt lat="53.01164" lon="7.01507">
        <ele>52.082</ele>
        <time>2020-07-07T12:04:52Z</time>
      </trkpt>
      <trkpt lat="53.0118" lon="7.01526">
        <ele>52.6</ele>
        <time>2020-07-07T12:04:58Z</time>
      </trkpt>
      <trkpt lat="53.01175" lon="7.01565">
        <ele>52.774</ele>
        <time>2020-07-07T12:05:04Z</time>
      </trkpt>
      <trkpt lat="53.01174" lon="7.01597">
        <ele>54.519</ele>
        <time>2020-07-07T12:05:09Z</time>
      </trkpt>
      <trkpt lat="53.01177" lon="7.01631">
        <ele>56.835</ele>
        <time>2020-07-07T12:05:15Z</time>
      </trkpt>
      <trkpt lat="53.01182" lon="7.01668">
        <ele>56.31</ele>
        <time>2020-07-07T12:05:21Z</time>
      </trkpt>
      <trkpt lat="53.01195" lon="7.01708">
        <ele>54.328</ele>
        <time>2020-07-07T12:05:27Z</time>
      </trkpt>
      <trkpt lat="53.01207" lon="7.0174">
        <ele>57.161</ele>
        <time>2020-07-07T12:05:32Z</time>
      </trkpt>
      <trkpt lat="53.01225" lon="7.0177">
        <ele>56.203</ele>
        <time>2020-07-07T12:05:38Z</time>
      </trkpt>
      <trkpt lat="53.01242" lon="7.018">
        <ele>54.79</ele>
        <time>2020-07-07T12:05:43Z</time>
      </trkpt>
      <trkpt lat="53.01256" lon="7.01833">
        <ele>53.49</ele>
        <time>2020-07-07T12:05:48Z</time>
      </trkpt>
      <trkpt lat="53.01269" lon="7.01869">
        <ele>52.435</ele>
        <time>2020-07-07T12:05:53Z</time>
      </trkpt>
      <trkpt lat="53.0128" lon="7.01903">
        <ele>51.432</ele>
        <time>2020-07-07T12:05:58Z</time>
      </trkpt>
      <trkpt lat="53.01293" lon="7.01943">
        <ele>50.695</ele>
        <time>2020-07-07T12:06:04Z</time>
      </trkpt>
      <trkpt lat="53.01304" lon="7.01979">
        <ele>50.742</ele>
        <time>2020-07-07T12:06:09Z</time>
      </trkpt>
      <trkpt lat="53.01315" lon="7.02013">
        <ele>50.301</ele>
        <time>2020-07-07T12:06:14Z</time>
      </trkpt>
      <trkpt lat="53.01328" lon="7.02053">
        <ele>50.122</ele>
        <time>2020-07-07T12:06:20Z</time>
      </trkpt>
      <trkpt lat="53.01339" lon="7.02088">
        <ele>49.711</ele>
        <time>2020-07-07T12:06:25Z</time>
      </trkpt>
      <trkpt lat="53.0135" lon="7.02124">
        <ele>49.462</ele>
        <time>2020-07-07T12:06:30Z</time>
      </trkpt>
      <trkpt lat="53.01361" lon="7.0216">
        <ele>48.471</ele>
        <time>2020-07-07T12:06:35Z</time>
      </trkpt>
      <trkpt lat="53.01374" lon="7.02201">
        <ele>47.647</ele>
        <time>2020-07-07T12:06:41Z</time>
      </trkpt>
      <trkpt lat="53.01385" lon="7.02233">
        <ele>47.838</ele>
        <time>2020-07-07T12:06:46Z</time>
      </trkpt>
      <trkpt lat="53.01398" lon="7.02271">
        <ele>47.736</ele>
        <time>2020-07-07T12:06:52Z</time>
      </trkpt>
      <trkpt lat="53.01411" lon="7.02312">
        <ele>47.404</ele>
        <time>2020-07-07T12:06:58Z</time>
      </trkpt>
      <trkpt lat="53.01422" lon="7.02345">
        <ele>47.647</ele>
        <time>2020-07-07T12:07:03Z</time>
      </trkpt>
      <trkpt lat="53.01433" lon="7.02385">
        <ele>48.278</ele>
        <time>2020-07-07T12:07:09Z</time>
      </trkpt>
      <trkpt lat="53.01447" lon="7.02428">
        <ele>48.629</ele>
        <time>2020-07-07T12:07:15Z</time>
      </trkpt>
      <trkpt lat="53.01459" lon="7.02462">
        <ele>48.912</ele>
        <time>2020-07-07T12:07:20Z</time>
      </trkpt>
      <trkpt lat="53.01471" lon="7.02499">
        <ele>49.164</ele>
        <time>2020-07-07T12:07:26Z</time>
      </trkpt>
      <trkpt lat="53.01482" lon="7.02536">
        <ele>49.341</ele>
        <time>2020-07-07T12:07:32Z</time>
      </trkpt>
      <trkpt lat="53.01491" lon="7.02567">
        <ele>49.714</ele>
        <time>2020-07-07T12:07:37Z</time>
      </trkpt>
      <trkpt lat="53.01502" lon="7.02598">
        <ele>49.583</ele>
        <time>2020-07-07T12:07:42Z</time>
      </trkpt>
      <trkpt lat="53.01516" lon="7.02635">
        <ele>49.144</ele>
        <time>2020-07-07T12:07:48Z</time>
      </trkpt>
      <trkpt lat="53.01529" lon="7.02666">
        <ele>48.476</ele>
        <time>2020-07-07T12:07:53Z</time>
      </trkpt>
      <trkpt lat="53.01543" lon="7.02693">
        <ele>48.154</ele>
        <time>2020-07-07T12:07:58Z</time>
      </trkpt>
      <trkpt lat="53.01559" lon="7.02726">
        <ele>47.923</ele>
        <time>2020-07-07T12:08:04Z</time>
      </trkpt>
      <trkpt lat="53.01572" lon="7.02752">
        <ele>47.919</ele>
        <time>2020-07-07T12:08:09Z</time>
      </trkpt>
      <trkpt lat="53.01583" lon="7.02773">
        <ele>47.656</ele>
        <time>2020-07-07T12:08:15Z</time>
      </trkpt>
      <trkpt lat="53.01583" lon="7.02773">
        <ele>47.656</ele>
        <time>2020-07-07T12:08:21Z</time>
      </trkpt>
      <trkpt lat="53.01583" lon="7.02773">
        <ele>47.656</ele>
        <time>2020-07-07T12:08:26Z</time>
      </trkpt>
      <trkpt lat="53.01583" lon="7.02773">
        <ele>47.656</ele>
        <time>2020-07-07T12:08:32Z</time>
      </trkpt>
      <trkpt lat="53.01583" lon="7.02773">
        <ele>47.656</ele>
        <time>2020-07-07T12:08:37Z</time>
      </trkpt>
      <trkpt lat="53.01583" lon="7.02773">
        <ele>47.656</ele>
        <time>2020-07-07T12:08:43Z</time>
      </trkpt>
      <trkpt lat="53.01583" lon="7.02773">
        <ele>47.656</ele>
        <time>2020-07-07T12:08:49Z</time>
      </trkpt>
      <trkpt lat="53.01583" lon="7.02773">
        <ele>47.656</ele>
        <time>2020-07-07T12:08:55Z</time>
      </trkpt>
      <trkpt lat="53.01583" lon="7.02773">
        <ele>47.656</ele>
        <time>2020-07-07T12:09:01Z</time>
      </trkpt>
      <trkpt lat="53.01583" lon="7.02773">
        <ele>47.656</ele>
        <time>2020-07-07T12:09:06Z</time>
      </trkpt>
      <trkpt lat="53.01583" lon="7.02773">
        <ele>47.656</ele>
        <time>2020-07-07T12:09:12Z</time>
      </trkpt>
      <trkpt lat="53.01583" lon="7.02773">
        <ele>47.656</ele>
        <time>2020-07-07T12:09:17Z</time>
      </trkpt>
      <trkpt lat="53.01583" lon="7.02773">
        <ele>47.656</ele>
        <time>2020-07-07T12:09:22Z</time>
      </trkpt>
      <trkpt lat="53.01583" lon="7.02773">
        <ele>47.656</ele>
        <time>2020-07-07T12:09:28Z</time>
      </trkpt>
      <trkpt lat="53.01583" lon="7.02773">
        <ele>47.656</ele>
        <time>2020-07-07T12:09:33Z</time>
      </trkpt>
      <trkpt lat="53.01583" lon="7.02773">
        <ele>47.656</ele>
        <time>2020-07-07T12:09:38Z</time>
      </trkpt>
      <trkpt lat="53.01583" lon="7.02773">
        <ele>47.656</ele>
        <time>2020-07-07T12:09:44Z</time>
      </trkpt>
      <trkpt lat="53.01583" lon="7.02773">
        <ele>47.656</ele>
        <time>2020-07-07T12:09:49Z</time>
      </trkpt>
      <trkpt lat="53.01583" lon="7.02773">
        <ele>47.656</ele>
        <time>2020-07-07T12:09:55Z</time>
      </trkpt>
      <trkpt lat="53.01583" lon="7.02773">
        <ele>47.656</ele>
        <time>2020-07-07T12:10:00Z</time>
      </trkpt>
      <trkpt lat="53.01583" lon="7.02773">
        <ele>47.656</ele>
        <time>2020-07-07T12:10:05Z</time>
      </trkpt>
      <trkpt lat="53.01583" lon="7.02773">
        <ele>47.656</ele>
        <time>2020-07-07T12:10:11Z</time>
      </trkpt>
      <trkpt lat="53.01583" lon="7.02773">
        <ele>47.656</ele>
        <time>2020-07-07T12:10:16Z</time>
      </trkpt>
      <trkpt lat="53.01583" lon="7.02773">
        <ele>47.656</ele>
        <time>2020-07-07T12:10:21Z</time>
      </trkpt>
      <trkpt lat="53.01583" lon="7.02773">
        <ele>47.656</ele>
        <time>2020-07-07T12:10:27Z</time>
      </trkpt>
      <trkpt lat="53.01583" lon="7.02773">
        <ele>47.656</ele>
        <time>2020-07-07T12:10:32Z</time>
      </trkpt>
      <trkpt lat="53.01583" lon="7.02773">
        <ele>47.656</ele>
        <time>2020-07-07T12:10:38Z</time>
      </trkpt>
      <trkpt lat="53.01583" lon="7.02773">
        <ele>47.656</ele>
        <time>2020-07-07T12:10:43Z</time>
      </trkpt>
      <trkpt lat="53.01583" lon="7.02773">
        <ele>47.656</ele>
        <time>2020-07-07T12:10:49Z</time>
      </trkpt>
      <trkpt lat="53.01583" lon="7.02773">
        <ele>47.656</ele>
        <time>2020-07-07T12:10:54Z</time>
      </trkpt>
      <trkpt lat="53.01583" lon="7.02773">
        <ele>47.656</ele>
        <time>2020-07-07T12:11:00Z</time>
      </trkpt>
      <trkpt lat="53.01583" lon="7.02773">
        <ele>47.656</ele>
        <time>2020-07-07T12:11:05Z</time>
      </trkpt>
      <trkpt lat="53.01583" lon="7.02773">
        <ele>47.656</ele>
        <time>2020-07-07T12:11:11Z</time>
      </trkpt>
      <trkpt lat="53.01583" lon="7.02773">
        <ele>47.656</ele>
        <time>2020-07-07T12:11:17Z</time>
      </trkpt>
      <trkpt lat="53.01583" lon="7.02773">
        <ele>47.656</ele>
        <time>2020-07-07T12:11:23Z</time>
      </trkpt>
      <trkpt lat="53.01583" lon="7.02773">
        <ele>47.656</ele>
        <time>2020-07-07T12:11:28Z</time>
      </trkpt>
      <trkpt lat="53.01583" lon="7.02773">
        <ele>47.656</ele>
        <time>2020-07-07T12:11:34Z</time>
      </trkpt>
      <trkpt lat="53.01583" lon="7.02773">
        <ele>47.656</ele>
        <time>2020-07-07T12:11:39Z</time>
      </trkpt>
      <trkpt lat="53.01583" lon="7.02773">
        <ele>47.656</ele>
        <time>2020-07-07T12:11:45Z</time>
      </trkpt>
      <trkpt lat="53.01583" lon="7.02773">
        <ele>47.656</ele>
        <time>2020-07-07T12:11:51Z</time>
      </trkpt>
      <trkpt lat="53.01583" lon="7.02773">
        <ele>47.656</ele>
        <time>2020-07-07T12:11:56Z</time>
      </trkpt>
      <trkpt lat="53.01583" lon="7.02773">
        <ele>47.656</ele>
        <time>2020-07-07T12:12:01Z</time>
      </trkpt>
      <trkpt lat="53.01583" lon="7.02773">
        <ele>47.656</ele>
        <time>2020-07-07T12:12:06Z</time>
      </trkpt>
      <trkpt lat="53.01583" lon="7.02773">
        <ele>47.656</ele>
        <time>2020-07-07T12:12:11Z</time>
      </trkpt>
      <trkpt lat="53.01583" lon="7.02773">
        <ele>47.656</ele>
        <time>2020-07-07T12:12:17Z</time>
      </trkpt>
      <trkpt lat="53.01583" lon="7.02773">
        <ele>47.656</ele>
        <time>2020-07-07T12:12:22Z</time>
      </trkpt>
      <trkpt lat="53.01583" lon="7.02773">
        <ele>47.656</ele>
        <time>2020-07-07T12:12:28Z</time>
      </trkpt>
      <trkpt lat="53.01583" lon="7.02773">
        <ele>47.656</ele>
        <time>2020-07-07T12:12:33Z</time>
      </trkpt>
      <trkpt lat="53.01583" lon="7.02773">
        <ele>47.656</ele>
        <time>2020-07-07T12:12:39Z</time>
      </trkpt>
      <trkpt lat="53.01583" lon="7.02773">
        <ele>47.656</ele>
        <time>2020-07-07T12:12:44Z</time>
      </trkpt>
      <trkpt lat="53.01583" lon="7.02773">
        <ele>47.656</ele>
        <time>2020-07-07T12:12:50Z</time>
      </trkpt>
      <trkpt lat="53.01583" lon="7.02773">
        <ele>47.656</ele>
        <time>2020-07-07T12:12:55Z</time>
      </trkpt>
      <trkpt lat="53.01583" lon="7.02773">
        <ele>47.656</ele>
        <time>2020-07-07T12:13:01Z</time>
      </trkpt>
      <trkpt lat="53.01583" lon="7.02773">
        <ele>47.656</ele>
        <time>2020-07-07T12:13:06Z</time>
      </trkpt>
      <trkpt lat="53.01583" lon="7.02773">
        <ele>47.656</ele>
        <time>2020-07-07T12:13:12Z</time>
      </trkpt>
      <trkpt lat="53.01583" lon="7.02773">
        <ele>47.656</ele>
        <time>2020-07-07T12:13:17Z</time>
      </trkpt>
      <trkpt lat="53.01583" lon="7.02773">
        <ele>47.656</ele>
        <time>2020-07-07T12:13:23Z</time>
      </trkpt>
      <trkpt lat="53.01583" lon="7.02773">
        <ele>47.656</ele>
        <time>2020-07-07T12:13:28Z</time>
      </trkpt>
      <trkpt lat="53.01583" lon="7.02773">
        <ele>47.656</ele>
        <time>2020-07-07T12:13:34Z</time>
      </trkpt>
      <trkpt lat="53.01583" lon="7.02773">
        <ele>47.656</ele>
        <time>2020-07-07T12:13:40Z</time>
      </trkpt>
      <trkpt lat="53.01583" lon="7.02773">
        <ele>47.656</ele>
        <time>2020-07-07T12:13:46Z</time>
      </trkpt>
      <trkpt lat="53.01583" lon="7.02773">
        <ele>47.656</ele>
        <time>2020-07-07T12:13:52Z</time>
      </trkpt>
      <trkpt lat="53.01583" lon="7.02773">
        <ele>47.656</ele>
        <time>2020-07-07T12:13:57Z</time>
      </trkpt>
      <trkpt lat="53.01583" lon="7.02773">
        <ele>47.656</ele>
        <time>2020-07-07T12:14:03Z</time>
      </trkpt>
      <trkpt lat="53.01583" lon="7.02773">
        <ele>47.656</ele>
        <time>2020-07-07T12:14:08Z</time>
      </trkpt>
      <trkpt lat="53.01583" lon="7.02773">
        <ele>47.656</ele>
        <time>2020-07-07T12:14:13Z</time>
      </trkpt>
      <trkpt lat="53.01583" lon="7.02773">
        <ele>47.656</ele>
        <time>2020-07-07T12:14:19Z</time>
      </trkpt>
      <trkpt lat="53.01583" lon="7.02773">
        <ele>47.656</ele>
        <time>2020-07-07T12:14:24Z</time>
      </trkpt>
      <trkpt lat="53.01583" lon="7.02773">
        <ele>47.656</ele>
        <time>2020-07-07T12:14:30Z</time>
      </trkpt>
      <trkpt lat="53.01583" lon="7.02773">
        <ele>47.656</ele>
        <time>2020-07-07T12:14:35Z</time>
      </trkpt>
      <trkpt lat="53.01583" lon="7.02773">
        <ele>47.656</ele>
        <time>2020-07-07T12:14:41Z</time>
      </trkpt>
      <trkpt lat="53.01585" lon="7.02778">
        <ele>47.876</ele>
        <time>2020-07-07T12:14:46Z</time>
      </trkpt>
      <trkpt lat="53.01594" lon="7.02793">
        <ele>48.166</ele>
        <time>2020-07-07T12:14:52Z</time>
      </trkpt>
      <trkpt lat="53.01606" lon="7.02815">
        <ele>48.568</ele>
        <time>2020-07-07T12:14:58Z</time>
      </trkpt>
      <trkpt lat="53.01619" lon="7.0284">
        <ele>48.446</ele>
        <time>2020-07-07T12:15:04Z</time>
      </trkpt>
      <trkpt lat="53.01632" lon="7.02869">
        <ele>50.361</ele>
        <time>2020-07-07T12:15:10Z</time>
      </trkpt>
      <trkpt lat="53.01644" lon="7.02894">
        <ele>50.901</ele>
        <time>2020-07-07T12:15:15Z</time>
      </trkpt>
      <trkpt lat="53.01658" lon="7.02928">
        <ele>51.326</ele>
        <time>2020-07-07T12:15:21Z</time>
      </trkpt>
      <trkpt lat="53.01672" lon="7.02964">
        <ele>50.909</ele>
        <time>2020-07-07T12:15:27Z</time>
      </trkpt>
      <trkpt lat="53.01682" lon="7.02995">
        <ele>51.212</ele>
        <time>2020-07-07T12:15:32Z</time>
      </trkpt>
      <trkpt lat="53.01691" lon="7.03025">
        <ele>51.105</ele>
        <time>2020-07-07T12:15:37Z</time>
      </trkpt>
      <trkpt lat="53.017" lon="7.03064">
        <ele>50.211</ele>
        <time>2020-07-07T12:15:43Z</time>
      </trkpt>
      <trkpt lat="53.01705" lon="7.031">
        <ele>49.184</ele>
        <time>2020-07-07T12:15:48Z</time>
      </trkpt>
      <trkpt lat="53.01708" lon="7.03132">
        <ele>48.457</ele>
        <time>2020-07-07T12:15:53Z</time>
      </trkpt>
      <trkpt lat="53.01709" lon="7.03151">
        <ele>47.649</ele>
        <time>2020-07-07T12:15:58Z</time>
      </trkpt>
      <trkpt lat="53.0171" lon="7.03171">
        <ele>47.222</ele>
        <time>2020-07-07T12:16:04Z</time>
      </trkpt>
      <trkpt lat="53.01714" lon="7.03192">
        <ele>46.588</ele>
        <time>2020-07-07T12:16:09Z</time>
      </trkpt>
      <trkpt lat="53.01717" lon="7.03225">
        <ele>45.449</ele>
        <time>2020-07-07T12:16:15Z</time>
      </trkpt>
      <trkpt lat="53.01721" lon="7.03253">
        <ele>45.015</ele>
        <time>2020-07-07T12:16:20Z</time>
      </trkpt>
      <trkpt lat="53.01723" lon="7.03275">
        <ele>44.813</ele>
        <time>2020-07-07T12:16:25Z</time>
      </trkpt>
      <trkpt lat="53.01727" lon="7.03303">
        <ele>44.767</ele>
        <time>2020-07-07T12:16:31Z</time>
      </trkpt>
      <trkpt lat="53.01732" lon="7.03339">
        <ele>45.05</ele>
        <time>2020-07-07T12:16:37Z</time>
      </trkpt>
      <trkpt lat="53.0174" lon="7.03381">
        <ele>45.471</ele>
        <time>2020-07-07T12:16:43Z</time>
      </trkpt>
      <trkpt lat="53.01746" lon="7.03413">
        <ele>45.305</ele>
        <time>2020-07-07T12:16:48Z</time>
      </trkpt>
      <trkpt lat="53.01754" lon="7.03445">
        <ele>45.483</ele>
        <time>2020-07-07T12:16:53Z</time>
      </trkpt>
      <trkpt lat="53.01764" lon="7.03486">
        <ele>45.058</ele>
        <time>2020-07-07T12:16:59Z</time>
      </trkpt>
      <trkpt lat="53.01777" lon="7.03529">
        <ele>45.211</ele>
        <time>2020-07-07T12:17:05Z</time>
      </trkpt>
      <trkpt lat="53.01791" lon="7.03571">
        <ele>45.395</ele>
        <time>2020-07-07T12:17:11Z</time>
      </trkpt>
      <trkpt lat="53.01804" lon="7.03611">
        <ele>45.72</ele>
        <time>2020-07-07T12:17:17Z</time>
      </trkpt>
      <trkpt lat="53.01819" lon="7.03649">
        <ele>46.244</ele>
        <time>2020-07-07T12:17:23Z</time>
      </trkpt>
      <trkpt lat="53.01832" lon="7.03685">
        <ele>46.885</ele>
        <time>2020-07-07T12:17:29Z</time>
      </trkpt>
      <trkpt lat="53.01848" lon="7.03721">
        <ele>46.766</ele>
        <time>2020-07-07T12:17:35Z</time>
      </trkpt>
      <trkpt lat="53.01865" lon="7.03759">
        <ele>45.869</ele>
        <time>2020-07-07T12:17:41Z</time>
      </trkpt>
      <trkpt lat="53.01879" lon="7.0379">
        <ele>45.904</ele>
        <time>2020-07-07T12:17:46Z</time>
      </trkpt>
      <trkpt lat="53.01896" lon="7.03827">
        <ele>45.878</ele>
        <time>2020-07-07T12:17:52Z</time>
      </trkpt>
      <trkpt lat="53.01913" lon="7.0386">
        <ele>45.551</ele>
        <time>2020-07-07T12:17:57Z</time>
      </trkpt>
      <trkpt lat="53.01934" lon="7.03898">
        <ele>45.671</ele>
        <time>2020-07-07T12:18:03Z</time>
      </trkpt>
      <trkpt lat="53.01955" lon="7.03936">
        <ele>45.636</ele>
        <time>2020-07-07T12:18:09Z</time>
      </trkpt>
      <trkpt lat="53.01976" lon="7.03974">
        <ele>45.294</ele>
        <time>2020-07-07T12:18:15Z</time>
      </trkpt>
      <trkpt lat="53.01992" lon="7.04">
        <ele>45.381</ele>
        <time>2020-07-07T12:18:20Z</time>
      </trkpt>
      <trkpt lat="53.02009" lon="7.04025">
        <ele>45.791</ele>
        <time>2020-07-07T12:18:25Z</time>
      </trkpt>
      <trkpt lat="53.02026" lon="7.04051">
        <ele>46.363</ele>
        <time>2020-07-07T12:18:30Z</time>
      </trkpt>
      <trkpt lat="53.02047" lon="7.04082">
        <ele>45.933</ele>
        <time>2020-07-07T12:18:36Z</time>
      </trkpt>
      <trkpt lat="53.02069" lon="7.04114">
        <ele>45.394</ele>
        <time>2020-07-07T12:18:42Z</time>
      </trkpt>
      <trkpt lat="53.02087" lon="7.0414">
        <ele>45.005</ele>
        <time>2020-07-07T12:18:47Z</time>
      </trkpt>
      <trkpt lat="53.02105" lon="7.04164">
        <ele>45.327</ele>
        <time>2020-07-07T12:18:52Z</time>
      </trkpt>
      <trkpt lat="53.02125" lon="7.04192">
        <ele>45.471</ele>
        <time>2020-07-07T12:18:58Z</time>
      </trkpt>
      <trkpt lat="53.02147" lon="7.04218">
        <ele>45.675</ele>
        <time>2020-07-07T12:19:04Z</time>
      </trkpt>
      <trkpt lat="53.02166" lon="7.04239">
        <ele>46.408</ele>
        <time>2020-07-07T12:19:09Z</time>
      </trkpt>
      <trkpt lat="53.02187" lon="7.04263">
        <ele>47.007</ele>
        <time>2020-07-07T12:19:15Z</time>
      </trkpt>
      <trkpt lat="53.0221" lon="7.04288">
        <ele>47.023</ele>
        <time>2020-07-07T12:19:21Z</time>
      </trkpt>
      <trkpt lat="53.02231" lon="7.04318">
        <ele>46.908</ele>
        <time>2020-07-07T12:19:27Z</time>
      </trkpt>
      <trkpt lat="53.02247" lon="7.04341">
        <ele>47.13</ele>
        <time>2020-07-07T12:19:32Z</time>
      </trkpt>
      <trkpt lat="53.02267" lon="7.04357">
        <ele>47.186</ele>
        <time>2020-07-07T12:19:37Z</time>
      </trkpt>
      <trkpt lat="53.02291" lon="7.04371">
        <ele>46.953</ele>
        <time>2020-07-07T12:19:43Z</time>
      </trkpt>
      <trkpt lat="53.02313" lon="7.04383">
        <ele>47.043</ele>
        <time>2020-07-07T12:19:49Z</time>
      </trkpt>
      <trkpt lat="53.02337" lon="7.04399">
        <ele>47.064</ele>
        <time>2020-07-07T12:19:55Z</time>
      </trkpt>
      <trkpt lat="53.02357" lon="7.04414">
        <ele>46.87</ele>
        <time>2020-07-07T12:20:00Z</time>
      </trkpt>
      <trkpt lat="53.02377" lon="7.04426">
        <ele>46.98</ele>
        <time>2020-07-07T12:20:05Z</time>
      </trkpt>
      <trkpt lat="53.02397" lon="7.04439">
        <ele>46.894</ele>
        <time>2020-07-07T12:20:10Z</time>
      </trkpt>
      <trkpt lat="53.02417" lon="7.04451">
        <ele>46.776</ele>
        <time>2020-07-07T12:20:15Z</time>
      </trkpt>
      <trkpt lat="53.02441" lon="7.04467">
        <ele>46.762</ele>
        <time>2020-07-07T12:20:21Z</time>
      </trkpt>
      <trkpt lat="53.02461" lon="7.04479">
        <ele>46.737</ele>
        <time>2020-07-07T12:20:26Z</time>
      </trkpt>
      <trkpt lat="53.02485" lon="7.04493">
        <ele>46.477</ele>
        <time>2020-07-07T12:20:32Z</time>
      </trkpt>
      <trkpt lat="53.0251" lon="7.04508">
        <ele>46.272</ele>
        <time>2020-07-07T12:20:38Z</time>
      </trkpt>
      <trkpt lat="53.02533" lon="7.04529">
        <ele>46.119</ele>
        <time>2020-07-07T12:20:44Z</time>
      </trkpt>
      <trkpt lat="53.02554" lon="7.04543">
        <ele>46.364</ele>
        <time>2020-07-07T12:20:49Z</time>
      </trkpt>
      <trkpt lat="53.02579" lon="7.04553">
        <ele>46.561</ele>
        <time>2020-07-07T12:20:55Z</time>
      </trkpt>
      <trkpt lat="53.02601" lon="7.04561">
        <ele>46.566</ele>
        <time>2020-07-07T12:21:00Z</time>
      </trkpt>
      <trkpt lat="53.02626" lon="7.04567">
        <ele>46.333</ele>
        <time>2020-07-07T12:21:06Z</time>
      </trkpt>
      <trkpt lat="53.0265" lon="7.04569">
        <ele>46.423</ele>
        <time>2020-07-07T12:21:12Z</time>
      </trkpt>
      <trkpt lat="53.02675" lon="7.04572">
        <ele>46.211</ele>
        <time>2020-07-07T12:21:18Z</time>
      </trkpt>
      <trkpt lat="53.02695" lon="7.04574">
        <ele>46.022</ele>
        <time>2020-07-07T12:21:23Z</time>
      </trkpt>
      <trkpt lat="53.02721" lon="7.04576">
        <ele>46.243</ele>
        <time>2020-07-07T12:21:29Z</time>
      </trkpt>
      <trkpt lat="53.02745" lon="7.0458">
        <ele>45.934</ele>
        <time>2020-07-07T12:21:35Z</time>
      </trkpt>
      <trkpt lat="53.02764" lon="7.04591">
        <ele>45.719</ele>
        <time>2020-07-07T12:21:40Z</time>
      </trkpt>
      <trkpt lat="53.02782" lon="7.04608">
        <ele>45.862</ele>
        <time>2020-07-07T12:21:45Z</time>
      </trkpt>
      <trkpt lat="53.02804" lon="7.04631">
        <ele>45.963</ele>
        <time>2020-07-07T12:21:51Z</time>
      </trkpt>
      <trkpt lat="53.02825" lon="7.04653">
        <ele>45.813</ele>
        <time>2020-07-07T12:21:57Z</time>
      </trkpt>
      <trkpt lat="53.02846" lon="7.04674">
        <ele>45.817</ele>
        <time>2020-07-07T12:22:03Z</time>
      </trkpt>
      <trkpt lat="53.02867" lon="7.04692">
        <ele>46.099</ele>
        <time>2020-07-07T12:22:09Z</time>
      </trkpt>
      <trkpt lat="53.02883" lon="7.04708">
        <ele>46.325</ele>
        <time>2020-07-07T12:22:14Z</time>
      </trkpt>
      <trkpt lat="53.02901" lon="7.04723">
        <ele>46.534</ele>
        <time>2020-07-07T12:22:19Z</time>
      </trkpt>
      <trkpt lat="53.02921" lon="7.0474">
        <ele>46.864</ele>
        <time>2020-07-07T12:22:25Z</time>
      </trkpt>
      <trkpt lat="53.02937" lon="7.04757">
        <ele>47.93</ele>
        <time>2020-07-07T12:22:30Z</time>
      </trkpt>
      <trkpt lat="53.02955" lon="7.04777">
        <ele>48.722</ele>
        <time>2020-07-07T12:22:36Z</time>
      </trkpt>
      <trkpt lat="53.02974" lon="7.04794">
        <ele>49.314</ele>
        <time>2020-07-07T12:22:42Z</time>
      </trkpt>
      <trkpt lat="53.02994" lon="7.04814">
        <ele>49.36</ele>
        <time>2020-07-07T12:22:48Z</time>
      </trkpt>
      <trkpt lat="53.0301" lon="7.04829">
        <ele>49.395</ele>
        <time>2020-07-07T12:22:53Z</time>
      </trkpt>
      <trkpt lat="53.03029" lon="7.04849">
        <ele>49.278</ele>
        <time>2020-07-07T12:22:59Z</time>
      </trkpt>
      <trkpt lat="53.03052" lon="7.04854">
        <ele>50.325</ele>
        <time>2020-07-07T12:23:05Z</time>
      </trkpt>
      <trkpt lat="53.03075" lon="7.04845">
        <ele>50.733</ele>
        <time>2020-07-07T12:23:11Z</time>
      </trkpt>
      <trkpt lat="53.03093" lon="7.04836">
        <ele>51.539</ele>
        <time>2020-07-07T12:23:16Z</time>
      </trkpt>
      <trkpt lat="53.03115" lon="7.04825">
        <ele>53.429</ele>
        <time>2020-07-07T12:23:22Z</time>
      </trkpt>
      <trkpt lat="53.03137" lon="7.04815">
        <ele>55.308</ele>
        <time>2020-07-07T12:23:28Z</time>
      </trkpt>
      <trkpt lat="53.03158" lon="7.04803">
        <ele>55.729</ele>
        <time>2020-07-07T12:23:34Z</time>
      </trkpt>
      <trkpt lat="53.03175" lon="7.04793">
        <ele>56.295</ele>
        <time>2020-07-07T12:23:39Z</time>
      </trkpt>
      <trkpt lat="53.03195" lon="7.04781">
        <ele>55.953</ele>
        <time>2020-07-07T12:23:45Z</time>
      </trkpt>
      <trkpt lat="53.03214" lon="7.04771">
        <ele>56.504</ele>
        <time>2020-07-07T12:23:51Z</time>
      </trkpt>
      <trkpt lat="53.03218" lon="7.04788">
        <ele>58.302</ele>
        <time>2020-07-07T12:23:57Z</time>
      </trkpt>
      <trkpt lat="53.03207" lon="7.04814">
        <ele>57.211</ele>
        <time>2020-07-07T12:24:03Z</time>
      </trkpt>
      <trkpt lat="53.03201" lon="7.04848">
        <ele>55.627</ele>
        <time>2020-07-07T12:24:09Z</time>
      </trkpt>
      <trkpt lat="53.03189" lon="7.0487">
        <ele>53.943</ele>
        <time>2020-07-07T12:24:14Z</time>
      </trkpt>
      <trkpt lat="53.03177" lon="7.04905">
        <ele>52.076</ele>
        <time>2020-07-07T12:24:20Z</time>
      </trkpt>
      <trkpt lat="53.03171" lon="7.04929">
        <ele>51.021</ele>
        <time>2020-07-07T12:24:25Z</time>
      </trkpt>
      <trkpt lat="53.03161" lon="7.04944">
        <ele>51.353</ele>
        <time>2020-07-07T12:24:31Z</time>
      </trkpt>
      <trkpt lat="53.03156" lon="7.0495">
        <ele>50.311</ele>
        <time>2020-07-07T12:24:36Z</time>
      </trkpt>
      <trkpt lat="53.03156" lon="7.0495">
        <ele>50.311</ele>
        <time>2020-07-07T12:24:42Z</time>
      </trkpt>
      <trkpt lat="53.03156" lon="7.0495">
        <ele>50.311</ele>
        <time>2020-07-07T12:24:48Z</time>
      </trkpt>
      <trkpt lat="53.03156" lon="7.0495">
        <ele>50.311</ele>
        <time>2020-07-07T12:24:54Z</time>
      </trkpt>
      <trkpt lat="53.03156" lon="7.0495">
        <ele>50.311</ele>
        <time>2020-07-07T12:25:00Z</time>
      </trkpt>
      <trkpt lat="53.03156" lon="7.0495">
        <ele>50.311</ele>
        <time>2020-07-07T12:25:06Z</time>
      </trkpt>
      <trkpt lat="53.03156" lon="7.0495">
        <ele>50.311</ele>
        <time>2020-07-07T12:25:11Z</time>
      </trkpt>
      <trkpt lat="53.03156" lon="7.0495">
        <ele>50.311</ele>
        <time>2020-07-07T12:25:16Z</time>
      </trkpt>
      <trkpt lat="53.03156" lon="7.0495">
        <ele>50.311</ele>
        <time>2020-07-07T12:25:22Z</time>
      </trkpt>
      <trkpt lat="53.03156" lon="7.0495">
        <ele>50.311</ele>
        <time>2020-07-07T12:25:27Z</time>
      </trkpt>
      <trkpt lat="53.03156" lon="7.0495">
        <ele>50.311</ele>
        <time>2020-07-07T12:25:33Z</time>
      </trkpt>
      <trkpt lat="53.03156" lon="7.0495">
        <ele>50.311</ele>
        <time>2020-07-07T12:25:39Z</time>
      </trkpt>
      <trkpt lat="53.03156" lon="7.0495">
        <ele>50.311</ele>
        <time>2020-07-07T12:25:45Z</time>
      </trkpt>
      <trkpt lat="53.03156" lon="7.0495">
        <ele>50.311</ele>
        <time>2020-07-07T12:25:50Z</time>
      </trkpt>
      <trkpt lat="53.03156" lon="7.0495">
        <ele>50.311</ele>
        <time>2020-07-07T12:25:55Z</time>
      </trkpt>
      <trkpt lat="53.03156" lon="7.0495">
        <ele>50.311</ele>
        <time>2020-07-07T12:26:01Z</time>
      </trkpt>
      <trkpt lat="53.03156" lon="7.0495">
        <ele>50.311</ele>
        <time>2020-07-07T12:26:06Z</time>
      </trkpt>
      <trkpt lat="53.03156" lon="7.0495">
        <ele>50.311</ele>
        <time>2020-07-07T12:26:12Z</time>
      </trkpt>
      <trkpt lat="53.03156" lon="7.0495">
        <ele>50.311</ele>
        <time>2020-07-07T12:26:17Z</time>
      </trkpt>
      <trkpt lat="53.03156" lon="7.0495">
        <ele>50.311</ele>
        <time>2020-07-07T12:26:23Z</time>
      </trkpt>
      <trkpt lat="53.03156" lon="7.0495">
        <ele>50.311</ele>
        <time>2020-07-07T12:26:29Z</time>
      </trkpt>
      <trkpt lat="53.03156" lon="7.0495">
        <ele>50.311</ele>
        <time>2020-07-07T12:26:34Z</time>
      </trkpt>
      <trkpt lat="53.03156" lon="7.0495">
        <ele>50.311</ele>
        <time>2020-07-07T12:26:39Z</time>
      </trkpt>
      <trkpt lat="53.03156" lon="7.0495">
        <ele>50.311</ele>
        <time>2020-07-07T12:26:45Z</time>
      </trkpt>
      <trkpt lat="53.03156" lon="7.0495">
        <ele>50.311</ele>
        <time>2020-07-07T12:26:50Z</time>
      </trkpt>
      <trkpt lat="53.03156" lon="7.0495">
        <ele>50.311</ele>
        <time>2020-07-07T12:26:56Z</time>
      </trkpt>
      <trkpt lat="53.03156" lon="7.0495">
        <ele>50.311</ele>
        <time>2020-07-07T12:27:02Z</time>
      </trkpt>
      <trkpt lat="53.03156" lon="7.0495">
        <ele>50.311</ele>
        <time>2020-07-07T12:27:07Z</time>
      </trkpt>
      <trkpt lat="53.03154" lon="7.04954">
        <ele>49.56</ele>
        <time>2020-07-07T12:27:13Z</time>
      </trkpt>
      <trkpt lat="53.03167" lon="7.04964">
        <ele>52.214</ele>
        <time>2020-07-07T12:27:19Z</time>
      </trkpt>
      <trkpt lat="53.03182" lon="7.0497">
        <ele>53.045</ele>
        <time>2020-07-07T12:27:24Z</time>
      </trkpt>
      <trkpt lat="53.03198" lon="7.04988">
        <ele>52.201</ele>
        <time>2020-07-07T12:27:30Z</time>
      </trkpt>
      <trkpt lat="53.03208" lon="7.05001">
        <ele>51.641</ele>
        <time>2020-07-07T12:27:35Z</time>
      </trkpt>
      <trkpt lat="53.03224" lon="7.05018">
        <ele>52.647</ele>
        <time>2020-07-07T12:27:41Z</time>
      </trkpt>
      <trkpt lat="53.0324" lon="7.05039">
        <ele>53.442</ele>
        <time>2020-07-07T12:27:47Z</time>
      </trkpt>
      <trkpt lat="53.03253" lon="7.05055">
        <ele>52.201</ele>
        <time>2020-07-07T12:27:52Z</time>
      </trkpt>
      <trkpt lat="53.03269" lon="7.05073">
        <ele>51.12</ele>
        <time>2020-07-07T12:27:58Z</time>
      </trkpt>
      <trkpt lat="53.03285" lon="7.05091">
        <ele>49.398</ele>
        <time>2020-07-07T12:28:04Z</time>
      </trkpt>
      <trkpt lat="53.03302" lon="7.05111">
        <ele>49.139</ele>
        <time>2020-07-07T12:28:09Z</time>
      </trkpt>
      <trkpt lat="53.0332" lon="7.05135">
        <ele>48.74</ele>
        <time>2020-07-07T12:28:15Z</time>
      </trkpt>
      <trkpt lat="53.03334" lon="7.05157">
        <ele>49.853</ele>
        <time>2020-07-07T12:28:21Z</time>
      </trkpt>
      <trkpt lat="53.03347" lon="7.05179">
        <ele>50.37</ele>
        <time>2020-07-07T12:28:27Z</time>
      </trkpt>
      <trkpt lat="53.03357" lon="7.052">
        <ele>49.397</ele>
        <time>2020-07-07T12:28:32Z</time>
      </trkpt>
      <trkpt lat="53.0337" lon="7.05225">
        <ele>49.786</ele>
        <time>2020-07-07T12:28:37Z</time>
      </trkpt>
      <trkpt lat="53.03387" lon="7.05255">
        <ele>50.351</ele>
        <time>2020-07-07T12:28:43Z</time>
      </trkpt>
      <trkpt lat="53.03403" lon="7.05287">
        <ele>49.165</ele>
        <time>2020-07-07T12:28:49Z</time>
      </trkpt>
      <trkpt lat="53.03417" lon="7.05315">
        <ele>48.508</ele>
        <time>2020-07-07T12:28:54Z</time>
      </trkpt>
      <trkpt lat="53.03434" lon="7.05348">
        <ele>48.4</ele>
        <time>2020-07-07T12:29:00Z</time>
      </trkpt>
      <trkpt lat="53.0345" lon="7.05379">
        <ele>47.757</ele>
        <time>2020-07-07T12:29:06Z</time>
      </trkpt>
      <trkpt lat="53.03462" lon="7.05405">
        <ele>47.085</ele>
        <time>2020-07-07T12:29:11Z</time>
      </trkpt>
      <trkpt lat="53.03478" lon="7.05435">
        <ele>45.997</ele>
        <time>2020-07-07T12:29:17Z</time>
      </trkpt>
      <trkpt lat="53.03493" lon="7.05464">
        <ele>45.46</ele>
        <time>2020-07-07T12:29:23Z</time>
      </trkpt>
      <trkpt lat="53.03506" lon="7.05496">
        <ele>45.746</ele>
        <time>2020-07-07T12:29:29Z</time>
      </trkpt>
      <trkpt lat="53.03515" lon="7.05524">
        <ele>46.061</ele>
        <time>2020-07-07T12:29:34Z</time>
      </trkpt>
      <trkpt lat="53.03525" lon="7.05559">
        <ele>46.754</ele>
        <time>2020-07-07T12:29:40Z</time>
      </trkpt>
      <trkpt lat="53.03532" lon="7.05587">
        <ele>47.348</ele>
        <time>2020-07-07T12:29:45Z</time>
      </trkpt>
      <trkpt lat="53.03541" lon="7.05619">
        <ele>47.763</ele>
        <time>2020-07-07T12:29:51Z</time>
      </trkpt>
      <trkpt lat="53.0355" lon="7.05654">
        <ele>47.746</ele>
        <time>2020-07-07T12:29:57Z</time>
      </trkpt>
      <trkpt lat="53.03558" lon="7.05689">
        <ele>48.229</ele>
        <time>2020-07-07T12:30:03Z</time>
      </trkpt>
      <trkpt lat="53.03567" lon="7.05724">
        <ele>48.165</ele>
        <time>2020-07-07T12:30:09Z</time>
      </trkpt>
      <trkpt lat="53.0358" lon="7.0576">
        <ele>47.753</ele>
        <time>2020-07-07T12:30:15Z</time>
      </trkpt>
      <trkpt lat="53.03599" lon="7.05789">
        <ele>47.202</ele>
        <time>2020-07-07T12:30:21Z</time>
      </trkpt>
      <trkpt lat="53.03613" lon="7.05812">
        <ele>48.139</ele>
        <time>2020-07-07T12:30:26Z</time>
      </trkpt>
      <trkpt lat="53.03624" lon="7.05839">
        <ele>49.531</ele>
        <time>2020-07-07T12:30:32Z</time>
      </trkpt>
      <trkpt lat="53.03633" lon="7.05866">
        <ele>50.503</ele>
        <time>2020-07-07T12:30:38Z</time>
      </trkpt>
      <trkpt lat="53.03641" lon="7.0589">
        <ele>51.377</ele>
        <time>2020-07-07T12:30:43Z</time>
      </trkpt>
      <trkpt lat="53.0365" lon="7.05915">
        <ele>52.524</ele>
        <time>2020-07-07T12:30:48Z</time>
      </trkpt>
      <trkpt lat="53.0366" lon="7.05946">
        <ele>52.474</ele>
        <time>2020-07-07T12:30:54Z</time>
      </trkpt>
      <trkpt lat="53.03669" lon="7.05973">
        <ele>52.837</ele>
        <time>2020-07-07T12:30:59Z</time>
      </trkpt>
      <trkpt lat="53.03682" lon="7.0601">
        <ele>52.446</ele>
        <time>2020-07-07T12:31:05Z</time>
      </trkpt>
      <trkpt lat="53.03692" lon="7.06038">
        <ele>52.641</ele>
        <time>2020-07-07T12:31:10Z</time>
      </trkpt>
      <trkpt lat="53.03703" lon="7.06077">
        <ele>53.072</ele>
        <time>2020-07-07T12:31:16Z</time>
      </trkpt>
      <trkpt lat="53.0371" lon="7.06124">
        <ele>52.018</ele>
        <time>2020-07-07T12:31:22Z</time>
      </trkpt>
      <trkpt lat="53.03708" lon="7.06169">
        <ele>49.964</ele>
        <time>2020-07-07T12:31:28Z</time>
      </trkpt>
      <trkpt lat="53.03703" lon="7.0621">
        <ele>48.842</ele>
        <time>2020-07-07T12:31:34Z</time>
      </trkpt>
      <trkpt lat="53.03698" lon="7.06247">
        <ele>48.561</ele>
        <time>2020-07-07T12:31:39Z</time>
      </trkpt>
      <trkpt lat="53.03692" lon="7.06293">
        <ele>48.09</ele>
        <time>2020-07-07T12:31:45Z</time>
      </trkpt>
      <trkpt lat="53.03686" lon="7.06331">
        <ele>47.217</ele>
        <time>2020-07-07T12:31:51Z</time>
      </trkpt>
      <trkpt lat="53.03679" lon="7.06365">
        <ele>47.249</ele>
        <time>2020-07-07T12:31:56Z</time>
      </trkpt>
      <trkpt lat="53.03667" lon="7.06401">
        <ele>46.634</ele>
        <time>2020-07-07T12:32:02Z</time>
      </trkpt>
      <trkpt lat="53.03659" lon="7.06454">
        <ele>47.689</ele>
        <time>2020-07-07T12:32:08Z</time>
      </trkpt>
      <trkpt lat="53.03664" lon="7.06491">
        <ele>49.38</ele>
        <time>2020-07-07T12:32:13Z</time>
      </trkpt>
      <trkpt lat="53.03672" lon="7.0653">
        <ele>51.59</ele>
        <time>2020-07-07T12:32:19Z</time>
      </trkpt>
      <trkpt lat="53.0368" lon="7.06562">
        <ele>54.024</ele>
        <time>2020-07-07T12:32:24Z</time>
      </trkpt>
      <trkpt lat="53.03697" lon="7.06596">
        <ele>52.63</ele>
        <time>2020-07-07T12:32:30Z</time>
      </trkpt>
      <trkpt lat="53.03711" lon="7.06615">
        <ele>51.76</ele>
        <time>2020-07-07T12:32:35Z</time>
      </trkpt>
      <trkpt lat="53.03722" lon="7.06623">
        <ele>49.104</ele>
        <time>2020-07-07T12:32:41Z</time>
      </trkpt>
      <trkpt lat="53.03722" lon="7.06623">
        <ele>49.104</ele>
        <time>2020-07-07T12:32:46Z</time>
      </trkpt>
      <trkpt lat="53.03722" lon="7.06623">
        <ele>49.104</ele>
        <time>2020-07-07T12:32:52Z</time>
      </trkpt>
      <trkpt lat="53.03722" lon="7.06623">
        <ele>49.104</ele>
        <time>2020-07-07T12:32:57Z</time>
      </trkpt>
      <trkpt lat="53.03722" lon="7.06623">
        <ele>49.104</ele>
        <time>2020-07-07T12:33:03Z</time>
      </trkpt>
      <trkpt lat="53.03722" lon="7.06623">
        <ele>49.104</ele>
        <time>2020-07-07T12:33:08Z</time>
      </trkpt>
      <trkpt lat="53.03722" lon="7.06623">
        <ele>49.104</ele>
        <time>2020-07-07T12:33:14Z</time>
      </trkpt>
      <trkpt lat="53.03722" lon="7.06623">
        <ele>49.104</ele>
        <time>2020-07-07T12:33:19Z</time>
      </trkpt>
      <trkpt lat="53.03722" lon="7.06623">
        <ele>49.104</ele>
        <time>2020-07-07T12:33:25Z</time>
      </trkpt>
      <trkpt lat="53.03722" lon="7.06623">
        <ele>49.104</ele>
        <time>2020-07-07T12:33:31Z</time>
      </trkpt>
      <trkpt lat="53.03722" lon="7.06623">
        <ele>49.104</ele>
        <time>2020-07-07T12:33:36Z</time>
      </trkpt>
      <trkpt lat="53.03722" lon="7.06623">
        <ele>49.104</ele>
        <time>2020-07-07T12:33:41Z</time>
      </trkpt>
      <trkpt lat="53.03722" lon="7.06623">
        <ele>49.104</ele>
        <time>2020-07-07T12:33:47Z</time>
      </trkpt>
      <trkpt lat="53.03722" lon="7.06623">
        <ele>49.104</ele>
        <time>2020-07-07T12:33:53Z</time>
      </trkpt>
      <trkpt lat="53.03722" lon="7.06623">
        <ele>49.104</ele>
        <time>2020-07-07T12:33:58Z</time>
      </trkpt>
      <trkpt lat="53.03722" lon="7.06623">
        <ele>49.104</ele>
        <time>2020-07-07T12:34:03Z</time>
      </trkpt>
      <trkpt lat="53.03722" lon="7.06623">
        <ele>49.104</ele>
        <time>2020-07-07T12:34:09Z</time>
      </trkpt>
      <trkpt lat="53.03722" lon="7.06623">
        <ele>49.104</ele>
        <time>2020-07-07T12:34:14Z</time>
      </trkpt>
      <trkpt lat="53.03722" lon="7.06623">
        <ele>49.104</ele>
        <time>2020-07-07T12:34:20Z</time>
      </trkpt>
      <trkpt lat="53.03722" lon="7.06623">
        <ele>49.104</ele>
        <time>2020-07-07T12:34:26Z</time>
      </trkpt>
      <trkpt lat="53.03722" lon="7.06623">
        <ele>49.104</ele>
        <time>2020-07-07T12:34:31Z</time>
      </trkpt>
      <trkpt lat="53.03722" lon="7.06623">
        <ele>49.104</ele>
        <time>2020-07-07T12:34:37Z</time>
      </trkpt>
      <trkpt lat="53.03722" lon="7.06623">
        <ele>49.104</ele>
        <time>2020-07-07T12:34:42Z</time>
      </trkpt>
      <trkpt lat="53.03722" lon="7.06623">
        <ele>49.104</ele>
        <time>2020-07-07T12:34:47Z</time>
      </trkpt>
      <trkpt lat="53.03722" lon="7.06624">
        <ele>49.048</ele>
        <time>2020-07-07T12:34:53Z</time>
      </trkpt>
      <trkpt lat="53.03728" lon="7.06631">
        <ele>49.007</ele>
        <time>2020-07-07T12:34:58Z</time>
      </trkpt>
      <trkpt lat="53.03738" lon="7.06642">
        <ele>48.958</ele>
        <time>2020-07-07T12:35:04Z</time>
      </trkpt>
      <trkpt lat="53.03748" lon="7.06656">
        <ele>49.215</ele>
        <time>2020-07-07T12:35:09Z</time>
      </trkpt>
      <trkpt lat="53.03759" lon="7.06672">
        <ele>49.126</ele>
        <time>2020-07-07T12:35:14Z</time>
      </trkpt>
      <trkpt lat="53.03774" lon="7.06694">
        <ele>48.921</ele>
        <time>2020-07-07T12:35:20Z</time>
      </trkpt>
      <trkpt lat="53.03786" lon="7.06719">
        <ele>49.688</ele>
        <time>2020-07-07T12:35:26Z</time>
      </trkpt>
      <trkpt lat="53.03799" lon="7.06744">
        <ele>50.788</ele>
        <time>2020-07-07T12:35:32Z</time>
      </trkpt>
      <trkpt lat="53.03811" lon="7.06773">
        <ele>51.289</ele>
        <time>2020-07-07T12:35:38Z</time>
      </trkpt>
      <trkpt lat="53.03821" lon="7.068">
        <ele>52.028</ele>
        <time>2020-07-07T12:35:43Z</time>
      </trkpt>
      <trkpt lat="53.03837" lon="7.06833">
        <ele>53.069</ele>
        <time>2020-07-07T12:35:49Z</time>
      </trkpt>
      <trkpt lat="53.03848" lon="7.06867">
        <ele>53.031</ele>
        <time>2020-07-07T12:35:55Z</time>
      </trkpt>
      <trkpt lat="53.03853" lon="7.06902">
        <ele>52.753</ele>
        <time>2020-07-07T12:36:00Z</time>
      </trkpt>
      <trkpt lat="53.03861" lon="7.06944">
        <ele>52.847</ele>
        <time>2020-07-07T12:36:06Z</time>
      </trkpt>
      <trkpt lat="53.03876" lon="7.06986">
        <ele>52.461</ele>
        <time>2020-07-07T12:36:12Z</time>
      </trkpt>
      <trkpt lat="53.0389" lon="7.07016">
        <ele>51.836</ele>
        <time>2020-07-07T12:36:17Z</time>
      </trkpt>
      <trkpt lat="53.039" lon="7.07049">
        <ele>51.378</ele>
        <time>2020-07-07T12:36:22Z</time>
      </trkpt>
      <trkpt lat="53.03901" lon="7.07092">
        <ele>50.541</ele>
        <time>2020-07-07T12:36:28Z</time>
      </trkpt>
      <trkpt lat="53.039" lon="7.07133">
        <ele>50.658</ele>
        <time>2020-07-07T12:36:34Z</time>
      </trkpt>
      <trkpt lat="53.03897" lon="7.0717">
        <ele>51.972</ele>
        <time>2020-07-07T12:36:39Z</time>
      </trkpt>
      <trkpt lat="53.03887" lon="7.0721">
        <ele>53.081</ele>
        <time>2020-07-07T12:36:45Z</time>
      </trkpt>
      <trkpt lat="53.03878" lon="7.07246">
        <ele>53.239</ele>
        <time>2020-07-07T12:36:50Z</time>
      </trkpt>
      <trkpt lat="53.03869" lon="7.07281">
        <ele>53.167</ele>
        <time>2020-07-07T12:36:56Z</time>
      </trkpt>
      <trkpt lat="53.03859" lon="7.07311">
        <ele>54.341</ele>
        <time>2020-07-07T12:37:01Z</time>
      </trkpt>
      <trkpt lat="53.03845" lon="7.07349">
        <ele>55.158</ele>
        <time>2020-07-07T12:37:07Z</time>
      </trkpt>
      <trkpt lat="53.03832" lon="7.07383">
        <ele>56.135</ele>
        <time>2020-07-07T12:37:12Z</time>
      </trkpt>
      <trkpt lat="53.03821" lon="7.07421">
        <ele>57.1</ele>
        <time>2020-07-07T12:37:18Z</time>
      </trkpt>
      <trkpt lat="53.03807" lon="7.07459">
        <ele>56.375</ele>
        <time>2020-07-07T12:37:24Z</time>
      </trkpt>
      <trkpt lat="53.03795" lon="7.0749">
        <ele>56.426</ele>
        <time>2020-07-07T12:37:29Z</time>
      </trkpt>
      <trkpt lat="53.03781" lon="7.07528">
        <ele>54.752</ele>
        <time>2020-07-07T12:37:35Z</time>
      </trkpt>
      <trkpt lat="53.03772" lon="7.07561">
        <ele>54.666</ele>
        <time>2020-07-07T12:37:40Z</time>
      </trkpt>
      <trkpt lat="53.03762" lon="7.076">
        <ele>54.999</ele>
        <time>2020-07-07T12:37:46Z</time>
      </trkpt>
      <trkpt lat="53.03748" lon="7.07639">
        <ele>54.854</ele>
        <time>2020-07-07T12:37:51Z</time>
      </trkpt>
      <trkpt lat="53.03739" lon="7.07683">
        <ele>56.47</ele>
        <time>2020-07-07T12:37:57Z</time>
      </trkpt>
      <trkpt lat="53.03737" lon="7.07716">
        <ele>57.358</ele>
        <time>2020-07-07T12:38:02Z</time>
      </trkpt>
      <trkpt lat="53.03734" lon="7.07759">
        <ele>57.215</ele>
        <time>2020-07-07T12:38:08Z</time>
      </trkpt>
      <trkpt lat="53.03732" lon="7.078">
        <ele>56.033</ele>
        <time>2020-07-07T12:38:13Z</time>
      </trkpt>
      <trkpt lat="53.03734" lon="7.07844">
        <ele>54.825</ele>
        <time>2020-07-07T12:38:19Z</time>
      </trkpt>
      <trkpt lat="53.03737" lon="7.07887">
        <ele>53.83</ele>
        <time>2020-07-07T12:38:24Z</time>
      </trkpt>
      <trkpt lat="53.03741" lon="7.07927">
        <ele>54.005</ele>
        <time>2020-07-07T12:38:30Z</time>
      </trkpt>
      <trkpt lat="53.03741" lon="7.07955">
        <ele>55.402</ele>
        <time>2020-07-07T12:38:35Z</time>
      </trkpt>
      <trkpt lat="53.03736" lon="7.07986">
        <ele>56.608</ele>
        <time>2020-07-07T12:38:40Z</time>
      </trkpt>
      <trkpt lat="53.03721" lon="7.08005">
        <ele>58.165</ele>
        <time>2020-07-07T12:38:46Z</time>
      </trkpt>
      <trkpt lat="53.03705" lon="7.08019">
        <ele>61.631</ele>
        <time>2020-07-07T12:38:52Z</time>
      </trkpt>
      <trkpt lat="53.03696" lon="7.08029">
        <ele>61.728</ele>
        <time>2020-07-07T12:38:57Z</time>
      </trkpt>
      <trkpt lat="53.03682" lon="7.08038">
        <ele>61.123</ele>
        <time>2020-07-07T12:39:02Z</time>
      </trkpt>
      <trkpt lat="53.03661" lon="7.08054">
        <ele>58.036</ele>
        <time>2020-07-07T12:39:08Z</time>
      </trkpt>
      <trkpt lat="53.03651" lon="7.08078">
        <ele>58.123</ele>
        <time>2020-07-07T12:39:14Z</time>
      </trkpt>
      <trkpt lat="53.03653" lon="7.08096">
        <ele>57.768</ele>
        <time>2020-07-07T12:39:20Z</time>
      </trkpt>
      <trkpt lat="53.03654" lon="7.08106">
        <ele>58.411</ele>
        <time>2020-07-07T12:39:25Z</time>
      </trkpt>
      <trkpt lat="53.03654" lon="7.08107">
        <ele>58.907</ele>
        <time>2020-07-07T12:39:30Z</time>
      </trkpt>
      <trkpt lat="53.03654" lon="7.08107">
        <ele>58.907</ele>
        <time>2020-07-07T12:39:36Z</time>
      </trkpt>
      <trkpt lat="53.03654" lon="7.08107">
        <ele>58.907</ele>
        <time>2020-07-07T12:39:42Z</time>
      </trkpt>
      <trkpt lat="53.03654" lon="7.08107">
        <ele>58.907</ele>
        <time>2020-07-07T12:39:48Z</time>
      </trkpt>
      <trkpt lat="53.03654" lon="7.08107">
        <ele>58.907</ele>
        <time>2020-07-07T12:39:53Z</time>
      </trkpt>
      <trkpt lat="53.03654" lon="7.08107">
        <ele>58.907</ele>
        <time>2020-07-07T12:39:58Z</time>
      </trkpt>
      <trkpt lat="53.03653" lon="7.08104">
        <ele>58.513</ele>
        <time>2020-07-07T12:40:03Z</time>
      </trkpt>
      <trkpt lat="53.03651" lon="7.08093">
        <ele>58.913</ele>
        <time>2020-07-07T12:40:09Z</time>
      </trkpt>
      <trkpt lat="53.03647" lon="7.08075">
        <ele>59.973</ele>
        <time>2020-07-07T12:40:15Z</time>
      </trkpt>
      <trkpt lat="53.03651" lon="7.08057">
        <ele>55.862</ele>
        <time>2020-07-07T12:40:21Z</time>
      </trkpt>
      <trkpt lat="53.03671" lon="7.08047">
        <ele>54.223</ele>
        <time>2020-07-07T12:40:27Z</time>
      </trkpt>
      <trkpt lat="53.03679" lon="7.08064">
        <ele>54.534</ele>
        <time>2020-07-07T12:40:32Z</time>
      </trkpt>
      <trkpt lat="53.03689" lon="7.08088">
        <ele>55.575</ele>
        <time>2020-07-07T12:40:38Z</time>
      </trkpt>
      <trkpt lat="53.03698" lon="7.08116">
        <ele>55.884</ele>
        <time>2020-07-07T12:40:44Z</time>
      </trkpt>
      <trkpt lat="53.03702" lon="7.08137">
        <ele>55.994</ele>
        <time>2020-07-07T12:40:49Z</time>
      </trkpt>
      <trkpt lat="53.03708" lon="7.08162">
        <ele>56.45</ele>
        <time>2020-07-07T12:40:54Z</time>
      </trkpt>
      <trkpt lat="53.03714" lon="7.08192">
        <ele>56.308</ele>
        <time>2020-07-07T12:41:00Z</time>
      </trkpt>
      <trkpt lat="53.03725" lon="7.08231">
        <ele>56.153</ele>
        <time>2020-07-07T12:41:06Z</time>
      </trkpt>
      <trkpt lat="53.03739" lon="7.08274">
        <ele>55.87</ele>
        <time>2020-07-07T12:41:12Z</time>
      </trkpt>
      <trkpt lat="53.03751" lon="7.08306">
        <ele>54.823</ele>
        <time>2020-07-07T12:41:17Z</time>
      </trkpt>
      <trkpt lat="53.03761" lon="7.08342">
        <ele>55.315</ele>
        <time>2020-07-07T12:41:23Z</time>
      </trkpt>
      <trkpt lat="53.03772" lon="7.08373">
        <ele>54.593</ele>
        <time>2020-07-07T12:41:29Z</time>
      </trkpt>
      <trkpt lat="53.03779" lon="7.08407">
        <ele>51.931</ele>
        <time>2020-07-07T12:41:35Z</time>
      </trkpt>
      <trkpt lat="53.03789" lon="7.08439">
        <ele>50.659</ele>
        <time>2020-07-07T12:41:41Z</time>
      </trkpt>
      <trkpt lat="53.03799" lon="7.08465">
        <ele>50.437</ele>
        <time>2020-07-07T12:41:46Z</time>
      </trkpt>
      <trkpt lat="53.03807" lon="7.08499">
        <ele>50.275</ele>
        <time>2020-07-07T12:41:52Z</time>
      </trkpt>
      <trkpt lat="53.03817" lon="7.08529">
        <ele>49.441</ele>
        <time>2020-07-07T12:41:58Z</time>
      </trkpt>
      <trkpt lat="53.03829" lon="7.08564">
        <ele>48.474</ele>
        <time>2020-07-07T12:42:04Z</time>
      </trkpt>
      <trkpt lat="53.03841" lon="7.08602">
        <ele>48.047</ele>
        <time>2020-07-07T12:42:10Z</time>
      </trkpt>
      <trkpt lat="53.03848" lon="7.08629">
        <ele>46.759</ele>
        <time>2020-07-07T12:42:15Z</time>
      </trkpt>
      <trkpt lat="53.03858" lon="7.08665">
        <ele>45.735</ele>
        <time>2020-07-07T12:42:21Z</time>
      </trkpt>
      <trkpt lat="53.0387" lon="7.08704">
        <ele>44.135</ele>
        <time>2020-07-07T12:42:27Z</time>
      </trkpt>
      <trkpt lat="53.03879" lon="7.08736">
        <ele>42.395</ele>
        <time>2020-07-07T12:42:32Z</time>
      </trkpt>
      <trkpt lat="53.0389" lon="7.08775">
        <ele>41.065</ele>
        <time>2020-07-07T12:42:38Z</time>
      </trkpt>
      <trkpt lat="53.03899" lon="7.08803">
        <ele>40.081</ele>
        <time>2020-07-07T12:42:43Z</time>
      </trkpt>
      <trkpt lat="53.0391" lon="7.08836">
        <ele>39.604</ele>
        <time>2020-07-07T12:42:49Z</time>
      </trkpt>
      <trkpt lat="53.03918" lon="7.08865">
        <ele>39.14</ele>
        <time>2020-07-07T12:42:54Z</time>
      </trkpt>
      <trkpt lat="53.03929" lon="7.08899">
        <ele>38.13</ele>
        <time>2020-07-07T12:43:00Z</time>
      </trkpt>
      <trkpt lat="53.03939" lon="7.08935">
        <ele>38.247</ele>
        <time>2020-07-07T12:43:06Z</time>
      </trkpt>
      <trkpt lat="53.03948" lon="7.08964">
        <ele>38.76</ele>
        <time>2020-07-07T12:43:11Z</time>
      </trkpt>
      <trkpt lat="53.03959" lon="7.09001">
        <ele>39.632</ele>
        <time>2020-07-07T12:43:17Z</time>
      </trkpt>
      <trkpt lat="53.03969" lon="7.09034">
        <ele>39.095</ele>
        <time>2020-07-07T12:43:23Z</time>
      </trkpt>
      <trkpt lat="53.03979" lon="7.09067">
        <ele>38.98</ele>
        <time>2020-07-07T12:43:29Z</time>
      </trkpt>
      <trkpt lat="53.0399" lon="7.09103">
        <ele>39.673</ele>
        <time>2020-07-07T12:43:35Z</time>
      </trkpt>
      <trkpt lat="53.03999" lon="7.09134">
        <ele>39.626</ele>
        <time>2020-07-07T12:43:40Z</time>
      </trkpt>
      <trkpt lat="53.0401" lon="7.0917">
        <ele>39.7</ele>
        <time>2020-07-07T12:43:46Z</time>
      </trkpt>
      <trkpt lat="53.04019" lon="7.09201">
        <ele>39.82</ele>
        <time>2020-07-07T12:43:51Z</time>
      </trkpt>
      <trkpt lat="53.04031" lon="7.09237">
        <ele>40.509</ele>
        <time>2020-07-07T12:43:57Z</time>
      </trkpt>
      <trkpt lat="53.04041" lon="7.0927">
        <ele>41.093</ele>
        <time>2020-07-07T12:44:03Z</time>
      </trkpt>
      <trkpt lat="53.0405" lon="7.09299">
        <ele>41.049</ele>
        <time>2020-07-07T12:44:08Z</time>
      </trkpt>
      <trkpt lat="53.0406" lon="7.09335">
        <ele>41.277</ele>
        <time>2020-07-07T12:44:14Z</time>
      </trkpt>
      <trkpt lat="53.0407" lon="7.09362">
        <ele>42.019</ele>
        <time>2020-07-07T12:44:19Z</time>
      </trkpt>
      <trkpt lat="53.0408" lon="7.09398">
        <ele>42.254</ele>
        <time>2020-07-07T12:44:25Z</time>
      </trkpt>
      <trkpt lat="53.04084" lon="7.09428">
        <ele>42.156</ele>
        <time>2020-07-07T12:44:30Z</time>
      </trkpt>
      <trkpt lat="53.04088" lon="7.09464">
        <ele>42.631</ele>
        <time>2020-07-07T12:44:36Z</time>
      </trkpt>
      <trkpt lat="53.04092" lon="7.095">
        <ele>42.666</ele>
        <time>2020-07-07T12:44:42Z</time>
      </trkpt>
      <trkpt lat="53.04099" lon="7.09532">
        <ele>43.274</ele>
        <time>2020-07-07T12:44:47Z</time>
      </trkpt>
      <trkpt lat="53.04114" lon="7.09575">
        <ele>43.108</ele>
        <time>2020-07-07T12:44:53Z</time>
      </trkpt>
      <trkpt lat="53.04123" lon="7.09606">
        <ele>43.198</ele>
        <time>2020-07-07T12:44:58Z</time>
      </trkpt>
      <trkpt lat="53.04132" lon="7.0963">
        <ele>42.498</ele>
        <time>2020-07-07T12:45:03Z</time>
      </trkpt>
      <trkpt lat="53.04146" lon="7.0966">
        <ele>41.519</ele>
        <time>2020-07-07T12:45:09Z</time>
      </trkpt>
      <trkpt lat="53.04164" lon="7.0969">
        <ele>42.222</ele>
        <time>2020-07-07T12:45:15Z</time>
      </trkpt>
      <trkpt lat="53.04177" lon="7.09726">
        <ele>42.312</ele>
        <time>2020-07-07T12:45:21Z</time>
      </trkpt>
      <trkpt lat="53.04189" lon="7.09767">
        <ele>43.385</ele>
        <time>2020-07-07T12:45:27Z</time>
      </trkpt>
      <trkpt lat="53.04198" lon="7.09809">
        <ele>43.236</ele>
        <time>2020-07-07T12:45:33Z</time>
      </trkpt>
      <trkpt lat="53.04207" lon="7.09842">
        <ele>42.389</ele>
        <time>2020-07-07T12:45:38Z</time>
      </trkpt>
      <trkpt lat="53.04217" lon="7.09872">
        <ele>42.233</ele>
        <time>2020-07-07T12:45:43Z</time>
      </trkpt>
      <trkpt lat="53.04228" lon="7.09916">
        <ele>42.175</ele>
        <time>2020-07-07T12:45:49Z</time>
      </trkpt>
      <trkpt lat="53.04238" lon="7.09949">
        <ele>41.773</ele>
        <time>2020-07-07T12:45:55Z</time>
      </trkpt>
      <trkpt lat="53.04248" lon="7.09977">
        <ele>40.367</ele>
        <time>2020-07-07T12:46:00Z</time>
      </trkpt>
      <trkpt lat="53.04259" lon="7.10012">
        <ele>39.465</ele>
        <time>2020-07-07T12:46:06Z</time>
      </trkpt>
      <trkpt lat="53.04268" lon="7.10044">
        <ele>39.855</ele>
        <time>2020-07-07T12:46:11Z</time>
      </trkpt>
      <trkpt lat="53.04279" lon="7.10082">
        <ele>41.328</ele>
        <time>2020-07-07T12:46:17Z</time>
      </trkpt>
      <trkpt lat="53.04289" lon="7.10116">
        <ele>40.835</ele>
        <time>2020-07-07T12:46:22Z</time>
      </trkpt>
      <trkpt lat="53.043" lon="7.10154">
        <ele>40.541</ele>
        <time>2020-07-07T12:46:28Z</time>
      </trkpt>
      <trkpt lat="53.0431" lon="7.10189">
        <ele>40.838</ele>
        <time>2020-07-07T12:46:33Z</time>
      </trkpt>
      <trkpt lat="53.04321" lon="7.1023">
        <ele>41.345</ele>
        <time>2020-07-07T12:46:39Z</time>
      </trkpt>
      <trkpt lat="53.04331" lon="7.10262">
        <ele>41.118</ele>
        <time>2020-07-07T12:46:44Z</time>
      </trkpt>
      <trkpt lat="53.04345" lon="7.103">
        <ele>41.74</ele>
        <time>2020-07-07T12:46:50Z</time>
      </trkpt>
      <trkpt lat="53.04355" lon="7.10333">
        <ele>42.692</ele>
        <time>2020-07-07T12:46:55Z</time>
      </trkpt>
      <trkpt lat="53.04366" lon="7.10373">
        <ele>43.431</ele>
        <time>2020-07-07T12:47:01Z</time>
      </trkpt>
      <trkpt lat="53.04375" lon="7.10406">
        <ele>43.838</ele>
        <time>2020-07-07T12:47:06Z</time>
      </trkpt>
      <trkpt lat="53.04386" lon="7.10442">
        <ele>45.029</ele>
        <time>2020-07-07T12:47:12Z</time>
      </trkpt>
      <trkpt lat="53.04396" lon="7.10473">
        <ele>45.832</ele>
        <time>2020-07-07T12:47:17Z</time>
      </trkpt>
      <trkpt lat="53.04408" lon="7.10512">
        <ele>46.553</ele>
        <time>2020-07-07T12:47:23Z</time>
      </trkpt>
      <trkpt lat="53.04417" lon="7.10545">
        <ele>46.567</ele>
        <time>2020-07-07T12:47:28Z</time>
      </trkpt>
      <trkpt lat="53.04429" lon="7.10585">
        <ele>46.035</ele>
        <time>2020-07-07T12:47:34Z</time>
      </trkpt>
      <trkpt lat="53.04439" lon="7.10617">
        <ele>46.928</ele>
        <time>2020-07-07T12:47:39Z</time>
      </trkpt>
      <trkpt lat="53.0445" lon="7.10655">
        <ele>47.169</ele>
        <time>2020-07-07T12:47:45Z</time>
      </trkpt>
      <trkpt lat="53.04462" lon="7.10696">
        <ele>47.24</ele>
        <time>2020-07-07T12:47:51Z</time>
      </trkpt>
      <trkpt lat="53.04473" lon="7.10729">
        <ele>47.12</ele>
        <time>2020-07-07T12:47:56Z</time>
      </trkpt>
      <trkpt lat="53.04485" lon="7.1077">
        <ele>46.64</ele>
        <time>2020-07-07T12:48:02Z</time>
      </trkpt>
      <trkpt lat="53.04494" lon="7.10802">
        <ele>46.432</ele>
        <time>2020-07-07T12:48:07Z</time>
      </trkpt>
      <trkpt lat="53.04504" lon="7.10834">
        <ele>47.454</ele>
        <time>2020-07-07T12:48:12Z</time>
      </trkpt>
      <trkpt lat="53.04515" lon="7.10873">
        <ele>48.213</ele>
        <time>2020-07-07T12:48:18Z</time>
      </trkpt>
      <trkpt lat="53.04527" lon="7.10913">
        <ele>48.959</ele>
        <time>2020-07-07T12:48:24Z</time>
      </trkpt>
      <trkpt lat="53.04537" lon="7.10946">
        <ele>49.107</ele>
        <time>2020-07-07T12:48:29Z</time>
      </trkpt>
      <trkpt lat="53.0455" lon="7.10982">
        <ele>48.516</ele>
        <time>2020-07-07T12:48:35Z</time>
      </trkpt>
      <trkpt lat="53.04559" lon="7.11014">
        <ele>47.7</ele>
        <time>2020-07-07T12:48:40Z</time>
      </trkpt>
      <trkpt lat="53.04572" lon="7.11054">
        <ele>47.1</ele>
        <time>2020-07-07T12:48:46Z</time>
      </trkpt>
      <trkpt lat="53.04584" lon="7.11093">
        <ele>46.979</ele>
        <time>2020-07-07T12:48:52Z</time>
      </trkpt>
      <trkpt lat="53.04596" lon="7.11132">
        <ele>47.111</ele>
        <time>2020-07-07T12:48:58Z</time>
      </trkpt>
      <trkpt lat="53.04607" lon="7.11172">
        <ele>45.499</ele>
        <time>2020-07-07T12:49:04Z</time>
      </trkpt>
      <trkpt lat="53.04619" lon="7.11212">
        <ele>44.227</ele>
        <time>2020-07-07T12:49:10Z</time>
      </trkpt>
      <trkpt lat="53.04633" lon="7.11254">
        <ele>43.526</ele>
        <time>2020-07-07T12:49:16Z</time>
      </trkpt>
      <trkpt lat="53.04644" lon="7.11294">
        <ele>43.084</ele>
        <time>2020-07-07T12:49:22Z</time>
      </trkpt>
      <trkpt lat="53.04656" lon="7.11337">
        <ele>43.217</ele>
        <time>2020-07-07T12:49:28Z</time>
      </trkpt>
      <trkpt lat="53.04666" lon="7.1137">
        <ele>42.356</ele>
        <time>2020-07-07T12:49:33Z</time>
      </trkpt>
      <trkpt lat="53.04679" lon="7.11411">
        <ele>42.792</ele>
        <time>2020-07-07T12:49:39Z</time>
      </trkpt>
      <trkpt lat="53.04695" lon="7.11453">
        <ele>43.599</ele>
        <time>2020-07-07T12:49:45Z</time>
      </trkpt>
      <trkpt lat="53.04708" lon="7.11484">
        <ele>44.012</ele>
        <time>2020-07-07T12:49:50Z</time>
      </trkpt>
      <trkpt lat="53.04724" lon="7.11521">
        <ele>44.722</ele>
        <time>2020-07-07T12:49:56Z</time>
      </trkpt>
      <trkpt lat="53.04737" lon="7.11551">
        <ele>44.874</ele>
        <time>2020-07-07T12:50:01Z</time>
      </trkpt>
      <trkpt lat="53.04748" lon="7.11579">
        <ele>46.101</ele>
        <time>2020-07-07T12:50:06Z</time>
      </trkpt>
      <trkpt lat="53.04764" lon="7.11612">
        <ele>46.905</ele>
        <time>2020-07-07T12:50:12Z</time>
      </trkpt>
      <trkpt lat="53.04778" lon="7.11637">
        <ele>47.836</ele>
        <time>2020-07-07T12:50:17Z</time>
      </trkpt>
      <trkpt lat="53.0479" lon="7.11664">
        <ele>48.534</ele>
        <time>2020-07-07T12:50:22Z</time>
      </trkpt>
      <trkpt lat="53.04807" lon="7.11696">
        <ele>48.715</ele>
        <time>2020-07-07T12:50:28Z</time>
      </trkpt>
      <trkpt lat="53.04822" lon="7.11726">
        <ele>48.076</ele>
        <time>2020-07-07T12:50:33Z</time>
      </trkpt>
      <trkpt lat="53.0484" lon="7.1176">
        <ele>47.447</ele>
        <time>2020-07-07T12:50:39Z</time>
      </trkpt>
      <trkpt lat="53.04857" lon="7.11794">
        <ele>46.987</ele>
        <time>2020-07-07T12:50:45Z</time>
      </trkpt>
      <trkpt lat="53.04872" lon="7.11822">
        <ele>45.958</ele>
        <time>2020-07-07T12:50:50Z</time>
      </trkpt>
      <trkpt lat="53.04889" lon="7.11856">
        <ele>44.286</ele>
        <time>2020-07-07T12:50:56Z</time>
      </trkpt>
      <trkpt lat="53.04906" lon="7.1189">
        <ele>42.555</ele>
        <time>2020-07-07T12:51:02Z</time>
      </trkpt>
      <trkpt lat="53.0492" lon="7.1192">
        <ele>41.951</ele>
        <time>2020-07-07T12:51:08Z</time>
      </trkpt>
      <trkpt lat="53.04935" lon="7.11946">
        <ele>41.754</ele>
        <time>2020-07-07T12:51:13Z</time>
      </trkpt>
      <trkpt lat="53.04949" lon="7.1197">
        <ele>41.661</ele>
        <time>2020-07-07T12:51:18Z</time>
      </trkpt>
      <trkpt lat="53.0497" lon="7.12006">
        <ele>41.879</ele>
        <time>2020-07-07T12:51:24Z</time>
      </trkpt>
      <trkpt lat="53.04989" lon="7.1204">
        <ele>42.56</ele>
        <time>2020-07-07T12:51:30Z</time>
      </trkpt>
      <trkpt lat="53.05007" lon="7.12074">
        <ele>43.296</ele>
        <time>2020-07-07T12:51:36Z</time>
      </trkpt>
      <trkpt lat="53.05023" lon="7.12106">
        <ele>43.785</ele>
        <time>2020-07-07T12:51:42Z</time>
      </trkpt>
      <trkpt lat="53.05038" lon="7.12134">
        <ele>43.96</ele>
        <time>2020-07-07T12:51:47Z</time>
      </trkpt>
      <trkpt lat="53.05054" lon="7.12166">
        <ele>43.886</ele>
        <time>2020-07-07T12:51:53Z</time>
      </trkpt>
      <trkpt lat="53.05067" lon="7.12191">
        <ele>44.028</ele>
        <time>2020-07-07T12:51:58Z</time>
      </trkpt>
      <trkpt lat="53.05087" lon="7.12224">
        <ele>44.543</ele>
        <time>2020-07-07T12:52:04Z</time>
      </trkpt>
      <trkpt lat="53.05102" lon="7.12252">
        <ele>45.126</ele>
        <time>2020-07-07T12:52:09Z</time>
      </trkpt>
      <trkpt lat="53.05117" lon="7.12279">
        <ele>45.685</ele>
        <time>2020-07-07T12:52:14Z</time>
      </trkpt>
      <trkpt lat="53.05134" lon="7.12312">
        <ele>45.908</ele>
        <time>2020-07-07T12:52:20Z</time>
      </trkpt>
      <trkpt lat="53.05149" lon="7.1234">
        <ele>45.965</ele>
        <time>2020-07-07T12:52:25Z</time>
      </trkpt>
      <trkpt lat="53.05167" lon="7.12375">
        <ele>45.929</ele>
        <time>2020-07-07T12:52:31Z</time>
      </trkpt>
      <trkpt lat="53.05182" lon="7.12405">
        <ele>46.989</ele>
        <time>2020-07-07T12:52:37Z</time>
      </trkpt>
      <trkpt lat="53.052" lon="7.12441">
        <ele>48.02</ele>
        <time>2020-07-07T12:52:43Z</time>
      </trkpt>
      <trkpt lat="53.05219" lon="7.12477">
        <ele>47.816</ele>
        <time>2020-07-07T12:52:49Z</time>
      </trkpt>
      <trkpt lat="53.05239" lon="7.12511">
        <ele>47.399</ele>
        <time>2020-07-07T12:52:55Z</time>
      </trkpt>
      <trkpt lat="53.05259" lon="7.12549">
        <ele>46.924</ele>
        <time>2020-07-07T12:53:01Z</time>
      </trkpt>
      <trkpt lat="53.05273" lon="7.12575">
        <ele>46.819</ele>
        <time>2020-07-07T12:53:06Z</time>
      </trkpt>
      <trkpt lat="53.05286" lon="7.12606">
        <ele>46.326</ele>
        <time>2020-07-07T12:53:12Z</time>
      </trkpt>
      <trkpt lat="53.05299" lon="7.12632">
        <ele>45.998</ele>
        <time>2020-07-07T12:53:17Z</time>
      </trkpt>
      <trkpt lat="53.05314" lon="7.12661">
        <ele>46.732</ele>
        <time>2020-07-07T12:53:22Z</time>
      </trkpt>
      <trkpt lat="53.05335" lon="7.1269">
        <ele>45.77</ele>
        <time>2020-07-07T12:53:28Z</time>
      </trkpt>
      <trkpt lat="53.05361" lon="7.12698">
        <ele>46.074</ele>
        <time>2020-07-07T12:53:34Z</time>
      </trkpt>
      <trkpt lat="53.05381" lon="7.12694">
        <ele>47.734</ele>
        <time>2020-07-07T12:53:39Z</time>
      </trkpt>
      <trkpt lat="53.054" lon="7.12678">
        <ele>47.55</ele>
        <time>2020-07-07T12:53:45Z</time>
      </trkpt>
      <trkpt lat="53.05417" lon="7.12666">
        <ele>46.911</ele>
        <time>2020-07-07T12:53:50Z</time>
      </trkpt>
      <trkpt lat="53.05435" lon="7.12653">
        <ele>45.067</ele>
        <time>2020-07-07T12:53:55Z</time>
      </trkpt>
      <trkpt lat="53.05453" lon="7.12641">
        <ele>44.219</ele>
        <time>2020-07-07T12:54:00Z</time>
      </trkpt>
      <trkpt lat="53.05473" lon="7.12626">
        <ele>43.415</ele>
        <time>2020-07-07T12:54:06Z</time>
      </trkpt>
      <trkpt lat="53.05492" lon="7.12611">
        <ele>44.236</ele>
        <time>2020-07-07T12:54:12Z</time>
      </trkpt>
      <trkpt lat="53.05509" lon="7.12598">
        <ele>46.032</ele>
        <time>2020-07-07T12:54:17Z</time>
      </trkpt>
      <trkpt lat="53.0553" lon="7.12584">
        <ele>46.975</ele>
        <time>2020-07-07T12:54:23Z</time>
      </trkpt>
      <trkpt lat="53.0555" lon="7.12568">
        <ele>46.817</ele>
        <time>2020-07-07T12:54:29Z</time>
      </trkpt>
      <trkpt lat="53.05571" lon="7.12555">
        <ele>48.312</ele>
        <time>2020-07-07T12:54:35Z</time>
      </trkpt>
      <trkpt lat="53.0559" lon="7.12544">
        <ele>49.606</ele>
        <time>2020-07-07T12:54:40Z</time>
      </trkpt>
      <trkpt lat="53.05606" lon="7.12529">
        <ele>49.085</ele>
        <time>2020-07-07T12:54:45Z</time>
      </trkpt>
      <trkpt lat="53.05626" lon="7.12514">
        <ele>47.707</ele>
        <time>2020-07-07T12:54:51Z</time>
      </trkpt>
      <trkpt lat="53.05648" lon="7.12499">
        <ele>46.855</ele>
        <time>2020-07-07T12:54:57Z</time>
      </trkpt>
      <trkpt lat="53.05668" lon="7.12481">
        <ele>46.194</ele>
        <time>2020-07-07T12:55:03Z</time>
      </trkpt>
      <trkpt lat="53.0569" lon="7.12465">
        <ele>43.997</ele>
        <time>2020-07-07T12:55:09Z</time>
      </trkpt>
      <trkpt lat="53.05712" lon="7.12451">
        <ele>42.844</ele>
        <time>2020-07-07T12:55:15Z</time>
      </trkpt>
      <trkpt lat="53.05733" lon="7.12439">
        <ele>41.473</ele>
        <time>2020-07-07T12:55:21Z</time>
      </trkpt>
      <trkpt lat="53.05754" lon="7.12427">
        <ele>43.412</ele>
        <time>2020-07-07T12:55:27Z</time>
      </trkpt>
      <trkpt lat="53.05771" lon="7.12417">
        <ele>44.992</ele>
        <time>2020-07-07T12:55:32Z</time>
      </trkpt>
      <trkpt lat="53.05793" lon="7.1241">
        <ele>46.549</ele>
        <time>2020-07-07T12:55:38Z</time>
      </trkpt>
      <trkpt lat="53.05813" lon="7.12405">
        <ele>47.058</ele>
        <time>2020-07-07T12:55:43Z</time>
      </trkpt>
      <trkpt lat="53.05835" lon="7.12401">
        <ele>45.734</ele>
        <time>2020-07-07T12:55:49Z</time>
      </trkpt>
      <trkpt lat="53.05856" lon="7.12401">
        <ele>44.902</ele>
        <time>2020-07-07T12:55:55Z</time>
      </trkpt>
      <trkpt lat="53.05875" lon="7.12402">
        <ele>44.62</ele>
        <time>2020-07-07T12:56:00Z</time>
      </trkpt>
      <trkpt lat="53.05898" lon="7.12409">
        <ele>44.29</ele>
        <time>2020-07-07T12:56:06Z</time>
      </trkpt>
      <trkpt lat="53.05919" lon="7.12414">
        <ele>44.175</ele>
        <time>2020-07-07T12:56:11Z</time>
      </trkpt>
      <trkpt lat="53.05941" lon="7.1241">
        <ele>45.779</ele>
        <time>2020-07-07T12:56:17Z</time>
      </trkpt>
      <trkpt lat="53.05957" lon="7.12395">
        <ele>45.994</ele>
        <time>2020-07-07T12:56:22Z</time>
      </trkpt>
      <trkpt lat="53.05977" lon="7.12378">
        <ele>46.39</ele>
        <time>2020-07-07T12:56:28Z</time>
      </trkpt>
      <trkpt lat="53.05991" lon="7.12364">
        <ele>46.811</ele>
        <time>2020-07-07T12:56:33Z</time>
      </trkpt>
      <trkpt lat="53.0601" lon="7.12349">
        <ele>46.64</ele>
        <time>2020-07-07T12:56:39Z</time>
      </trkpt>
      <trkpt lat="53.06027" lon="7.12335">
        <ele>45.788</ele>
        <time>2020-07-07T12:56:44Z</time>
      </trkpt>
      <trkpt lat="53.06048" lon="7.12317">
        <ele>44.878</ele>
        <time>2020-07-07T12:56:50Z</time>
      </trkpt>
      <trkpt lat="53.06068" lon="7.12299">
        <ele>44.969</ele>
        <time>2020-07-07T12:56:56Z</time>
      </trkpt>
      <trkpt lat="53.06086" lon="7.12285">
        <ele>44.18</ele>
        <time>2020-07-07T12:57:02Z</time>
      </trkpt>
      <trkpt lat="53.06104" lon="7.12268">
        <ele>43.211</ele>
        <time>2020-07-07T12:57:08Z</time>
      </trkpt>
      <trkpt lat="53.06118" lon="7.12254">
        <ele>43.225</ele>
        <time>2020-07-07T12:57:13Z</time>
      </trkpt>
      <trkpt lat="53.06134" lon="7.12239">
        <ele>44.945</ele>
        <time>2020-07-07T12:57:19Z</time>
      </trkpt>
      <trkpt lat="53.06152" lon="7.12222">
        <ele>45.106</ele>
        <time>2020-07-07T12:57:25Z</time>
      </trkpt>
      <trkpt lat="53.06168" lon="7.12207">
        <ele>45.912</ele>
        <time>2020-07-07T12:57:31Z</time>
      </trkpt>
      <trkpt lat="53.06185" lon="7.12192">
        <ele>45.829</ele>
        <time>2020-07-07T12:57:37Z</time>
      </trkpt>
      <trkpt lat="53.06203" lon="7.12176">
        <ele>47.072</ele>
        <time>2020-07-07T12:57:43Z</time>
      </trkpt>
      <trkpt lat="53.06218" lon="7.12163">
        <ele>47.497</ele>
        <time>2020-07-07T12:57:48Z</time>
      </trkpt>
      <trkpt lat="53.06238" lon="7.12146">
        <ele>46.99</ele>
        <time>2020-07-07T12:57:54Z</time>
      </trkpt>
      <trkpt lat="53.06256" lon="7.12132">
        <ele>45.667</ele>
        <time>2020-07-07T12:57:59Z</time>
      </trkpt>
      <trkpt lat="53.06272" lon="7.12116">
        <ele>43.815</ele>
        <time>2020-07-07T12:58:04Z</time>
      </trkpt>
      <trkpt lat="53.0629" lon="7.121">
        <ele>44.314</ele>
        <time>2020-07-07T12:58:10Z</time>
      </trkpt>
      <trkpt lat="53.06304" lon="7.12086">
        <ele>44.925</ele>
        <time>2020-07-07T12:58:15Z</time>
      </trkpt>
      <trkpt lat="53.06322" lon="7.12071">
        <ele>44.18</ele>
        <time>2020-07-07T12:58:21Z</time>
      </trkpt>
      <trkpt lat="53.06339" lon="7.12056">
        <ele>45.943</ele>
        <time>2020-07-07T12:58:26Z</time>
      </trkpt>
      <trkpt lat="53.06358" lon="7.12039">
        <ele>46.248</ele>
        <time>2020-07-07T12:58:32Z</time>
      </trkpt>
      <trkpt lat="53.06376" lon="7.12026">
        <ele>46.802</ele>
        <time>2020-07-07T12:58:37Z</time>
      </trkpt>
      <trkpt lat="53.06398" lon="7.12011">
        <ele>48.246</ele>
        <time>2020-07-07T12:58:43Z</time>
      </trkpt>
      <trkpt lat="53.06414" lon="7.11997">
        <ele>48.14</ele>
        <time>2020-07-07T12:58:48Z</time>
      </trkpt>
      <trkpt lat="53.06435" lon="7.11978">
        <ele>47.085</ele>
        <time>2020-07-07T12:58:54Z</time>
      </trkpt>
      <trkpt lat="53.06452" lon="7.11961">
        <ele>47.422</ele>
        <time>2020-07-07T12:58:59Z</time>
      </trkpt>
      <trkpt lat="53.06471" lon="7.11941">
        <ele>46.247</ele>
        <time>2020-07-07T12:59:05Z</time>
      </trkpt>
      <trkpt lat="53.06488" lon="7.11927">
        <ele>45.017</ele>
        <time>2020-07-07T12:59:10Z</time>
      </trkpt>
      <trkpt lat="53.06507" lon="7.11911">
        <ele>44.005</ele>
        <time>2020-07-07T12:59:16Z</time>
      </trkpt>
      <trkpt lat="53.06519" lon="7.11897">
        <ele>44.308</ele>
        <time>2020-07-07T12:59:21Z</time>
      </trkpt>
      <trkpt lat="53.06535" lon="7.1188">
        <ele>44.843</ele>
        <time>2020-07-07T12:59:27Z</time>
      </trkpt>
      <trkpt lat="53.06548" lon="7.11864">
        <ele>45.115</ele>
        <time>2020-07-07T12:59:32Z</time>
      </trkpt>
      <trkpt lat="53.06568" lon="7.11847">
        <ele>43.74</ele>
        <time>2020-07-07T12:59:38Z</time>
      </trkpt>
      <trkpt lat="53.06586" lon="7.11836">
        <ele>43.947</ele>
        <time>2020-07-07T12:59:43Z</time>
      </trkpt>
      <trkpt lat="53.06602" lon="7.11821">
        <ele>44.545</ele>
        <time>2020-07-07T12:59:48Z</time>
      </trkpt>
      <trkpt lat="53.06619" lon="7.11803">
        <ele>44.843</ele>
        <time>2020-07-07T12:59:54Z</time>
      </trkpt>
      <trkpt lat="53.06633" lon="7.11786">
        <ele>46.118</ele>
        <time>2020-07-07T13:00:00Z</time>
      </trkpt>
      <trkpt lat="53.06648" lon="7.1177">
        <ele>46.437</ele>
        <time>2020-07-07T13:00:05Z</time>
      </trkpt>
      <trkpt lat="53.0667" lon="7.11751">
        <ele>48.217</ele>
        <time>2020-07-07T13:00:11Z</time>
      </trkpt>
      <trkpt lat="53.06689" lon="7.11736">
        <ele>49.011</ele>
        <time>2020-07-07T13:00:16Z</time>
      </trkpt>
      <trkpt lat="53.06711" lon="7.11719">
        <ele>49.682</ele>
        <time>2020-07-07T13:00:22Z</time>
      </trkpt>
      <trkpt lat="53.06729" lon="7.11708">
        <ele>50.906</ele>
        <time>2020-07-07T13:00:27Z</time>
      </trkpt>
      <trkpt lat="53.06748" lon="7.11693">
        <ele>51.106</ele>
        <time>2020-07-07T13:00:33Z</time>
      </trkpt>
      <trkpt lat="53.06764" lon="7.11678">
        <ele>50.526</ele>
        <time>2020-07-07T13:00:38Z</time>
      </trkpt>
      <trkpt lat="53.0678" lon="7.11664">
        <ele>50.799</ele>
        <time>2020-07-07T13:00:43Z</time>
      </trkpt>
      <trkpt lat="53.06797" lon="7.11651">
        <ele>51.768</ele>
        <time>2020-07-07T13:00:49Z</time>
      </trkpt>
      <trkpt lat="53.06811" lon="7.11639">
        <ele>52.452</ele>
        <time>2020-07-07T13:00:54Z</time>
      </trkpt>
      <trkpt lat="53.06829" lon="7.11621">
        <ele>51.92</ele>
        <time>2020-07-07T13:01:00Z</time>
      </trkpt>
      <trkpt lat="53.06843" lon="7.11606">
        <ele>50.837</ele>
        <time>2020-07-07T13:01:05Z</time>
      </trkpt>
      <trkpt lat="53.06865" lon="7.11589">
        <ele>50.454</ele>
        <time>2020-07-07T13:01:11Z</time>
      </trkpt>
      <trkpt lat="53.06883" lon="7.11576">
        <ele>50.013</ele>
        <time>2020-07-07T13:01:16Z</time>
      </trkpt>
      <trkpt lat="53.06906" lon="7.11559">
        <ele>52.517</ele>
        <time>2020-07-07T13:01:22Z</time>
      </trkpt>
      <trkpt lat="53.06921" lon="7.11543">
        <ele>53.071</ele>
        <time>2020-07-07T13:01:27Z</time>
      </trkpt>
      <trkpt lat="53.06939" lon="7.11527">
        <ele>52.314</ele>
        <time>2020-07-07T13:01:33Z</time>
      </trkpt>
      <trkpt lat="53.06952" lon="7.11512">
        <ele>51.962</ele>
        <time>2020-07-07T13:01:38Z</time>
      </trkpt>
      <trkpt lat="53.06972" lon="7.11492">
        <ele>51.525</ele>
        <time>2020-07-07T13:01:44Z</time>
      </trkpt>
      <trkpt lat="53.06989" lon="7.11472">
        <ele>51.319</ele>
        <time>2020-07-07T13:01:49Z</time>
      </trkpt>
      <trkpt lat="53.07014" lon="7.11453">
        <ele>48.986</ele>
        <time>2020-07-07T13:01:55Z</time>
      </trkpt>
      <trkpt lat="53.07031" lon="7.11439">
        <ele>48.148</ele>
        <time>2020-07-07T13:02:00Z</time>
      </trkpt>
      <trkpt lat="53.07049" lon="7.11427">
        <ele>47.793</ele>
        <time>2020-07-07T13:02:06Z</time>
      </trkpt>
      <trkpt lat="53.07067" lon="7.11437">
        <ele>47.778</ele>
        <time>2020-07-07T13:02:12Z</time>
      </trkpt>
      <trkpt lat="53.07084" lon="7.11443">
        <ele>47.156</ele>
        <time>2020-07-07T13:02:17Z</time>
      </trkpt>
      <trkpt lat="53.07104" lon="7.11445">
        <ele>47.032</ele>
        <time>2020-07-07T13:02:22Z</time>
      </trkpt>
      <trkpt lat="53.07124" lon="7.11438">
        <ele>47.249</ele>
        <time>2020-07-07T13:02:28Z</time>
      </trkpt>
      <trkpt lat="53.07142" lon="7.11424">
        <ele>48.47</ele>
        <time>2020-07-07T13:02:33Z</time>
      </trkpt>
      <trkpt lat="53.07161" lon="7.11412">
        <ele>48.586</ele>
        <time>2020-07-07T13:02:39Z</time>
      </trkpt>
      <trkpt lat="53.07179" lon="7.11401">
        <ele>47.749</ele>
        <time>2020-07-07T13:02:45Z</time>
      </trkpt>
      <trkpt lat="53.07196" lon="7.11391">
        <ele>47.099</ele>
        <time>2020-07-07T13:02:51Z</time>
      </trkpt>
      <trkpt lat="53.07212" lon="7.11384">
        <ele>46.374</ele>
        <time>2020-07-07T13:02:56Z</time>
      </trkpt>
      <trkpt lat="53.07237" lon="7.11387">
        <ele>45.346</ele>
        <time>2020-07-07T13:03:02Z</time>
      </trkpt>
      <trkpt lat="53.07256" lon="7.11385">
        <ele>46.026</ele>
        <time>2020-07-07T13:03:07Z</time>
      </trkpt>
      <trkpt lat="53.0728" lon="7.11383">
        <ele>44.507</ele>
        <time>2020-07-07T13:03:13Z</time>
      </trkpt>
      <trkpt lat="53.07303" lon="7.11385">
        <ele>43.469</ele>
        <time>2020-07-07T13:03:19Z</time>
      </trkpt>
      <trkpt lat="53.07319" lon="7.1139">
        <ele>43.731</ele>
        <time>2020-07-07T13:03:24Z</time>
      </trkpt>
      <trkpt lat="53.07334" lon="7.11398">
        <ele>42.459</ele>
        <time>2020-07-07T13:03:30Z</time>
      </trkpt>
      <trkpt lat="53.07341" lon="7.11408">
        <ele>42.192</ele>
        <time>2020-07-07T13:03:35Z</time>
      </trkpt>
      <trkpt lat="53.07342" lon="7.11408">
        <ele>42.191</ele>
        <time>2020-07-07T13:03:41Z</time>
      </trkpt>
      <trkpt lat="53.07342" lon="7.11408">
        <ele>42.191</ele>
        <time>2020-07-07T13:03:47Z</time>
      </trkpt>
      <trkpt lat="53.07342" lon="7.11408">
        <ele>42.191</ele>
        <time>2020-07-07T13:03:53Z</time>
      </trkpt>
      <trkpt lat="53.07342" lon="7.11408">
        <ele>42.191</ele>
        <time>2020-07-07T13:03:58Z</time>
      </trkpt>
      <trkpt lat="53.07342" lon="7.11408">
        <ele>42.191</ele>
        <time>2020-07-07T13:04:03Z</time>
      </trkpt>
      <trkpt lat="53.07342" lon="7.11408">
        <ele>42.191</ele>
        <time>2020-07-07T13:04:09Z</time>
      </trkpt>
      <trkpt lat="53.07342" lon="7.11408">
        <ele>42.191</ele>
        <time>2020-07-07T13:04:15Z</time>
      </trkpt>
      <trkpt lat="53.07342" lon="7.11408">
        <ele>42.191</ele>
        <time>2020-07-07T13:04:21Z</time>
      </trkpt>
      <trkpt lat="53.07342" lon="7.11408">
        <ele>42.191</ele>
        <time>2020-07-07T13:04:27Z</time>
      </trkpt>
      <trkpt lat="53.07342" lon="7.11408">
        <ele>42.191</ele>
        <time>2020-07-07T13:04:33Z</time>
      </trkpt>
      <trkpt lat="53.07342" lon="7.11408">
        <ele>42.191</ele>
        <time>2020-07-07T13:04:38Z</time>
      </trkpt>
      <trkpt lat="53.07342" lon="7.11408">
        <ele>42.191</ele>
        <time>2020-07-07T13:04:44Z</time>
      </trkpt>
      <trkpt lat="53.07342" lon="7.11408">
        <ele>42.191</ele>
        <time>2020-07-07T13:04:49Z</time>
      </trkpt>
      <trkpt lat="53.07342" lon="7.11408">
        <ele>42.191</ele>
        <time>2020-07-07T13:04:55Z</time>
      </trkpt>
      <trkpt lat="53.07342" lon="7.11408">
        <ele>42.191</ele>
        <time>2020-07-07T13:05:00Z</time>
      </trkpt>
      <trkpt lat="53.07342" lon="7.11408">
        <ele>42.191</ele>
        <time>2020-07-07T13:05:06Z</time>
      </trkpt>
      <trkpt lat="53.07342" lon="7.11408">
        <ele>42.191</ele>
        <time>2020-07-07T13:05:11Z</time>
      </trkpt>
      <trkpt lat="53.07342" lon="7.11408">
        <ele>42.191</ele>
        <time>2020-07-07T13:05:17Z</time>
      </trkpt>
      <trkpt lat="53.07342" lon="7.11408">
        <ele>42.191</ele>
        <time>2020-07-07T13:05:22Z</time>
      </trkpt>
      <trkpt lat="53.07342" lon="7.11408">
        <ele>42.191</ele>
        <time>2020-07-07T13:05:28Z</time>
      </trkpt>
      <trkpt lat="53.07342" lon="7.11408">
        <ele>42.191</ele>
        <time>2020-07-07T13:05:34Z</time>
      </trkpt>
      <trkpt lat="53.07342" lon="7.11408">
        <ele>42.191</ele>
        <time>2020-07-07T13:05:39Z</time>
      </trkpt>
      <trkpt lat="53.07342" lon="7.11408">
        <ele>42.191</ele>
        <time>2020-07-07T13:05:45Z</time>
      </trkpt>
      <trkpt lat="53.07342" lon="7.11408">
        <ele>42.191</ele>
        <time>2020-07-07T13:05:50Z</time>
      </trkpt>
      <trkpt lat="53.07342" lon="7.11408">
        <ele>42.191</ele>
        <time>2020-07-07T13:05:56Z</time>
      </trkpt>
      <trkpt lat="53.07342" lon="7.11408">
        <ele>42.191</ele>
        <time>2020-07-07T13:06:02Z</time>
      </trkpt>
      <trkpt lat="53.07342" lon="7.11408">
        <ele>42.191</ele>
        <time>2020-07-07T13:06:07Z</time>
      </trkpt>
      <trkpt lat="53.07342" lon="7.11408">
        <ele>42.191</ele>
        <time>2020-07-07T13:06:12Z</time>
      </trkpt>
      <trkpt lat="53.07342" lon="7.11408">
        <ele>42.191</ele>
        <time>2020-07-07T13:06:18Z</time>
      </trkpt>
      <trkpt lat="53.07342" lon="7.11408">
        <ele>42.191</ele>
        <time>2020-07-07T13:06:23Z</time>
      </trkpt>
      <trkpt lat="53.07342" lon="7.11408">
        <ele>42.191</ele>
        <time>2020-07-07T13:06:28Z</time>
      </trkpt>
      <trkpt lat="53.07342" lon="7.11408">
        <ele>42.191</ele>
        <time>2020-07-07T13:06:34Z</time>
      </trkpt>
      <trkpt lat="53.07342" lon="7.11408">
        <ele>42.191</ele>
        <time>2020-07-07T13:06:40Z</time>
      </trkpt>
      <trkpt lat="53.07342" lon="7.11408">
        <ele>42.191</ele>
        <time>2020-07-07T13:06:45Z</time>
      </trkpt>
      <trkpt lat="53.07342" lon="7.11408">
        <ele>42.191</ele>
        <time>2020-07-07T13:06:51Z</time>
      </trkpt>
      <trkpt lat="53.07342" lon="7.11408">
        <ele>42.191</ele>
        <time>2020-07-07T13:06:57Z</time>
      </trkpt>
      <trkpt lat="53.07342" lon="7.11408">
        <ele>42.191</ele>
        <time>2020-07-07T13:07:02Z</time>
      </trkpt>
      <trkpt lat="53.07342" lon="7.11408">
        <ele>42.191</ele>
        <time>2020-07-07T13:07:08Z</time>
      </trkpt>
      <trkpt lat="53.07342" lon="7.11408">
        <ele>42.191</ele>
        <time>2020-07-07T13:07:13Z</time>
      </trkpt>
      <trkpt lat="53.07342" lon="7.11408">
        <ele>42.191</ele>
        <time>2020-07-07T13:07:19Z</time>
      </trkpt>
      <trkpt lat="53.07342" lon="7.11408">
        <ele>42.191</ele>
        <time>2020-07-07T13:07:25Z</time>
      </trkpt>
      <trkpt lat="53.07342" lon="7.11408">
        <ele>42.191</ele>
        <time>2020-07-07T13:07:31Z</time>
      </trkpt>
      <trkpt lat="53.07342" lon="7.11408">
        <ele>42.191</ele>
        <time>2020-07-07T13:07:36Z</time>
      </trkpt>
      <trkpt lat="53.07342" lon="7.11408">
        <ele>42.191</ele>
        <time>2020-07-07T13:07:42Z</time>
      </trkpt>
      <trkpt lat="53.07342" lon="7.11408">
        <ele>42.191</ele>
        <time>2020-07-07T13:07:48Z</time>
      </trkpt>
      <trkpt lat="53.07341" lon="7.11408">
        <ele>42.299</ele>
        <time>2020-07-07T13:07:54Z</time>
      </trkpt>
      <trkpt lat="53.07341" lon="7.11408">
        <ele>42.299</ele>
        <time>2020-07-07T13:07:59Z</time>
      </trkpt>
      <trkpt lat="53.07341" lon="7.11408">
        <ele>42.299</ele>
        <time>2020-07-07T13:08:05Z</time>
      </trkpt>
      <trkpt lat="53.07341" lon="7.11408">
        <ele>42.299</ele>
        <time>2020-07-07T13:08:10Z</time>
      </trkpt>
      <trkpt lat="53.07341" lon="7.11408">
        <ele>42.299</ele>
        <time>2020-07-07T13:08:16Z</time>
      </trkpt>
      <trkpt lat="53.07343" lon="7.11412">
        <ele>42.304</ele>
        <time>2020-07-07T13:08:21Z</time>
      </trkpt>
      <trkpt lat="53.0735" lon="7.11419">
        <ele>43.304</ele>
        <time>2020-07-07T13:08:27Z</time>
      </trkpt>
      <trkpt lat="53.07356" lon="7.11432">
        <ele>44.038</ele>
        <time>2020-07-07T13:08:32Z</time>
      </trkpt>
      <trkpt lat="53.07363" lon="7.11448">
        <ele>45.029</ele>
        <time>2020-07-07T13:08:38Z</time>
      </trkpt>
      <trkpt lat="53.0737" lon="7.11465">
        <ele>45.955</ele>
        <time>2020-07-07T13:08:43Z</time>
      </trkpt>
      <trkpt lat="53.07383" lon="7.11496">
        <ele>46.02</ele>
        <time>2020-07-07T13:08:49Z</time>
      </trkpt>
      <trkpt lat="53.07395" lon="7.11524">
        <ele>44.514</ele>
        <time>2020-07-07T13:08:54Z</time>
      </trkpt>
      <trkpt lat="53.07406" lon="7.1155">
        <ele>44.105</ele>
        <time>2020-07-07T13:09:00Z</time>
      </trkpt>
      <trkpt lat="53.0742" lon="7.11581">
        <ele>43.393</ele>
        <time>2020-07-07T13:09:06Z</time>
      </trkpt>
      <trkpt lat="53.07431" lon="7.11608">
        <ele>43.029</ele>
        <time>2020-07-07T13:09:11Z</time>
      </trkpt>
      <trkpt lat="53.07442" lon="7.11635">
        <ele>43.234</ele>
        <time>2020-07-07T13:09:17Z</time>
      </trkpt>
      <trkpt lat="53.07451" lon="7.11659">
        <ele>43.248</ele>
        <time>2020-07-07T13:09:22Z</time>
      </trkpt>
      <trkpt lat="53.07464" lon="7.11689">
        <ele>42.896</ele>
        <time>2020-07-07T13:09:28Z</time>
      </trkpt>
      <trkpt lat="53.07482" lon="7.11717">
        <ele>43.951</ele>
        <time>2020-07-07T13:09:34Z</time>
      </trkpt>
      <trkpt lat="53.075" lon="7.11732">
        <ele>43.603</ele>
        <time>2020-07-07T13:09:39Z</time>
      </trkpt>
      <trkpt lat="53.07523" lon="7.11741">
        <ele>43.388</ele>
        <time>2020-07-07T13:09:45Z</time>
      </trkpt>
      <trkpt lat="53.07544" lon="7.11733">
        <ele>44.202</ele>
        <time>2020-07-07T13:09:51Z</time>
      </trkpt>
      <trkpt lat="53.07558" lon="7.11725">
        <ele>44.623</ele>
        <time>2020-07-07T13:09:56Z</time>
      </trkpt>
      <trkpt lat="53.07571" lon="7.1172">
        <ele>44.935</ele>
        <time>2020-07-07T13:10:01Z</time>
      </trkpt>
      <trkpt lat="53.07595" lon="7.11722">
        <ele>43.622</ele>
        <time>2020-07-07T13:10:07Z</time>
      </trkpt>
      <trkpt lat="53.07615" lon="7.11736">
        <ele>43.721</ele>
        <time>2020-07-07T13:10:13Z</time>
      </trkpt>
      <trkpt lat="53.07627" lon="7.11755">
        <ele>43.404</ele>
        <time>2020-07-07T13:10:19Z</time>
      </trkpt>
      <trkpt lat="53.07636" lon="7.11774">
        <ele>42.164</ele>
        <time>2020-07-07T13:10:24Z</time>
      </trkpt>
      <trkpt lat="53.07654" lon="7.11799">
        <ele>41.962</ele>
        <time>2020-07-07T13:10:30Z</time>
      </trkpt>
      <trkpt lat="53.0767" lon="7.11833">
        <ele>43.169</ele>
        <time>2020-07-07T13:10:36Z</time>
      </trkpt>
      <trkpt lat="53.07686" lon="7.11863">
        <ele>43.371</ele>
        <time>2020-07-07T13:10:41Z</time>
      </trkpt>
      <trkpt lat="53.07698" lon="7.11885">
        <ele>43.666</ele>
        <time>2020-07-07T13:10:46Z</time>
      </trkpt>
      <trkpt lat="53.0771" lon="7.11909">
        <ele>46.231</ele>
        <time>2020-07-07T13:10:52Z</time>
      </trkpt>
      <trkpt lat="53.07723" lon="7.11939">
        <ele>47.103</ele>
        <time>2020-07-07T13:10:58Z</time>
      </trkpt>
      <trkpt lat="53.07738" lon="7.11964">
        <ele>48.283</ele>
        <time>2020-07-07T13:11:04Z</time>
      </trkpt>
      <trkpt lat="53.07749" lon="7.11982">
        <ele>48.854</ele>
        <time>2020-07-07T13:11:09Z</time>
      </trkpt>
      <trkpt lat="53.07762" lon="7.12006">
        <ele>49.553</ele>
        <time>2020-07-07T13:11:15Z</time>
      </trkpt>
      <trkpt lat="53.07776" lon="7.12032">
        <ele>49.053</ele>
        <time>2020-07-07T13:11:20Z</time>
      </trkpt>
      <trkpt lat="53.07792" lon="7.12058">
        <ele>48.574</ele>
        <time>2020-07-07T13:11:25Z</time>
      </trkpt>
      <trkpt lat="53.07815" lon="7.1209">
        <ele>46.813</ele>
        <time>2020-07-07T13:11:31Z</time>
      </trkpt>
      <trkpt lat="53.07826" lon="7.12115">
        <ele>46.002</ele>
        <time>2020-07-07T13:11:36Z</time>
      </trkpt>
      <trkpt lat="53.07838" lon="7.12141">
        <ele>45.417</ele>
        <time>2020-07-07T13:11:42Z</time>
      </trkpt>
      <trkpt lat="53.0786" lon="7.12181">
        <ele>45.025</ele>
        <time>2020-07-07T13:11:48Z</time>
      </trkpt>
      <trkpt lat="53.07877" lon="7.12209">
        <ele>42.345</ele>
        <time>2020-07-07T13:11:53Z</time>
      </trkpt>
      <trkpt lat="53.07892" lon="7.1223">
        <ele>40.656</ele>
        <time>2020-07-07T13:11:58Z</time>
      </trkpt>
      <trkpt lat="53.07911" lon="7.12256">
        <ele>41.594</ele>
        <time>2020-07-07T13:12:04Z</time>
      </trkpt>
      <trkpt lat="53.07929" lon="7.12276">
        <ele>42.084</ele>
        <time>2020-07-07T13:12:10Z</time>
      </trkpt>
      <trkpt lat="53.07941" lon="7.12293">
        <ele>42.2</ele>
        <time>2020-07-07T13:12:15Z</time>
      </trkpt>
      <trkpt lat="53.07957" lon="7.12317">
        <ele>42.347</ele>
        <time>2020-07-07T13:12:21Z</time>
      </trkpt>
      <trkpt lat="53.07975" lon="7.1234">
        <ele>42.68</ele>
        <time>2020-07-07T13:12:27Z</time>
      </trkpt>
      <trkpt lat="53.07988" lon="7.1236">
        <ele>43.565</ele>
        <time>2020-07-07T13:12:33Z</time>
      </trkpt>
      <trkpt lat="53.07999" lon="7.12377">
        <ele>44.844</ele>
        <time>2020-07-07T13:12:38Z</time>
      </trkpt>
      <trkpt lat="53.08015" lon="7.12399">
        <ele>45.821</ele>
        <time>2020-07-07T13:12:44Z</time>
      </trkpt>
      <trkpt lat="53.08035" lon="7.12428">
        <ele>45.999</ele>
        <time>2020-07-07T13:12:50Z</time>
      </trkpt>
      <trkpt lat="53.08053" lon="7.12446">
        <ele>47.651</ele>
        <time>2020-07-07T13:12:55Z</time>
      </trkpt>
      <trkpt lat="53.08067" lon="7.12465">
        <ele>48.103</ele>
        <time>2020-07-07T13:13:01Z</time>
      </trkpt>
      <trkpt lat="53.08088" lon="7.1249">
        <ele>48.12</ele>
        <time>2020-07-07T13:13:07Z</time>
      </trkpt>
      <trkpt lat="53.08105" lon="7.12509">
        <ele>47.484</ele>
        <time>2020-07-07T13:13:12Z</time>
      </trkpt>
      <trkpt lat="53.08121" lon="7.12529">
        <ele>46.538</ele>
        <time>2020-07-07T13:13:17Z</time>
      </trkpt>
      <trkpt lat="53.08137" lon="7.1255">
        <ele>44.972</ele>
        <time>2020-07-07T13:13:23Z</time>
      </trkpt>
      <trkpt lat="53.08159" lon="7.12578">
        <ele>44.928</ele>
        <time>2020-07-07T13:13:29Z</time>
      </trkpt>
      <trkpt lat="53.08178" lon="7.126">
        <ele>45.194</ele>
        <time>2020-07-07T13:13:34Z</time>
      </trkpt>
      <trkpt lat="53.08194" lon="7.12625">
        <ele>44.994</ele>
        <time>2020-07-07T13:13:40Z</time>
      </trkpt>
      <trkpt lat="53.08206" lon="7.12647">
        <ele>44.811</ele>
        <time>2020-07-07T13:13:45Z</time>
      </trkpt>
      <trkpt lat="53.08225" lon="7.1267">
        <ele>44.832</ele>
        <time>2020-07-07T13:13:51Z</time>
      </trkpt>
      <trkpt lat="53.08242" lon="7.12689">
        <ele>45.417</ele>
        <time>2020-07-07T13:13:56Z</time>
      </trkpt>
      <trkpt lat="53.0826" lon="7.12712">
        <ele>45.597</ele>
        <time>2020-07-07T13:14:02Z</time>
      </trkpt>
      <trkpt lat="53.08276" lon="7.12731">
        <ele>45.252</ele>
        <time>2020-07-07T13:14:07Z</time>
      </trkpt>
      <trkpt lat="53.08294" lon="7.12754">
        <ele>44.983</ele>
        <time>2020-07-07T13:14:13Z</time>
      </trkpt>
      <trkpt lat="53.0831" lon="7.12777">
        <ele>45.659</ele>
        <time>2020-07-07T13:14:19Z</time>
      </trkpt>
      <trkpt lat="53.08325" lon="7.12798">
        <ele>46.519</ele>
        <time>2020-07-07T13:14:24Z</time>
      </trkpt>
      <trkpt lat="53.08343" lon="7.12822">
        <ele>47.597</ele>
        <time>2020-07-07T13:14:30Z</time>
      </trkpt>
      <trkpt lat="53.08356" lon="7.12844">
        <ele>46.817</ele>
        <time>2020-07-07T13:14:35Z</time>
      </trkpt>
      <trkpt lat="53.08374" lon="7.12872">
        <ele>46.155</ele>
        <time>2020-07-07T13:14:41Z</time>
      </trkpt>
      <trkpt lat="53.08387" lon="7.12887">
        <ele>46.95</ele>
        <time>2020-07-07T13:14:46Z</time>
      </trkpt>
      <trkpt lat="53.08399" lon="7.12906">
        <ele>47.759</ele>
        <time>2020-07-07T13:14:51Z</time>
      </trkpt>
      <trkpt lat="53.08417" lon="7.12923">
        <ele>47.356</ele>
        <time>2020-07-07T13:14:57Z</time>
      </trkpt>
      <trkpt lat="53.0843" lon="7.12943">
        <ele>46.249</ele>
        <time>2020-07-07T13:15:02Z</time>
      </trkpt>
      <trkpt lat="53.08442" lon="7.12968">
        <ele>45.341</ele>
        <time>2020-07-07T13:15:08Z</time>
      </trkpt>
      <trkpt lat="53.08454" lon="7.12991">
        <ele>45.774</ele>
        <time>2020-07-07T13:15:13Z</time>
      </trkpt>
      <trkpt lat="53.08474" lon="7.13019">
        <ele>46.867</ele>
        <time>2020-07-07T13:15:19Z</time>
      </trkpt>
      <trkpt lat="53.08487" lon="7.13038">
        <ele>45.933</ele>
        <time>2020-07-07T13:15:24Z</time>
      </trkpt>
      <trkpt lat="53.08503" lon="7.13062">
        <ele>44.421</ele>
        <time>2020-07-07T13:15:30Z</time>
      </trkpt>
      <trkpt lat="53.08519" lon="7.13082">
        <ele>43.075</ele>
        <time>2020-07-07T13:15:35Z</time>
      </trkpt>
      <trkpt lat="53.08539" lon="7.13111">
        <ele>42.721</ele>
        <time>2020-07-07T13:15:41Z</time>
      </trkpt>
      <trkpt lat="53.08554" lon="7.13137">
        <ele>42.788</ele>
        <time>2020-07-07T13:15:46Z</time>
      </trkpt>
      <trkpt lat="53.08572" lon="7.13161">
        <ele>43.41</ele>
        <time>2020-07-07T13:15:52Z</time>
      </trkpt>
      <trkpt lat="53.08589" lon="7.13185">
        <ele>43.842</ele>
        <time>2020-07-07T13:15:58Z</time>
      </trkpt>
      <trkpt lat="53.08609" lon="7.13211">
        <ele>46.113</ele>
        <time>2020-07-07T13:16:04Z</time>
      </trkpt>
      <trkpt lat="53.08623" lon="7.1323">
        <ele>47.705</ele>
        <time>2020-07-07T13:16:09Z</time>
      </trkpt>
      <trkpt lat="53.08635" lon="7.13253">
        <ele>48.4</ele>
        <time>2020-07-07T13:16:14Z</time>
      </trkpt>
      <trkpt lat="53.08649" lon="7.13276">
        <ele>50.131</ele>
        <time>2020-07-07T13:16:19Z</time>
      </trkpt>
      <trkpt lat="53.08666" lon="7.13302">
        <ele>50.729</ele>
        <time>2020-07-07T13:16:25Z</time>
      </trkpt>
      <trkpt lat="53.0868" lon="7.13321">
        <ele>50.179</ele>
        <time>2020-07-07T13:16:30Z</time>
      </trkpt>
      <trkpt lat="53.08698" lon="7.13349">
        <ele>48.42</ele>
        <time>2020-07-07T13:16:36Z</time>
      </trkpt>
      <trkpt lat="53.08711" lon="7.13378">
        <ele>47.685</ele>
        <time>2020-07-07T13:16:41Z</time>
      </trkpt>
      <trkpt lat="53.0873" lon="7.134">
        <ele>48.251</ele>
        <time>2020-07-07T13:16:47Z</time>
      </trkpt>
      <trkpt lat="53.08748" lon="7.13422">
        <ele>48.635</ele>
        <time>2020-07-07T13:16:53Z</time>
      </trkpt>
      <trkpt lat="53.08764" lon="7.13445">
        <ele>47.684</ele>
        <time>2020-07-07T13:16:59Z</time>
      </trkpt>
      <trkpt lat="53.08779" lon="7.13471">
        <ele>45.585</ele>
        <time>2020-07-07T13:17:05Z</time>
      </trkpt>
      <trkpt lat="53.08797" lon="7.13497">
        <ele>46.016</ele>
        <time>2020-07-07T13:17:11Z</time>
      </trkpt>
      <trkpt lat="53.08812" lon="7.13523">
        <ele>47.07</ele>
        <time>2020-07-07T13:17:17Z</time>
      </trkpt>
      <trkpt lat="53.08826" lon="7.13548">
        <ele>46.23</ele>
        <time>2020-07-07T13:17:23Z</time>
      </trkpt>
      <trkpt lat="53.08841" lon="7.13566">
        <ele>45.201</ele>
        <time>2020-07-07T13:17:28Z</time>
      </trkpt>
      <trkpt lat="53.08855" lon="7.13588">
        <ele>45.677</ele>
        <time>2020-07-07T13:17:33Z</time>
      </trkpt>
      <trkpt lat="53.0887" lon="7.13606">
        <ele>46.458</ele>
        <time>2020-07-07T13:17:39Z</time>
      </trkpt>
      <trkpt lat="53.08884" lon="7.13627">
        <ele>45.358</ele>
        <time>2020-07-07T13:17:44Z</time>
      </trkpt>
      <trkpt lat="53.08901" lon="7.13653">
        <ele>45.056</ele>
        <time>2020-07-07T13:17:50Z</time>
      </trkpt>
      <trkpt lat="53.08917" lon="7.13677">
        <ele>44.506</ele>
        <time>2020-07-07T13:17:56Z</time>
      </trkpt>
      <trkpt lat="53.08933" lon="7.13697">
        <ele>44.996</ele>
        <time>2020-07-07T13:18:02Z</time>
      </trkpt>
      <trkpt lat="53.08952" lon="7.13723">
        <ele>46.393</ele>
        <time>2020-07-07T13:18:08Z</time>
      </trkpt>
      <trkpt lat="53.0897" lon="7.13749">
        <ele>44.905</ele>
        <time>2020-07-07T13:18:14Z</time>
      </trkpt>
      <trkpt lat="53.08987" lon="7.13774">
        <ele>43.171</ele>
        <time>2020-07-07T13:18:20Z</time>
      </trkpt>
      <trkpt lat="53.09" lon="7.13796">
        <ele>42.984</ele>
        <time>2020-07-07T13:18:25Z</time>
      </trkpt>
      <trkpt lat="53.09015" lon="7.13822">
        <ele>41.589</ele>
        <time>2020-07-07T13:18:31Z</time>
      </trkpt>
      <trkpt lat="53.09033" lon="7.13849">
        <ele>41.938</ele>
        <time>2020-07-07T13:18:37Z</time>
      </trkpt>
      <trkpt lat="53.09044" lon="7.13868">
        <ele>41.891</ele>
        <time>2020-07-07T13:18:42Z</time>
      </trkpt>
      <trkpt lat="53.09059" lon="7.1389">
        <ele>41.397</ele>
        <time>2020-07-07T13:18:48Z</time>
      </trkpt>
      <trkpt lat="53.09078" lon="7.13916">
        <ele>40.209</ele>
        <time>2020-07-07T13:18:53Z</time>
      </trkpt>
      <trkpt lat="53.09094" lon="7.13936">
        <ele>39.378</ele>
        <time>2020-07-07T13:18:58Z</time>
      </trkpt>
      <trkpt lat="53.0911" lon="7.13958">
        <ele>38.852</ele>
        <time>2020-07-07T13:19:04Z</time>
      </trkpt>
      <trkpt lat="53.09127" lon="7.13985">
        <ele>39.686</ele>
        <time>2020-07-07T13:19:10Z</time>
      </trkpt>
      <trkpt lat="53.09142" lon="7.14006">
        <ele>40.228</ele>
        <time>2020-07-07T13:19:15Z</time>
      </trkpt>
      <trkpt lat="53.09155" lon="7.14029">
        <ele>40.063</ele>
        <time>2020-07-07T13:19:20Z</time>
      </trkpt>
      <trkpt lat="53.09168" lon="7.14052">
        <ele>40.591</ele>
        <time>2020-07-07T13:19:26Z</time>
      </trkpt>
      <trkpt lat="53.09183" lon="7.14073">
        <ele>40.22</ele>
        <time>2020-07-07T13:19:31Z</time>
      </trkpt>
      <trkpt lat="53.09203" lon="7.14101">
        <ele>40.42</ele>
        <time>2020-07-07T13:19:37Z</time>
      </trkpt>
      <trkpt lat="53.09218" lon="7.14122">
        <ele>40.815</ele>
        <time>2020-07-07T13:19:43Z</time>
      </trkpt>
      <trkpt lat="53.09236" lon="7.14148">
        <ele>40.07</ele>
        <time>2020-07-07T13:19:49Z</time>
      </trkpt>
      <trkpt lat="53.09251" lon="7.14171">
        <ele>39.061</ele>
        <time>2020-07-07T13:19:54Z</time>
      </trkpt>
      <trkpt lat="53.09264" lon="7.1419">
        <ele>37.806</ele>
        <time>2020-07-07T13:19:59Z</time>
      </trkpt>
      <trkpt lat="53.09281" lon="7.14213">
        <ele>37.163</ele>
        <time>2020-07-07T13:20:05Z</time>
      </trkpt>
      <trkpt lat="53.09294" lon="7.14232">
        <ele>36.861</ele>
        <time>2020-07-07T13:20:10Z</time>
      </trkpt>
      <trkpt lat="53.09309" lon="7.14257">
        <ele>37.757</ele>
        <time>2020-07-07T13:20:16Z</time>
      </trkpt>
      <trkpt lat="53.09328" lon="7.14283">
        <ele>38.848</ele>
        <time>2020-07-07T13:20:22Z</time>
      </trkpt>
      <trkpt lat="53.09347" lon="7.14295">
        <ele>38.858</ele>
        <time>2020-07-07T13:20:27Z</time>
      </trkpt>
      <trkpt lat="53.09367" lon="7.143">
        <ele>38.519</ele>
        <time>2020-07-07T13:20:32Z</time>
      </trkpt>
      <trkpt lat="53.09387" lon="7.14302">
        <ele>37.749</ele>
        <time>2020-07-07T13:20:37Z</time>
      </trkpt>
      <trkpt lat="53.0941" lon="7.14297">
        <ele>35.746</ele>
        <time>2020-07-07T13:20:43Z</time>
      </trkpt>
      <trkpt lat="53.09427" lon="7.14286">
        <ele>37.788</ele>
        <time>2020-07-07T13:20:49Z</time>
      </trkpt>
      <trkpt lat="53.09439" lon="7.14272">
        <ele>39.738</ele>
        <time>2020-07-07T13:20:54Z</time>
      </trkpt>
      <trkpt lat="53.09454" lon="7.14252">
        <ele>39.36</ele>
        <time>2020-07-07T13:21:00Z</time>
      </trkpt>
      <trkpt lat="53.09479" lon="7.14222">
        <ele>39.152</ele>
        <time>2020-07-07T13:21:06Z</time>
      </trkpt>
      <trkpt lat="53.09501" lon="7.14192">
        <ele>38.99</ele>
        <time>2020-07-07T13:21:12Z</time>
      </trkpt>
      <trkpt lat="53.09519" lon="7.14166">
        <ele>40.858</ele>
        <time>2020-07-07T13:21:18Z</time>
      </trkpt>
      <trkpt lat="53.09537" lon="7.14139">
        <ele>41.656</ele>
        <time>2020-07-07T13:21:24Z</time>
      </trkpt>
      <trkpt lat="53.09551" lon="7.14117">
        <ele>42.899</ele>
        <time>2020-07-07T13:21:30Z</time>
      </trkpt>
      <trkpt lat="53.09566" lon="7.14102">
        <ele>44.085</ele>
        <time>2020-07-07T13:21:35Z</time>
      </trkpt>
      <trkpt lat="53.09579" lon="7.14082">
        <ele>45.329</ele>
        <time>2020-07-07T13:21:41Z</time>
      </trkpt>
      <trkpt lat="53.09591" lon="7.14061">
        <ele>47.164</ele>
        <time>2020-07-07T13:21:46Z</time>
      </trkpt>
      <trkpt lat="53.09606" lon="7.14037">
        <ele>48.153</ele>
        <time>2020-07-07T13:21:52Z</time>
      </trkpt>
      <trkpt lat="53.09618" lon="7.14016">
        <ele>46.728</ele>
        <time>2020-07-07T13:21:57Z</time>
      </trkpt>
      <trkpt lat="53.09632" lon="7.13998">
        <ele>45.932</ele>
        <time>2020-07-07T13:22:03Z</time>
      </trkpt>
      <trkpt lat="53.09644" lon="7.1398">
        <ele>45.523</ele>
        <time>2020-07-07T13:22:08Z</time>
      </trkpt>
      <trkpt lat="53.09656" lon="7.13966">
        <ele>45.451</ele>
        <time>2020-07-07T13:22:13Z</time>
      </trkpt>
      <trkpt lat="53.0967" lon="7.13964">
        <ele>46.482</ele>
        <time>2020-07-07T13:22:19Z</time>
      </trkpt>
      <trkpt lat="53.09676" lon="7.13978">
        <ele>47.83</ele>
        <time>2020-07-07T13:22:24Z</time>
      </trkpt>
      <trkpt lat="53.09687" lon="7.13984">
        <ele>47.714</ele>
        <time>2020-07-07T13:22:29Z</time>
      </trkpt>
      <trkpt lat="53.09703" lon="7.14">
        <ele>46.506</ele>
        <time>2020-07-07T13:22:35Z</time>
      </trkpt>
      <trkpt lat="53.09714" lon="7.14018">
        <ele>46.49</ele>
        <time>2020-07-07T13:22:40Z</time>
      </trkpt>
      <trkpt lat="53.09733" lon="7.14044">
        <ele>46.761</ele>
        <time>2020-07-07T13:22:46Z</time>
      </trkpt>
      <trkpt lat="53.09747" lon="7.14064">
        <ele>47.89</ele>
        <time>2020-07-07T13:22:51Z</time>
      </trkpt>
      <trkpt lat="53.09759" lon="7.14082">
        <ele>46.81</ele>
        <time>2020-07-07T13:22:56Z</time>
      </trkpt>
      <trkpt lat="53.09773" lon="7.14101">
        <ele>46.182</ele>
        <time>2020-07-07T13:23:02Z</time>
      </trkpt>
      <trkpt lat="53.09785" lon="7.14119">
        <ele>46.252</ele>
        <time>2020-07-07T13:23:07Z</time>
      </trkpt>
      <trkpt lat="53.09802" lon="7.14143">
        <ele>45.722</ele>
        <time>2020-07-07T13:23:13Z</time>
      </trkpt>
      <trkpt lat="53.09821" lon="7.14171">
        <ele>43.574</ele>
        <time>2020-07-07T13:23:19Z</time>
      </trkpt>
      <trkpt lat="53.0984" lon="7.14194">
        <ele>42.039</ele>
        <time>2020-07-07T13:23:24Z</time>
      </trkpt>
      <trkpt lat="53.09864" lon="7.14217">
        <ele>40.219</ele>
        <time>2020-07-07T13:23:30Z</time>
      </trkpt>
      <trkpt lat="53.09891" lon="7.14242">
        <ele>38.359</ele>
        <time>2020-07-07T13:23:36Z</time>
      </trkpt>
      <trkpt lat="53.09903" lon="7.14257">
        <ele>37.696</ele>
        <time>2020-07-07T13:23:41Z</time>
      </trkpt>
      <trkpt lat="53.09922" lon="7.14283">
        <ele>36.931</ele>
        <time>2020-07-07T13:23:47Z</time>
      </trkpt>
      <trkpt lat="53.0994" lon="7.14314">
        <ele>37.078</ele>
        <time>2020-07-07T13:23:53Z</time>
      </trkpt>
      <trkpt lat="53.0996" lon="7.14345">
        <ele>38.333</ele>
        <time>2020-07-07T13:23:59Z</time>
      </trkpt>
      <trkpt lat="53.0998" lon="7.14379">
        <ele>40.585</ele>
        <time>2020-07-07T13:24:05Z</time>
      </trkpt>
      <trkpt lat="53.09994" lon="7.144">
        <ele>40.786</ele>
        <time>2020-07-07T13:24:10Z</time>
      </trkpt>
      <trkpt lat="53.10011" lon="7.14428">
        <ele>41.367</ele>
        <time>2020-07-07T13:24:16Z</time>
      </trkpt>
      <trkpt lat="53.10029" lon="7.14455">
        <ele>40.147</ele>
        <time>2020-07-07T13:24:22Z</time>
      </trkpt>
      <trkpt lat="53.10044" lon="7.14482">
        <ele>41.627</ele>
        <time>2020-07-07T13:24:28Z</time>
      </trkpt>
      <trkpt lat="53.10063" lon="7.14511">
        <ele>44.758</ele>
        <time>2020-07-07T13:24:34Z</time>
      </trkpt>
      <trkpt lat="53.10077" lon="7.14534">
        <ele>44.718</ele>
        <time>2020-07-07T13:24:39Z</time>
      </trkpt>
      <trkpt lat="53.10093" lon="7.14556">
        <ele>44.028</ele>
        <time>2020-07-07T13:24:45Z</time>
      </trkpt>
      <trkpt lat="53.10106" lon="7.14548">
        <ele>44.831</ele>
        <time>2020-07-07T13:24:51Z</time>
      </trkpt>
      <trkpt lat="53.10109" lon="7.14542">
        <ele>44.542</ele>
        <time>2020-07-07T13:24:56Z</time>
      </trkpt>
      <trkpt lat="53.10109" lon="7.14542">
        <ele>44.542</ele>
        <time>2020-07-07T13:25:01Z</time>
      </trkpt>
      <trkpt lat="53.10109" lon="7.14542">
        <ele>44.542</ele>
        <time>2020-07-07T13:25:06Z</time>
      </trkpt>
      <trkpt lat="53.10109" lon="7.14542">
        <ele>44.542</ele>
        <time>2020-07-07T13:25:12Z</time>
      </trkpt>
      <trkpt lat="53.10109" lon="7.14542">
        <ele>44.542</ele>
        <time>2020-07-07T13:25:17Z</time>
      </trkpt>
      <trkpt lat="53.10109" lon="7.14542">
        <ele>44.542</ele>
        <time>2020-07-07T13:25:22Z</time>
      </trkpt>
      <trkpt lat="53.10109" lon="7.14542">
        <ele>44.542</ele>
        <time>2020-07-07T13:25:28Z</time>
      </trkpt>
      <trkpt lat="53.10109" lon="7.14542">
        <ele>44.305</ele>
        <time>2020-07-07T13:25:34Z</time>
      </trkpt>
      <trkpt lat="53.1011" lon="7.14542">
        <ele>43.923</ele>
        <time>2020-07-07T13:25:39Z</time>
      </trkpt>
      <trkpt lat="53.1011" lon="7.14542">
        <ele>43.923</ele>
        <time>2020-07-07T13:25:44Z</time>
      </trkpt>
      <trkpt lat="53.1011" lon="7.14542">
        <ele>43.923</ele>
        <time>2020-07-07T13:25:50Z</time>
      </trkpt>
      <trkpt lat="53.1011" lon="7.14542">
        <ele>43.923</ele>
        <time>2020-07-07T13:25:56Z</time>
      </trkpt>
      <trkpt lat="53.1011" lon="7.14542">
        <ele>43.923</ele>
        <time>2020-07-07T13:26:02Z</time>
      </trkpt>
      <trkpt lat="53.1011" lon="7.14542">
        <ele>43.923</ele>
        <time>2020-07-07T13:26:07Z</time>
      </trkpt>
      <trkpt lat="53.1011" lon="7.14542">
        <ele>43.923</ele>
        <time>2020-07-07T13:26:12Z</time>
      </trkpt>
      <trkpt lat="53.1011" lon="7.14542">
        <ele>43.923</ele>
        <time>2020-07-07T13:26:17Z</time>
      </trkpt>
      <trkpt lat="53.1011" lon="7.14542">
        <ele>43.923</ele>
        <time>2020-07-07T13:26:23Z</time>
      </trkpt>
      <trkpt lat="53.1011" lon="7.14542">
        <ele>43.923</ele>
        <time>2020-07-07T13:26:29Z</time>
      </trkpt>
      <trkpt lat="53.1011" lon="7.14542">
        <ele>43.923</ele>
        <time>2020-07-07T13:26:34Z</time>
      </trkpt>
      <trkpt lat="53.1011" lon="7.14542">
        <ele>43.923</ele>
        <time>2020-07-07T13:26:40Z</time>
      </trkpt>
      <trkpt lat="53.1011" lon="7.14542">
        <ele>43.923</ele>
        <time>2020-07-07T13:26:46Z</time>
      </trkpt>
      <trkpt lat="53.1011" lon="7.14542">
        <ele>43.923</ele>
        <time>2020-07-07T13:26:52Z</time>
      </trkpt>
      <trkpt lat="53.1011" lon="7.14542">
        <ele>43.923</ele>
        <time>2020-07-07T13:26:58Z</time>
      </trkpt>
      <trkpt lat="53.1011" lon="7.14542">
        <ele>43.923</ele>
        <time>2020-07-07T13:27:03Z</time>
      </trkpt>
      <trkpt lat="53.1011" lon="7.14542">
        <ele>43.923</ele>
        <time>2020-07-07T13:27:09Z</time>
      </trkpt>
      <trkpt lat="53.1011" lon="7.14542">
        <ele>43.923</ele>
        <time>2020-07-07T13:27:15Z</time>
      </trkpt>
      <trkpt lat="53.10109" lon="7.14549">
        <ele>43.819</ele>
        <time>2020-07-07T13:27:20Z</time>
      </trkpt>
      <trkpt lat="53.10107" lon="7.1456">
        <ele>44.525</ele>
        <time>2020-07-07T13:27:25Z</time>
      </trkpt>
      <trkpt lat="53.10107" lon="7.1456">
        <ele>44.951</ele>
        <time>2020-07-07T13:27:30Z</time>
      </trkpt>
      <trkpt lat="53.10108" lon="7.14572">
        <ele>44.964</ele>
        <time>2020-07-07T13:27:35Z</time>
      </trkpt>
      <trkpt lat="53.10118" lon="7.14591">
        <ele>43.726</ele>
        <time>2020-07-07T13:27:41Z</time>
      </trkpt>
      <trkpt lat="53.10126" lon="7.14604">
        <ele>43.23</ele>
        <time>2020-07-07T13:27:47Z</time>
      </trkpt>
      <trkpt lat="53.10136" lon="7.14603">
        <ele>42.119</ele>
        <time>2020-07-07T13:27:52Z</time>
      </trkpt>
      <trkpt lat="53.10146" lon="7.14594">
        <ele>42.281</ele>
        <time>2020-07-07T13:27:58Z</time>
      </trkpt>
      <trkpt lat="53.10153" lon="7.14578">
        <ele>44.348</ele>
        <time>2020-07-07T13:28:04Z</time>
      </trkpt>
      <trkpt lat="53.10155" lon="7.14575">
        <ele>44.207</ele>
        <time>2020-07-07T13:28:10Z</time>
      </trkpt>
      <trkpt lat="53.10155" lon="7.14575">
        <ele>44.207</ele>
        <time>2020-07-07T13:28:16Z</time>
      </trkpt>
      <trkpt lat="53.10155" lon="7.14575">
        <ele>44.207</ele>
        <time>2020-07-07T13:28:22Z</time>
      </trkpt>
      <trkpt lat="53.10155" lon="7.14575">
        <ele>44.207</ele>
        <time>2020-07-07T13:28:28Z</time>
      </trkpt>
      <trkpt lat="53.10155" lon="7.14575">
        <ele>44.207</ele>
        <time>2020-07-07T13:28:33Z</time>
      </trkpt>
      <trkpt lat="53.10155" lon="7.14575">
        <ele>44.207</ele>
        <time>2020-07-07T13:28:38Z</time>
      </trkpt>
      <trkpt lat="53.10155" lon="7.14575">
        <ele>44.207</ele>
        <time>2020-07-07T13:28:44Z</time>
      </trkpt>
      <trkpt lat="53.10155" lon="7.14575">
        <ele>44.207</ele>
        <time>2020-07-07T13:28:49Z</time>
      </trkpt>
      <trkpt lat="53.10155" lon="7.14575">
        <ele>44.207</ele>
        <time>2020-07-07T13:28:55Z</time>
      </trkpt>
      <trkpt lat="53.10155" lon="7.14575">
        <ele>44.207</ele>
        <time>2020-07-07T13:29:01Z</time>
      </trkpt>
      <trkpt lat="53.10155" lon="7.14575">
        <ele>44.207</ele>
        <time>2020-07-07T13:29:06Z</time>
      </trkpt>
      <trkpt lat="53.10155" lon="7.14575">
        <ele>44.207</ele>
        <time>2020-07-07T13:29:12Z</time>
      </trkpt>
      <trkpt lat="53.10155" lon="7.14575">
        <ele>44.207</ele>
        <time>2020-07-07T13:29:17Z</time>
      </trkpt>
      <trkpt lat="53.10155" lon="7.14575">
        <ele>44.207</ele>
        <time>2020-07-07T13:29:23Z</time>
      </trkpt>
      <trkpt lat="53.10155" lon="7.14575">
        <ele>44.207</ele>
        <time>2020-07-07T13:29:28Z</time>
      </trkpt>
      <trkpt lat="53.10155" lon="7.14575">
        <ele>44.207</ele>
        <time>2020-07-07T13:29:34Z</time>
      </trkpt>
      <trkpt lat="53.10155" lon="7.14575">
        <ele>44.207</ele>
        <time>2020-07-07T13:29:39Z</time>
      </trkpt>
      <trkpt lat="53.10155" lon="7.14575">
        <ele>44.207</ele>
        <time>2020-07-07T13:29:44Z</time>
      </trkpt>
      <trkpt lat="53.10155" lon="7.14575">
        <ele>44.207</ele>
        <time>2020-07-07T13:29:50Z</time>
      </trkpt>
      <trkpt lat="53.10155" lon="7.14575">
        <ele>44.207</ele>
        <time>2020-07-07T13:29:56Z</time>
      </trkpt>
      <trkpt lat="53.10155" lon="7.14575">
        <ele>44.207</ele>
        <time>2020-07-07T13:30:02Z</time>
      </trkpt>
      <trkpt lat="53.10155" lon="7.14575">
        <ele>44.207</ele>
        <time>2020-07-07T13:30:07Z</time>
      </trkpt>
      <trkpt lat="53.10155" lon="7.14575">
        <ele>44.207</ele>
        <time>2020-07-07T13:30:13Z</time>
      </trkpt>
      <trkpt lat="53.10155" lon="7.14575">
        <ele>44.207</ele>
        <time>2020-07-07T13:30:18Z</time>
      </trkpt>
      <trkpt lat="53.10155" lon="7.14575">
        <ele>44.207</ele>
        <time>2020-07-07T13:30:24Z</time>
      </trkpt>
      <trkpt lat="53.10155" lon="7.14575">
        <ele>44.207</ele>
        <time>2020-07-07T13:30:29Z</time>
      </trkpt>
      <trkpt lat="53.10155" lon="7.14575">
        <ele>44.207</ele>
        <time>2020-07-07T13:30:35Z</time>
      </trkpt>
      <trkpt lat="53.10155" lon="7.14575">
        <ele>44.207</ele>
        <time>2020-07-07T13:30:41Z</time>
      </trkpt>
      <trkpt lat="53.10155" lon="7.14575">
        <ele>44.207</ele>
        <time>2020-07-07T13:30:46Z</time>
      </trkpt>
      <trkpt lat="53.10155" lon="7.14575">
        <ele>43.235</ele>
        <time>2020-07-07T13:30:52Z</time>
      </trkpt>
      <trkpt lat="53.10155" lon="7.14575">
        <ele>43.235</ele>
        <time>2020-07-07T13:30:57Z</time>
      </trkpt>
      <trkpt lat="53.10155" lon="7.14575">
        <ele>42.873</ele>
        <time>2020-07-07T13:31:02Z</time>
      </trkpt>
      <trkpt lat="53.10155" lon="7.14575">
        <ele>42.873</ele>
        <time>2020-07-07T13:31:07Z</time>
      </trkpt>
      <trkpt lat="53.10155" lon="7.14575">
        <ele>42.873</ele>
        <time>2020-07-07T13:31:12Z</time>
      </trkpt>
      <trkpt lat="53.10155" lon="7.14575">
        <ele>42.873</ele>
        <time>2020-07-07T13:31:18Z</time>
      </trkpt>
      <trkpt lat="53.10155" lon="7.14575">
        <ele>42.873</ele>
        <time>2020-07-07T13:31:23Z</time>
      </trkpt>
      <trkpt lat="53.10155" lon="7.14575">
        <ele>42.873</ele>
        <time>2020-07-07T13:31:28Z</time>
      </trkpt>
      <trkpt lat="53.10155" lon="7.14575">
        <ele>42.873</ele>
        <time>2020-07-07T13:31:34Z</time>
      </trkpt>
      <trkpt lat="53.10155" lon="7.14575">
        <ele>42.873</ele>
        <time>2020-07-07T13:31:39Z</time>
      </trkpt>
      <trkpt lat="53.10155" lon="7.14575">
        <ele>42.873</ele>
        <time>2020-07-07T13:31:45Z</time>
      </trkpt>
      <trkpt lat="53.10155" lon="7.14575">
        <ele>42.873</ele>
        <time>2020-07-07T13:31:50Z</time>
      </trkpt>
      <trkpt lat="53.10155" lon="7.14575">
        <ele>42.74</ele>
        <time>2020-07-07T13:31:56Z</time>
      </trkpt>
      <trkpt lat="53.10155" lon="7.14575">
        <ele>41.27</ele>
        <time>2020-07-07T13:32:02Z</time>
      </trkpt>
      <trkpt lat="53.10155" lon="7.14575">
        <ele>40.531</ele>
        <time>2020-07-07T13:32:07Z</time>
      </trkpt>
      <trkpt lat="53.10155" lon="7.14575">
        <ele>40.246</ele>
        <time>2020-07-07T13:32:13Z</time>
      </trkpt>
      <trkpt lat="53.10155" lon="7.14575">
        <ele>40.246</ele>
        <time>2020-07-07T13:32:18Z</time>
      </trkpt>
      <trkpt lat="53.10155" lon="7.14575">
        <ele>40.246</ele>
        <time>2020-07-07T13:32:23Z</time>
      </trkpt>
      <trkpt lat="53.10155" lon="7.14575">
        <ele>40.246</ele>
        <time>2020-07-07T13:32:28Z</time>
      </trkpt>
      <trkpt lat="53.10155" lon="7.14575">
        <ele>39.381</ele>
        <time>2020-07-07T13:32:34Z</time>
      </trkpt>
      <trkpt lat="53.10155" lon="7.14575">
        <ele>39.381</ele>
        <time>2020-07-07T13:32:40Z</time>
      </trkpt>
      <trkpt lat="53.10155" lon="7.14575">
        <ele>38.764</ele>
        <time>2020-07-07T13:32:45Z</time>
      </trkpt>
      <trkpt lat="53.10155" lon="7.14575">
        <ele>38.764</ele>
        <time>2020-07-07T13:32:51Z</time>
      </trkpt>
      <trkpt lat="53.10155" lon="7.14575">
        <ele>38.764</ele>
        <time>2020-07-07T13:32:56Z</time>
      </trkpt>
      <trkpt lat="53.10155" lon="7.14575">
        <ele>38.764</ele>
        <time>2020-07-07T13:33:01Z</time>
      </trkpt>
      <trkpt lat="53.10155" lon="7.14575">
        <ele>38.764</ele>
        <time>2020-07-07T13:33:07Z</time>
      </trkpt>
      <trkpt lat="53.10155" lon="7.14575">
        <ele>38.764</ele>
        <time>2020-07-07T13:33:13Z</time>
      </trkpt>
      <trkpt lat="53.10155" lon="7.14575">
        <ele>38.764</ele>
        <time>2020-07-07T13:33:19Z</time>
      </trkpt>
      <trkpt lat="53.10155" lon="7.14575">
        <ele>38.764</ele>
        <time>2020-07-07T13:33:24Z</time>
      </trkpt>
      <trkpt lat="53.10155" lon="7.14575">
        <ele>38.764</ele>
        <time>2020-07-07T13:33:29Z</time>
      </trkpt>
      <trkpt lat="53.10155" lon="7.14575">
        <ele>38.764</ele>
        <time>2020-07-07T13:33:35Z</time>
      </trkpt>
      <trkpt lat="53.10155" lon="7.14575">
        <ele>38.764</ele>
        <time>2020-07-07T13:33:41Z</time>
      </trkpt>
      <trkpt lat="53.10155" lon="7.14575">
        <ele>38.764</ele>
        <time>2020-07-07T13:33:47Z</time>
      </trkpt>
      <trkpt lat="53.10155" lon="7.14575">
        <ele>38.764</ele>
        <time>2020-07-07T13:33:52Z</time>
      </trkpt>
      <trkpt lat="53.10155" lon="7.14575">
        <ele>38.764</ele>
        <time>2020-07-07T13:33:57Z</time>
      </trkpt>
      <trkpt lat="53.10155" lon="7.14575">
        <ele>38.764</ele>
        <time>2020-07-07T13:34:02Z</time>
      </trkpt>
      <trkpt lat="53.10155" lon="7.14575">
        <ele>38.764</ele>
        <time>2020-07-07T13:34:08Z</time>
      </trkpt>
      <trkpt lat="53.10155" lon="7.14575">
        <ele>38.764</ele>
        <time>2020-07-07T13:34:14Z</time>
      </trkpt>
      <trkpt lat="53.10155" lon="7.14575">
        <ele>38.764</ele>
        <time>2020-07-07T13:34:19Z</time>
      </trkpt>
      <trkpt lat="53.10155" lon="7.14575">
        <ele>38.764</ele>
        <time>2020-07-07T13:34:24Z</time>
      </trkpt>
      <trkpt lat="53.10155" lon="7.14575">
        <ele>38.764</ele>
        <time>2020-07-07T13:34:30Z</time>
      </trkpt>
      <trkpt lat="53.10155" lon="7.14575">
        <ele>38.764</ele>
        <time>2020-07-07T13:34:36Z</time>
      </trkpt>
      <trkpt lat="53.10155" lon="7.14575">
        <ele>38.764</ele>
        <time>2020-07-07T13:34:41Z</time>
      </trkpt>
      <trkpt lat="53.10155" lon="7.14575">
        <ele>38.764</ele>
        <time>2020-07-07T13:34:47Z</time>
      </trkpt>
      <trkpt lat="53.10155" lon="7.14575">
        <ele>38.764</ele>
        <time>2020-07-07T13:34:53Z</time>
      </trkpt>
      <trkpt lat="53.10155" lon="7.14575">
        <ele>38.764</ele>
        <time>2020-07-07T13:34:58Z</time>
      </trkpt>
      <trkpt lat="53.10155" lon="7.14575">
        <ele>38.764</ele>
        <time>2020-07-07T13:35:04Z</time>
      </trkpt>
      <trkpt lat="53.10155" lon="7.14575">
        <ele>38.764</ele>
        <time>2020-07-07T13:35:09Z</time>
      </trkpt>
      <trkpt lat="53.10155" lon="7.14575">
        <ele>38.764</ele>
        <time>2020-07-07T13:35:14Z</time>
      </trkpt>
      <trkpt lat="53.10155" lon="7.14575">
        <ele>38.764</ele>
        <time>2020-07-07T13:35:19Z</time>
      </trkpt>
      <trkpt lat="53.10155" lon="7.14575">
        <ele>38.764</ele>
        <time>2020-07-07T13:35:25Z</time>
      </trkpt>
      <trkpt lat="53.10155" lon="7.14575">
        <ele>38.764</ele>
        <time>2020-07-07T13:35:30Z</time>
      </trkpt>
      <trkpt lat="53.10155" lon="7.14575">
        <ele>38.764</ele>
        <time>2020-07-07T13:35:35Z</time>
      </trkpt>
      <trkpt lat="53.10155" lon="7.14575">
        <ele>38.764</ele>
        <time>2020-07-07T13:35:41Z</time>
      </trkpt>
      <trkpt lat="53.10155" lon="7.14575">
        <ele>38.764</ele>
        <time>2020-07-07T13:35:46Z</time>
      </trkpt>
      <trkpt lat="53.10155" lon="7.14575">
        <ele>38.764</ele>
        <time>2020-07-07T13:35:51Z</time>
      </trkpt>
      <trkpt lat="53.10155" lon="7.14575">
        <ele>38.764</ele>
        <time>2020-07-07T13:35:57Z</time>
      </trkpt>
      <trkpt lat="53.10155" lon="7.14575">
        <ele>38.764</ele>
        <time>2020-07-07T13:36:03Z</time>
      </trkpt>
      <trkpt lat="53.10155" lon="7.14575">
        <ele>38.764</ele>
        <time>2020-07-07T13:36:08Z</time>
      </trkpt>
      <trkpt lat="53.10155" lon="7.14575">
        <ele>38.764</ele>
        <time>2020-07-07T13:36:14Z</time>
      </trkpt>
      <trkpt lat="53.10155" lon="7.14575">
        <ele>38.764</ele>
        <time>2020-07-07T13:36:20Z</time>
      </trkpt>
      <trkpt lat="53.10155" lon="7.14575">
        <ele>38.764</ele>
        <time>2020-07-07T13:36:26Z</time>
      </trkpt>
      <trkpt lat="53.10155" lon="7.14575">
        <ele>38.764</ele>
        <time>2020-07-07T13:36:31Z</time>
      </trkpt>
      <trkpt lat="53.10155" lon="7.14575">
        <ele>38.764</ele>
        <time>2020-07-07T13:36:37Z</time>
      </trkpt>
      <trkpt lat="53.10155" lon="7.14575">
        <ele>38.764</ele>
        <time>2020-07-07T13:36:42Z</time>
      </trkpt>
      <trkpt lat="53.10155" lon="7.14575">
        <ele>38.764</ele>
        <time>2020-07-07T13:36:48Z</time>
      </trkpt>
      <trkpt lat="53.10155" lon="7.14575">
        <ele>38.764</ele>
        <time>2020-07-07T13:36:53Z</time>
      </trkpt>
      <trkpt lat="53.10155" lon="7.14575">
        <ele>38.764</ele>
        <time>2020-07-07T13:36:59Z</time>
      </trkpt>
      <trkpt lat="53.10155" lon="7.14575">
        <ele>38.764</ele>
        <time>2020-07-07T13:37:04Z</time>
      </trkpt>
      <trkpt lat="53.10155" lon="7.14575">
        <ele>38.764</ele>
        <time>2020-07-07T13:37:10Z</time>
      </trkpt>
      <trkpt lat="53.10155" lon="7.14575">
        <ele>38.994</ele>
        <time>2020-07-07T13:37:16Z</time>
      </trkpt>
      <trkpt lat="53.10155" lon="7.14575">
        <ele>39.82</ele>
        <time>2020-07-07T13:37:21Z</time>
      </trkpt>
      <trkpt lat="53.10155" lon="7.14575">
        <ele>39.82</ele>
        <time>2020-07-07T13:37:27Z</time>
      </trkpt>
      <trkpt lat="53.10155" lon="7.14575">
        <ele>39.82</ele>
        <time>2020-07-07T13:37:32Z</time>
      </trkpt>
      <trkpt lat="53.10155" lon="7.14575">
        <ele>39.82</ele>
        <time>2020-07-07T13:37:38Z</time>
      </trkpt>
      <trkpt lat="53.10155" lon="7.14575">
        <ele>39.82</ele>
        <time>2020-07-07T13:37:43Z</time>
      </trkpt>
      <trkpt lat="53.10155" lon="7.14575">
        <ele>39.82</ele>
        <time>2020-07-07T13:37:49Z</time>
      </trkpt>
      <trkpt lat="53.10155" lon="7.14575">
        <ele>39.82</ele>
        <time>2020-07-07T13:37:54Z</time>
      </trkpt>
      <trkpt lat="53.10155" lon="7.14575">
        <ele>39.82</ele>
        <time>2020-07-07T13:37:59Z</time>
      </trkpt>
      <trkpt lat="53.10155" lon="7.14575">
        <ele>39.82</ele>
        <time>2020-07-07T13:38:06Z</time>
      </trkpt>
      <trkpt lat="53.10155" lon="7.14575">
        <ele>39.82</ele>
        <time>2020-07-07T13:38:11Z</time>
      </trkpt>
      <trkpt lat="53.10155" lon="7.14575">
        <ele>39.82</ele>
        <time>2020-07-07T13:38:17Z</time>
      </trkpt>
      <trkpt lat="53.10155" lon="7.14575">
        <ele>39.82</ele>
        <time>2020-07-07T13:38:23Z</time>
      </trkpt>
      <trkpt lat="53.10155" lon="7.14575">
        <ele>39.82</ele>
        <time>2020-07-07T13:38:28Z</time>
      </trkpt>
      <trkpt lat="53.10155" lon="7.14575">
        <ele>39.82</ele>
        <time>2020-07-07T13:38:34Z</time>
      </trkpt>
      <trkpt lat="53.10155" lon="7.14575">
        <ele>39.82</ele>
        <time>2020-07-07T13:38:39Z</time>
      </trkpt>
      <trkpt lat="53.10155" lon="7.14575">
        <ele>39.82</ele>
        <time>2020-07-07T13:38:44Z</time>
      </trkpt>
      <trkpt lat="53.10155" lon="7.14575">
        <ele>39.82</ele>
        <time>2020-07-07T13:38:50Z</time>
      </trkpt>
      <trkpt lat="53.10155" lon="7.14575">
        <ele>39.82</ele>
        <time>2020-07-07T13:38:56Z</time>
      </trkpt>
      <trkpt lat="53.10155" lon="7.14575">
        <ele>39.82</ele>
        <time>2020-07-07T13:39:02Z</time>
      </trkpt>
      <trkpt lat="53.10155" lon="7.14575">
        <ele>39.82</ele>
        <time>2020-07-07T13:39:07Z</time>
      </trkpt>
      <trkpt lat="53.10155" lon="7.14575">
        <ele>39.82</ele>
        <time>2020-07-07T13:39:13Z</time>
      </trkpt>
      <trkpt lat="53.10155" lon="7.14575">
        <ele>39.82</ele>
        <time>2020-07-07T13:39:19Z</time>
      </trkpt>
      <trkpt lat="53.10155" lon="7.14575">
        <ele>39.82</ele>
        <time>2020-07-07T13:39:24Z</time>
      </trkpt>
      <trkpt lat="53.10155" lon="7.14575">
        <ele>39.82</ele>
        <time>2020-07-07T13:39:29Z</time>
      </trkpt>
      <trkpt lat="53.10153" lon="7.14581">
        <ele>39.871</ele>
        <time>2020-07-07T13:39:35Z</time>
      </trkpt>
      <trkpt lat="53.10153" lon="7.14581">
        <ele>39.945</ele>
        <time>2020-07-07T13:39:41Z</time>
      </trkpt>
      <trkpt lat="53.10153" lon="7.14581">
        <ele>39.945</ele>
        <time>2020-07-07T13:39:46Z</time>
      </trkpt>
      <trkpt lat="53.10153" lon="7.14581">
        <ele>41.297</ele>
        <time>2020-07-07T13:39:51Z</time>
      </trkpt>
      <trkpt lat="53.10153" lon="7.14581">
        <ele>41.34</ele>
        <time>2020-07-07T13:39:57Z</time>
      </trkpt>
      <trkpt lat="53.10153" lon="7.14581">
        <ele>41.34</ele>
        <time>2020-07-07T13:40:03Z</time>
      </trkpt>
      <trkpt lat="53.10153" lon="7.14581">
        <ele>41.34</ele>
        <time>2020-07-07T13:40:09Z</time>
      </trkpt>
      <trkpt lat="53.10153" lon="7.14581">
        <ele>41.34</ele>
        <time>2020-07-07T13:40:14Z</time>
      </trkpt>
      <trkpt lat="53.10153" lon="7.14581">
        <ele>41.34</ele>
        <time>2020-07-07T13:40:19Z</time>
      </trkpt>
      <trkpt lat="53.10153" lon="7.14581">
        <ele>41.34</ele>
        <time>2020-07-07T13:40:24Z</time>
      </trkpt>
      <trkpt lat="53.10153" lon="7.14581">
        <ele>41.34</ele>
        <time>2020-07-07T13:40:30Z</time>
      </trkpt>
      <trkpt lat="53.10153" lon="7.14581">
        <ele>41.34</ele>
        <time>2020-07-07T13:40:36Z</time>
      </trkpt>
      <trkpt lat="53.10153" lon="7.14581">
        <ele>41.34</ele>
        <time>2020-07-07T13:40:42Z</time>
      </trkpt>
      <trkpt lat="53.10153" lon="7.14581">
        <ele>41.34</ele>
        <time>2020-07-07T13:40:47Z</time>
      </trkpt>
      <trkpt lat="53.10153" lon="7.14581">
        <ele>41.656</ele>
        <time>2020-07-07T13:40:52Z</time>
      </trkpt>
      <trkpt lat="53.10146" lon="7.14592">
        <ele>44.006</ele>
        <time>2020-07-07T13:40:58Z</time>
      </trkpt>
      <trkpt lat="53.10138" lon="7.14601">
        <ele>44.868</ele>
        <time>2020-07-07T13:41:03Z</time>
      </trkpt>
      <trkpt lat="53.10133" lon="7.14617">
        <ele>45.678</ele>
        <time>2020-07-07T13:41:08Z</time>
      </trkpt>
      <trkpt lat="53.10145" lon="7.1464">
        <ele>46.436</ele>
        <time>2020-07-07T13:41:14Z</time>
      </trkpt>
      <trkpt lat="53.10155" lon="7.14657">
        <ele>45.942</ele>
        <time>2020-07-07T13:41:19Z</time>
      </trkpt>
      <trkpt lat="53.10168" lon="7.14673">
        <ele>45.936</ele>
        <time>2020-07-07T13:41:24Z</time>
      </trkpt>
      <trkpt lat="53.10181" lon="7.14693">
        <ele>45.502</ele>
        <time>2020-07-07T13:41:29Z</time>
      </trkpt>
      <trkpt lat="53.10199" lon="7.14716">
        <ele>43.926</ele>
        <time>2020-07-07T13:41:35Z</time>
      </trkpt>
      <trkpt lat="53.10213" lon="7.14737">
        <ele>43.499</ele>
        <time>2020-07-07T13:41:41Z</time>
      </trkpt>
      <trkpt lat="53.10228" lon="7.14756">
        <ele>44.481</ele>
        <time>2020-07-07T13:41:46Z</time>
      </trkpt>
      <trkpt lat="53.10244" lon="7.14777">
        <ele>45.345</ele>
        <time>2020-07-07T13:41:52Z</time>
      </trkpt>
      <trkpt lat="53.10262" lon="7.14804">
        <ele>46.508</ele>
        <time>2020-07-07T13:41:58Z</time>
      </trkpt>
      <trkpt lat="53.10278" lon="7.14831">
        <ele>47.021</ele>
        <time>2020-07-07T13:42:04Z</time>
      </trkpt>
      <trkpt lat="53.10292" lon="7.14853">
        <ele>46.822</ele>
        <time>2020-07-07T13:42:10Z</time>
      </trkpt>
      <trkpt lat="53.1031" lon="7.14881">
        <ele>45.935</ele>
        <time>2020-07-07T13:42:16Z</time>
      </trkpt>
      <trkpt lat="53.10332" lon="7.14912">
        <ele>45.132</ele>
        <time>2020-07-07T13:42:22Z</time>
      </trkpt>
      <trkpt lat="53.1035" lon="7.14936">
        <ele>45.45</ele>
        <time>2020-07-07T13:42:28Z</time>
      </trkpt>
      <trkpt lat="53.10363" lon="7.14957">
        <ele>46.205</ele>
        <time>2020-07-07T13:42:33Z</time>
      </trkpt>
      <trkpt lat="53.10375" lon="7.14978">
        <ele>45.33</ele>
        <time>2020-07-07T13:42:38Z</time>
      </trkpt>
      <trkpt lat="53.10385" lon="7.14998">
        <ele>45.823</ele>
        <time>2020-07-07T13:42:43Z</time>
      </trkpt>
      <trkpt lat="53.10401" lon="7.15024">
        <ele>44.863</ele>
        <time>2020-07-07T13:42:49Z</time>
      </trkpt>
      <trkpt lat="53.10414" lon="7.15044">
        <ele>43.718</ele>
        <time>2020-07-07T13:42:54Z</time>
      </trkpt>
      <trkpt lat="53.10436" lon="7.15074">
        <ele>41.971</ele>
        <time>2020-07-07T13:43:00Z</time>
      </trkpt>
      <trkpt lat="53.10451" lon="7.15098">
        <ele>41.407</ele>
        <time>2020-07-07T13:43:05Z</time>
      </trkpt>
      <trkpt lat="53.10464" lon="7.1512">
        <ele>38.749</ele>
        <time>2020-07-07T13:43:10Z</time>
      </trkpt>
      <trkpt lat="53.1048" lon="7.15148">
        <ele>38.368</ele>
        <time>2020-07-07T13:43:16Z</time>
      </trkpt>
      <trkpt lat="53.10494" lon="7.15169">
        <ele>38.962</ele>
        <time>2020-07-07T13:43:21Z</time>
      </trkpt>
      <trkpt lat="53.10507" lon="7.15191">
        <ele>39.92</ele>
        <time>2020-07-07T13:43:27Z</time>
      </trkpt>
      <trkpt lat="53.10518" lon="7.1521">
        <ele>39.616</ele>
        <time>2020-07-07T13:43:32Z</time>
      </trkpt>
      <trkpt lat="53.10533" lon="7.15236">
        <ele>40.305</ele>
        <time>2020-07-07T13:43:38Z</time>
      </trkpt>
      <trkpt lat="53.10546" lon="7.15261">
        <ele>39.788</ele>
        <time>2020-07-07T13:43:44Z</time>
      </trkpt>
      <trkpt lat="53.10563" lon="7.15286">
        <ele>39.187</ele>
        <time>2020-07-07T13:43:50Z</time>
      </trkpt>
      <trkpt lat="53.10578" lon="7.15306">
        <ele>38.777</ele>
        <time>2020-07-07T13:43:55Z</time>
      </trkpt>
      <trkpt lat="53.10593" lon="7.15325">
        <ele>40.846</ele>
        <time>2020-07-07T13:44:00Z</time>
      </trkpt>
      <trkpt lat="53.10611" lon="7.15344">
        <ele>42.691</ele>
        <time>2020-07-07T13:44:06Z</time>
      </trkpt>
      <trkpt lat="53.10625" lon="7.15365">
        <ele>42.951</ele>
        <time>2020-07-07T13:44:11Z</time>
      </trkpt>
      <trkpt lat="53.10638" lon="7.15386">
        <ele>43.817</ele>
        <time>2020-07-07T13:44:17Z</time>
      </trkpt>
      <trkpt lat="53.1065" lon="7.15403">
        <ele>44.943</ele>
        <time>2020-07-07T13:44:22Z</time>
      </trkpt>
      <trkpt lat="53.10666" lon="7.15426">
        <ele>45.023</ele>
        <time>2020-07-07T13:44:28Z</time>
      </trkpt>
      <trkpt lat="53.10681" lon="7.15448">
        <ele>43.957</ele>
        <time>2020-07-07T13:44:33Z</time>
      </trkpt>
      <trkpt lat="53.10701" lon="7.15479">
        <ele>43.517</ele>
        <time>2020-07-07T13:44:39Z</time>
      </trkpt>
      <trkpt lat="53.10719" lon="7.1551">
        <ele>44.42</ele>
        <time>2020-07-07T13:44:45Z</time>
      </trkpt>
      <trkpt lat="53.10731" lon="7.15531">
        <ele>43.784</ele>
        <time>2020-07-07T13:44:50Z</time>
      </trkpt>
      <trkpt lat="53.10746" lon="7.15561">
        <ele>42.94</ele>
        <time>2020-07-07T13:44:56Z</time>
      </trkpt>
      <trkpt lat="53.10762" lon="7.1559">
        <ele>41.036</ele>
        <time>2020-07-07T13:45:02Z</time>
      </trkpt>
      <trkpt lat="53.10778" lon="7.15619">
        <ele>39.333</ele>
        <time>2020-07-07T13:45:08Z</time>
      </trkpt>
      <trkpt lat="53.10794" lon="7.15641">
        <ele>38.444</ele>
        <time>2020-07-07T13:45:14Z</time>
      </trkpt>
      <trkpt lat="53.10813" lon="7.15661">
        <ele>37.302</ele>
        <time>2020-07-07T13:45:20Z</time>
      </trkpt>
      <trkpt lat="53.10837" lon="7.15691">
        <ele>38.308</ele>
        <time>2020-07-07T13:45:26Z</time>
      </trkpt>
      <trkpt lat="53.10855" lon="7.15711">
        <ele>41.164</ele>
        <time>2020-07-07T13:45:31Z</time>
      </trkpt>
      <trkpt lat="53.10872" lon="7.15735">
        <ele>40.936</ele>
        <time>2020-07-07T13:45:37Z</time>
      </trkpt>
      <trkpt lat="53.1089" lon="7.15758">
        <ele>41.306</ele>
        <time>2020-07-07T13:45:43Z</time>
      </trkpt>
      <trkpt lat="53.10903" lon="7.15778">
        <ele>41.047</ele>
        <time>2020-07-07T13:45:48Z</time>
      </trkpt>
      <trkpt lat="53.10916" lon="7.15798">
        <ele>40.183</ele>
        <time>2020-07-07T13:45:54Z</time>
      </trkpt>
      <trkpt lat="53.10929" lon="7.15819">
        <ele>40.083</ele>
        <time>2020-07-07T13:46:00Z</time>
      </trkpt>
      <trkpt lat="53.10943" lon="7.15838">
        <ele>40.024</ele>
        <time>2020-07-07T13:46:06Z</time>
      </trkpt>
      <trkpt lat="53.10961" lon="7.15859">
        <ele>40.395</ele>
        <time>2020-07-07T13:46:11Z</time>
      </trkpt>
      <trkpt lat="53.10979" lon="7.1588">
        <ele>38.446</ele>
        <time>2020-07-07T13:46:17Z</time>
      </trkpt>
      <trkpt lat="53.10993" lon="7.15902">
        <ele>37.076</ele>
        <time>2020-07-07T13:46:22Z</time>
      </trkpt>
      <trkpt lat="53.11012" lon="7.15923">
        <ele>37.62</ele>
        <time>2020-07-07T13:46:28Z</time>
      </trkpt>
      <trkpt lat="53.11026" lon="7.1594">
        <ele>38.593</ele>
        <time>2020-07-07T13:46:33Z</time>
      </trkpt>
      <trkpt lat="53.11044" lon="7.15958">
        <ele>39.664</ele>
        <time>2020-07-07T13:46:38Z</time>
      </trkpt>
      <trkpt lat="53.11056" lon="7.15982">
        <ele>39.702</ele>
        <time>2020-07-07T13:46:44Z</time>
      </trkpt>
      <trkpt lat="53.11073" lon="7.16001">
        <ele>38.808</ele>
        <time>2020-07-07T13:46:49Z</time>
      </trkpt>
      <trkpt lat="53.11097" lon="7.16034">
        <ele>39.933</ele>
        <time>2020-07-07T13:46:55Z</time>
      </trkpt>
      <trkpt lat="53.11113" lon="7.16054">
        <ele>41.852</ele>
        <time>2020-07-07T13:47:00Z</time>
      </trkpt>
      <trkpt lat="53.11127" lon="7.16078">
        <ele>42.961</ele>
        <time>2020-07-07T13:47:05Z</time>
      </trkpt>
      <trkpt lat="53.11144" lon="7.161">
        <ele>41.814</ele>
        <time>2020-07-07T13:47:11Z</time>
      </trkpt>
      <trkpt lat="53.11158" lon="7.16114">
        <ele>40.066</ele>
        <time>2020-07-07T13:47:16Z</time>
      </trkpt>
      <trkpt lat="53.11175" lon="7.16134">
        <ele>40.061</ele>
        <time>2020-07-07T13:47:22Z</time>
      </trkpt>
      <trkpt lat="53.11191" lon="7.16157">
        <ele>39.557</ele>
        <time>2020-07-07T13:47:27Z</time>
      </trkpt>
      <trkpt lat="53.11207" lon="7.16181">
        <ele>40.11</ele>
        <time>2020-07-07T13:47:33Z</time>
      </trkpt>
      <trkpt lat="53.11222" lon="7.16202">
        <ele>39.663</ele>
        <time>2020-07-07T13:47:38Z</time>
      </trkpt>
      <trkpt lat="53.11236" lon="7.16221">
        <ele>41.065</ele>
        <time>2020-07-07T13:47:43Z</time>
      </trkpt>
      <trkpt lat="53.11258" lon="7.16244">
        <ele>43.228</ele>
        <time>2020-07-07T13:47:49Z</time>
      </trkpt>
      <trkpt lat="53.11277" lon="7.16265">
        <ele>43.956</ele>
        <time>2020-07-07T13:47:55Z</time>
      </trkpt>
      <trkpt lat="53.1129" lon="7.16284">
        <ele>42.825</ele>
        <time>2020-07-07T13:48:00Z</time>
      </trkpt>
      <trkpt lat="53.11311" lon="7.16304">
        <ele>40.922</ele>
        <time>2020-07-07T13:48:06Z</time>
      </trkpt>
      <trkpt lat="53.1133" lon="7.16321">
        <ele>39.666</ele>
        <time>2020-07-07T13:48:12Z</time>
      </trkpt>
      <trkpt lat="53.11345" lon="7.16331">
        <ele>37.002</ele>
        <time>2020-07-07T13:48:17Z</time>
      </trkpt>
      <trkpt lat="53.11364" lon="7.16353">
        <ele>36.298</ele>
        <time>2020-07-07T13:48:23Z</time>
      </trkpt>
      <trkpt lat="53.11381" lon="7.16371">
        <ele>35.751</ele>
        <time>2020-07-07T13:48:28Z</time>
      </trkpt>
      <trkpt lat="53.11393" lon="7.16389">
        <ele>34.127</ele>
        <time>2020-07-07T13:48:33Z</time>
      </trkpt>
      <trkpt lat="53.11413" lon="7.16405">
        <ele>33.187</ele>
        <time>2020-07-07T13:48:39Z</time>
      </trkpt>
      <trkpt lat="53.11435" lon="7.16417">
        <ele>35.081</ele>
        <time>2020-07-07T13:48:44Z</time>
      </trkpt>
      <trkpt lat="53.11458" lon="7.16433">
        <ele>35.529</ele>
        <time>2020-07-07T13:48:50Z</time>
      </trkpt>
      <trkpt lat="53.11481" lon="7.1645">
        <ele>38.882</ele>
        <time>2020-07-07T13:48:56Z</time>
      </trkpt>
      <trkpt lat="53.11502" lon="7.1646">
        <ele>41.016</ele>
        <time>2020-07-07T13:49:02Z</time>
      </trkpt>
      <trkpt lat="53.11522" lon="7.16472">
        <ele>40.995</ele>
        <time>2020-07-07T13:49:08Z</time>
      </trkpt>
      <trkpt lat="53.11543" lon="7.1648">
        <ele>41.027</ele>
        <time>2020-07-07T13:49:14Z</time>
      </trkpt>
      <trkpt lat="53.11563" lon="7.16491">
        <ele>40.746</ele>
        <time>2020-07-07T13:49:20Z</time>
      </trkpt>
      <trkpt lat="53.11582" lon="7.165">
        <ele>40.53</ele>
        <time>2020-07-07T13:49:25Z</time>
      </trkpt>
      <trkpt lat="53.11604" lon="7.16508">
        <ele>42.729</ele>
        <time>2020-07-07T13:49:31Z</time>
      </trkpt>
      <trkpt lat="53.11624" lon="7.16513">
        <ele>45.43</ele>
        <time>2020-07-07T13:49:37Z</time>
      </trkpt>
      <trkpt lat="53.11641" lon="7.1652">
        <ele>46.37</ele>
        <time>2020-07-07T13:49:42Z</time>
      </trkpt>
      <trkpt lat="53.11664" lon="7.16527">
        <ele>46.723</ele>
        <time>2020-07-07T13:49:48Z</time>
      </trkpt>
      <trkpt lat="53.11682" lon="7.1654">
        <ele>45.512</ele>
        <time>2020-07-07T13:49:53Z</time>
      </trkpt>
      <trkpt lat="53.11706" lon="7.16553">
        <ele>44.869</ele>
        <time>2020-07-07T13:49:59Z</time>
      </trkpt>
      <trkpt lat="53.11725" lon="7.16561">
        <ele>44.358</ele>
        <time>2020-07-07T13:50:04Z</time>
      </trkpt>
      <trkpt lat="53.11747" lon="7.1657">
        <ele>43.3</ele>
        <time>2020-07-07T13:50:10Z</time>
      </trkpt>
      <trkpt lat="53.11765" lon="7.16579">
        <ele>43.578</ele>
        <time>2020-07-07T13:50:15Z</time>
      </trkpt>
      <trkpt lat="53.11784" lon="7.16585">
        <ele>43.16</ele>
        <time>2020-07-07T13:50:21Z</time>
      </trkpt>
      <trkpt lat="53.11802" lon="7.16598">
        <ele>43.51</ele>
        <time>2020-07-07T13:50:27Z</time>
      </trkpt>
      <trkpt lat="53.11819" lon="7.16603">
        <ele>43.755</ele>
        <time>2020-07-07T13:50:32Z</time>
      </trkpt>
      <trkpt lat="53.11836" lon="7.16611">
        <ele>43.466</ele>
        <time>2020-07-07T13:50:37Z</time>
      </trkpt>
      <trkpt lat="53.11858" lon="7.1662">
        <ele>41.867</ele>
        <time>2020-07-07T13:50:43Z</time>
      </trkpt>
      <trkpt lat="53.11875" lon="7.16626">
        <ele>41.266</ele>
        <time>2020-07-07T13:50:48Z</time>
      </trkpt>
      <trkpt lat="53.11896" lon="7.16635">
        <ele>40.4</ele>
        <time>2020-07-07T13:50:54Z</time>
      </trkpt>
      <trkpt lat="53.11914" lon="7.16643">
        <ele>41.215</ele>
        <time>2020-07-07T13:50:59Z</time>
      </trkpt>
      <trkpt lat="53.11935" lon="7.16654">
        <ele>40.334</ele>
        <time>2020-07-07T13:51:05Z</time>
      </trkpt>
      <trkpt lat="53.11953" lon="7.16663">
        <ele>38.919</ele>
        <time>2020-07-07T13:51:10Z</time>
      </trkpt>
      <trkpt lat="53.11971" lon="7.16678">
        <ele>38.862</ele>
        <time>2020-07-07T13:51:16Z</time>
      </trkpt>
      <trkpt lat="53.11984" lon="7.16692">
        <ele>38.866</ele>
        <time>2020-07-07T13:51:21Z</time>
      </trkpt>
      <trkpt lat="53.12005" lon="7.16707">
        <ele>39.229</ele>
        <time>2020-07-07T13:51:27Z</time>
      </trkpt>
      <trkpt lat="53.12025" lon="7.16713">
        <ele>40.428</ele>
        <time>2020-07-07T13:51:32Z</time>
      </trkpt>
      <trkpt lat="53.12048" lon="7.16718">
        <ele>40.527</ele>
        <time>2020-07-07T13:51:38Z</time>
      </trkpt>
      <trkpt lat="53.1207" lon="7.16721">
        <ele>41.947</ele>
        <time>2020-07-07T13:51:44Z</time>
      </trkpt>
      <trkpt lat="53.1209" lon="7.16726">
        <ele>41.514</ele>
        <time>2020-07-07T13:51:49Z</time>
      </trkpt>
      <trkpt lat="53.12112" lon="7.16734">
        <ele>41.68</ele>
        <time>2020-07-07T13:51:55Z</time>
      </trkpt>
      <trkpt lat="53.12135" lon="7.16746">
        <ele>43.182</ele>
        <time>2020-07-07T13:52:01Z</time>
      </trkpt>
      <trkpt lat="53.12151" lon="7.16756">
        <ele>42.42</ele>
        <time>2020-07-07T13:52:06Z</time>
      </trkpt>
      <trkpt lat="53.12171" lon="7.16772">
        <ele>41.102</ele>
        <time>2020-07-07T13:52:12Z</time>
      </trkpt>
      <trkpt lat="53.12188" lon="7.16789">
        <ele>41.053</ele>
        <time>2020-07-07T13:52:17Z</time>
      </trkpt>
      <trkpt lat="53.12207" lon="7.16803">
        <ele>40.53</ele>
        <time>2020-07-07T13:52:23Z</time>
      </trkpt>
      <trkpt lat="53.12232" lon="7.16818">
        <ele>38.497</ele>
        <time>2020-07-07T13:52:29Z</time>
      </trkpt>
      <trkpt lat="53.12257" lon="7.1684">
        <ele>36.554</ele>
        <time>2020-07-07T13:52:35Z</time>
      </trkpt>
      <trkpt lat="53.12282" lon="7.16857">
        <ele>37.447</ele>
        <time>2020-07-07T13:52:41Z</time>
      </trkpt>
      <trkpt lat="53.12299" lon="7.16871">
        <ele>39.622</ele>
        <time>2020-07-07T13:52:46Z</time>
      </trkpt>
      <trkpt lat="53.12318" lon="7.16887">
        <ele>41.698</ele>
        <time>2020-07-07T13:52:52Z</time>
      </trkpt>
      <trkpt lat="53.12333" lon="7.169">
        <ele>41.747</ele>
        <time>2020-07-07T13:52:57Z</time>
      </trkpt>
      <trkpt lat="53.12352" lon="7.16918">
        <ele>41.626</ele>
        <time>2020-07-07T13:53:03Z</time>
      </trkpt>
      <trkpt lat="53.12367" lon="7.1693">
        <ele>43.106</ele>
        <time>2020-07-07T13:53:08Z</time>
      </trkpt>
      <trkpt lat="53.12386" lon="7.16944">
        <ele>44.913</ele>
        <time>2020-07-07T13:53:14Z</time>
      </trkpt>
      <trkpt lat="53.12404" lon="7.16961">
        <ele>45.514</ele>
        <time>2020-07-07T13:53:20Z</time>
      </trkpt>
      <trkpt lat="53.12418" lon="7.16974">
        <ele>45.895</ele>
        <time>2020-07-07T13:53:25Z</time>
      </trkpt>
      <trkpt lat="53.12436" lon="7.16988">
        <ele>43.521</ele>
        <time>2020-07-07T13:53:30Z</time>
      </trkpt>
      <trkpt lat="53.12456" lon="7.17005">
        <ele>40.59</ele>
        <time>2020-07-07T13:53:36Z</time>
      </trkpt>
      <trkpt lat="53.12475" lon="7.17018">
        <ele>41.862</ele>
        <time>2020-07-07T13:53:41Z</time>
      </trkpt>
      <trkpt lat="53.12497" lon="7.17029">
        <ele>41.434</ele>
        <time>2020-07-07T13:53:47Z</time>
      </trkpt>
      <trkpt lat="53.12514" lon="7.17043">
        <ele>39.158</ele>
        <time>2020-07-07T13:53:53Z</time>
      </trkpt>
      <trkpt lat="53.12533" lon="7.17059">
        <ele>38.506</ele>
        <time>2020-07-07T13:53:59Z</time>
      </trkpt>
      <trkpt lat="53.12554" lon="7.17071">
        <ele>36.865</ele>
        <time>2020-07-07T13:54:05Z</time>
      </trkpt>
      <trkpt lat="53.12576" lon="7.17085">
        <ele>38.17</ele>
        <time>2020-07-07T13:54:11Z</time>
      </trkpt>
      <trkpt lat="53.12595" lon="7.17098">
        <ele>37.512</ele>
        <time>2020-07-07T13:54:16Z</time>
      </trkpt>
      <trkpt lat="53.12615" lon="7.17113">
        <ele>38.527</ele>
        <time>2020-07-07T13:54:21Z</time>
      </trkpt>
      <trkpt lat="53.12633" lon="7.17123">
        <ele>38.946</ele>
        <time>2020-07-07T13:54:26Z</time>
      </trkpt>
      <trkpt lat="53.12653" lon="7.17135">
        <ele>40.286</ele>
        <time>2020-07-07T13:54:31Z</time>
      </trkpt>
      <trkpt lat="53.12674" lon="7.1715">
        <ele>40.896</ele>
        <time>2020-07-07T13:54:37Z</time>
      </trkpt>
      <trkpt lat="53.12689" lon="7.17159">
        <ele>42.022</ele>
        <time>2020-07-07T13:54:42Z</time>
      </trkpt>
      <trkpt lat="53.12708" lon="7.17169">
        <ele>41.615</ele>
        <time>2020-07-07T13:54:48Z</time>
      </trkpt>
      <trkpt lat="53.12721" lon="7.17181">
        <ele>42.494</ele>
        <time>2020-07-07T13:54:53Z</time>
      </trkpt>
      <trkpt lat="53.12744" lon="7.17196">
        <ele>41.432</ele>
        <time>2020-07-07T13:54:59Z</time>
      </trkpt>
      <trkpt lat="53.1276" lon="7.17209">
        <ele>40.749</ele>
        <time>2020-07-07T13:55:04Z</time>
      </trkpt>
      <trkpt lat="53.12781" lon="7.17228">
        <ele>39.785</ele>
        <time>2020-07-07T13:55:10Z</time>
      </trkpt>
      <trkpt lat="53.12801" lon="7.17238">
        <ele>38.605</ele>
        <time>2020-07-07T13:55:15Z</time>
      </trkpt>
      <trkpt lat="53.12822" lon="7.17249">
        <ele>37.687</ele>
        <time>2020-07-07T13:55:21Z</time>
      </trkpt>
      <trkpt lat="53.12841" lon="7.17257">
        <ele>37.545</ele>
        <time>2020-07-07T13:55:26Z</time>
      </trkpt>
      <trkpt lat="53.12863" lon="7.1727">
        <ele>37.783</ele>
        <time>2020-07-07T13:55:32Z</time>
      </trkpt>
      <trkpt lat="53.12881" lon="7.1728">
        <ele>37.836</ele>
        <time>2020-07-07T13:55:37Z</time>
      </trkpt>
      <trkpt lat="53.12902" lon="7.17289">
        <ele>37.777</ele>
        <time>2020-07-07T13:55:43Z</time>
      </trkpt>
      <trkpt lat="53.12918" lon="7.17296">
        <ele>38.302</ele>
        <time>2020-07-07T13:55:48Z</time>
      </trkpt>
      <trkpt lat="53.12938" lon="7.17303">
        <ele>40.067</ele>
        <time>2020-07-07T13:55:54Z</time>
      </trkpt>
      <trkpt lat="53.12956" lon="7.17309">
        <ele>41.152</ele>
        <time>2020-07-07T13:55:59Z</time>
      </trkpt>
      <trkpt lat="53.12977" lon="7.17325">
        <ele>41.478</ele>
        <time>2020-07-07T13:56:05Z</time>
      </trkpt>
      <trkpt lat="53.12968" lon="7.17356">
        <ele>42.162</ele>
        <time>2020-07-07T13:56:11Z</time>
      </trkpt>
      <trkpt lat="53.12961" lon="7.17379">
        <ele>42.605</ele>
        <time>2020-07-07T13:56:16Z</time>
      </trkpt>
      <trkpt lat="53.1295" lon="7.17413">
        <ele>43.01</ele>
        <time>2020-07-07T13:56:22Z</time>
      </trkpt>
      <trkpt lat="53.1294" lon="7.17443">
        <ele>42</ele>
        <time>2020-07-07T13:56:27Z</time>
      </trkpt>
      <trkpt lat="53.12926" lon="7.17477">
        <ele>41.422</ele>
        <time>2020-07-07T13:56:33Z</time>
      </trkpt>
      <trkpt lat="53.12911" lon="7.17512">
        <ele>39.798</ele>
        <time>2020-07-07T13:56:39Z</time>
      </trkpt>
      <trkpt lat="53.12896" lon="7.17546">
        <ele>38.394</ele>
        <time>2020-07-07T13:56:44Z</time>
      </trkpt>
      <trkpt lat="53.12884" lon="7.17582">
        <ele>37.591</ele>
        <time>2020-07-07T13:56:49Z</time>
      </trkpt>
      <trkpt lat="53.12871" lon="7.17617">
        <ele>36.671</ele>
        <time>2020-07-07T13:56:55Z</time>
      </trkpt>
      <trkpt lat="53.12859" lon="7.17648">
        <ele>36.336</ele>
        <time>2020-07-07T13:57:00Z</time>
      </trkpt>
      <trkpt lat="53.12846" lon="7.17685">
        <ele>37.521</ele>
        <time>2020-07-07T13:57:06Z</time>
      </trkpt>
      <trkpt lat="53.12836" lon="7.17715">
        <ele>38.905</ele>
        <time>2020-07-07T13:57:11Z</time>
      </trkpt>
      <trkpt lat="53.12824" lon="7.17742">
        <ele>39.239</ele>
        <time>2020-07-07T13:57:16Z</time>
      </trkpt>
      <trkpt lat="53.12806" lon="7.17781">
        <ele>38.999</ele>
        <time>2020-07-07T13:57:22Z</time>
      </trkpt>
      <trkpt lat="53.12791" lon="7.17819">
        <ele>39.157</ele>
        <time>2020-07-07T13:57:28Z</time>
      </trkpt>
      <trkpt lat="53.12778" lon="7.17848">
        <ele>40.946</ele>
        <time>2020-07-07T13:57:33Z</time>
      </trkpt>
      <trkpt lat="53.12767" lon="7.17873">
        <ele>41.522</ele>
        <time>2020-07-07T13:57:38Z</time>
      </trkpt>
      <trkpt lat="53.12753" lon="7.17908">
        <ele>43.655</ele>
        <time>2020-07-07T13:57:44Z</time>
      </trkpt>
      <trkpt lat="53.12737" lon="7.17937">
        <ele>45.605</ele>
        <time>2020-07-07T13:57:50Z</time>
      </trkpt>
      <trkpt lat="53.12716" lon="7.17949">
        <ele>45.323</ele>
        <time>2020-07-07T13:57:55Z</time>
      </trkpt>
      <trkpt lat="53.12698" lon="7.17961">
        <ele>43.617</ele>
        <time>2020-07-07T13:58:00Z</time>
      </trkpt>
      <trkpt lat="53.1268" lon="7.17972">
        <ele>41.116</ele>
        <time>2020-07-07T13:58:06Z</time>
      </trkpt>
      <trkpt lat="53.12669" lon="7.17985">
        <ele>40.915</ele>
        <time>2020-07-07T13:58:11Z</time>
      </trkpt>
      <trkpt lat="53.12664" lon="7.18008">
        <ele>41.49</ele>
        <time>2020-07-07T13:58:17Z</time>
      </trkpt>
      <trkpt lat="53.12662" lon="7.18037">
        <ele>40.282</ele>
        <time>2020-07-07T13:58:23Z</time>
      </trkpt>
      <trkpt lat="53.12662" lon="7.18061">
        <ele>41.011</ele>
        <time>2020-07-07T13:58:29Z</time>
      </trkpt>
      <trkpt lat="53.12666" lon="7.18089">
        <ele>43.406</ele>
        <time>2020-07-07T13:58:34Z</time>
      </trkpt>
      <trkpt lat="53.1266" lon="7.18126">
        <ele>45.902</ele>
        <time>2020-07-07T13:58:40Z</time>
      </trkpt>
      <trkpt lat="53.12651" lon="7.18162">
        <ele>46.038</ele>
        <time>2020-07-07T13:58:45Z</time>
      </trkpt>
      <trkpt lat="53.12641" lon="7.18205">
        <ele>46.064</ele>
        <time>2020-07-07T13:58:50Z</time>
      </trkpt>
      <trkpt lat="53.12626" lon="7.18249">
        <ele>44.594</ele>
        <time>2020-07-07T13:58:56Z</time>
      </trkpt>
      <trkpt lat="53.12614" lon="7.18281">
        <ele>41.663</ele>
        <time>2020-07-07T13:59:02Z</time>
      </trkpt>
      <trkpt lat="53.12601" lon="7.18309">
        <ele>39.185</ele>
        <time>2020-07-07T13:59:08Z</time>
      </trkpt>
      <trkpt lat="53.12591" lon="7.18326">
        <ele>37.747</ele>
        <time>2020-07-07T13:59:13Z</time>
      </trkpt>
      <trkpt lat="53.1258" lon="7.18342">
        <ele>35.86</ele>
        <time>2020-07-07T13:59:18Z</time>
      </trkpt>
      <trkpt lat="53.12579" lon="7.18345">
        <ele>35.631</ele>
        <time>2020-07-07T13:59:24Z</time>
      </trkpt>
      <trkpt lat="53.12579" lon="7.18345">
        <ele>35.631</ele>
        <time>2020-07-07T13:59:29Z</time>
      </trkpt>
      <trkpt lat="53.12579" lon="7.18345">
        <ele>35.631</ele>
        <time>2020-07-07T13:59:35Z</time>
      </trkpt>
      <trkpt lat="53.12579" lon="7.18345">
        <ele>35.631</ele>
        <time>2020-07-07T13:59:41Z</time>
      </trkpt>
      <trkpt lat="53.12579" lon="7.18345">
        <ele>35.631</ele>
        <time>2020-07-07T13:59:46Z</time>
      </trkpt>
      <trkpt lat="53.12579" lon="7.18345">
        <ele>35.631</ele>
        <time>2020-07-07T13:59:52Z</time>
      </trkpt>
      <trkpt lat="53.12579" lon="7.18345">
        <ele>35.631</ele>
        <time>2020-07-07T13:59:57Z</time>
      </trkpt>
      <trkpt lat="53.12579" lon="7.18345">
        <ele>35.631</ele>
        <time>2020-07-07T14:00:03Z</time>
      </trkpt>
      <trkpt lat="53.12579" lon="7.18345">
        <ele>35.631</ele>
        <time>2020-07-07T14:00:09Z</time>
      </trkpt>
      <trkpt lat="53.12579" lon="7.18345">
        <ele>35.631</ele>
        <time>2020-07-07T14:00:15Z</time>
      </trkpt>
      <trkpt lat="53.12579" lon="7.18345">
        <ele>35.631</ele>
        <time>2020-07-07T14:00:21Z</time>
      </trkpt>
      <trkpt lat="53.12579" lon="7.18345">
        <ele>35.631</ele>
        <time>2020-07-07T14:00:26Z</time>
      </trkpt>
      <trkpt lat="53.12579" lon="7.18345">
        <ele>35.631</ele>
        <time>2020-07-07T14:00:31Z</time>
      </trkpt>
      <trkpt lat="53.12579" lon="7.18345">
        <ele>35.631</ele>
        <time>2020-07-07T14:00:37Z</time>
      </trkpt>
      <trkpt lat="53.12579" lon="7.18345">
        <ele>35.631</ele>
        <time>2020-07-07T14:00:42Z</time>
      </trkpt>
      <trkpt lat="53.12579" lon="7.18345">
        <ele>35.631</ele>
        <time>2020-07-07T14:00:47Z</time>
      </trkpt>
      <trkpt lat="53.12579" lon="7.18345">
        <ele>35.631</ele>
        <time>2020-07-07T14:00:53Z</time>
      </trkpt>
      <trkpt lat="53.12579" lon="7.18345">
        <ele>35.631</ele>
        <time>2020-07-07T14:00:59Z</time>
      </trkpt>
      <trkpt lat="53.12579" lon="7.18345">
        <ele>35.631</ele>
        <time>2020-07-07T14:01:05Z</time>
      </trkpt>
      <trkpt lat="53.12579" lon="7.18345">
        <ele>35.631</ele>
        <time>2020-07-07T14:01:11Z</time>
      </trkpt>
      <trkpt lat="53.12579" lon="7.18345">
        <ele>35.631</ele>
        <time>2020-07-07T14:01:17Z</time>
      </trkpt>
      <trkpt lat="53.12579" lon="7.18345">
        <ele>35.631</ele>
        <time>2020-07-07T14:01:23Z</time>
      </trkpt>
      <trkpt lat="53.12579" lon="7.18345">
        <ele>35.631</ele>
        <time>2020-07-07T14:01:29Z</time>
      </trkpt>
      <trkpt lat="53.12579" lon="7.18345">
        <ele>35.631</ele>
        <time>2020-07-07T14:01:34Z</time>
      </trkpt>
      <trkpt lat="53.12579" lon="7.18345">
        <ele>35.631</ele>
        <time>2020-07-07T14:01:39Z</time>
      </trkpt>
      <trkpt lat="53.12579" lon="7.18345">
        <ele>35.631</ele>
        <time>2020-07-07T14:01:45Z</time>
      </trkpt>
      <trkpt lat="53.12579" lon="7.18345">
        <ele>35.631</ele>
        <time>2020-07-07T14:01:51Z</time>
      </trkpt>
      <trkpt lat="53.12579" lon="7.18345">
        <ele>35.631</ele>
        <time>2020-07-07T14:01:56Z</time>
      </trkpt>
      <trkpt lat="53.12579" lon="7.18345">
        <ele>35.631</ele>
        <time>2020-07-07T14:02:02Z</time>
      </trkpt>
      <trkpt lat="53.12579" lon="7.18345">
        <ele>35.631</ele>
        <time>2020-07-07T14:02:08Z</time>
      </trkpt>
      <trkpt lat="53.12579" lon="7.18345">
        <ele>35.631</ele>
        <time>2020-07-07T14:02:13Z</time>
      </trkpt>
      <trkpt lat="53.12579" lon="7.18345">
        <ele>35.631</ele>
        <time>2020-07-07T14:02:19Z</time>
      </trkpt>
      <trkpt lat="53.12579" lon="7.18345">
        <ele>35.631</ele>
        <time>2020-07-07T14:02:24Z</time>
      </trkpt>
      <trkpt lat="53.12579" lon="7.18345">
        <ele>35.631</ele>
        <time>2020-07-07T14:02:30Z</time>
      </trkpt>
      <trkpt lat="53.12579" lon="7.18346">
        <ele>35.753</ele>
        <time>2020-07-07T14:02:36Z</time>
      </trkpt>
      <trkpt lat="53.12573" lon="7.18362">
        <ele>36.906</ele>
        <time>2020-07-07T14:02:42Z</time>
      </trkpt>
      <trkpt lat="53.12563" lon="7.18388">
        <ele>39.032</ele>
        <time>2020-07-07T14:02:48Z</time>
      </trkpt>
      <trkpt lat="53.12552" lon="7.18416">
        <ele>41.019</ele>
        <time>2020-07-07T14:02:54Z</time>
      </trkpt>
      <trkpt lat="53.12541" lon="7.18445">
        <ele>42.507</ele>
        <time>2020-07-07T14:03:00Z</time>
      </trkpt>
      <trkpt lat="53.12528" lon="7.18478">
        <ele>43.885</ele>
        <time>2020-07-07T14:03:06Z</time>
      </trkpt>
      <trkpt lat="53.12514" lon="7.18512">
        <ele>44.387</ele>
        <time>2020-07-07T14:03:12Z</time>
      </trkpt>
      <trkpt lat="53.12502" lon="7.18542">
        <ele>45.229</ele>
        <time>2020-07-07T14:03:17Z</time>
      </trkpt>
      <trkpt lat="53.1249" lon="7.18572">
        <ele>46.325</ele>
        <time>2020-07-07T14:03:22Z</time>
      </trkpt>
      <trkpt lat="53.12476" lon="7.18606">
        <ele>47.6</ele>
        <time>2020-07-07T14:03:28Z</time>
      </trkpt>
      <trkpt lat="53.12461" lon="7.18642">
        <ele>49.797</ele>
        <time>2020-07-07T14:03:34Z</time>
      </trkpt>
      <trkpt lat="53.12447" lon="7.1868">
        <ele>50.258</ele>
        <time>2020-07-07T14:03:40Z</time>
      </trkpt>
      <trkpt lat="53.12434" lon="7.18713">
        <ele>51.053</ele>
        <time>2020-07-07T14:03:45Z</time>
      </trkpt>
      <trkpt lat="53.12417" lon="7.18756">
        <ele>50.303</ele>
        <time>2020-07-07T14:03:51Z</time>
      </trkpt>
      <trkpt lat="53.124" lon="7.18798">
        <ele>49.579</ele>
        <time>2020-07-07T14:03:57Z</time>
      </trkpt>
      <trkpt lat="53.12387" lon="7.18832">
        <ele>49.504</ele>
        <time>2020-07-07T14:04:02Z</time>
      </trkpt>
      <trkpt lat="53.12386" lon="7.18858">
        <ele>48.978</ele>
        <time>2020-07-07T14:04:08Z</time>
      </trkpt>
      <trkpt lat="53.12367" lon="7.18888">
        <ele>47.474</ele>
        <time>2020-07-07T14:04:14Z</time>
      </trkpt>
      <trkpt lat="53.12351" lon="7.18924">
        <ele>47.8</ele>
        <time>2020-07-07T14:04:19Z</time>
      </trkpt>
      <trkpt lat="53.12334" lon="7.18966">
        <ele>48.794</ele>
        <time>2020-07-07T14:04:25Z</time>
      </trkpt>
      <trkpt lat="53.12323" lon="7.18996">
        <ele>49.547</ele>
        <time>2020-07-07T14:04:30Z</time>
      </trkpt>
      <trkpt lat="53.1231" lon="7.19029">
        <ele>51.096</ele>
        <time>2020-07-07T14:04:36Z</time>
      </trkpt>
      <trkpt lat="53.123" lon="7.19058">
        <ele>51.541</ele>
        <time>2020-07-07T14:04:41Z</time>
      </trkpt>
      <trkpt lat="53.12298" lon="7.19094">
        <ele>51.239</ele>
        <time>2020-07-07T14:04:47Z</time>
      </trkpt>
      <trkpt lat="53.12296" lon="7.19129">
        <ele>48.537</ele>
        <time>2020-07-07T14:04:52Z</time>
      </trkpt>
      <trkpt lat="53.12302" lon="7.19162">
        <ele>47.03</ele>
        <time>2020-07-07T14:04:57Z</time>
      </trkpt>
      <trkpt lat="53.12322" lon="7.19189">
        <ele>45.056</ele>
        <time>2020-07-07T14:05:03Z</time>
      </trkpt>
      <trkpt lat="53.12342" lon="7.19207">
        <ele>43.896</ele>
        <time>2020-07-07T14:05:08Z</time>
      </trkpt>
      <trkpt lat="53.12352" lon="7.19237">
        <ele>45.275</ele>
        <time>2020-07-07T14:05:14Z</time>
      </trkpt>
      <trkpt lat="53.12341" lon="7.19265">
        <ele>44.705</ele>
        <time>2020-07-07T14:05:19Z</time>
      </trkpt>
      <trkpt lat="53.12334" lon="7.19295">
        <ele>43.187</ele>
        <time>2020-07-07T14:05:24Z</time>
      </trkpt>
      <trkpt lat="53.12325" lon="7.19334">
        <ele>41.58</ele>
        <time>2020-07-07T14:05:30Z</time>
      </trkpt>
      <trkpt lat="53.12316" lon="7.19374">
        <ele>40.328</ele>
        <time>2020-07-07T14:05:36Z</time>
      </trkpt>
      <trkpt lat="53.12307" lon="7.19407">
        <ele>39.797</ele>
        <time>2020-07-07T14:05:41Z</time>
      </trkpt>
      <trkpt lat="53.12298" lon="7.19447">
        <ele>39.762</ele>
        <time>2020-07-07T14:05:47Z</time>
      </trkpt>
      <trkpt lat="53.12286" lon="7.19487">
        <ele>39.869</ele>
        <time>2020-07-07T14:05:53Z</time>
      </trkpt>
      <trkpt lat="53.12277" lon="7.19519">
        <ele>39.258</ele>
        <time>2020-07-07T14:05:58Z</time>
      </trkpt>
      <trkpt lat="53.12267" lon="7.19557">
        <ele>38.211</ele>
        <time>2020-07-07T14:06:04Z</time>
      </trkpt>
      <trkpt lat="53.12257" lon="7.19598">
        <ele>37.667</ele>
        <time>2020-07-07T14:06:10Z</time>
      </trkpt>
      <trkpt lat="53.12247" lon="7.19631">
        <ele>37.946</ele>
        <time>2020-07-07T14:06:15Z</time>
      </trkpt>
      <trkpt lat="53.12236" lon="7.19669">
        <ele>38.133</ele>
        <time>2020-07-07T14:06:21Z</time>
      </trkpt>
      <trkpt lat="53.12228" lon="7.19705">
        <ele>39.324</ele>
        <time>2020-07-07T14:06:26Z</time>
      </trkpt>
      <trkpt lat="53.12217" lon="7.1975">
        <ele>41.006</ele>
        <time>2020-07-07T14:06:32Z</time>
      </trkpt>
      <trkpt lat="53.12207" lon="7.1979">
        <ele>42.198</ele>
        <time>2020-07-07T14:06:38Z</time>
      </trkpt>
      <trkpt lat="53.12199" lon="7.19824">
        <ele>42.332</ele>
        <time>2020-07-07T14:06:43Z</time>
      </trkpt>
      <trkpt lat="53.12189" lon="7.19867">
        <ele>41.385</ele>
        <time>2020-07-07T14:06:49Z</time>
      </trkpt>
      <trkpt lat="53.12179" lon="7.19909">
        <ele>41.688</ele>
        <time>2020-07-07T14:06:55Z</time>
      </trkpt>
      <trkpt lat="53.1217" lon="7.19944">
        <ele>41.923</ele>
        <time>2020-07-07T14:07:00Z</time>
      </trkpt>
      <trkpt lat="53.1216" lon="7.19986">
        <ele>41.701</ele>
        <time>2020-07-07T14:07:06Z</time>
      </trkpt>
      <trkpt lat="53.12151" lon="7.2002">
        <ele>41.19</ele>
        <time>2020-07-07T14:07:11Z</time>
      </trkpt>
      <trkpt lat="53.12142" lon="7.20054">
        <ele>40.46</ele>
        <time>2020-07-07T14:07:16Z</time>
      </trkpt>
      <trkpt lat="53.12133" lon="7.20088">
        <ele>40.819</ele>
        <time>2020-07-07T14:07:21Z</time>
      </trkpt>
      <trkpt lat="53.12126" lon="7.20121">
        <ele>40.932</ele>
        <time>2020-07-07T14:07:26Z</time>
      </trkpt>
      <trkpt lat="53.12119" lon="7.20163">
        <ele>41.428</ele>
        <time>2020-07-07T14:07:32Z</time>
      </trkpt>
      <trkpt lat="53.12115" lon="7.20202">
        <ele>42.31</ele>
        <time>2020-07-07T14:07:38Z</time>
      </trkpt>
      <trkpt lat="53.12117" lon="7.20248">
        <ele>43.553</ele>
        <time>2020-07-07T14:07:44Z</time>
      </trkpt>
      <trkpt lat="53.12122" lon="7.20293">
        <ele>43.821</ele>
        <time>2020-07-07T14:07:50Z</time>
      </trkpt>
      <trkpt lat="53.1213" lon="7.20337">
        <ele>44.44</ele>
        <time>2020-07-07T14:07:56Z</time>
      </trkpt>
      <trkpt lat="53.1214" lon="7.20381">
        <ele>44.85</ele>
        <time>2020-07-07T14:08:02Z</time>
      </trkpt>
      <trkpt lat="53.1215" lon="7.20424">
        <ele>44.033</ele>
        <time>2020-07-07T14:08:08Z</time>
      </trkpt>
      <trkpt lat="53.1216" lon="7.20463">
        <ele>44.451</ele>
        <time>2020-07-07T14:08:14Z</time>
      </trkpt>
      <trkpt lat="53.1217" lon="7.20507">
        <ele>42.911</ele>
        <time>2020-07-07T14:08:20Z</time>
      </trkpt>
      <trkpt lat="53.12179" lon="7.20547">
        <ele>41.718</ele>
        <time>2020-07-07T14:08:25Z</time>
      </trkpt>
      <trkpt lat="53.12189" lon="7.20583">
        <ele>41.628</ele>
        <time>2020-07-07T14:08:30Z</time>
      </trkpt>
      <trkpt lat="53.12199" lon="7.20625">
        <ele>41.064</ele>
        <time>2020-07-07T14:08:36Z</time>
      </trkpt>
      <trkpt lat="53.12207" lon="7.20662">
        <ele>41.079</ele>
        <time>2020-07-07T14:08:41Z</time>
      </trkpt>
      <trkpt lat="53.12212" lon="7.20695">
        <ele>41.438</ele>
        <time>2020-07-07T14:08:46Z</time>
      </trkpt>
      <trkpt lat="53.12217" lon="7.20735">
        <ele>41.413</ele>
        <time>2020-07-07T14:08:52Z</time>
      </trkpt>
      <trkpt lat="53.12222" lon="7.20771">
        <ele>42.068</ele>
        <time>2020-07-07T14:08:57Z</time>
      </trkpt>
      <trkpt lat="53.12226" lon="7.20813">
        <ele>42.647</ele>
        <time>2020-07-07T14:09:03Z</time>
      </trkpt>
      <trkpt lat="53.12229" lon="7.20851">
        <ele>43.41</ele>
        <time>2020-07-07T14:09:09Z</time>
      </trkpt>
      <trkpt lat="53.12231" lon="7.20883">
        <ele>43.376</ele>
        <time>2020-07-07T14:09:14Z</time>
      </trkpt>
      <trkpt lat="53.12236" lon="7.20928">
        <ele>42.631</ele>
        <time>2020-07-07T14:09:20Z</time>
      </trkpt>
      <trkpt lat="53.12239" lon="7.20971">
        <ele>41.171</ele>
        <time>2020-07-07T14:09:25Z</time>
      </trkpt>
      <trkpt lat="53.12244" lon="7.21019">
        <ele>40.914</ele>
        <time>2020-07-07T14:09:30Z</time>
      </trkpt>
      <trkpt lat="53.12249" lon="7.21068">
        <ele>41.455</ele>
        <time>2020-07-07T14:09:36Z</time>
      </trkpt>
      <trkpt lat="53.12257" lon="7.2111">
        <ele>42.605</ele>
        <time>2020-07-07T14:09:42Z</time>
      </trkpt>
      <trkpt lat="53.12264" lon="7.21144">
        <ele>43.824</ele>
        <time>2020-07-07T14:09:47Z</time>
      </trkpt>
      <trkpt lat="53.12273" lon="7.21179">
        <ele>43.396</ele>
        <time>2020-07-07T14:09:52Z</time>
      </trkpt>
      <trkpt lat="53.12283" lon="7.21214">
        <ele>43.124</ele>
        <time>2020-07-07T14:09:57Z</time>
      </trkpt>
      <trkpt lat="53.12297" lon="7.21257">
        <ele>42.763</ele>
        <time>2020-07-07T14:10:03Z</time>
      </trkpt>
      <trkpt lat="53.12306" lon="7.2129">
        <ele>42.677</ele>
        <time>2020-07-07T14:10:08Z</time>
      </trkpt>
      <trkpt lat="53.12318" lon="7.21327">
        <ele>42.874</ele>
        <time>2020-07-07T14:10:14Z</time>
      </trkpt>
      <trkpt lat="53.12327" lon="7.2136">
        <ele>43.099</ele>
        <time>2020-07-07T14:10:19Z</time>
      </trkpt>
      <trkpt lat="53.1234" lon="7.214">
        <ele>42.908</ele>
        <time>2020-07-07T14:10:25Z</time>
      </trkpt>
      <trkpt lat="53.12352" lon="7.2144">
        <ele>42.961</ele>
        <time>2020-07-07T14:10:31Z</time>
      </trkpt>
      <trkpt lat="53.12363" lon="7.21481">
        <ele>42.052</ele>
        <time>2020-07-07T14:10:37Z</time>
      </trkpt>
      <trkpt lat="53.12374" lon="7.21513">
        <ele>40.947</ele>
        <time>2020-07-07T14:10:42Z</time>
      </trkpt>
      <trkpt lat="53.12387" lon="7.21553">
        <ele>41.35</ele>
        <time>2020-07-07T14:10:48Z</time>
      </trkpt>
      <trkpt lat="53.12399" lon="7.21593">
        <ele>40.499</ele>
        <time>2020-07-07T14:10:54Z</time>
      </trkpt>
      <trkpt lat="53.1241" lon="7.21624">
        <ele>41.558</ele>
        <time>2020-07-07T14:11:00Z</time>
      </trkpt>
      <trkpt lat="53.1242" lon="7.21661">
        <ele>42.138</ele>
        <time>2020-07-07T14:11:06Z</time>
      </trkpt>
      <trkpt lat="53.1243" lon="7.21695">
        <ele>41.262</ele>
        <time>2020-07-07T14:11:11Z</time>
      </trkpt>
      <trkpt lat="53.12441" lon="7.21733">
        <ele>40.89</ele>
        <time>2020-07-07T14:11:17Z</time>
      </trkpt>
      <trkpt lat="53.12454" lon="7.21774">
        <ele>39.853</ele>
        <time>2020-07-07T14:11:23Z</time>
      </trkpt>
      <trkpt lat="53.12464" lon="7.21806">
        <ele>40.46</ele>
        <time>2020-07-07T14:11:28Z</time>
      </trkpt>
      <trkpt lat="53.12474" lon="7.21839">
        <ele>40.415</ele>
        <time>2020-07-07T14:11:33Z</time>
      </trkpt>
      <trkpt lat="53.12486" lon="7.21877">
        <ele>40.069</ele>
        <time>2020-07-07T14:11:39Z</time>
      </trkpt>
      <trkpt lat="53.12498" lon="7.21919">
        <ele>39.676</ele>
        <time>2020-07-07T14:11:45Z</time>
      </trkpt>
      <trkpt lat="53.12509" lon="7.21958">
        <ele>40.99</ele>
        <time>2020-07-07T14:11:51Z</time>
      </trkpt>
      <trkpt lat="53.12515" lon="7.21998">
        <ele>41.434</ele>
        <time>2020-07-07T14:11:57Z</time>
      </trkpt>
      <trkpt lat="53.1252" lon="7.2204">
        <ele>42.522</ele>
        <time>2020-07-07T14:12:03Z</time>
      </trkpt>
      <trkpt lat="53.12522" lon="7.22077">
        <ele>42.29</ele>
        <time>2020-07-07T14:12:08Z</time>
      </trkpt>
      <trkpt lat="53.12524" lon="7.22121">
        <ele>42.91</ele>
        <time>2020-07-07T14:12:14Z</time>
      </trkpt>
      <trkpt lat="53.12526" lon="7.22162">
        <ele>42.896</ele>
        <time>2020-07-07T14:12:19Z</time>
      </trkpt>
      <trkpt lat="53.12529" lon="7.22206">
        <ele>42.667</ele>
        <time>2020-07-07T14:12:25Z</time>
      </trkpt>
      <trkpt lat="53.1253" lon="7.22245">
        <ele>43.669</ele>
        <time>2020-07-07T14:12:30Z</time>
      </trkpt>
      <trkpt lat="53.12532" lon="7.22296">
        <ele>44.008</ele>
        <time>2020-07-07T14:12:36Z</time>
      </trkpt>
      <trkpt lat="53.12536" lon="7.22345">
        <ele>44.572</ele>
        <time>2020-07-07T14:12:42Z</time>
      </trkpt>
      <trkpt lat="53.12539" lon="7.22389">
        <ele>45.488</ele>
        <time>2020-07-07T14:12:48Z</time>
      </trkpt>
      <trkpt lat="53.12541" lon="7.22434">
        <ele>46.284</ele>
        <time>2020-07-07T14:12:54Z</time>
      </trkpt>
      <trkpt lat="53.12543" lon="7.22466">
        <ele>47.111</ele>
        <time>2020-07-07T14:12:59Z</time>
      </trkpt>
      <trkpt lat="53.12545" lon="7.22509">
        <ele>48.385</ele>
        <time>2020-07-07T14:13:05Z</time>
      </trkpt>
      <trkpt lat="53.12547" lon="7.22544">
        <ele>48.727</ele>
        <time>2020-07-07T14:13:10Z</time>
      </trkpt>
      <trkpt lat="53.12549" lon="7.22588">
        <ele>48.434</ele>
        <time>2020-07-07T14:13:16Z</time>
      </trkpt>
      <trkpt lat="53.12551" lon="7.22624">
        <ele>48.301</ele>
        <time>2020-07-07T14:13:21Z</time>
      </trkpt>
      <trkpt lat="53.12554" lon="7.22659">
        <ele>48.109</ele>
        <time>2020-07-07T14:13:26Z</time>
      </trkpt>
      <trkpt lat="53.12557" lon="7.22702">
        <ele>48.151</ele>
        <time>2020-07-07T14:13:32Z</time>
      </trkpt>
      <trkpt lat="53.1256" lon="7.22745">
        <ele>47.912</ele>
        <time>2020-07-07T14:13:38Z</time>
      </trkpt>
      <trkpt lat="53.1256" lon="7.22777">
        <ele>48.008</ele>
        <time>2020-07-07T14:13:43Z</time>
      </trkpt>
      <trkpt lat="53.12563" lon="7.22819">
        <ele>47.849</ele>
        <time>2020-07-07T14:13:49Z</time>
      </trkpt>
      <trkpt lat="53.12566" lon="7.2286">
        <ele>47.627</ele>
        <time>2020-07-07T14:13:55Z</time>
      </trkpt>
      <trkpt lat="53.12569" lon="7.22907">
        <ele>46.136</ele>
        <time>2020-07-07T14:14:01Z</time>
      </trkpt>
      <trkpt lat="53.12571" lon="7.22955">
        <ele>44.984</ele>
        <time>2020-07-07T14:14:07Z</time>
      </trkpt>
      <trkpt lat="53.12574" lon="7.22994">
        <ele>44.174</ele>
        <time>2020-07-07T14:14:12Z</time>
      </trkpt>
      <trkpt lat="53.12577" lon="7.23028">
        <ele>44.19</ele>
        <time>2020-07-07T14:14:17Z</time>
      </trkpt>
      <trkpt lat="53.12581" lon="7.23071">
        <ele>43.621</ele>
        <time>2020-07-07T14:14:23Z</time>
      </trkpt>
      <trkpt lat="53.12583" lon="7.23113">
        <ele>43.566</ele>
        <time>2020-07-07T14:14:29Z</time>
      </trkpt>
      <trkpt lat="53.12585" lon="7.23149">
        <ele>43.483</ele>
        <time>2020-07-07T14:14:34Z</time>
      </trkpt>
      <trkpt lat="53.12588" lon="7.23195">
        <ele>42.805</ele>
        <time>2020-07-07T14:14:40Z</time>
      </trkpt>
      <trkpt lat="53.1259" lon="7.23234">
        <ele>42.831</ele>
        <time>2020-07-07T14:14:45Z</time>
      </trkpt>
      <trkpt lat="53.12593" lon="7.23274">
        <ele>42.447</ele>
        <time>2020-07-07T14:14:51Z</time>
      </trkpt>
      <trkpt lat="53.12596" lon="7.23312">
        <ele>41.946</ele>
        <time>2020-07-07T14:14:56Z</time>
      </trkpt>
      <trkpt lat="53.12599" lon="7.23357">
        <ele>41.58</ele>
        <time>2020-07-07T14:15:02Z</time>
      </trkpt>
      <trkpt lat="53.12601" lon="7.23397">
        <ele>40.416</ele>
        <time>2020-07-07T14:15:07Z</time>
      </trkpt>
      <trkpt lat="53.12605" lon="7.23445">
        <ele>39.776</ele>
        <time>2020-07-07T14:15:13Z</time>
      </trkpt>
      <trkpt lat="53.12607" lon="7.23485">
        <ele>39.679</ele>
        <time>2020-07-07T14:15:18Z</time>
      </trkpt>
      <trkpt lat="53.12611" lon="7.23531">
        <ele>41.009</ele>
        <time>2020-07-07T14:15:24Z</time>
      </trkpt>
      <trkpt lat="53.12613" lon="7.23577">
        <ele>41.749</ele>
        <time>2020-07-07T14:15:30Z</time>
      </trkpt>
      <trkpt lat="53.12615" lon="7.23624">
        <ele>41.46</ele>
        <time>2020-07-07T14:15:36Z</time>
      </trkpt>
      <trkpt lat="53.12618" lon="7.23663">
        <ele>40.918</ele>
        <time>2020-07-07T14:15:41Z</time>
      </trkpt>
      <trkpt lat="53.12621" lon="7.23702">
        <ele>40.235</ele>
        <time>2020-07-07T14:15:46Z</time>
      </trkpt>
      <trkpt lat="53.12623" lon="7.23749">
        <ele>40.921</ele>
        <time>2020-07-07T14:15:52Z</time>
      </trkpt>
      <trkpt lat="53.12625" lon="7.23788">
        <ele>41.601</ele>
        <time>2020-07-07T14:15:57Z</time>
      </trkpt>
      <trkpt lat="53.12628" lon="7.23835">
        <ele>41.713</ele>
        <time>2020-07-07T14:16:03Z</time>
      </trkpt>
      <trkpt lat="53.12629" lon="7.23873">
        <ele>41.846</ele>
        <time>2020-07-07T14:16:08Z</time>
      </trkpt>
      <trkpt lat="53.12631" lon="7.23919">
        <ele>42.02</ele>
        <time>2020-07-07T14:16:14Z</time>
      </trkpt>
      <trkpt lat="53.12633" lon="7.23956">
        <ele>41.909</ele>
        <time>2020-07-07T14:16:19Z</time>
      </trkpt>
      <trkpt lat="53.12637" lon="7.24">
        <ele>42.212</ele>
        <time>2020-07-07T14:16:25Z</time>
      </trkpt>
      <trkpt lat="53.12639" lon="7.24038">
        <ele>42.846</ele>
        <time>2020-07-07T14:16:30Z</time>
      </trkpt>
      <trkpt lat="53.12641" lon="7.24082">
        <ele>43.318</ele>
        <time>2020-07-07T14:16:36Z</time>
      </trkpt>
      <trkpt lat="53.12645" lon="7.24119">
        <ele>43.743</ele>
        <time>2020-07-07T14:16:41Z</time>
      </trkpt>
      <trkpt lat="53.12652" lon="7.24163">
        <ele>43.3</ele>
        <time>2020-07-07T14:16:47Z</time>
      </trkpt>
      <trkpt lat="53.12657" lon="7.24198">
        <ele>43.359</ele>
        <time>2020-07-07T14:16:52Z</time>
      </trkpt>
      <trkpt lat="53.12663" lon="7.2424">
        <ele>43.983</ele>
        <time>2020-07-07T14:16:58Z</time>
      </trkpt>
      <trkpt lat="53.1267" lon="7.24276">
        <ele>44.255</ele>
        <time>2020-07-07T14:17:03Z</time>
      </trkpt>
      <trkpt lat="53.12679" lon="7.24319">
        <ele>44.196</ele>
        <time>2020-07-07T14:17:09Z</time>
      </trkpt>
      <trkpt lat="53.12685" lon="7.24355">
        <ele>44.224</ele>
        <time>2020-07-07T14:17:14Z</time>
      </trkpt>
      <trkpt lat="53.12694" lon="7.24399">
        <ele>43.724</ele>
        <time>2020-07-07T14:17:20Z</time>
      </trkpt>
      <trkpt lat="53.12702" lon="7.24441">
        <ele>43.971</ele>
        <time>2020-07-07T14:17:26Z</time>
      </trkpt>
      <trkpt lat="53.12709" lon="7.24484">
        <ele>44.396</ele>
        <time>2020-07-07T14:17:32Z</time>
      </trkpt>
      <trkpt lat="53.12717" lon="7.24527">
        <ele>44.923</ele>
        <time>2020-07-07T14:17:38Z</time>
      </trkpt>
      <trkpt lat="53.12724" lon="7.24565">
        <ele>45.201</ele>
        <time>2020-07-07T14:17:43Z</time>
      </trkpt>
      <trkpt lat="53.12731" lon="7.24609">
        <ele>45.001</ele>
        <time>2020-07-07T14:17:49Z</time>
      </trkpt>
      <trkpt lat="53.12739" lon="7.24652">
        <ele>44.922</ele>
        <time>2020-07-07T14:17:55Z</time>
      </trkpt>
      <trkpt lat="53.12746" lon="7.24693">
        <ele>44.519</ele>
        <time>2020-07-07T14:18:01Z</time>
      </trkpt>
      <trkpt lat="53.12752" lon="7.24724">
        <ele>44.252</ele>
        <time>2020-07-07T14:18:06Z</time>
      </trkpt>
      <trkpt lat="53.12756" lon="7.24747">
        <ele>45.107</ele>
        <time>2020-07-07T14:18:12Z</time>
      </trkpt>
      <trkpt lat="53.12757" lon="7.24748">
        <ele>45.161</ele>
        <time>2020-07-07T14:18:18Z</time>
      </trkpt>
      <trkpt lat="53.12757" lon="7.24748">
        <ele>45.161</ele>
        <time>2020-07-07T14:18:24Z</time>
      </trkpt>
      <trkpt lat="53.12757" lon="7.24748">
        <ele>45.161</ele>
        <time>2020-07-07T14:18:29Z</time>
      </trkpt>
      <trkpt lat="53.12757" lon="7.24748">
        <ele>45.161</ele>
        <time>2020-07-07T14:18:35Z</time>
      </trkpt>
      <trkpt lat="53.12757" lon="7.24748">
        <ele>45.161</ele>
        <time>2020-07-07T14:18:41Z</time>
      </trkpt>
      <trkpt lat="53.12757" lon="7.24748">
        <ele>45.161</ele>
        <time>2020-07-07T14:18:46Z</time>
      </trkpt>
      <trkpt lat="53.12757" lon="7.24748">
        <ele>45.161</ele>
        <time>2020-07-07T14:18:51Z</time>
      </trkpt>
      <trkpt lat="53.12757" lon="7.24748">
        <ele>45.161</ele>
        <time>2020-07-07T14:18:57Z</time>
      </trkpt>
      <trkpt lat="53.12757" lon="7.24748">
        <ele>45.161</ele>
        <time>2020-07-07T14:19:02Z</time>
      </trkpt>
      <trkpt lat="53.12757" lon="7.24748">
        <ele>45.161</ele>
        <time>2020-07-07T14:19:08Z</time>
      </trkpt>
      <trkpt lat="53.12757" lon="7.24748">
        <ele>45.161</ele>
        <time>2020-07-07T14:19:13Z</time>
      </trkpt>
      <trkpt lat="53.12757" lon="7.24748">
        <ele>45.161</ele>
        <time>2020-07-07T14:19:19Z</time>
      </trkpt>
      <trkpt lat="53.12757" lon="7.24748">
        <ele>45.161</ele>
        <time>2020-07-07T14:19:24Z</time>
      </trkpt>
      <trkpt lat="53.12757" lon="7.24748">
        <ele>45.161</ele>
        <time>2020-07-07T14:19:30Z</time>
      </trkpt>
      <trkpt lat="53.12757" lon="7.24748">
        <ele>45.161</ele>
        <time>2020-07-07T14:19:35Z</time>
      </trkpt>
      <trkpt lat="53.12757" lon="7.24748">
        <ele>45.161</ele>
        <time>2020-07-07T14:19:40Z</time>
      </trkpt>
      <trkpt lat="53.12757" lon="7.24748">
        <ele>45.161</ele>
        <time>2020-07-07T14:19:45Z</time>
      </trkpt>
      <trkpt lat="53.12757" lon="7.24748">
        <ele>45.161</ele>
        <time>2020-07-07T14:19:51Z</time>
      </trkpt>
      <trkpt lat="53.12757" lon="7.24748">
        <ele>45.161</ele>
        <time>2020-07-07T14:19:56Z</time>
      </trkpt>
      <trkpt lat="53.12757" lon="7.24748">
        <ele>45.161</ele>
        <time>2020-07-07T14:20:02Z</time>
      </trkpt>
      <trkpt lat="53.12757" lon="7.24748">
        <ele>45.161</ele>
        <time>2020-07-07T14:20:07Z</time>
      </trkpt>
      <trkpt lat="53.12757" lon="7.24748">
        <ele>45.161</ele>
        <time>2020-07-07T14:20:13Z</time>
      </trkpt>
      <trkpt lat="53.12757" lon="7.24748">
        <ele>45.161</ele>
        <time>2020-07-07T14:20:18Z</time>
      </trkpt>
      <trkpt lat="53.12757" lon="7.24748">
        <ele>45.161</ele>
        <time>2020-07-07T14:20:24Z</time>
      </trkpt>
      <trkpt lat="53.12757" lon="7.24748">
        <ele>45.161</ele>
        <time>2020-07-07T14:20:30Z</time>
      </trkpt>
      <trkpt lat="53.12757" lon="7.24748">
        <ele>45.161</ele>
        <time>2020-07-07T14:20:35Z</time>
      </trkpt>
      <trkpt lat="53.12757" lon="7.24748">
        <ele>45.161</ele>
        <time>2020-07-07T14:20:41Z</time>
      </trkpt>
      <trkpt lat="53.12757" lon="7.24748">
        <ele>45.161</ele>
        <time>2020-07-07T14:20:47Z</time>
      </trkpt>
      <trkpt lat="53.12757" lon="7.24748">
        <ele>45.161</ele>
        <time>2020-07-07T14:20:53Z</time>
      </trkpt>
      <trkpt lat="53.12757" lon="7.24748">
        <ele>45.161</ele>
        <time>2020-07-07T14:20:59Z</time>
      </trkpt>
      <trkpt lat="53.12757" lon="7.24748">
        <ele>45.161</ele>
        <time>2020-07-07T14:21:05Z</time>
      </trkpt>
      <trkpt lat="53.12757" lon="7.24748">
        <ele>45.161</ele>
        <time>2020-07-07T14:21:10Z</time>
      </trkpt>
      <trkpt lat="53.12757" lon="7.24748">
        <ele>45.161</ele>
        <time>2020-07-07T14:21:17Z</time>
      </trkpt>
      <trkpt lat="53.12757" lon="7.24748">
        <ele>45.161</ele>
        <time>2020-07-07T14:21:22Z</time>
      </trkpt>
      <trkpt lat="53.12757" lon="7.24748">
        <ele>45.161</ele>
        <time>2020-07-07T14:21:27Z</time>
      </trkpt>
      <trkpt lat="53.12757" lon="7.24748">
        <ele>45.161</ele>
        <time>2020-07-07T14:21:33Z</time>
      </trkpt>
      <trkpt lat="53.12757" lon="7.24748">
        <ele>45.161</ele>
        <time>2020-07-07T14:21:38Z</time>
      </trkpt>
      <trkpt lat="53.12757" lon="7.24748">
        <ele>45.161</ele>
        <time>2020-07-07T14:21:44Z</time>
      </trkpt>
      <trkpt lat="53.12757" lon="7.24748">
        <ele>45.161</ele>
        <time>2020-07-07T14:21:49Z</time>
      </trkpt>
      <trkpt lat="53.12757" lon="7.24748">
        <ele>45.161</ele>
        <time>2020-07-07T14:21:55Z</time>
      </trkpt>
      <trkpt lat="53.12757" lon="7.24748">
        <ele>45.161</ele>
        <time>2020-07-07T14:22:01Z</time>
      </trkpt>
      <trkpt lat="53.12757" lon="7.24748">
        <ele>45.161</ele>
        <time>2020-07-07T14:22:06Z</time>
      </trkpt>
      <trkpt lat="53.12757" lon="7.24748">
        <ele>45.161</ele>
        <time>2020-07-07T14:22:11Z</time>
      </trkpt>
      <trkpt lat="53.12757" lon="7.24748">
        <ele>45.161</ele>
        <time>2020-07-07T14:22:17Z</time>
      </trkpt>
      <trkpt lat="53.12757" lon="7.24748">
        <ele>45.161</ele>
        <time>2020-07-07T14:22:23Z</time>
      </trkpt>
      <trkpt lat="53.12757" lon="7.24748">
        <ele>45.161</ele>
        <time>2020-07-07T14:22:29Z</time>
      </trkpt>
      <trkpt lat="53.12757" lon="7.24748">
        <ele>45.161</ele>
        <time>2020-07-07T14:22:35Z</time>
      </trkpt>
      <trkpt lat="53.12757" lon="7.24748">
        <ele>45.161</ele>
        <time>2020-07-07T14:22:40Z</time>
      </trkpt>
      <trkpt lat="53.12757" lon="7.24748">
        <ele>45.161</ele>
        <time>2020-07-07T14:22:46Z</time>
      </trkpt>
      <trkpt lat="53.12757" lon="7.24748">
        <ele>45.161</ele>
        <time>2020-07-07T14:22:52Z</time>
      </trkpt>
      <trkpt lat="53.12757" lon="7.24748">
        <ele>45.161</ele>
        <time>2020-07-07T14:22:58Z</time>
      </trkpt>
      <trkpt lat="53.12757" lon="7.24748">
        <ele>45.161</ele>
        <time>2020-07-07T14:23:04Z</time>
      </trkpt>
      <trkpt lat="53.12757" lon="7.24748">
        <ele>45.161</ele>
        <time>2020-07-07T14:23:09Z</time>
      </trkpt>
      <trkpt lat="53.12757" lon="7.24748">
        <ele>45.161</ele>
        <time>2020-07-07T14:23:14Z</time>
      </trkpt>
      <trkpt lat="53.12757" lon="7.24748">
        <ele>45.161</ele>
        <time>2020-07-07T14:23:20Z</time>
      </trkpt>
      <trkpt lat="53.12757" lon="7.24748">
        <ele>45.161</ele>
        <time>2020-07-07T14:23:25Z</time>
      </trkpt>
      <trkpt lat="53.12757" lon="7.24748">
        <ele>45.161</ele>
        <time>2020-07-07T14:23:31Z</time>
      </trkpt>
      <trkpt lat="53.12757" lon="7.24748">
        <ele>45.161</ele>
        <time>2020-07-07T14:23:37Z</time>
      </trkpt>
      <trkpt lat="53.12757" lon="7.24748">
        <ele>45.161</ele>
        <time>2020-07-07T14:23:42Z</time>
      </trkpt>
      <trkpt lat="53.12757" lon="7.24748">
        <ele>45.161</ele>
        <time>2020-07-07T14:23:48Z</time>
      </trkpt>
      <trkpt lat="53.12757" lon="7.24748">
        <ele>45.161</ele>
        <time>2020-07-07T14:23:53Z</time>
      </trkpt>
      <trkpt lat="53.12757" lon="7.24748">
        <ele>45.161</ele>
        <time>2020-07-07T14:23:58Z</time>
      </trkpt>
      <trkpt lat="53.12757" lon="7.24748">
        <ele>45.161</ele>
        <time>2020-07-07T14:24:04Z</time>
      </trkpt>
      <trkpt lat="53.12757" lon="7.24748">
        <ele>45.161</ele>
        <time>2020-07-07T14:24:10Z</time>
      </trkpt>
      <trkpt lat="53.12757" lon="7.24748">
        <ele>45.161</ele>
        <time>2020-07-07T14:24:16Z</time>
      </trkpt>
      <trkpt lat="53.12758" lon="7.24754">
        <ele>44.85</ele>
        <time>2020-07-07T14:24:21Z</time>
      </trkpt>
      <trkpt lat="53.12763" lon="7.24765">
        <ele>44.408</ele>
        <time>2020-07-07T14:24:26Z</time>
      </trkpt>
      <trkpt lat="53.12766" lon="7.24793">
        <ele>43.785</ele>
        <time>2020-07-07T14:24:32Z</time>
      </trkpt>
      <trkpt lat="53.12771" lon="7.24824">
        <ele>44.905</ele>
        <time>2020-07-07T14:24:38Z</time>
      </trkpt>
      <trkpt lat="53.12775" lon="7.24852">
        <ele>45.237</ele>
        <time>2020-07-07T14:24:43Z</time>
      </trkpt>
      <trkpt lat="53.12781" lon="7.2489">
        <ele>46.485</ele>
        <time>2020-07-07T14:24:49Z</time>
      </trkpt>
      <trkpt lat="53.12789" lon="7.2493">
        <ele>47.939</ele>
        <time>2020-07-07T14:24:55Z</time>
      </trkpt>
      <trkpt lat="53.12795" lon="7.24968">
        <ele>48.108</ele>
        <time>2020-07-07T14:25:00Z</time>
      </trkpt>
      <trkpt lat="53.12803" lon="7.25004">
        <ele>49.441</ele>
        <time>2020-07-07T14:25:06Z</time>
      </trkpt>
      <trkpt lat="53.1281" lon="7.25047">
        <ele>49.288</ele>
        <time>2020-07-07T14:25:12Z</time>
      </trkpt>
      <trkpt lat="53.1282" lon="7.25087">
        <ele>49.447</ele>
        <time>2020-07-07T14:25:18Z</time>
      </trkpt>
      <trkpt lat="53.12831" lon="7.25127">
        <ele>49.409</ele>
        <time>2020-07-07T14:25:24Z</time>
      </trkpt>
      <trkpt lat="53.12842" lon="7.25173">
        <ele>47.546</ele>
        <time>2020-07-07T14:25:30Z</time>
      </trkpt>
      <trkpt lat="53.12851" lon="7.25217">
        <ele>46.663</ele>
        <time>2020-07-07T14:25:36Z</time>
      </trkpt>
      <trkpt lat="53.12861" lon="7.25258">
        <ele>46.887</ele>
        <time>2020-07-07T14:25:42Z</time>
      </trkpt>
      <trkpt lat="53.12871" lon="7.25297">
        <ele>46.844</ele>
        <time>2020-07-07T14:25:47Z</time>
      </trkpt>
      <trkpt lat="53.12881" lon="7.25341">
        <ele>46.867</ele>
        <time>2020-07-07T14:25:53Z</time>
      </trkpt>
      <trkpt lat="53.12891" lon="7.25379">
        <ele>45.473</ele>
        <time>2020-07-07T14:25:58Z</time>
      </trkpt>
      <trkpt lat="53.12902" lon="7.25422">
        <ele>44.633</ele>
        <time>2020-07-07T14:26:04Z</time>
      </trkpt>
      <trkpt lat="53.12914" lon="7.25462">
        <ele>43.447</ele>
        <time>2020-07-07T14:26:10Z</time>
      </trkpt>
      <trkpt lat="53.12922" lon="7.25495">
        <ele>42.879</ele>
        <time>2020-07-07T14:26:15Z</time>
      </trkpt>
      <trkpt lat="53.12929" lon="7.25527">
        <ele>42.484</ele>
        <time>2020-07-07T14:26:20Z</time>
      </trkpt>
      <trkpt lat="53.12938" lon="7.25562">
        <ele>42.79</ele>
        <time>2020-07-07T14:26:26Z</time>
      </trkpt>
      <trkpt lat="53.12946" lon="7.25596">
        <ele>43.442</ele>
        <time>2020-07-07T14:26:32Z</time>
      </trkpt>
      <trkpt lat="53.12955" lon="7.2563">
        <ele>44.677</ele>
        <time>2020-07-07T14:26:38Z</time>
      </trkpt>
      <trkpt lat="53.12962" lon="7.25659">
        <ele>45.155</ele>
        <time>2020-07-07T14:26:43Z</time>
      </trkpt>
      <trkpt lat="53.1297" lon="7.25697">
        <ele>45.327</ele>
        <time>2020-07-07T14:26:49Z</time>
      </trkpt>
      <trkpt lat="53.12979" lon="7.25735">
        <ele>44.826</ele>
        <time>2020-07-07T14:26:55Z</time>
      </trkpt>
      <trkpt lat="53.12985" lon="7.25765">
        <ele>44.297</ele>
        <time>2020-07-07T14:27:00Z</time>
      </trkpt>
      <trkpt lat="53.12992" lon="7.258">
        <ele>43.116</ele>
        <time>2020-07-07T14:27:05Z</time>
      </trkpt>
      <trkpt lat="53.13" lon="7.25831">
        <ele>42.894</ele>
        <time>2020-07-07T14:27:10Z</time>
      </trkpt>
      <trkpt lat="53.13009" lon="7.25866">
        <ele>43.533</ele>
        <time>2020-07-07T14:27:16Z</time>
      </trkpt>
      <trkpt lat="53.13018" lon="7.259">
        <ele>45.349</ele>
        <time>2020-07-07T14:27:22Z</time>
      </trkpt>
      <trkpt lat="53.13025" lon="7.25933">
        <ele>46.165</ele>
        <time>2020-07-07T14:27:27Z</time>
      </trkpt>
      <trkpt lat="53.13035" lon="7.25968">
        <ele>48.171</ele>
        <time>2020-07-07T14:27:33Z</time>
      </trkpt>
      <trkpt lat="53.13042" lon="7.26002">
        <ele>48.278</ele>
        <time>2020-07-07T14:27:38Z</time>
      </trkpt>
      <trkpt lat="53.13052" lon="7.26042">
        <ele>48.301</ele>
        <time>2020-07-07T14:27:44Z</time>
      </trkpt>
      <trkpt lat="53.1306" lon="7.26072">
        <ele>49.828</ele>
        <time>2020-07-07T14:27:49Z</time>
      </trkpt>
      <trkpt lat="53.1307" lon="7.26118">
        <ele>49.493</ele>
        <time>2020-07-07T14:27:55Z</time>
      </trkpt>
      <trkpt lat="53.13081" lon="7.26162">
        <ele>49.049</ele>
        <time>2020-07-07T14:28:01Z</time>
      </trkpt>
      <trkpt lat="53.1309" lon="7.26199">
        <ele>48.774</ele>
        <time>2020-07-07T14:28:06Z</time>
      </trkpt>
      <trkpt lat="53.13098" lon="7.26235">
        <ele>48.522</ele>
        <time>2020-07-07T14:28:11Z</time>
      </trkpt>
      <trkpt lat="53.13108" lon="7.26274">
        <ele>48.34</ele>
        <time>2020-07-07T14:28:17Z</time>
      </trkpt>
      <trkpt lat="53.13116" lon="7.26308">
        <ele>48.924</ele>
        <time>2020-07-07T14:28:23Z</time>
      </trkpt>
      <trkpt lat="53.13126" lon="7.26347">
        <ele>49.288</ele>
        <time>2020-07-07T14:28:29Z</time>
      </trkpt>
      <trkpt lat="53.13133" lon="7.26381">
        <ele>49.775</ele>
        <time>2020-07-07T14:28:34Z</time>
      </trkpt>
      <trkpt lat="53.1314" lon="7.2642">
        <ele>48.958</ele>
        <time>2020-07-07T14:28:39Z</time>
      </trkpt>
      <trkpt lat="53.13153" lon="7.26467">
        <ele>48.052</ele>
        <time>2020-07-07T14:28:45Z</time>
      </trkpt>
      <trkpt lat="53.13161" lon="7.26497">
        <ele>48.312</ele>
        <time>2020-07-07T14:28:50Z</time>
      </trkpt>
      <trkpt lat="53.13168" lon="7.26536">
        <ele>47.267</ele>
        <time>2020-07-07T14:28:56Z</time>
      </trkpt>
      <trkpt lat="53.13178" lon="7.26578">
        <ele>47.98</ele>
        <time>2020-07-07T14:29:02Z</time>
      </trkpt>
      <trkpt lat="53.13187" lon="7.26621">
        <ele>47.464</ele>
        <time>2020-07-07T14:29:08Z</time>
      </trkpt>
      <trkpt lat="53.13193" lon="7.26659">
        <ele>48.167</ele>
        <time>2020-07-07T14:29:14Z</time>
      </trkpt>
      <trkpt lat="53.13196" lon="7.26692">
        <ele>49.73</ele>
        <time>2020-07-07T14:29:20Z</time>
      </trkpt>
      <trkpt lat="53.132" lon="7.26724">
        <ele>51.322</ele>
        <time>2020-07-07T14:29:26Z</time>
      </trkpt>
      <trkpt lat="53.13202" lon="7.26755">
        <ele>52.071</ele>
        <time>2020-07-07T14:29:32Z</time>
      </trkpt>
      <trkpt lat="53.13202" lon="7.26779">
        <ele>53.452</ele>
        <time>2020-07-07T14:29:37Z</time>
      </trkpt>
      <trkpt lat="53.13203" lon="7.26801">
        <ele>54.038</ele>
        <time>2020-07-07T14:29:42Z</time>
      </trkpt>
      <trkpt lat="53.13202" lon="7.2683">
        <ele>55.482</ele>
        <time>2020-07-07T14:29:48Z</time>
      </trkpt>
      <trkpt lat="53.13202" lon="7.26852">
        <ele>55.051</ele>
        <time>2020-07-07T14:29:53Z</time>
      </trkpt>
      <trkpt lat="53.13202" lon="7.26871">
        <ele>55.021</ele>
        <time>2020-07-07T14:29:58Z</time>
      </trkpt>
      <trkpt lat="53.13201" lon="7.26894">
        <ele>56.203</ele>
        <time>2020-07-07T14:30:04Z</time>
      </trkpt>
      <trkpt lat="53.13199" lon="7.26915">
        <ele>56.214</ele>
        <time>2020-07-07T14:30:09Z</time>
      </trkpt>
      <trkpt lat="53.13197" lon="7.26937">
        <ele>57.651</ele>
        <time>2020-07-07T14:30:14Z</time>
      </trkpt>
      <trkpt lat="53.13195" lon="7.26965">
        <ele>59.028</ele>
        <time>2020-07-07T14:30:20Z</time>
      </trkpt>
      <trkpt lat="53.13191" lon="7.26995">
        <ele>59.257</ele>
        <time>2020-07-07T14:30:26Z</time>
      </trkpt>
      <trkpt lat="53.13187" lon="7.27021">
        <ele>59.196</ele>
        <time>2020-07-07T14:30:31Z</time>
      </trkpt>
      <trkpt lat="53.13184" lon="7.27057">
        <ele>59.102</ele>
        <time>2020-07-07T14:30:37Z</time>
      </trkpt>
      <trkpt lat="53.13181" lon="7.27091">
        <ele>59.077</ele>
        <time>2020-07-07T14:30:42Z</time>
      </trkpt>
      <trkpt lat="53.13176" lon="7.27139">
        <ele>57.976</ele>
        <time>2020-07-07T14:30:48Z</time>
      </trkpt>
      <trkpt lat="53.1317" lon="7.27184">
        <ele>57.666</ele>
        <time>2020-07-07T14:30:53Z</time>
      </trkpt>
      <trkpt lat="53.13161" lon="7.27251">
        <ele>56.372</ele>
        <time>2020-07-07T14:30:59Z</time>
      </trkpt>
      <trkpt lat="53.13155" lon="7.27309">
        <ele>54.724</ele>
        <time>2020-07-07T14:31:04Z</time>
      </trkpt>
      <trkpt lat="53.13148" lon="7.27375">
        <ele>53.153</ele>
        <time>2020-07-07T14:31:10Z</time>
      </trkpt>
      <trkpt lat="53.13142" lon="7.27426">
        <ele>52.143</ele>
        <time>2020-07-07T14:31:15Z</time>
      </trkpt>
      <trkpt lat="53.13133" lon="7.27486">
        <ele>51.63</ele>
        <time>2020-07-07T14:31:21Z</time>
      </trkpt>
      <trkpt lat="53.13125" lon="7.27529">
        <ele>52.704</ele>
        <time>2020-07-07T14:31:26Z</time>
      </trkpt>
      <trkpt lat="53.13113" lon="7.27577">
        <ele>54.128</ele>
        <time>2020-07-07T14:31:32Z</time>
      </trkpt>
      <trkpt lat="53.13103" lon="7.27615">
        <ele>53.882</ele>
        <time>2020-07-07T14:31:37Z</time>
      </trkpt>
      <trkpt lat="53.13094" lon="7.27656">
        <ele>54.534</ele>
        <time>2020-07-07T14:31:43Z</time>
      </trkpt>
      <trkpt lat="53.13087" lon="7.27695">
        <ele>55.22</ele>
        <time>2020-07-07T14:31:48Z</time>
      </trkpt>
      <trkpt lat="53.13082" lon="7.27745">
        <ele>55.236</ele>
        <time>2020-07-07T14:31:54Z</time>
      </trkpt>
      <trkpt lat="53.13077" lon="7.27785">
        <ele>55.454</ele>
        <time>2020-07-07T14:31:59Z</time>
      </trkpt>
      <trkpt lat="53.13072" lon="7.27833">
        <ele>55.325</ele>
        <time>2020-07-07T14:32:05Z</time>
      </trkpt>
      <trkpt lat="53.13067" lon="7.27873">
        <ele>54.591</ele>
        <time>2020-07-07T14:32:10Z</time>
      </trkpt>
      <trkpt lat="53.13063" lon="7.27915">
        <ele>53.916</ele>
        <time>2020-07-07T14:32:15Z</time>
      </trkpt>
      <trkpt lat="53.13059" lon="7.27959">
        <ele>53.988</ele>
        <time>2020-07-07T14:32:21Z</time>
      </trkpt>
      <trkpt lat="53.13053" lon="7.28007">
        <ele>53.335</ele>
        <time>2020-07-07T14:32:27Z</time>
      </trkpt>
      <trkpt lat="53.13049" lon="7.28055">
        <ele>53.446</ele>
        <time>2020-07-07T14:32:33Z</time>
      </trkpt>
      <trkpt lat="53.13043" lon="7.28108">
        <ele>53.398</ele>
        <time>2020-07-07T14:32:39Z</time>
      </trkpt>
      <trkpt lat="53.13037" lon="7.28157">
        <ele>53.454</ele>
        <time>2020-07-07T14:32:45Z</time>
      </trkpt>
      <trkpt lat="53.13033" lon="7.282">
        <ele>53.561</ele>
        <time>2020-07-07T14:32:50Z</time>
      </trkpt>
      <trkpt lat="53.13029" lon="7.2825">
        <ele>53.169</ele>
        <time>2020-07-07T14:32:56Z</time>
      </trkpt>
      <trkpt lat="53.13024" lon="7.28297">
        <ele>53.554</ele>
        <time>2020-07-07T14:33:02Z</time>
      </trkpt>
      <trkpt lat="53.1302" lon="7.28337">
        <ele>52.741</ele>
        <time>2020-07-07T14:33:07Z</time>
      </trkpt>
      <trkpt lat="53.13014" lon="7.28389">
        <ele>54.374</ele>
        <time>2020-07-07T14:33:13Z</time>
      </trkpt>
      <trkpt lat="53.1301" lon="7.28433">
        <ele>54.263</ele>
        <time>2020-07-07T14:33:18Z</time>
      </trkpt>
      <trkpt lat="53.13002" lon="7.2848">
        <ele>53.361</ele>
        <time>2020-07-07T14:33:23Z</time>
      </trkpt>
      <trkpt lat="53.12997" lon="7.28536">
        <ele>53.544</ele>
        <time>2020-07-07T14:33:29Z</time>
      </trkpt>
      <trkpt lat="53.12992" lon="7.28587">
        <ele>52.147</ele>
        <time>2020-07-07T14:33:35Z</time>
      </trkpt>
      <trkpt lat="53.12987" lon="7.2864">
        <ele>51.124</ele>
        <time>2020-07-07T14:33:41Z</time>
      </trkpt>
      <trkpt lat="53.12982" lon="7.28689">
        <ele>50.693</ele>
        <time>2020-07-07T14:33:47Z</time>
      </trkpt>
      <trkpt lat="53.12978" lon="7.28732">
        <ele>50.797</ele>
        <time>2020-07-07T14:33:53Z</time>
      </trkpt>
      <trkpt lat="53.12974" lon="7.28767">
        <ele>50.705</ele>
        <time>2020-07-07T14:33:58Z</time>
      </trkpt>
      <trkpt lat="53.12968" lon="7.2881">
        <ele>50.792</ele>
        <time>2020-07-07T14:34:04Z</time>
      </trkpt>
      <trkpt lat="53.12965" lon="7.28847">
        <ele>51.162</ele>
        <time>2020-07-07T14:34:10Z</time>
      </trkpt>
      <trkpt lat="53.12961" lon="7.28883">
        <ele>52.089</ele>
        <time>2020-07-07T14:34:16Z</time>
      </trkpt>
      <trkpt lat="53.12958" lon="7.28913">
        <ele>52.855</ele>
        <time>2020-07-07T14:34:21Z</time>
      </trkpt>
      <trkpt lat="53.12953" lon="7.28947">
        <ele>53.403</ele>
        <time>2020-07-07T14:34:27Z</time>
      </trkpt>
      <trkpt lat="53.12948" lon="7.28973">
        <ele>54.441</ele>
        <time>2020-07-07T14:34:32Z</time>
      </trkpt>
      <trkpt lat="53.12943" lon="7.29008">
        <ele>55.019</ele>
        <time>2020-07-07T14:34:38Z</time>
      </trkpt>
      <trkpt lat="53.12941" lon="7.29039">
        <ele>56.088</ele>
        <time>2020-07-07T14:34:43Z</time>
      </trkpt>
      <trkpt lat="53.12941" lon="7.29077">
        <ele>55.954</ele>
        <time>2020-07-07T14:34:49Z</time>
      </trkpt>
      <trkpt lat="53.12938" lon="7.29116">
        <ele>54.625</ele>
        <time>2020-07-07T14:34:55Z</time>
      </trkpt>
      <trkpt lat="53.12938" lon="7.29167">
        <ele>55.289</ele>
        <time>2020-07-07T14:35:01Z</time>
      </trkpt>
      <trkpt lat="53.12936" lon="7.29209">
        <ele>55.987</ele>
        <time>2020-07-07T14:35:06Z</time>
      </trkpt>
      <trkpt lat="53.12931" lon="7.29258">
        <ele>56.813</ele>
        <time>2020-07-07T14:35:12Z</time>
      </trkpt>
      <trkpt lat="53.12927" lon="7.29305">
        <ele>55.999</ele>
        <time>2020-07-07T14:35:18Z</time>
      </trkpt>
      <trkpt lat="53.12923" lon="7.2934">
        <ele>55.948</ele>
        <time>2020-07-07T14:35:23Z</time>
      </trkpt>
      <trkpt lat="53.12916" lon="7.29384">
        <ele>56.588</ele>
        <time>2020-07-07T14:35:29Z</time>
      </trkpt>
      <trkpt lat="53.12909" lon="7.29426">
        <ele>56.786</ele>
        <time>2020-07-07T14:35:35Z</time>
      </trkpt>
      <trkpt lat="53.12902" lon="7.29473">
        <ele>55.51</ele>
        <time>2020-07-07T14:35:41Z</time>
      </trkpt>
      <trkpt lat="53.12896" lon="7.29518">
        <ele>52.898</ele>
        <time>2020-07-07T14:35:47Z</time>
      </trkpt>
      <trkpt lat="53.1289" lon="7.29552">
        <ele>51.853</ele>
        <time>2020-07-07T14:35:52Z</time>
      </trkpt>
      <trkpt lat="53.12887" lon="7.29588">
        <ele>51.013</ele>
        <time>2020-07-07T14:35:58Z</time>
      </trkpt>
      <trkpt lat="53.12907" lon="7.29608">
        <ele>50.382</ele>
        <time>2020-07-07T14:36:04Z</time>
      </trkpt>
      <trkpt lat="53.12929" lon="7.29616">
        <ele>50.867</ele>
        <time>2020-07-07T14:36:10Z</time>
      </trkpt>
      <trkpt lat="53.12948" lon="7.2962">
        <ele>51.086</ele>
        <time>2020-07-07T14:36:15Z</time>
      </trkpt>
      <trkpt lat="53.12969" lon="7.29628">
        <ele>51.144</ele>
        <time>2020-07-07T14:36:20Z</time>
      </trkpt>
      <trkpt lat="53.12991" lon="7.29635">
        <ele>51.63</ele>
        <time>2020-07-07T14:36:25Z</time>
      </trkpt>
      <trkpt lat="53.1301" lon="7.29642">
        <ele>51.828</ele>
        <time>2020-07-07T14:36:30Z</time>
      </trkpt>
      <trkpt lat="53.13032" lon="7.29649">
        <ele>52.674</ele>
        <time>2020-07-07T14:36:36Z</time>
      </trkpt>
      <trkpt lat="53.13049" lon="7.29652">
        <ele>53.661</ele>
        <time>2020-07-07T14:36:41Z</time>
      </trkpt>
      <trkpt lat="53.13067" lon="7.29657">
        <ele>54.284</ele>
        <time>2020-07-07T14:36:46Z</time>
      </trkpt>
      <trkpt lat="53.13086" lon="7.29661">
        <ele>53.728</ele>
        <time>2020-07-07T14:36:51Z</time>
      </trkpt>
      <trkpt lat="53.13104" lon="7.29665">
        <ele>54.621</ele>
        <time>2020-07-07T14:36:56Z</time>
      </trkpt>
      <trkpt lat="53.13125" lon="7.2967">
        <ele>56.157</ele>
        <time>2020-07-07T14:37:02Z</time>
      </trkpt>
      <trkpt lat="53.13142" lon="7.29671">
        <ele>57.73</ele>
        <time>2020-07-07T14:37:07Z</time>
      </trkpt>
      <trkpt lat="53.13164" lon="7.29674">
        <ele>59.074</ele>
        <time>2020-07-07T14:37:13Z</time>
      </trkpt>
      <trkpt lat="53.13185" lon="7.29676">
        <ele>59.197</ele>
        <time>2020-07-07T14:37:19Z</time>
      </trkpt>
      <trkpt lat="53.13205" lon="7.29678">
        <ele>61.029</ele>
        <time>2020-07-07T14:37:25Z</time>
      </trkpt>
      <trkpt lat="53.13227" lon="7.29679">
        <ele>61.494</ele>
        <time>2020-07-07T14:37:31Z</time>
      </trkpt>
      <trkpt lat="53.13245" lon="7.2968">
        <ele>61.376</ele>
        <time>2020-07-07T14:37:36Z</time>
      </trkpt>
      <trkpt lat="53.13265" lon="7.29683">
        <ele>61.842</ele>
        <time>2020-07-07T14:37:42Z</time>
      </trkpt>
      <trkpt lat="53.13289" lon="7.29688">
        <ele>61.834</ele>
        <time>2020-07-07T14:37:48Z</time>
      </trkpt>
      <trkpt lat="53.13311" lon="7.29692">
        <ele>60.463</ele>
        <time>2020-07-07T14:37:54Z</time>
      </trkpt>
      <trkpt lat="53.1333" lon="7.29694">
        <ele>60.059</ele>
        <time>2020-07-07T14:37:59Z</time>
      </trkpt>
      <trkpt lat="53.13351" lon="7.29697">
        <ele>60.061</ele>
        <time>2020-07-07T14:38:05Z</time>
      </trkpt>
      <trkpt lat="53.1337" lon="7.29703">
        <ele>60.593</ele>
        <time>2020-07-07T14:38:10Z</time>
      </trkpt>
      <trkpt lat="53.13388" lon="7.29719">
        <ele>57.57</ele>
        <time>2020-07-07T14:38:16Z</time>
      </trkpt>
      <trkpt lat="53.13409" lon="7.29729">
        <ele>55.754</ele>
        <time>2020-07-07T14:38:22Z</time>
      </trkpt>
      <trkpt lat="53.13424" lon="7.29713">
        <ele>55.856</ele>
        <time>2020-07-07T14:38:27Z</time>
      </trkpt>
      <trkpt lat="53.13446" lon="7.29706">
        <ele>55.072</ele>
        <time>2020-07-07T14:38:33Z</time>
      </trkpt>
      <trkpt lat="53.13467" lon="7.29705">
        <ele>55.805</ele>
        <time>2020-07-07T14:38:39Z</time>
      </trkpt>
      <trkpt lat="53.13492" lon="7.29713">
        <ele>55.681</ele>
        <time>2020-07-07T14:38:45Z</time>
      </trkpt>
      <trkpt lat="53.13518" lon="7.29723">
        <ele>54.849</ele>
        <time>2020-07-07T14:38:51Z</time>
      </trkpt>
      <trkpt lat="53.13541" lon="7.29733">
        <ele>53.711</ele>
        <time>2020-07-07T14:38:57Z</time>
      </trkpt>
      <trkpt lat="53.13562" lon="7.29745">
        <ele>52.007</ele>
        <time>2020-07-07T14:39:03Z</time>
      </trkpt>
      <trkpt lat="53.13581" lon="7.29757">
        <ele>50.191</ele>
        <time>2020-07-07T14:39:08Z</time>
      </trkpt>
      <trkpt lat="53.13598" lon="7.29768">
        <ele>48.428</ele>
        <time>2020-07-07T14:39:13Z</time>
      </trkpt>
      <trkpt lat="53.13619" lon="7.29783">
        <ele>46.095</ele>
        <time>2020-07-07T14:39:19Z</time>
      </trkpt>
      <trkpt lat="53.13636" lon="7.29794">
        <ele>45.758</ele>
        <time>2020-07-07T14:39:24Z</time>
      </trkpt>
      <trkpt lat="53.13657" lon="7.29809">
        <ele>45.776</ele>
        <time>2020-07-07T14:39:30Z</time>
      </trkpt>
      <trkpt lat="53.13678" lon="7.2982">
        <ele>46.306</ele>
        <time>2020-07-07T14:39:36Z</time>
      </trkpt>
      <trkpt lat="53.13697" lon="7.29833">
        <ele>46.533</ele>
        <time>2020-07-07T14:39:42Z</time>
      </trkpt>
      <trkpt lat="53.13719" lon="7.29849">
        <ele>47.204</ele>
        <time>2020-07-07T14:39:48Z</time>
      </trkpt>
      <trkpt lat="53.13737" lon="7.2986">
        <ele>46.659</ele>
        <time>2020-07-07T14:39:53Z</time>
      </trkpt>
      <trkpt lat="53.1376" lon="7.29874">
        <ele>46.931</ele>
        <time>2020-07-07T14:39:59Z</time>
      </trkpt>
      <trkpt lat="53.1378" lon="7.29888">
        <ele>48.542</ele>
        <time>2020-07-07T14:40:04Z</time>
      </trkpt>
      <trkpt lat="53.13804" lon="7.29905">
        <ele>48.579</ele>
        <time>2020-07-07T14:40:10Z</time>
      </trkpt>
      <trkpt lat="53.13827" lon="7.2992">
        <ele>50.566</ele>
        <time>2020-07-07T14:40:16Z</time>
      </trkpt>
      <trkpt lat="53.13853" lon="7.29938">
        <ele>52.62</ele>
        <time>2020-07-07T14:40:22Z</time>
      </trkpt>
      <trkpt lat="53.13871" lon="7.29951">
        <ele>54.353</ele>
        <time>2020-07-07T14:40:27Z</time>
      </trkpt>
      <trkpt lat="53.13894" lon="7.29966">
        <ele>53.317</ele>
        <time>2020-07-07T14:40:33Z</time>
      </trkpt>
      <trkpt lat="53.1391" lon="7.29977">
        <ele>52.366</ele>
        <time>2020-07-07T14:40:38Z</time>
      </trkpt>
      <trkpt lat="53.1393" lon="7.29991">
        <ele>52.218</ele>
        <time>2020-07-07T14:40:44Z</time>
      </trkpt>
      <trkpt lat="53.13945" lon="7.3">
        <ele>53.193</ele>
        <time>2020-07-07T14:40:49Z</time>
      </trkpt>
      <trkpt lat="53.13959" lon="7.3001">
        <ele>53.315</ele>
        <time>2020-07-07T14:40:54Z</time>
      </trkpt>
      <trkpt lat="53.13979" lon="7.30028">
        <ele>52.529</ele>
        <time>2020-07-07T14:41:00Z</time>
      </trkpt>
      <trkpt lat="53.14" lon="7.30039">
        <ele>49.545</ele>
        <time>2020-07-07T14:41:06Z</time>
      </trkpt>
      <trkpt lat="53.14025" lon="7.30055">
        <ele>48.88</ele>
        <time>2020-07-07T14:41:12Z</time>
      </trkpt>
      <trkpt lat="53.14047" lon="7.30066">
        <ele>49.48</ele>
        <time>2020-07-07T14:41:18Z</time>
      </trkpt>
      <trkpt lat="53.14069" lon="7.30076">
        <ele>49.112</ele>
        <time>2020-07-07T14:41:24Z</time>
      </trkpt>
      <trkpt lat="53.14089" lon="7.30082">
        <ele>49.21</ele>
        <time>2020-07-07T14:41:30Z</time>
      </trkpt>
      <trkpt lat="53.14105" lon="7.30086">
        <ele>49.781</ele>
        <time>2020-07-07T14:41:35Z</time>
      </trkpt>
      <trkpt lat="53.14123" lon="7.30087">
        <ele>50.101</ele>
        <time>2020-07-07T14:41:41Z</time>
      </trkpt>
      <trkpt lat="53.14141" lon="7.30081">
        <ele>51.273</ele>
        <time>2020-07-07T14:41:47Z</time>
      </trkpt>
      <trkpt lat="53.14156" lon="7.30078">
        <ele>51.734</ele>
        <time>2020-07-07T14:41:52Z</time>
      </trkpt>
      <trkpt lat="53.14173" lon="7.3007">
        <ele>52.868</ele>
        <time>2020-07-07T14:41:57Z</time>
      </trkpt>
      <trkpt lat="53.14192" lon="7.30059">
        <ele>53.847</ele>
        <time>2020-07-07T14:42:02Z</time>
      </trkpt>
      <trkpt lat="53.14208" lon="7.30049">
        <ele>54.736</ele>
        <time>2020-07-07T14:42:07Z</time>
      </trkpt>
      <trkpt lat="53.14225" lon="7.30034">
        <ele>55.537</ele>
        <time>2020-07-07T14:42:13Z</time>
      </trkpt>
      <trkpt lat="53.1424" lon="7.3002">
        <ele>55.014</ele>
        <time>2020-07-07T14:42:19Z</time>
      </trkpt>
      <trkpt lat="53.14253" lon="7.30004">
        <ele>55.118</ele>
        <time>2020-07-07T14:42:24Z</time>
      </trkpt>
      <trkpt lat="53.14268" lon="7.29982">
        <ele>55.326</ele>
        <time>2020-07-07T14:42:30Z</time>
      </trkpt>
      <trkpt lat="53.14281" lon="7.29966">
        <ele>56.123</ele>
        <time>2020-07-07T14:42:35Z</time>
      </trkpt>
      <trkpt lat="53.14295" lon="7.29949">
        <ele>56.913</ele>
        <time>2020-07-07T14:42:41Z</time>
      </trkpt>
      <trkpt lat="53.1431" lon="7.29928">
        <ele>56.77</ele>
        <time>2020-07-07T14:42:47Z</time>
      </trkpt>
      <trkpt lat="53.14321" lon="7.29911">
        <ele>57.232</ele>
        <time>2020-07-07T14:42:52Z</time>
      </trkpt>
      <trkpt lat="53.14338" lon="7.29891">
        <ele>59.212</ele>
        <time>2020-07-07T14:42:58Z</time>
      </trkpt>
      <trkpt lat="53.14351" lon="7.29877">
        <ele>60.496</ele>
        <time>2020-07-07T14:43:03Z</time>
      </trkpt>
      <trkpt lat="53.14365" lon="7.29858">
        <ele>60.526</ele>
        <time>2020-07-07T14:43:09Z</time>
      </trkpt>
      <trkpt lat="53.14377" lon="7.29837">
        <ele>60.364</ele>
        <time>2020-07-07T14:43:14Z</time>
      </trkpt>
      <trkpt lat="53.14395" lon="7.29816">
        <ele>61.467</ele>
        <time>2020-07-07T14:43:20Z</time>
      </trkpt>
      <trkpt lat="53.14417" lon="7.29795">
        <ele>60.636</ele>
        <time>2020-07-07T14:43:26Z</time>
      </trkpt>
      <trkpt lat="53.14431" lon="7.29784">
        <ele>60.598</ele>
        <time>2020-07-07T14:43:31Z</time>
      </trkpt>
      <trkpt lat="53.14453" lon="7.29767">
        <ele>60.425</ele>
        <time>2020-07-07T14:43:37Z</time>
      </trkpt>
      <trkpt lat="53.14475" lon="7.29753">
        <ele>61.266</ele>
        <time>2020-07-07T14:43:43Z</time>
      </trkpt>
      <trkpt lat="53.14498" lon="7.29743">
        <ele>62.924</ele>
        <time>2020-07-07T14:43:49Z</time>
      </trkpt>
      <trkpt lat="53.14516" lon="7.2974">
        <ele>64.035</ele>
        <time>2020-07-07T14:43:54Z</time>
      </trkpt>
      <trkpt lat="53.14538" lon="7.2974">
        <ele>64.529</ele>
        <time>2020-07-07T14:44:00Z</time>
      </trkpt>
      <trkpt lat="53.14562" lon="7.29745">
        <ele>64.268</ele>
        <time>2020-07-07T14:44:05Z</time>
      </trkpt>
      <trkpt lat="53.14585" lon="7.29752">
        <ele>63.479</ele>
        <time>2020-07-07T14:44:10Z</time>
      </trkpt>
      <trkpt lat="53.14606" lon="7.2976">
        <ele>63.302</ele>
        <time>2020-07-07T14:44:15Z</time>
      </trkpt>
      <trkpt lat="53.14625" lon="7.2977">
        <ele>61.502</ele>
        <time>2020-07-07T14:44:21Z</time>
      </trkpt>
      <trkpt lat="53.14648" lon="7.29779">
        <ele>59.381</ele>
        <time>2020-07-07T14:44:26Z</time>
      </trkpt>
      <trkpt lat="53.14673" lon="7.29799">
        <ele>59.971</ele>
        <time>2020-07-07T14:44:32Z</time>
      </trkpt>
      <trkpt lat="53.14696" lon="7.29813">
        <ele>59.564</ele>
        <time>2020-07-07T14:44:38Z</time>
      </trkpt>
      <trkpt lat="53.14714" lon="7.29822">
        <ele>60.198</ele>
        <time>2020-07-07T14:44:43Z</time>
      </trkpt>
      <trkpt lat="53.14737" lon="7.29834">
        <ele>61.74</ele>
        <time>2020-07-07T14:44:49Z</time>
      </trkpt>
      <trkpt lat="53.14756" lon="7.29841">
        <ele>62.27</ele>
        <time>2020-07-07T14:44:54Z</time>
      </trkpt>
      <trkpt lat="53.14773" lon="7.2985">
        <ele>61.725</ele>
        <time>2020-07-07T14:45:00Z</time>
      </trkpt>
      <trkpt lat="53.14792" lon="7.29863">
        <ele>60.606</ele>
        <time>2020-07-07T14:45:05Z</time>
      </trkpt>
      <trkpt lat="53.1481" lon="7.29872">
        <ele>58.109</ele>
        <time>2020-07-07T14:45:10Z</time>
      </trkpt>
      <trkpt lat="53.14829" lon="7.2988">
        <ele>57.603</ele>
        <time>2020-07-07T14:45:15Z</time>
      </trkpt>
      <trkpt lat="53.14849" lon="7.29887">
        <ele>56.543</ele>
        <time>2020-07-07T14:45:21Z</time>
      </trkpt>
      <trkpt lat="53.14868" lon="7.29893">
        <ele>55.368</ele>
        <time>2020-07-07T14:45:26Z</time>
      </trkpt>
      <trkpt lat="53.14891" lon="7.29899">
        <ele>55.999</ele>
        <time>2020-07-07T14:45:32Z</time>
      </trkpt>
      <trkpt lat="53.14912" lon="7.29903">
        <ele>56.741</ele>
        <time>2020-07-07T14:45:37Z</time>
      </trkpt>
      <trkpt lat="53.14937" lon="7.29907">
        <ele>55.855</ele>
        <time>2020-07-07T14:45:43Z</time>
      </trkpt>
      <trkpt lat="53.14958" lon="7.29909">
        <ele>56.133</ele>
        <time>2020-07-07T14:45:49Z</time>
      </trkpt>
      <trkpt lat="53.14977" lon="7.29911">
        <ele>56.242</ele>
        <time>2020-07-07T14:45:54Z</time>
      </trkpt>
      <trkpt lat="53.14995" lon="7.29913">
        <ele>56.575</ele>
        <time>2020-07-07T14:46:00Z</time>
      </trkpt>
      <trkpt lat="53.15016" lon="7.29915">
        <ele>56.787</ele>
        <time>2020-07-07T14:46:06Z</time>
      </trkpt>
      <trkpt lat="53.15037" lon="7.29921">
        <ele>56.363</ele>
        <time>2020-07-07T14:46:11Z</time>
      </trkpt>
      <trkpt lat="53.15063" lon="7.29925">
        <ele>54.751</ele>
        <time>2020-07-07T14:46:17Z</time>
      </trkpt>
      <trkpt lat="53.15084" lon="7.29927">
        <ele>54.32</ele>
        <time>2020-07-07T14:46:22Z</time>
      </trkpt>
      <trkpt lat="53.1511" lon="7.29931">
        <ele>53.497</ele>
        <time>2020-07-07T14:46:28Z</time>
      </trkpt>
      <trkpt lat="53.1513" lon="7.29933">
        <ele>53.027</ele>
        <time>2020-07-07T14:46:33Z</time>
      </trkpt>
      <trkpt lat="53.15149" lon="7.29936">
        <ele>53.385</ele>
        <time>2020-07-07T14:46:38Z</time>
      </trkpt>
      <trkpt lat="53.15172" lon="7.29941">
        <ele>53.735</ele>
        <time>2020-07-07T14:46:44Z</time>
      </trkpt>
      <trkpt lat="53.15195" lon="7.29946">
        <ele>54.424</ele>
        <time>2020-07-07T14:46:50Z</time>
      </trkpt>
      <trkpt lat="53.15216" lon="7.29951">
        <ele>54.873</ele>
        <time>2020-07-07T14:46:56Z</time>
      </trkpt>
      <trkpt lat="53.15234" lon="7.29954">
        <ele>54.474</ele>
        <time>2020-07-07T14:47:01Z</time>
      </trkpt>
      <trkpt lat="53.15255" lon="7.2996">
        <ele>53.98</ele>
        <time>2020-07-07T14:47:07Z</time>
      </trkpt>
      <trkpt lat="53.15274" lon="7.29965">
        <ele>53.771</ele>
        <time>2020-07-07T14:47:12Z</time>
      </trkpt>
      <trkpt lat="53.15293" lon="7.29967">
        <ele>53.718</ele>
        <time>2020-07-07T14:47:17Z</time>
      </trkpt>
      <trkpt lat="53.15318" lon="7.29971">
        <ele>53.049</ele>
        <time>2020-07-07T14:47:23Z</time>
      </trkpt>
      <trkpt lat="53.15338" lon="7.29971">
        <ele>52.878</ele>
        <time>2020-07-07T14:47:28Z</time>
      </trkpt>
      <trkpt lat="53.1536" lon="7.29969">
        <ele>52.942</ele>
        <time>2020-07-07T14:47:34Z</time>
      </trkpt>
      <trkpt lat="53.15378" lon="7.29962">
        <ele>52.626</ele>
        <time>2020-07-07T14:47:39Z</time>
      </trkpt>
      <trkpt lat="53.15392" lon="7.29955">
        <ele>53.76</ele>
        <time>2020-07-07T14:47:45Z</time>
      </trkpt>
      <trkpt lat="53.15409" lon="7.29947">
        <ele>53.843</ele>
        <time>2020-07-07T14:47:51Z</time>
      </trkpt>
      <trkpt lat="53.15425" lon="7.29935">
        <ele>56.66</ele>
        <time>2020-07-07T14:47:56Z</time>
      </trkpt>
      <trkpt lat="53.15442" lon="7.29922">
        <ele>58.021</ele>
        <time>2020-07-07T14:48:02Z</time>
      </trkpt>
      <trkpt lat="53.15461" lon="7.29907">
        <ele>57.848</ele>
        <time>2020-07-07T14:48:08Z</time>
      </trkpt>
      <trkpt lat="53.15476" lon="7.29895">
        <ele>57.399</ele>
        <time>2020-07-07T14:48:13Z</time>
      </trkpt>
      <trkpt lat="53.15494" lon="7.29873">
        <ele>57.77</ele>
        <time>2020-07-07T14:48:19Z</time>
      </trkpt>
      <trkpt lat="53.15514" lon="7.29854">
        <ele>58.39</ele>
        <time>2020-07-07T14:48:25Z</time>
      </trkpt>
      <trkpt lat="53.15537" lon="7.29832">
        <ele>57.627</ele>
        <time>2020-07-07T14:48:31Z</time>
      </trkpt>
      <trkpt lat="53.15558" lon="7.29819">
        <ele>57.604</ele>
        <time>2020-07-07T14:48:36Z</time>
      </trkpt>
      <trkpt lat="53.15578" lon="7.29812">
        <ele>57.037</ele>
        <time>2020-07-07T14:48:41Z</time>
      </trkpt>
      <trkpt lat="53.15602" lon="7.29809">
        <ele>56.677</ele>
        <time>2020-07-07T14:48:47Z</time>
      </trkpt>
      <trkpt lat="53.15622" lon="7.29813">
        <ele>56.365</ele>
        <time>2020-07-07T14:48:52Z</time>
      </trkpt>
      <trkpt lat="53.15647" lon="7.29818">
        <ele>55.263</ele>
        <time>2020-07-07T14:48:58Z</time>
      </trkpt>
      <trkpt lat="53.15666" lon="7.29825">
        <ele>54.485</ele>
        <time>2020-07-07T14:49:03Z</time>
      </trkpt>
      <trkpt lat="53.15689" lon="7.29834">
        <ele>53.193</ele>
        <time>2020-07-07T14:49:09Z</time>
      </trkpt>
      <trkpt lat="53.15707" lon="7.29841">
        <ele>51.676</ele>
        <time>2020-07-07T14:49:14Z</time>
      </trkpt>
      <trkpt lat="53.15725" lon="7.29851">
        <ele>51.398</ele>
        <time>2020-07-07T14:49:19Z</time>
      </trkpt>
      <trkpt lat="53.15747" lon="7.29861">
        <ele>52.022</ele>
        <time>2020-07-07T14:49:26Z</time>
      </trkpt>
      <trkpt lat="53.15769" lon="7.29871">
        <ele>52.237</ele>
        <time>2020-07-07T14:49:31Z</time>
      </trkpt>
      <trkpt lat="53.15792" lon="7.2988">
        <ele>52.761</ele>
        <time>2020-07-07T14:49:37Z</time>
      </trkpt>
      <trkpt lat="53.15809" lon="7.29884">
        <ele>52.412</ele>
        <time>2020-07-07T14:49:42Z</time>
      </trkpt>
      <trkpt lat="53.15827" lon="7.29887">
        <ele>52.196</ele>
        <time>2020-07-07T14:49:47Z</time>
      </trkpt>
      <trkpt lat="53.15849" lon="7.29886">
        <ele>51.658</ele>
        <time>2020-07-07T14:49:53Z</time>
      </trkpt>
      <trkpt lat="53.15868" lon="7.29885">
        <ele>51.543</ele>
        <time>2020-07-07T14:49:58Z</time>
      </trkpt>
      <trkpt lat="53.15888" lon="7.29884">
        <ele>51.528</ele>
        <time>2020-07-07T14:50:04Z</time>
      </trkpt>
      <trkpt lat="53.15903" lon="7.2989">
        <ele>51.359</ele>
        <time>2020-07-07T14:50:09Z</time>
      </trkpt>
      <trkpt lat="53.15904" lon="7.29922">
        <ele>50.953</ele>
        <time>2020-07-07T14:50:15Z</time>
      </trkpt>
      <trkpt lat="53.15905" lon="7.29949">
        <ele>50.073</ele>
        <time>2020-07-07T14:50:20Z</time>
      </trkpt>
      <trkpt lat="53.15909" lon="7.29981">
        <ele>49.517</ele>
        <time>2020-07-07T14:50:26Z</time>
      </trkpt>
      <trkpt lat="53.15912" lon="7.30007">
        <ele>48.995</ele>
        <time>2020-07-07T14:50:31Z</time>
      </trkpt>
      <trkpt lat="53.15916" lon="7.30039">
        <ele>49.569</ele>
        <time>2020-07-07T14:50:37Z</time>
      </trkpt>
      <trkpt lat="53.15921" lon="7.30074">
        <ele>50.993</ele>
        <time>2020-07-07T14:50:43Z</time>
      </trkpt>
      <trkpt lat="53.15925" lon="7.30113">
        <ele>51.358</ele>
        <time>2020-07-07T14:50:49Z</time>
      </trkpt>
      <trkpt lat="53.1593" lon="7.30157">
        <ele>50.262</ele>
        <time>2020-07-07T14:50:55Z</time>
      </trkpt>
      <trkpt lat="53.15934" lon="7.30194">
        <ele>49.897</ele>
        <time>2020-07-07T14:51:01Z</time>
      </trkpt>
      <trkpt lat="53.15936" lon="7.30225">
        <ele>49.743</ele>
        <time>2020-07-07T14:51:06Z</time>
      </trkpt>
      <trkpt lat="53.15938" lon="7.30258">
        <ele>49.717</ele>
        <time>2020-07-07T14:51:11Z</time>
      </trkpt>
      <trkpt lat="53.15942" lon="7.30299">
        <ele>50.039</ele>
        <time>2020-07-07T14:51:17Z</time>
      </trkpt>
      <trkpt lat="53.15946" lon="7.30335">
        <ele>50.486</ele>
        <time>2020-07-07T14:51:23Z</time>
      </trkpt>
      <trkpt lat="53.1595" lon="7.30368">
        <ele>51.445</ele>
        <time>2020-07-07T14:51:28Z</time>
      </trkpt>
      <trkpt lat="53.15955" lon="7.30401">
        <ele>52.404</ele>
        <time>2020-07-07T14:51:33Z</time>
      </trkpt>
      <trkpt lat="53.15957" lon="7.3044">
        <ele>55.658</ele>
        <time>2020-07-07T14:51:39Z</time>
      </trkpt>
      <trkpt lat="53.15962" lon="7.30466">
        <ele>56.688</ele>
        <time>2020-07-07T14:51:45Z</time>
      </trkpt>
      <trkpt lat="53.15975" lon="7.3047">
        <ele>57.754</ele>
        <time>2020-07-07T14:51:50Z</time>
      </trkpt>
      <trkpt lat="53.15988" lon="7.30465">
        <ele>59.82</ele>
        <time>2020-07-07T14:51:56Z</time>
      </trkpt>
      <trkpt lat="53.15999" lon="7.30465">
        <ele>59.661</ele>
        <time>2020-07-07T14:52:01Z</time>
      </trkpt>
      <trkpt lat="53.16008" lon="7.30462">
        <ele>60.883</ele>
        <time>2020-07-07T14:52:07Z</time>
      </trkpt>
      <trkpt lat="53.1602" lon="7.30459">
        <ele>60.228</ele>
        <time>2020-07-07T14:52:12Z</time>
      </trkpt>
      <trkpt lat="53.1603" lon="7.30461">
        <ele>57.91</ele>
        <time>2020-07-07T14:52:17Z</time>
      </trkpt>
      <trkpt lat="53.16034" lon="7.30462">
        <ele>56.521</ele>
        <time>2020-07-07T14:52:23Z</time>
      </trkpt>
      <trkpt lat="53.16034" lon="7.30462">
        <ele>56.521</ele>
        <time>2020-07-07T14:52:29Z</time>
      </trkpt>
      <trkpt lat="53.16034" lon="7.30462">
        <ele>56.521</ele>
        <time>2020-07-07T14:52:35Z</time>
      </trkpt>
      <trkpt lat="53.16034" lon="7.30462">
        <ele>56.521</ele>
        <time>2020-07-07T14:52:41Z</time>
      </trkpt>
      <trkpt lat="53.16034" lon="7.30462">
        <ele>56.521</ele>
        <time>2020-07-07T14:52:46Z</time>
      </trkpt>
      <trkpt lat="53.16034" lon="7.30462">
        <ele>56.521</ele>
        <time>2020-07-07T14:52:52Z</time>
      </trkpt>
      <trkpt lat="53.16034" lon="7.30462">
        <ele>56.521</ele>
        <time>2020-07-07T14:52:58Z</time>
      </trkpt>
    </trkseg>
  </trk>
</gpx>